<?xml version="1.0" encoding="UTF-8" standalone="no" ?>
<gpx xmlns="http://www.topografix.com/GPX/1/1" xmlns:xsi="http://www.w3.org/2001/XMLSchema-instance" xsi:schemaLocation="http://www.topografix.com/GPX/1/1 http://www.topografix.com/GPX/1/1/gpx.xsd" version="1.1" creator="VisuGPX - https://www.visugpx.com">
  <metadata>
    <name>Les statues vignerones de Montagnac </name>
    <desc><![CDATA[A découvrir]]></desc>
  </metadata>
  <trk>
    <name><![CDATA[track]]></name>
    <trkseg>
      <trkpt lat="43.47566" lon="3.48564">
        <ele>33</ele>
        <time>2012-01-29T08:00:33Z</time>
      </trkpt>
      <trkpt lat="43.47565" lon="3.48565">
        <ele>33</ele>
        <time>2012-01-29T08:00:34Z</time>
      </trkpt>
      <trkpt lat="43.47561" lon="3.48574">
        <ele>33</ele>
        <time>2012-01-29T08:00:41Z</time>
      </trkpt>
      <trkpt lat="43.4756" lon="3.48579">
        <ele>34</ele>
        <time>2012-01-29T08:00:45Z</time>
      </trkpt>
      <trkpt lat="43.47558" lon="3.48583">
        <ele>34</ele>
        <time>2012-01-29T08:00:48Z</time>
      </trkpt>
      <trkpt lat="43.47557" lon="3.48588">
        <ele>34</ele>
        <time>2012-01-29T08:00:51Z</time>
      </trkpt>
      <trkpt lat="43.47556" lon="3.48593">
        <ele>35</ele>
        <time>2012-01-29T08:00:54Z</time>
      </trkpt>
      <trkpt lat="43.47554" lon="3.48598">
        <ele>35</ele>
        <time>2012-01-29T08:00:57Z</time>
      </trkpt>
      <trkpt lat="43.47552" lon="3.48602">
        <ele>35</ele>
        <time>2012-01-29T08:01:00Z</time>
      </trkpt>
      <trkpt lat="43.4755" lon="3.48607">
        <ele>35</ele>
        <time>2012-01-29T08:01:03Z</time>
      </trkpt>
      <trkpt lat="43.47547" lon="3.48611">
        <ele>35</ele>
        <time>2012-01-29T08:01:06Z</time>
      </trkpt>
      <trkpt lat="43.47545" lon="3.48614">
        <ele>35</ele>
        <time>2012-01-29T08:01:09Z</time>
      </trkpt>
      <trkpt lat="43.47542" lon="3.48617">
        <ele>36</ele>
        <time>2012-01-29T08:01:12Z</time>
      </trkpt>
      <trkpt lat="43.47539" lon="3.48621">
        <ele>35</ele>
        <time>2012-01-29T08:01:15Z</time>
      </trkpt>
      <trkpt lat="43.47535" lon="3.48625">
        <ele>35</ele>
        <time>2012-01-29T08:01:18Z</time>
      </trkpt>
      <trkpt lat="43.47532" lon="3.48628">
        <ele>36</ele>
        <time>2012-01-29T08:01:21Z</time>
      </trkpt>
      <trkpt lat="43.47529" lon="3.48631">
        <ele>36</ele>
        <time>2012-01-29T08:01:24Z</time>
      </trkpt>
      <trkpt lat="43.47526" lon="3.48634">
        <ele>36</ele>
        <time>2012-01-29T08:01:27Z</time>
      </trkpt>
      <trkpt lat="43.47523" lon="3.48636">
        <ele>37</ele>
        <time>2012-01-29T08:01:30Z</time>
      </trkpt>
      <trkpt lat="43.4752" lon="3.48638">
        <ele>38</ele>
        <time>2012-01-29T08:01:33Z</time>
      </trkpt>
      <trkpt lat="43.47516" lon="3.48641">
        <ele>37</ele>
        <time>2012-01-29T08:01:36Z</time>
      </trkpt>
      <trkpt lat="43.47515" lon="3.48641">
        <ele>37</ele>
        <time>2012-01-29T08:01:37Z</time>
      </trkpt>
      <trkpt lat="43.47509" lon="3.48645">
        <ele>38</ele>
        <time>2012-01-29T08:01:43Z</time>
      </trkpt>
      <trkpt lat="43.47506" lon="3.48647">
        <ele>38</ele>
        <time>2012-01-29T08:01:47Z</time>
      </trkpt>
      <trkpt lat="43.47502" lon="3.48649">
        <ele>39</ele>
        <time>2012-01-29T08:01:51Z</time>
      </trkpt>
      <trkpt lat="43.47498" lon="3.48651">
        <ele>39</ele>
        <time>2012-01-29T08:01:55Z</time>
      </trkpt>
      <trkpt lat="43.47494" lon="3.48652">
        <ele>39</ele>
        <time>2012-01-29T08:01:58Z</time>
      </trkpt>
      <trkpt lat="43.47491" lon="3.48653">
        <ele>40</ele>
        <time>2012-01-29T08:02:01Z</time>
      </trkpt>
      <trkpt lat="43.47487" lon="3.48654">
        <ele>40</ele>
        <time>2012-01-29T08:02:05Z</time>
      </trkpt>
      <trkpt lat="43.47483" lon="3.48654">
        <ele>41</ele>
        <time>2012-01-29T08:02:09Z</time>
      </trkpt>
      <trkpt lat="43.47479" lon="3.48654">
        <ele>40</ele>
        <time>2012-01-29T08:02:12Z</time>
      </trkpt>
      <trkpt lat="43.47475" lon="3.48655">
        <ele>41</ele>
        <time>2012-01-29T08:02:16Z</time>
      </trkpt>
      <trkpt lat="43.47471" lon="3.48658">
        <ele>42</ele>
        <time>2012-01-29T08:02:21Z</time>
      </trkpt>
      <trkpt lat="43.47468" lon="3.48662">
        <ele>43</ele>
        <time>2012-01-29T08:02:25Z</time>
      </trkpt>
      <trkpt lat="43.47465" lon="3.48663">
        <ele>43</ele>
        <time>2012-01-29T08:02:28Z</time>
      </trkpt>
      <trkpt lat="43.47462" lon="3.48666">
        <ele>43</ele>
        <time>2012-01-29T08:02:32Z</time>
      </trkpt>
      <trkpt lat="43.47458" lon="3.4867">
        <ele>43</ele>
        <time>2012-01-29T08:02:36Z</time>
      </trkpt>
      <trkpt lat="43.47455" lon="3.48673">
        <ele>44</ele>
        <time>2012-01-29T08:02:40Z</time>
      </trkpt>
      <trkpt lat="43.47454" lon="3.48674">
        <ele>44</ele>
        <time>2012-01-29T08:02:41Z</time>
      </trkpt>
      <trkpt lat="43.47449" lon="3.48681">
        <ele>45</ele>
        <time>2012-01-29T08:02:48Z</time>
      </trkpt>
      <trkpt lat="43.47445" lon="3.48684">
        <ele>45</ele>
        <time>2012-01-29T08:02:52Z</time>
      </trkpt>
      <trkpt lat="43.47442" lon="3.48688">
        <ele>46</ele>
        <time>2012-01-29T08:02:56Z</time>
      </trkpt>
      <trkpt lat="43.47438" lon="3.48692">
        <ele>46</ele>
        <time>2012-01-29T08:03:00Z</time>
      </trkpt>
      <trkpt lat="43.47435" lon="3.48695">
        <ele>46</ele>
        <time>2012-01-29T08:03:04Z</time>
      </trkpt>
      <trkpt lat="43.47431" lon="3.48699">
        <ele>46</ele>
        <time>2012-01-29T08:03:08Z</time>
      </trkpt>
      <trkpt lat="43.47429" lon="3.48702">
        <ele>47</ele>
        <time>2012-01-29T08:03:11Z</time>
      </trkpt>
      <trkpt lat="43.47426" lon="3.48704">
        <ele>49</ele>
        <time>2012-01-29T08:03:14Z</time>
      </trkpt>
      <trkpt lat="43.47422" lon="3.48708">
        <ele>48</ele>
        <time>2012-01-29T08:03:18Z</time>
      </trkpt>
      <trkpt lat="43.47419" lon="3.48712">
        <ele>48</ele>
        <time>2012-01-29T08:03:22Z</time>
      </trkpt>
      <trkpt lat="43.47416" lon="3.48714">
        <ele>49</ele>
        <time>2012-01-29T08:03:25Z</time>
      </trkpt>
      <trkpt lat="43.47413" lon="3.48718">
        <ele>49</ele>
        <time>2012-01-29T08:03:28Z</time>
      </trkpt>
      <trkpt lat="43.4741" lon="3.48721">
        <ele>50</ele>
        <time>2012-01-29T08:03:32Z</time>
      </trkpt>
      <trkpt lat="43.47407" lon="3.48726">
        <ele>50</ele>
        <time>2012-01-29T08:03:36Z</time>
      </trkpt>
      <trkpt lat="43.47404" lon="3.4873">
        <ele>50</ele>
        <time>2012-01-29T08:03:40Z</time>
      </trkpt>
      <trkpt lat="43.47401" lon="3.48734">
        <ele>50</ele>
        <time>2012-01-29T08:03:44Z</time>
      </trkpt>
      <trkpt lat="43.474" lon="3.48735">
        <ele>51</ele>
        <time>2012-01-29T08:03:45Z</time>
      </trkpt>
      <trkpt lat="43.47396" lon="3.48743">
        <ele>51</ele>
        <time>2012-01-29T08:03:52Z</time>
      </trkpt>
      <trkpt lat="43.47394" lon="3.48748">
        <ele>52</ele>
        <time>2012-01-29T08:03:56Z</time>
      </trkpt>
      <trkpt lat="43.47392" lon="3.48753">
        <ele>53</ele>
        <time>2012-01-29T08:04:00Z</time>
      </trkpt>
      <trkpt lat="43.4739" lon="3.48758">
        <ele>53</ele>
        <time>2012-01-29T08:04:04Z</time>
      </trkpt>
      <trkpt lat="43.47389" lon="3.48763">
        <ele>54</ele>
        <time>2012-01-29T08:04:08Z</time>
      </trkpt>
      <trkpt lat="43.47387" lon="3.48768">
        <ele>54</ele>
        <time>2012-01-29T08:04:12Z</time>
      </trkpt>
      <trkpt lat="43.47385" lon="3.48773">
        <ele>54</ele>
        <time>2012-01-29T08:04:16Z</time>
      </trkpt>
      <trkpt lat="43.47383" lon="3.48778">
        <ele>54</ele>
        <time>2012-01-29T08:04:20Z</time>
      </trkpt>
      <trkpt lat="43.47382" lon="3.48783">
        <ele>55</ele>
        <time>2012-01-29T08:04:23Z</time>
      </trkpt>
      <trkpt lat="43.4738" lon="3.48787">
        <ele>55</ele>
        <time>2012-01-29T08:04:26Z</time>
      </trkpt>
      <trkpt lat="43.47378" lon="3.48791">
        <ele>55</ele>
        <time>2012-01-29T08:04:29Z</time>
      </trkpt>
      <trkpt lat="43.47376" lon="3.48797">
        <ele>56</ele>
        <time>2012-01-29T08:04:33Z</time>
      </trkpt>
      <trkpt lat="43.47374" lon="3.48802">
        <ele>56</ele>
        <time>2012-01-29T08:04:37Z</time>
      </trkpt>
      <trkpt lat="43.47372" lon="3.48806">
        <ele>57</ele>
        <time>2012-01-29T08:04:40Z</time>
      </trkpt>
      <trkpt lat="43.4737" lon="3.4881">
        <ele>57</ele>
        <time>2012-01-29T08:04:43Z</time>
      </trkpt>
      <trkpt lat="43.47368" lon="3.48814">
        <ele>57</ele>
        <time>2012-01-29T08:04:46Z</time>
      </trkpt>
      <trkpt lat="43.47367" lon="3.48815">
        <ele>57</ele>
        <time>2012-01-29T08:04:47Z</time>
      </trkpt>
      <trkpt lat="43.47364" lon="3.48822">
        <ele>57</ele>
        <time>2012-01-29T08:04:52Z</time>
      </trkpt>
      <trkpt lat="43.47362" lon="3.48826">
        <ele>58</ele>
        <time>2012-01-29T08:04:55Z</time>
      </trkpt>
      <trkpt lat="43.4736" lon="3.4883">
        <ele>58</ele>
        <time>2012-01-29T08:04:58Z</time>
      </trkpt>
      <trkpt lat="43.47358" lon="3.48834">
        <ele>58</ele>
        <time>2012-01-29T08:05:01Z</time>
      </trkpt>
      <trkpt lat="43.47356" lon="3.48838">
        <ele>58</ele>
        <time>2012-01-29T08:05:04Z</time>
      </trkpt>
      <trkpt lat="43.47353" lon="3.48842">
        <ele>57</ele>
        <time>2012-01-29T08:05:07Z</time>
      </trkpt>
      <trkpt lat="43.47351" lon="3.48846">
        <ele>57</ele>
        <time>2012-01-29T08:05:11Z</time>
      </trkpt>
      <trkpt lat="43.47347" lon="3.4885">
        <ele>58</ele>
        <time>2012-01-29T08:05:15Z</time>
      </trkpt>
      <trkpt lat="43.47345" lon="3.48854">
        <ele>59</ele>
        <time>2012-01-29T08:05:19Z</time>
      </trkpt>
      <trkpt lat="43.47342" lon="3.48857">
        <ele>59</ele>
        <time>2012-01-29T08:05:23Z</time>
      </trkpt>
      <trkpt lat="43.47339" lon="3.4886">
        <ele>59</ele>
        <time>2012-01-29T08:05:26Z</time>
      </trkpt>
      <trkpt lat="43.47337" lon="3.48863">
        <ele>59</ele>
        <time>2012-01-29T08:05:29Z</time>
      </trkpt>
      <trkpt lat="43.47334" lon="3.48866">
        <ele>59</ele>
        <time>2012-01-29T08:05:32Z</time>
      </trkpt>
      <trkpt lat="43.47331" lon="3.4887">
        <ele>59</ele>
        <time>2012-01-29T08:05:36Z</time>
      </trkpt>
      <trkpt lat="43.47327" lon="3.48874">
        <ele>59</ele>
        <time>2012-01-29T08:05:40Z</time>
      </trkpt>
      <trkpt lat="43.47324" lon="3.48877">
        <ele>59</ele>
        <time>2012-01-29T08:05:43Z</time>
      </trkpt>
      <trkpt lat="43.47321" lon="3.48881">
        <ele>58</ele>
        <time>2012-01-29T08:05:47Z</time>
      </trkpt>
      <trkpt lat="43.4732" lon="3.48882">
        <ele>58</ele>
        <time>2012-01-29T08:05:48Z</time>
      </trkpt>
      <trkpt lat="43.47315" lon="3.48887">
        <ele>60</ele>
        <time>2012-01-29T08:05:53Z</time>
      </trkpt>
      <trkpt lat="43.47312" lon="3.4889">
        <ele>59</ele>
        <time>2012-01-29T08:05:56Z</time>
      </trkpt>
      <trkpt lat="43.47309" lon="3.48893">
        <ele>59</ele>
        <time>2012-01-29T08:05:59Z</time>
      </trkpt>
      <trkpt lat="43.47306" lon="3.48896">
        <ele>59</ele>
        <time>2012-01-29T08:06:02Z</time>
      </trkpt>
      <trkpt lat="43.47303" lon="3.48899">
        <ele>59</ele>
        <time>2012-01-29T08:06:05Z</time>
      </trkpt>
      <trkpt lat="43.473" lon="3.48902">
        <ele>59</ele>
        <time>2012-01-29T08:06:08Z</time>
      </trkpt>
      <trkpt lat="43.47297" lon="3.48905">
        <ele>60</ele>
        <time>2012-01-29T08:06:11Z</time>
      </trkpt>
      <trkpt lat="43.47294" lon="3.48908">
        <ele>60</ele>
        <time>2012-01-29T08:06:14Z</time>
      </trkpt>
      <trkpt lat="43.47292" lon="3.48911">
        <ele>59</ele>
        <time>2012-01-29T08:06:17Z</time>
      </trkpt>
      <trkpt lat="43.47289" lon="3.48914">
        <ele>60</ele>
        <time>2012-01-29T08:06:20Z</time>
      </trkpt>
      <trkpt lat="43.47285" lon="3.48917">
        <ele>60</ele>
        <time>2012-01-29T08:06:23Z</time>
      </trkpt>
      <trkpt lat="43.47282" lon="3.4892">
        <ele>60</ele>
        <time>2012-01-29T08:06:26Z</time>
      </trkpt>
      <trkpt lat="43.47279" lon="3.48922">
        <ele>59</ele>
        <time>2012-01-29T08:06:29Z</time>
      </trkpt>
      <trkpt lat="43.47276" lon="3.48925">
        <ele>58</ele>
        <time>2012-01-29T08:06:32Z</time>
      </trkpt>
      <trkpt lat="43.47273" lon="3.48928">
        <ele>59</ele>
        <time>2012-01-29T08:06:36Z</time>
      </trkpt>
      <trkpt lat="43.4727" lon="3.48931">
        <ele>60</ele>
        <time>2012-01-29T08:06:39Z</time>
      </trkpt>
      <trkpt lat="43.47267" lon="3.48934">
        <ele>60</ele>
        <time>2012-01-29T08:06:42Z</time>
      </trkpt>
      <trkpt lat="43.47264" lon="3.48936">
        <ele>60</ele>
        <time>2012-01-29T08:06:45Z</time>
      </trkpt>
      <trkpt lat="43.4726" lon="3.48939">
        <ele>60</ele>
        <time>2012-01-29T08:06:48Z</time>
      </trkpt>
      <trkpt lat="43.47259" lon="3.48939">
        <ele>59</ele>
        <time>2012-01-29T08:06:49Z</time>
      </trkpt>
      <trkpt lat="43.47254" lon="3.48943">
        <ele>61</ele>
        <time>2012-01-29T08:06:54Z</time>
      </trkpt>
      <trkpt lat="43.4725" lon="3.48945">
        <ele>61</ele>
        <time>2012-01-29T08:06:57Z</time>
      </trkpt>
      <trkpt lat="43.47247" lon="3.48947">
        <ele>61</ele>
        <time>2012-01-29T08:07:00Z</time>
      </trkpt>
      <trkpt lat="43.47244" lon="3.48949">
        <ele>61</ele>
        <time>2012-01-29T08:07:03Z</time>
      </trkpt>
      <trkpt lat="43.4724" lon="3.48951">
        <ele>61</ele>
        <time>2012-01-29T08:07:06Z</time>
      </trkpt>
      <trkpt lat="43.47237" lon="3.48953">
        <ele>61</ele>
        <time>2012-01-29T08:07:09Z</time>
      </trkpt>
      <trkpt lat="43.47234" lon="3.48955">
        <ele>61</ele>
        <time>2012-01-29T08:07:12Z</time>
      </trkpt>
      <trkpt lat="43.47231" lon="3.48957">
        <ele>61</ele>
        <time>2012-01-29T08:07:15Z</time>
      </trkpt>
      <trkpt lat="43.47228" lon="3.4896">
        <ele>61</ele>
        <time>2012-01-29T08:07:18Z</time>
      </trkpt>
      <trkpt lat="43.47225" lon="3.48962">
        <ele>62</ele>
        <time>2012-01-29T08:07:21Z</time>
      </trkpt>
      <trkpt lat="43.47222" lon="3.48965">
        <ele>63</ele>
        <time>2012-01-29T08:07:24Z</time>
      </trkpt>
      <trkpt lat="43.47219" lon="3.48969">
        <ele>63</ele>
        <time>2012-01-29T08:07:28Z</time>
      </trkpt>
      <trkpt lat="43.47216" lon="3.48972">
        <ele>63</ele>
        <time>2012-01-29T08:07:32Z</time>
      </trkpt>
      <trkpt lat="43.47213" lon="3.48976">
        <ele>63</ele>
        <time>2012-01-29T08:07:36Z</time>
      </trkpt>
      <trkpt lat="43.4721" lon="3.4898">
        <ele>63</ele>
        <time>2012-01-29T08:07:40Z</time>
      </trkpt>
      <trkpt lat="43.47207" lon="3.48984">
        <ele>64</ele>
        <time>2012-01-29T08:07:44Z</time>
      </trkpt>
      <trkpt lat="43.47203" lon="3.48988">
        <ele>64</ele>
        <time>2012-01-29T08:07:48Z</time>
      </trkpt>
      <trkpt lat="43.47201" lon="3.48992">
        <ele>65</ele>
        <time>2012-01-29T08:07:51Z</time>
      </trkpt>
      <trkpt lat="43.472" lon="3.48993">
        <ele>65</ele>
        <time>2012-01-29T08:07:52Z</time>
      </trkpt>
      <trkpt lat="43.47194" lon="3.48999">
        <ele>64</ele>
        <time>2012-01-29T08:07:59Z</time>
      </trkpt>
      <trkpt lat="43.47191" lon="3.49003">
        <ele>63</ele>
        <time>2012-01-29T08:08:02Z</time>
      </trkpt>
      <trkpt lat="43.47188" lon="3.49006">
        <ele>65</ele>
        <time>2012-01-29T08:08:06Z</time>
      </trkpt>
      <trkpt lat="43.47185" lon="3.4901">
        <ele>65</ele>
        <time>2012-01-29T08:08:10Z</time>
      </trkpt>
      <trkpt lat="43.47181" lon="3.49013">
        <ele>65</ele>
        <time>2012-01-29T08:08:14Z</time>
      </trkpt>
      <trkpt lat="43.47178" lon="3.49016">
        <ele>66</ele>
        <time>2012-01-29T08:08:18Z</time>
      </trkpt>
      <trkpt lat="43.47175" lon="3.4902">
        <ele>66</ele>
        <time>2012-01-29T08:08:22Z</time>
      </trkpt>
      <trkpt lat="43.47172" lon="3.49022">
        <ele>67</ele>
        <time>2012-01-29T08:08:26Z</time>
      </trkpt>
      <trkpt lat="43.47168" lon="3.49025">
        <ele>67</ele>
        <time>2012-01-29T08:08:30Z</time>
      </trkpt>
      <trkpt lat="43.47165" lon="3.49027">
        <ele>67</ele>
        <time>2012-01-29T08:08:33Z</time>
      </trkpt>
      <trkpt lat="43.47162" lon="3.4903">
        <ele>67</ele>
        <time>2012-01-29T08:08:36Z</time>
      </trkpt>
      <trkpt lat="43.47159" lon="3.49033">
        <ele>68</ele>
        <time>2012-01-29T08:08:40Z</time>
      </trkpt>
      <trkpt lat="43.47155" lon="3.49036">
        <ele>69</ele>
        <time>2012-01-29T08:08:44Z</time>
      </trkpt>
      <trkpt lat="43.47152" lon="3.49039">
        <ele>70</ele>
        <time>2012-01-29T08:08:47Z</time>
      </trkpt>
      <trkpt lat="43.47149" lon="3.49041">
        <ele>70</ele>
        <time>2012-01-29T08:08:50Z</time>
      </trkpt>
      <trkpt lat="43.47146" lon="3.49043">
        <ele>70</ele>
        <time>2012-01-29T08:08:53Z</time>
      </trkpt>
      <trkpt lat="43.47144" lon="3.49044">
        <ele>70</ele>
        <time>2012-01-29T08:08:54Z</time>
      </trkpt>
      <trkpt lat="43.47138" lon="3.49048">
        <ele>70</ele>
        <time>2012-01-29T08:09:01Z</time>
      </trkpt>
      <trkpt lat="43.47134" lon="3.4905">
        <ele>71</ele>
        <time>2012-01-29T08:09:05Z</time>
      </trkpt>
      <trkpt lat="43.47131" lon="3.49052">
        <ele>70</ele>
        <time>2012-01-29T08:09:08Z</time>
      </trkpt>
      <trkpt lat="43.47128" lon="3.49055">
        <ele>70</ele>
        <time>2012-01-29T08:09:11Z</time>
      </trkpt>
      <trkpt lat="43.47125" lon="3.49057">
        <ele>71</ele>
        <time>2012-01-29T08:09:14Z</time>
      </trkpt>
      <trkpt lat="43.47122" lon="3.4906">
        <ele>71</ele>
        <time>2012-01-29T08:09:17Z</time>
      </trkpt>
      <trkpt lat="43.47118" lon="3.49063">
        <ele>71</ele>
        <time>2012-01-29T08:09:20Z</time>
      </trkpt>
      <trkpt lat="43.47116" lon="3.49067">
        <ele>71</ele>
        <time>2012-01-29T08:09:23Z</time>
      </trkpt>
      <trkpt lat="43.47113" lon="3.4907">
        <ele>72</ele>
        <time>2012-01-29T08:09:26Z</time>
      </trkpt>
      <trkpt lat="43.4711" lon="3.49073">
        <ele>73</ele>
        <time>2012-01-29T08:09:29Z</time>
      </trkpt>
      <trkpt lat="43.47108" lon="3.49076">
        <ele>73</ele>
        <time>2012-01-29T08:09:32Z</time>
      </trkpt>
      <trkpt lat="43.47105" lon="3.49079">
        <ele>73</ele>
        <time>2012-01-29T08:09:35Z</time>
      </trkpt>
      <trkpt lat="43.47102" lon="3.49082">
        <ele>72</ele>
        <time>2012-01-29T08:09:38Z</time>
      </trkpt>
      <trkpt lat="43.471" lon="3.49084">
        <ele>73</ele>
        <time>2012-01-29T08:09:41Z</time>
      </trkpt>
      <trkpt lat="43.47097" lon="3.49088">
        <ele>73</ele>
        <time>2012-01-29T08:09:44Z</time>
      </trkpt>
      <trkpt lat="43.47093" lon="3.49091">
        <ele>73</ele>
        <time>2012-01-29T08:09:48Z</time>
      </trkpt>
      <trkpt lat="43.4709" lon="3.49095">
        <ele>73</ele>
        <time>2012-01-29T08:09:52Z</time>
      </trkpt>
      <trkpt lat="43.47087" lon="3.49098">
        <ele>74</ele>
        <time>2012-01-29T08:09:56Z</time>
      </trkpt>
      <trkpt lat="43.47086" lon="3.49099">
        <ele>74</ele>
        <time>2012-01-29T08:09:57Z</time>
      </trkpt>
      <trkpt lat="43.4708" lon="3.49104">
        <ele>74</ele>
        <time>2012-01-29T08:10:04Z</time>
      </trkpt>
      <trkpt lat="43.47077" lon="3.49108">
        <ele>74</ele>
        <time>2012-01-29T08:10:08Z</time>
      </trkpt>
      <trkpt lat="43.47073" lon="3.49111">
        <ele>75</ele>
        <time>2012-01-29T08:10:12Z</time>
      </trkpt>
      <trkpt lat="43.47071" lon="3.49115">
        <ele>75</ele>
        <time>2012-01-29T08:10:15Z</time>
      </trkpt>
      <trkpt lat="43.47068" lon="3.49118">
        <ele>76</ele>
        <time>2012-01-29T08:10:18Z</time>
      </trkpt>
      <trkpt lat="43.47065" lon="3.49121">
        <ele>76</ele>
        <time>2012-01-29T08:10:21Z</time>
      </trkpt>
      <trkpt lat="43.47062" lon="3.49125">
        <ele>76</ele>
        <time>2012-01-29T08:10:25Z</time>
      </trkpt>
      <trkpt lat="43.47059" lon="3.49128">
        <ele>76</ele>
        <time>2012-01-29T08:10:28Z</time>
      </trkpt>
      <trkpt lat="43.47056" lon="3.49131">
        <ele>76</ele>
        <time>2012-01-29T08:10:31Z</time>
      </trkpt>
      <trkpt lat="43.47053" lon="3.49135">
        <ele>77</ele>
        <time>2012-01-29T08:10:34Z</time>
      </trkpt>
      <trkpt lat="43.47051" lon="3.49138">
        <ele>76</ele>
        <time>2012-01-29T08:10:37Z</time>
      </trkpt>
      <trkpt lat="43.47048" lon="3.49141">
        <ele>77</ele>
        <time>2012-01-29T08:10:40Z</time>
      </trkpt>
      <trkpt lat="43.47045" lon="3.49144">
        <ele>78</ele>
        <time>2012-01-29T08:10:43Z</time>
      </trkpt>
      <trkpt lat="43.47042" lon="3.49147">
        <ele>78</ele>
        <time>2012-01-29T08:10:46Z</time>
      </trkpt>
      <trkpt lat="43.4704" lon="3.4915">
        <ele>79</ele>
        <time>2012-01-29T08:10:49Z</time>
      </trkpt>
      <trkpt lat="43.47037" lon="3.49154">
        <ele>79</ele>
        <time>2012-01-29T08:10:52Z</time>
      </trkpt>
      <trkpt lat="43.47034" lon="3.49157">
        <ele>79</ele>
        <time>2012-01-29T08:10:55Z</time>
      </trkpt>
      <trkpt lat="43.47031" lon="3.49161">
        <ele>79</ele>
        <time>2012-01-29T08:10:58Z</time>
      </trkpt>
      <trkpt lat="43.4703" lon="3.49162">
        <ele>79</ele>
        <time>2012-01-29T08:10:59Z</time>
      </trkpt>
      <trkpt lat="43.47026" lon="3.49168">
        <ele>79</ele>
        <time>2012-01-29T08:11:04Z</time>
      </trkpt>
      <trkpt lat="43.47023" lon="3.49172">
        <ele>81</ele>
        <time>2012-01-29T08:11:08Z</time>
      </trkpt>
      <trkpt lat="43.4702" lon="3.49177">
        <ele>82</ele>
        <time>2012-01-29T08:11:12Z</time>
      </trkpt>
      <trkpt lat="43.47018" lon="3.49181">
        <ele>82</ele>
        <time>2012-01-29T08:11:15Z</time>
      </trkpt>
      <trkpt lat="43.47016" lon="3.49185">
        <ele>83</ele>
        <time>2012-01-29T08:11:18Z</time>
      </trkpt>
      <trkpt lat="43.47013" lon="3.49189">
        <ele>83</ele>
        <time>2012-01-29T08:11:21Z</time>
      </trkpt>
      <trkpt lat="43.47011" lon="3.49193">
        <ele>83</ele>
        <time>2012-01-29T08:11:24Z</time>
      </trkpt>
      <trkpt lat="43.47009" lon="3.49197">
        <ele>84</ele>
        <time>2012-01-29T08:11:27Z</time>
      </trkpt>
      <trkpt lat="43.47007" lon="3.49201">
        <ele>84</ele>
        <time>2012-01-29T08:11:30Z</time>
      </trkpt>
      <trkpt lat="43.47005" lon="3.49204">
        <ele>84</ele>
        <time>2012-01-29T08:11:33Z</time>
      </trkpt>
      <trkpt lat="43.47002" lon="3.49208">
        <ele>85</ele>
        <time>2012-01-29T08:11:36Z</time>
      </trkpt>
      <trkpt lat="43.47" lon="3.49212">
        <ele>85</ele>
        <time>2012-01-29T08:11:39Z</time>
      </trkpt>
      <trkpt lat="43.46997" lon="3.49216">
        <ele>85</ele>
        <time>2012-01-29T08:11:42Z</time>
      </trkpt>
      <trkpt lat="43.46994" lon="3.49219">
        <ele>85</ele>
        <time>2012-01-29T08:11:45Z</time>
      </trkpt>
      <trkpt lat="43.46992" lon="3.49222">
        <ele>86</ele>
        <time>2012-01-29T08:11:48Z</time>
      </trkpt>
      <trkpt lat="43.46988" lon="3.49226">
        <ele>86</ele>
        <time>2012-01-29T08:11:52Z</time>
      </trkpt>
      <trkpt lat="43.46986" lon="3.4923">
        <ele>85</ele>
        <time>2012-01-29T08:11:56Z</time>
      </trkpt>
      <trkpt lat="43.46983" lon="3.49234">
        <ele>85</ele>
        <time>2012-01-29T08:12:01Z</time>
      </trkpt>
      <trkpt lat="43.46982" lon="3.49234">
        <ele>85</ele>
        <time>2012-01-29T08:12:02Z</time>
      </trkpt>
      <trkpt lat="43.46976" lon="3.4924">
        <ele>86</ele>
        <time>2012-01-29T08:12:10Z</time>
      </trkpt>
      <trkpt lat="43.46973" lon="3.49242">
        <ele>87</ele>
        <time>2012-01-29T08:12:13Z</time>
      </trkpt>
      <trkpt lat="43.46969" lon="3.49246">
        <ele>87</ele>
        <time>2012-01-29T08:12:17Z</time>
      </trkpt>
      <trkpt lat="43.46966" lon="3.49248">
        <ele>87</ele>
        <time>2012-01-29T08:12:20Z</time>
      </trkpt>
      <trkpt lat="43.46963" lon="3.49251">
        <ele>87</ele>
        <time>2012-01-29T08:12:23Z</time>
      </trkpt>
      <trkpt lat="43.4696" lon="3.49254">
        <ele>88</ele>
        <time>2012-01-29T08:12:27Z</time>
      </trkpt>
      <trkpt lat="43.46957" lon="3.49257">
        <ele>87</ele>
        <time>2012-01-29T08:12:30Z</time>
      </trkpt>
      <trkpt lat="43.46954" lon="3.4926">
        <ele>88</ele>
        <time>2012-01-29T08:12:33Z</time>
      </trkpt>
      <trkpt lat="43.46951" lon="3.49263">
        <ele>88</ele>
        <time>2012-01-29T08:12:36Z</time>
      </trkpt>
      <trkpt lat="43.46948" lon="3.49266">
        <ele>88</ele>
        <time>2012-01-29T08:12:39Z</time>
      </trkpt>
      <trkpt lat="43.46944" lon="3.49269">
        <ele>88</ele>
        <time>2012-01-29T08:12:43Z</time>
      </trkpt>
      <trkpt lat="43.46941" lon="3.49272">
        <ele>89</ele>
        <time>2012-01-29T08:12:47Z</time>
      </trkpt>
      <trkpt lat="43.46939" lon="3.49275">
        <ele>89</ele>
        <time>2012-01-29T08:12:50Z</time>
      </trkpt>
      <trkpt lat="43.46936" lon="3.49278">
        <ele>89</ele>
        <time>2012-01-29T08:12:53Z</time>
      </trkpt>
      <trkpt lat="43.46932" lon="3.49281">
        <ele>88</ele>
        <time>2012-01-29T08:12:56Z</time>
      </trkpt>
      <trkpt lat="43.46929" lon="3.49283">
        <ele>88</ele>
        <time>2012-01-29T08:12:59Z</time>
      </trkpt>
      <trkpt lat="43.46926" lon="3.49286">
        <ele>88</ele>
        <time>2012-01-29T08:13:02Z</time>
      </trkpt>
      <trkpt lat="43.46925" lon="3.49288">
        <ele>88</ele>
        <time>2012-01-29T08:13:03Z</time>
      </trkpt>
      <trkpt lat="43.4692" lon="3.49293">
        <ele>89</ele>
        <time>2012-01-29T08:13:08Z</time>
      </trkpt>
      <trkpt lat="43.46917" lon="3.49296">
        <ele>89</ele>
        <time>2012-01-29T08:13:11Z</time>
      </trkpt>
      <trkpt lat="43.46915" lon="3.493">
        <ele>89</ele>
        <time>2012-01-29T08:13:14Z</time>
      </trkpt>
      <trkpt lat="43.46912" lon="3.49304">
        <ele>89</ele>
        <time>2012-01-29T08:13:17Z</time>
      </trkpt>
      <trkpt lat="43.46911" lon="3.49308">
        <ele>90</ele>
        <time>2012-01-29T08:13:20Z</time>
      </trkpt>
      <trkpt lat="43.46909" lon="3.49312">
        <ele>90</ele>
        <time>2012-01-29T08:13:23Z</time>
      </trkpt>
      <trkpt lat="43.46906" lon="3.49316">
        <ele>89</ele>
        <time>2012-01-29T08:13:26Z</time>
      </trkpt>
      <trkpt lat="43.46904" lon="3.4932">
        <ele>89</ele>
        <time>2012-01-29T08:13:29Z</time>
      </trkpt>
      <trkpt lat="43.46902" lon="3.49325">
        <ele>89</ele>
        <time>2012-01-29T08:13:32Z</time>
      </trkpt>
      <trkpt lat="43.469" lon="3.49329">
        <ele>90</ele>
        <time>2012-01-29T08:13:35Z</time>
      </trkpt>
      <trkpt lat="43.46898" lon="3.49333">
        <ele>91</ele>
        <time>2012-01-29T08:13:38Z</time>
      </trkpt>
      <trkpt lat="43.46896" lon="3.49337">
        <ele>91</ele>
        <time>2012-01-29T08:13:41Z</time>
      </trkpt>
      <trkpt lat="43.46894" lon="3.49341">
        <ele>91</ele>
        <time>2012-01-29T08:13:44Z</time>
      </trkpt>
      <trkpt lat="43.46892" lon="3.49346">
        <ele>91</ele>
        <time>2012-01-29T08:13:47Z</time>
      </trkpt>
      <trkpt lat="43.4689" lon="3.49351">
        <ele>91</ele>
        <time>2012-01-29T08:13:51Z</time>
      </trkpt>
      <trkpt lat="43.46888" lon="3.49355">
        <ele>91</ele>
        <time>2012-01-29T08:13:54Z</time>
      </trkpt>
      <trkpt lat="43.46887" lon="3.4936">
        <ele>91</ele>
        <time>2012-01-29T08:13:57Z</time>
      </trkpt>
      <trkpt lat="43.46885" lon="3.49365">
        <ele>91</ele>
        <time>2012-01-29T08:14:00Z</time>
      </trkpt>
      <trkpt lat="43.46884" lon="3.4937">
        <ele>92</ele>
        <time>2012-01-29T08:14:03Z</time>
      </trkpt>
      <trkpt lat="43.46884" lon="3.49371">
        <ele>92</ele>
        <time>2012-01-29T08:14:04Z</time>
      </trkpt>
      <trkpt lat="43.46882" lon="3.4938">
        <ele>92</ele>
        <time>2012-01-29T08:14:09Z</time>
      </trkpt>
      <trkpt lat="43.46881" lon="3.49384">
        <ele>93</ele>
        <time>2012-01-29T08:14:12Z</time>
      </trkpt>
      <trkpt lat="43.4688" lon="3.49389">
        <ele>93</ele>
        <time>2012-01-29T08:14:15Z</time>
      </trkpt>
      <trkpt lat="43.46878" lon="3.49394">
        <ele>93</ele>
        <time>2012-01-29T08:14:18Z</time>
      </trkpt>
      <trkpt lat="43.46877" lon="3.49399">
        <ele>94</ele>
        <time>2012-01-29T08:14:21Z</time>
      </trkpt>
      <trkpt lat="43.46876" lon="3.49404">
        <ele>93</ele>
        <time>2012-01-29T08:14:24Z</time>
      </trkpt>
      <trkpt lat="43.46875" lon="3.49409">
        <ele>93</ele>
        <time>2012-01-29T08:14:27Z</time>
      </trkpt>
      <trkpt lat="43.46874" lon="3.49414">
        <ele>94</ele>
        <time>2012-01-29T08:14:30Z</time>
      </trkpt>
      <trkpt lat="43.46872" lon="3.49418">
        <ele>94</ele>
        <time>2012-01-29T08:14:33Z</time>
      </trkpt>
      <trkpt lat="43.46871" lon="3.49423">
        <ele>95</ele>
        <time>2012-01-29T08:14:36Z</time>
      </trkpt>
      <trkpt lat="43.4687" lon="3.49428">
        <ele>95</ele>
        <time>2012-01-29T08:14:39Z</time>
      </trkpt>
      <trkpt lat="43.46868" lon="3.49433">
        <ele>95</ele>
        <time>2012-01-29T08:14:42Z</time>
      </trkpt>
      <trkpt lat="43.46867" lon="3.49438">
        <ele>95</ele>
        <time>2012-01-29T08:14:45Z</time>
      </trkpt>
      <trkpt lat="43.46865" lon="3.49443">
        <ele>95</ele>
        <time>2012-01-29T08:14:48Z</time>
      </trkpt>
      <trkpt lat="43.46864" lon="3.49447">
        <ele>94</ele>
        <time>2012-01-29T08:14:51Z</time>
      </trkpt>
      <trkpt lat="43.46862" lon="3.49452">
        <ele>95</ele>
        <time>2012-01-29T08:14:54Z</time>
      </trkpt>
      <trkpt lat="43.46861" lon="3.49456">
        <ele>94</ele>
        <time>2012-01-29T08:14:57Z</time>
      </trkpt>
      <trkpt lat="43.4686" lon="3.49461">
        <ele>95</ele>
        <time>2012-01-29T08:15:00Z</time>
      </trkpt>
      <trkpt lat="43.46858" lon="3.49465">
        <ele>95</ele>
        <time>2012-01-29T08:15:03Z</time>
      </trkpt>
      <trkpt lat="43.46857" lon="3.4947">
        <ele>94</ele>
        <time>2012-01-29T08:15:06Z</time>
      </trkpt>
      <trkpt lat="43.46856" lon="3.49471">
        <ele>94</ele>
        <time>2012-01-29T08:15:07Z</time>
      </trkpt>
      <trkpt lat="43.46854" lon="3.4948">
        <ele>94</ele>
        <time>2012-01-29T08:15:12Z</time>
      </trkpt>
      <trkpt lat="43.46852" lon="3.49485">
        <ele>93</ele>
        <time>2012-01-29T08:15:15Z</time>
      </trkpt>
      <trkpt lat="43.46851" lon="3.49491">
        <ele>93</ele>
        <time>2012-01-29T08:15:18Z</time>
      </trkpt>
      <trkpt lat="43.4685" lon="3.49496">
        <ele>93</ele>
        <time>2012-01-29T08:15:21Z</time>
      </trkpt>
      <trkpt lat="43.46849" lon="3.49501">
        <ele>93</ele>
        <time>2012-01-29T08:15:24Z</time>
      </trkpt>
      <trkpt lat="43.46848" lon="3.49506">
        <ele>93</ele>
        <time>2012-01-29T08:15:27Z</time>
      </trkpt>
      <trkpt lat="43.46848" lon="3.49511">
        <ele>93</ele>
        <time>2012-01-29T08:15:30Z</time>
      </trkpt>
      <trkpt lat="43.46847" lon="3.49516">
        <ele>92</ele>
        <time>2012-01-29T08:15:33Z</time>
      </trkpt>
      <trkpt lat="43.46846" lon="3.49522">
        <ele>93</ele>
        <time>2012-01-29T08:15:37Z</time>
      </trkpt>
      <trkpt lat="43.46846" lon="3.49527">
        <ele>92</ele>
        <time>2012-01-29T08:15:41Z</time>
      </trkpt>
      <trkpt lat="43.46846" lon="3.49533">
        <ele>93</ele>
        <time>2012-01-29T08:15:45Z</time>
      </trkpt>
      <trkpt lat="43.46845" lon="3.49538">
        <ele>92</ele>
        <time>2012-01-29T08:15:48Z</time>
      </trkpt>
      <trkpt lat="43.46844" lon="3.49543">
        <ele>92</ele>
        <time>2012-01-29T08:15:51Z</time>
      </trkpt>
      <trkpt lat="43.46844" lon="3.49548">
        <ele>92</ele>
        <time>2012-01-29T08:15:54Z</time>
      </trkpt>
      <trkpt lat="43.46844" lon="3.49553">
        <ele>91</ele>
        <time>2012-01-29T08:15:57Z</time>
      </trkpt>
      <trkpt lat="43.46843" lon="3.49559">
        <ele>91</ele>
        <time>2012-01-29T08:16:00Z</time>
      </trkpt>
      <trkpt lat="43.46843" lon="3.49564">
        <ele>92</ele>
        <time>2012-01-29T08:16:03Z</time>
      </trkpt>
      <trkpt lat="43.46842" lon="3.49569">
        <ele>91</ele>
        <time>2012-01-29T08:16:05Z</time>
      </trkpt>
      <trkpt lat="43.46842" lon="3.49574">
        <ele>91</ele>
        <time>2012-01-29T08:16:08Z</time>
      </trkpt>
      <trkpt lat="43.46841" lon="3.49576">
        <ele>91</ele>
        <time>2012-01-29T08:16:09Z</time>
      </trkpt>
      <trkpt lat="43.4684" lon="3.49586">
        <ele>92</ele>
        <time>2012-01-29T08:16:14Z</time>
      </trkpt>
      <trkpt lat="43.46839" lon="3.49591">
        <ele>92</ele>
        <time>2012-01-29T08:16:17Z</time>
      </trkpt>
      <trkpt lat="43.46838" lon="3.49597">
        <ele>91</ele>
        <time>2012-01-29T08:16:20Z</time>
      </trkpt>
      <trkpt lat="43.46836" lon="3.49602">
        <ele>91</ele>
        <time>2012-01-29T08:16:23Z</time>
      </trkpt>
      <trkpt lat="43.46834" lon="3.49607">
        <ele>92</ele>
        <time>2012-01-29T08:16:26Z</time>
      </trkpt>
      <trkpt lat="43.46832" lon="3.49611">
        <ele>91</ele>
        <time>2012-01-29T08:16:29Z</time>
      </trkpt>
      <trkpt lat="43.46829" lon="3.49615">
        <ele>92</ele>
        <time>2012-01-29T08:16:32Z</time>
      </trkpt>
      <trkpt lat="43.46826" lon="3.49619">
        <ele>91</ele>
        <time>2012-01-29T08:16:36Z</time>
      </trkpt>
      <trkpt lat="43.46824" lon="3.49622">
        <ele>92</ele>
        <time>2012-01-29T08:16:39Z</time>
      </trkpt>
      <trkpt lat="43.4682" lon="3.49625">
        <ele>93</ele>
        <time>2012-01-29T08:16:42Z</time>
      </trkpt>
      <trkpt lat="43.46817" lon="3.49628">
        <ele>92</ele>
        <time>2012-01-29T08:16:45Z</time>
      </trkpt>
      <trkpt lat="43.46814" lon="3.49631">
        <ele>93</ele>
        <time>2012-01-29T08:16:48Z</time>
      </trkpt>
      <trkpt lat="43.46811" lon="3.49634">
        <ele>92</ele>
        <time>2012-01-29T08:16:51Z</time>
      </trkpt>
      <trkpt lat="43.46808" lon="3.49637">
        <ele>93</ele>
        <time>2012-01-29T08:16:54Z</time>
      </trkpt>
      <trkpt lat="43.46805" lon="3.4964">
        <ele>92</ele>
        <time>2012-01-29T08:16:57Z</time>
      </trkpt>
      <trkpt lat="43.46801" lon="3.49643">
        <ele>92</ele>
        <time>2012-01-29T08:17:00Z</time>
      </trkpt>
      <trkpt lat="43.46798" lon="3.49645">
        <ele>93</ele>
        <time>2012-01-29T08:17:03Z</time>
      </trkpt>
      <trkpt lat="43.46795" lon="3.49648">
        <ele>92</ele>
        <time>2012-01-29T08:17:06Z</time>
      </trkpt>
      <trkpt lat="43.46792" lon="3.49651">
        <ele>92</ele>
        <time>2012-01-29T08:17:09Z</time>
      </trkpt>
      <trkpt lat="43.46791" lon="3.49652">
        <ele>92</ele>
        <time>2012-01-29T08:17:10Z</time>
      </trkpt>
      <trkpt lat="43.46786" lon="3.49656">
        <ele>93</ele>
        <time>2012-01-29T08:17:15Z</time>
      </trkpt>
      <trkpt lat="43.46783" lon="3.49659">
        <ele>93</ele>
        <time>2012-01-29T08:17:18Z</time>
      </trkpt>
      <trkpt lat="43.4678" lon="3.49662">
        <ele>92</ele>
        <time>2012-01-29T08:17:21Z</time>
      </trkpt>
      <trkpt lat="43.46777" lon="3.49665">
        <ele>93</ele>
        <time>2012-01-29T08:17:24Z</time>
      </trkpt>
      <trkpt lat="43.46773" lon="3.49668">
        <ele>92</ele>
        <time>2012-01-29T08:17:27Z</time>
      </trkpt>
      <trkpt lat="43.4677" lon="3.49671">
        <ele>94</ele>
        <time>2012-01-29T08:17:30Z</time>
      </trkpt>
      <trkpt lat="43.46767" lon="3.49673">
        <ele>94</ele>
        <time>2012-01-29T08:17:33Z</time>
      </trkpt>
      <trkpt lat="43.46764" lon="3.49676">
        <ele>94</ele>
        <time>2012-01-29T08:17:36Z</time>
      </trkpt>
      <trkpt lat="43.4676" lon="3.49679">
        <ele>94</ele>
        <time>2012-01-29T08:17:40Z</time>
      </trkpt>
      <trkpt lat="43.46756" lon="3.49681">
        <ele>94</ele>
        <time>2012-01-29T08:17:44Z</time>
      </trkpt>
      <trkpt lat="43.46752" lon="3.49684">
        <ele>95</ele>
        <time>2012-01-29T08:17:48Z</time>
      </trkpt>
      <trkpt lat="43.46748" lon="3.49686">
        <ele>95</ele>
        <time>2012-01-29T08:17:52Z</time>
      </trkpt>
      <trkpt lat="43.46744" lon="3.49689">
        <ele>94</ele>
        <time>2012-01-29T08:17:56Z</time>
      </trkpt>
      <trkpt lat="43.46741" lon="3.49691">
        <ele>94</ele>
        <time>2012-01-29T08:18:00Z</time>
      </trkpt>
      <trkpt lat="43.46737" lon="3.49693">
        <ele>94</ele>
        <time>2012-01-29T08:18:04Z</time>
      </trkpt>
      <trkpt lat="43.46733" lon="3.49694">
        <ele>94</ele>
        <time>2012-01-29T08:18:08Z</time>
      </trkpt>
      <trkpt lat="43.46729" lon="3.49696">
        <ele>93</ele>
        <time>2012-01-29T08:18:24Z</time>
      </trkpt>
      <trkpt lat="43.46729" lon="3.49696">
        <ele>93</ele>
        <time>2012-01-29T08:18:25Z</time>
      </trkpt>
      <trkpt lat="43.46731" lon="3.49696">
        <ele>93</ele>
        <time>2012-01-29T08:19:46Z</time>
      </trkpt>
      <trkpt lat="43.46731" lon="3.49696">
        <ele>93</ele>
        <time>2012-01-29T08:19:47Z</time>
      </trkpt>
      <trkpt lat="43.46725" lon="3.49702">
        <ele>94</ele>
        <time>2012-01-29T08:20:47Z</time>
      </trkpt>
      <trkpt lat="43.46725" lon="3.49703">
        <ele>94</ele>
        <time>2012-01-29T08:20:48Z</time>
      </trkpt>
      <trkpt lat="43.4672" lon="3.49711">
        <ele>94</ele>
        <time>2012-01-29T08:20:55Z</time>
      </trkpt>
      <trkpt lat="43.46718" lon="3.49715">
        <ele>94</ele>
        <time>2012-01-29T08:20:59Z</time>
      </trkpt>
      <trkpt lat="43.46715" lon="3.49719">
        <ele>94</ele>
        <time>2012-01-29T08:21:03Z</time>
      </trkpt>
      <trkpt lat="43.46713" lon="3.49723">
        <ele>95</ele>
        <time>2012-01-29T08:21:06Z</time>
      </trkpt>
      <trkpt lat="43.4671" lon="3.49727">
        <ele>94</ele>
        <time>2012-01-29T08:21:09Z</time>
      </trkpt>
      <trkpt lat="43.46708" lon="3.49732">
        <ele>94</ele>
        <time>2012-01-29T08:21:13Z</time>
      </trkpt>
      <trkpt lat="43.46705" lon="3.49736">
        <ele>93</ele>
        <time>2012-01-29T08:21:17Z</time>
      </trkpt>
      <trkpt lat="43.46703" lon="3.4974">
        <ele>94</ele>
        <time>2012-01-29T08:21:20Z</time>
      </trkpt>
      <trkpt lat="43.467" lon="3.49744">
        <ele>93</ele>
        <time>2012-01-29T08:21:23Z</time>
      </trkpt>
      <trkpt lat="43.46698" lon="3.49748">
        <ele>93</ele>
        <time>2012-01-29T08:21:26Z</time>
      </trkpt>
      <trkpt lat="43.46696" lon="3.49752">
        <ele>93</ele>
        <time>2012-01-29T08:21:29Z</time>
      </trkpt>
      <trkpt lat="43.46693" lon="3.49756">
        <ele>92</ele>
        <time>2012-01-29T08:21:32Z</time>
      </trkpt>
      <trkpt lat="43.46691" lon="3.4976">
        <ele>92</ele>
        <time>2012-01-29T08:21:35Z</time>
      </trkpt>
      <trkpt lat="43.46689" lon="3.49764">
        <ele>92</ele>
        <time>2012-01-29T08:21:38Z</time>
      </trkpt>
      <trkpt lat="43.46687" lon="3.49768">
        <ele>93</ele>
        <time>2012-01-29T08:21:41Z</time>
      </trkpt>
      <trkpt lat="43.46685" lon="3.49772">
        <ele>93</ele>
        <time>2012-01-29T08:21:44Z</time>
      </trkpt>
      <trkpt lat="43.46683" lon="3.49775">
        <ele>93</ele>
        <time>2012-01-29T08:21:47Z</time>
      </trkpt>
      <trkpt lat="43.4668" lon="3.49779">
        <ele>92</ele>
        <time>2012-01-29T08:21:50Z</time>
      </trkpt>
      <trkpt lat="43.4668" lon="3.4978">
        <ele>92</ele>
        <time>2012-01-29T08:21:51Z</time>
      </trkpt>
      <trkpt lat="43.46676" lon="3.49786">
        <ele>93</ele>
        <time>2012-01-29T08:21:56Z</time>
      </trkpt>
      <trkpt lat="43.46673" lon="3.49789">
        <ele>93</ele>
        <time>2012-01-29T08:21:59Z</time>
      </trkpt>
      <trkpt lat="43.4667" lon="3.49793">
        <ele>92</ele>
        <time>2012-01-29T08:22:02Z</time>
      </trkpt>
      <trkpt lat="43.46668" lon="3.49796">
        <ele>92</ele>
        <time>2012-01-29T08:22:05Z</time>
      </trkpt>
      <trkpt lat="43.46665" lon="3.49799">
        <ele>92</ele>
        <time>2012-01-29T08:22:08Z</time>
      </trkpt>
      <trkpt lat="43.46662" lon="3.49803">
        <ele>93</ele>
        <time>2012-01-29T08:22:11Z</time>
      </trkpt>
      <trkpt lat="43.46659" lon="3.49807">
        <ele>93</ele>
        <time>2012-01-29T08:22:15Z</time>
      </trkpt>
      <trkpt lat="43.46656" lon="3.4981">
        <ele>93</ele>
        <time>2012-01-29T08:22:18Z</time>
      </trkpt>
      <trkpt lat="43.46653" lon="3.49814">
        <ele>92</ele>
        <time>2012-01-29T08:22:22Z</time>
      </trkpt>
      <trkpt lat="43.4665" lon="3.49817">
        <ele>92</ele>
        <time>2012-01-29T08:22:25Z</time>
      </trkpt>
      <trkpt lat="43.46647" lon="3.4982">
        <ele>92</ele>
        <time>2012-01-29T08:22:28Z</time>
      </trkpt>
      <trkpt lat="43.46644" lon="3.49823">
        <ele>93</ele>
        <time>2012-01-29T08:22:31Z</time>
      </trkpt>
      <trkpt lat="43.46641" lon="3.49826">
        <ele>93</ele>
        <time>2012-01-29T08:22:34Z</time>
      </trkpt>
      <trkpt lat="43.46638" lon="3.49829">
        <ele>92</ele>
        <time>2012-01-29T08:22:37Z</time>
      </trkpt>
      <trkpt lat="43.46635" lon="3.49832">
        <ele>92</ele>
        <time>2012-01-29T08:22:40Z</time>
      </trkpt>
      <trkpt lat="43.46632" lon="3.49835">
        <ele>92</ele>
        <time>2012-01-29T08:22:43Z</time>
      </trkpt>
      <trkpt lat="43.46629" lon="3.49837">
        <ele>91</ele>
        <time>2012-01-29T08:22:46Z</time>
      </trkpt>
      <trkpt lat="43.46626" lon="3.4984">
        <ele>92</ele>
        <time>2012-01-29T08:22:49Z</time>
      </trkpt>
      <trkpt lat="43.46622" lon="3.49843">
        <ele>93</ele>
        <time>2012-01-29T08:22:52Z</time>
      </trkpt>
      <trkpt lat="43.46621" lon="3.49844">
        <ele>93</ele>
        <time>2012-01-29T08:22:53Z</time>
      </trkpt>
      <trkpt lat="43.46616" lon="3.49849">
        <ele>93</ele>
        <time>2012-01-29T08:22:58Z</time>
      </trkpt>
      <trkpt lat="43.46613" lon="3.49851">
        <ele>93</ele>
        <time>2012-01-29T08:23:01Z</time>
      </trkpt>
      <trkpt lat="43.46609" lon="3.49854">
        <ele>92</ele>
        <time>2012-01-29T08:23:05Z</time>
      </trkpt>
      <trkpt lat="43.46606" lon="3.49856">
        <ele>92</ele>
        <time>2012-01-29T08:23:08Z</time>
      </trkpt>
      <trkpt lat="43.46603" lon="3.49859">
        <ele>92</ele>
        <time>2012-01-29T08:23:11Z</time>
      </trkpt>
      <trkpt lat="43.46599" lon="3.49861">
        <ele>92</ele>
        <time>2012-01-29T08:23:14Z</time>
      </trkpt>
      <trkpt lat="43.46596" lon="3.49863">
        <ele>92</ele>
        <time>2012-01-29T08:23:17Z</time>
      </trkpt>
      <trkpt lat="43.46593" lon="3.49865">
        <ele>92</ele>
        <time>2012-01-29T08:23:20Z</time>
      </trkpt>
      <trkpt lat="43.4659" lon="3.49867">
        <ele>91</ele>
        <time>2012-01-29T08:23:23Z</time>
      </trkpt>
      <trkpt lat="43.46586" lon="3.49869">
        <ele>91</ele>
        <time>2012-01-29T08:23:26Z</time>
      </trkpt>
      <trkpt lat="43.46583" lon="3.49871">
        <ele>91</ele>
        <time>2012-01-29T08:23:29Z</time>
      </trkpt>
      <trkpt lat="43.4658" lon="3.49873">
        <ele>91</ele>
        <time>2012-01-29T08:23:32Z</time>
      </trkpt>
      <trkpt lat="43.46577" lon="3.49876">
        <ele>92</ele>
        <time>2012-01-29T08:23:35Z</time>
      </trkpt>
      <trkpt lat="43.46573" lon="3.49878">
        <ele>92</ele>
        <time>2012-01-29T08:23:38Z</time>
      </trkpt>
      <trkpt lat="43.4657" lon="3.4988">
        <ele>93</ele>
        <time>2012-01-29T08:23:41Z</time>
      </trkpt>
      <trkpt lat="43.46567" lon="3.49883">
        <ele>93</ele>
        <time>2012-01-29T08:23:44Z</time>
      </trkpt>
      <trkpt lat="43.46564" lon="3.49885">
        <ele>93</ele>
        <time>2012-01-29T08:23:47Z</time>
      </trkpt>
      <trkpt lat="43.46561" lon="3.49887">
        <ele>92</ele>
        <time>2012-01-29T08:23:50Z</time>
      </trkpt>
      <trkpt lat="43.46558" lon="3.4989">
        <ele>93</ele>
        <time>2012-01-29T08:23:53Z</time>
      </trkpt>
      <trkpt lat="43.46557" lon="3.49891">
        <ele>93</ele>
        <time>2012-01-29T08:23:54Z</time>
      </trkpt>
      <trkpt lat="43.46552" lon="3.49895">
        <ele>92</ele>
        <time>2012-01-29T08:23:59Z</time>
      </trkpt>
      <trkpt lat="43.46549" lon="3.49898">
        <ele>92</ele>
        <time>2012-01-29T08:24:02Z</time>
      </trkpt>
      <trkpt lat="43.46546" lon="3.499">
        <ele>92</ele>
        <time>2012-01-29T08:24:05Z</time>
      </trkpt>
      <trkpt lat="43.46543" lon="3.49902">
        <ele>92</ele>
        <time>2012-01-29T08:24:08Z</time>
      </trkpt>
      <trkpt lat="43.46539" lon="3.49904">
        <ele>92</ele>
        <time>2012-01-29T08:24:11Z</time>
      </trkpt>
      <trkpt lat="43.46536" lon="3.49907">
        <ele>92</ele>
        <time>2012-01-29T08:24:14Z</time>
      </trkpt>
      <trkpt lat="43.46533" lon="3.49908">
        <ele>92</ele>
        <time>2012-01-29T08:24:17Z</time>
      </trkpt>
      <trkpt lat="43.4653" lon="3.4991">
        <ele>92</ele>
        <time>2012-01-29T08:24:20Z</time>
      </trkpt>
      <trkpt lat="43.46526" lon="3.49913">
        <ele>92</ele>
        <time>2012-01-29T08:24:23Z</time>
      </trkpt>
      <trkpt lat="43.46523" lon="3.49915">
        <ele>92</ele>
        <time>2012-01-29T08:24:26Z</time>
      </trkpt>
      <trkpt lat="43.4652" lon="3.49917">
        <ele>92</ele>
        <time>2012-01-29T08:24:29Z</time>
      </trkpt>
      <trkpt lat="43.46517" lon="3.49919">
        <ele>92</ele>
        <time>2012-01-29T08:24:32Z</time>
      </trkpt>
      <trkpt lat="43.46514" lon="3.49921">
        <ele>91</ele>
        <time>2012-01-29T08:24:35Z</time>
      </trkpt>
      <trkpt lat="43.46511" lon="3.49924">
        <ele>91</ele>
        <time>2012-01-29T08:24:38Z</time>
      </trkpt>
      <trkpt lat="43.46508" lon="3.49927">
        <ele>91</ele>
        <time>2012-01-29T08:24:41Z</time>
      </trkpt>
      <trkpt lat="43.46504" lon="3.4993">
        <ele>90</ele>
        <time>2012-01-29T08:24:45Z</time>
      </trkpt>
      <trkpt lat="43.465" lon="3.49932">
        <ele>90</ele>
        <time>2012-01-29T08:24:48Z</time>
      </trkpt>
      <trkpt lat="43.46497" lon="3.49935">
        <ele>89</ele>
        <time>2012-01-29T08:24:51Z</time>
      </trkpt>
      <trkpt lat="43.46494" lon="3.49938">
        <ele>90</ele>
        <time>2012-01-29T08:24:54Z</time>
      </trkpt>
      <trkpt lat="43.46493" lon="3.49939">
        <ele>90</ele>
        <time>2012-01-29T08:24:55Z</time>
      </trkpt>
      <trkpt lat="43.46487" lon="3.49943">
        <ele>88</ele>
        <time>2012-01-29T08:25:00Z</time>
      </trkpt>
      <trkpt lat="43.46484" lon="3.49946">
        <ele>87</ele>
        <time>2012-01-29T08:25:03Z</time>
      </trkpt>
      <trkpt lat="43.46481" lon="3.49948">
        <ele>86</ele>
        <time>2012-01-29T08:25:06Z</time>
      </trkpt>
      <trkpt lat="43.46478" lon="3.49951">
        <ele>86</ele>
        <time>2012-01-29T08:25:09Z</time>
      </trkpt>
      <trkpt lat="43.46475" lon="3.49954">
        <ele>86</ele>
        <time>2012-01-29T08:25:12Z</time>
      </trkpt>
      <trkpt lat="43.46472" lon="3.49957">
        <ele>86</ele>
        <time>2012-01-29T08:25:15Z</time>
      </trkpt>
      <trkpt lat="43.46469" lon="3.49959">
        <ele>85</ele>
        <time>2012-01-29T08:25:18Z</time>
      </trkpt>
      <trkpt lat="43.46465" lon="3.49962">
        <ele>85</ele>
        <time>2012-01-29T08:25:21Z</time>
      </trkpt>
      <trkpt lat="43.46462" lon="3.49964">
        <ele>85</ele>
        <time>2012-01-29T08:25:24Z</time>
      </trkpt>
      <trkpt lat="43.46459" lon="3.49965">
        <ele>84</ele>
        <time>2012-01-29T08:25:27Z</time>
      </trkpt>
      <trkpt lat="43.46456" lon="3.49967">
        <ele>84</ele>
        <time>2012-01-29T08:25:30Z</time>
      </trkpt>
      <trkpt lat="43.46452" lon="3.49969">
        <ele>85</ele>
        <time>2012-01-29T08:25:33Z</time>
      </trkpt>
      <trkpt lat="43.46449" lon="3.4997">
        <ele>84</ele>
        <time>2012-01-29T08:25:36Z</time>
      </trkpt>
      <trkpt lat="43.46446" lon="3.49972">
        <ele>83</ele>
        <time>2012-01-29T08:25:39Z</time>
      </trkpt>
      <trkpt lat="43.46442" lon="3.49973">
        <ele>83</ele>
        <time>2012-01-29T08:25:42Z</time>
      </trkpt>
      <trkpt lat="43.46439" lon="3.49975">
        <ele>83</ele>
        <time>2012-01-29T08:25:45Z</time>
      </trkpt>
      <trkpt lat="43.46435" lon="3.49976">
        <ele>82</ele>
        <time>2012-01-29T08:25:48Z</time>
      </trkpt>
      <trkpt lat="43.46432" lon="3.49978">
        <ele>82</ele>
        <time>2012-01-29T08:25:51Z</time>
      </trkpt>
      <trkpt lat="43.46428" lon="3.49979">
        <ele>82</ele>
        <time>2012-01-29T08:25:54Z</time>
      </trkpt>
      <trkpt lat="43.46425" lon="3.49981">
        <ele>81</ele>
        <time>2012-01-29T08:25:57Z</time>
      </trkpt>
      <trkpt lat="43.46424" lon="3.49981">
        <ele>81</ele>
        <time>2012-01-29T08:25:58Z</time>
      </trkpt>
      <trkpt lat="43.46418" lon="3.49984">
        <ele>82</ele>
        <time>2012-01-29T08:26:04Z</time>
      </trkpt>
      <trkpt lat="43.46414" lon="3.49986">
        <ele>81</ele>
        <time>2012-01-29T08:26:08Z</time>
      </trkpt>
      <trkpt lat="43.46411" lon="3.49989">
        <ele>81</ele>
        <time>2012-01-29T08:26:12Z</time>
      </trkpt>
      <trkpt lat="43.46407" lon="3.4999">
        <ele>81</ele>
        <time>2012-01-29T08:26:16Z</time>
      </trkpt>
      <trkpt lat="43.46403" lon="3.49989">
        <ele>81</ele>
        <time>2012-01-29T08:26:19Z</time>
      </trkpt>
      <trkpt lat="43.464" lon="3.49987">
        <ele>81</ele>
        <time>2012-01-29T08:26:22Z</time>
      </trkpt>
      <trkpt lat="43.46396" lon="3.49983">
        <ele>82</ele>
        <time>2012-01-29T08:26:26Z</time>
      </trkpt>
      <trkpt lat="43.46393" lon="3.4998">
        <ele>81</ele>
        <time>2012-01-29T08:26:30Z</time>
      </trkpt>
      <trkpt lat="43.4639" lon="3.49976">
        <ele>81</ele>
        <time>2012-01-29T08:26:34Z</time>
      </trkpt>
      <trkpt lat="43.46388" lon="3.49974">
        <ele>81</ele>
        <time>2012-01-29T08:26:36Z</time>
      </trkpt>
      <trkpt lat="43.46384" lon="3.4997">
        <ele>81</ele>
        <time>2012-01-29T08:26:39Z</time>
      </trkpt>
      <trkpt lat="43.46381" lon="3.49966">
        <ele>81</ele>
        <time>2012-01-29T08:26:43Z</time>
      </trkpt>
      <trkpt lat="43.46377" lon="3.49963">
        <ele>82</ele>
        <time>2012-01-29T08:26:47Z</time>
      </trkpt>
      <trkpt lat="43.46374" lon="3.49959">
        <ele>82</ele>
        <time>2012-01-29T08:26:51Z</time>
      </trkpt>
      <trkpt lat="43.4637" lon="3.49955">
        <ele>82</ele>
        <time>2012-01-29T08:26:55Z</time>
      </trkpt>
      <trkpt lat="43.46368" lon="3.49952">
        <ele>81</ele>
        <time>2012-01-29T08:26:58Z</time>
      </trkpt>
      <trkpt lat="43.46367" lon="3.49952">
        <ele>81</ele>
        <time>2012-01-29T08:26:59Z</time>
      </trkpt>
      <trkpt lat="43.46361" lon="3.49946">
        <ele>80</ele>
        <time>2012-01-29T08:27:05Z</time>
      </trkpt>
      <trkpt lat="43.46358" lon="3.49943">
        <ele>81</ele>
        <time>2012-01-29T08:27:08Z</time>
      </trkpt>
      <trkpt lat="43.46355" lon="3.4994">
        <ele>80</ele>
        <time>2012-01-29T08:27:11Z</time>
      </trkpt>
      <trkpt lat="43.46352" lon="3.49937">
        <ele>81</ele>
        <time>2012-01-29T08:27:14Z</time>
      </trkpt>
      <trkpt lat="43.46349" lon="3.49934">
        <ele>82</ele>
        <time>2012-01-29T08:27:17Z</time>
      </trkpt>
      <trkpt lat="43.46346" lon="3.49931">
        <ele>80</ele>
        <time>2012-01-29T08:27:21Z</time>
      </trkpt>
      <trkpt lat="43.46343" lon="3.49927">
        <ele>81</ele>
        <time>2012-01-29T08:27:24Z</time>
      </trkpt>
      <trkpt lat="43.4634" lon="3.49924">
        <ele>81</ele>
        <time>2012-01-29T08:27:27Z</time>
      </trkpt>
      <trkpt lat="43.46337" lon="3.49921">
        <ele>80</ele>
        <time>2012-01-29T08:27:30Z</time>
      </trkpt>
      <trkpt lat="43.46335" lon="3.49918">
        <ele>80</ele>
        <time>2012-01-29T08:27:33Z</time>
      </trkpt>
      <trkpt lat="43.46332" lon="3.49914">
        <ele>81</ele>
        <time>2012-01-29T08:27:37Z</time>
      </trkpt>
      <trkpt lat="43.46328" lon="3.49911">
        <ele>80</ele>
        <time>2012-01-29T08:27:41Z</time>
      </trkpt>
      <trkpt lat="43.46325" lon="3.49907">
        <ele>80</ele>
        <time>2012-01-29T08:27:45Z</time>
      </trkpt>
      <trkpt lat="43.46322" lon="3.49904">
        <ele>80</ele>
        <time>2012-01-29T08:27:48Z</time>
      </trkpt>
      <trkpt lat="43.46319" lon="3.49902">
        <ele>80</ele>
        <time>2012-01-29T08:27:51Z</time>
      </trkpt>
      <trkpt lat="43.46316" lon="3.49899">
        <ele>80</ele>
        <time>2012-01-29T08:27:54Z</time>
      </trkpt>
      <trkpt lat="43.46313" lon="3.49896">
        <ele>79</ele>
        <time>2012-01-29T08:27:57Z</time>
      </trkpt>
      <trkpt lat="43.4631" lon="3.49893">
        <ele>80</ele>
        <time>2012-01-29T08:28:01Z</time>
      </trkpt>
      <trkpt lat="43.46309" lon="3.49892">
        <ele>80</ele>
        <time>2012-01-29T08:28:02Z</time>
      </trkpt>
      <trkpt lat="43.46304" lon="3.49887">
        <ele>80</ele>
        <time>2012-01-29T08:28:07Z</time>
      </trkpt>
      <trkpt lat="43.46301" lon="3.49884">
        <ele>80</ele>
        <time>2012-01-29T08:28:10Z</time>
      </trkpt>
      <trkpt lat="43.46298" lon="3.49881">
        <ele>80</ele>
        <time>2012-01-29T08:28:13Z</time>
      </trkpt>
      <trkpt lat="43.46295" lon="3.49878">
        <ele>81</ele>
        <time>2012-01-29T08:28:16Z</time>
      </trkpt>
      <trkpt lat="43.46292" lon="3.49875">
        <ele>81</ele>
        <time>2012-01-29T08:28:19Z</time>
      </trkpt>
      <trkpt lat="43.46289" lon="3.49873">
        <ele>81</ele>
        <time>2012-01-29T08:28:22Z</time>
      </trkpt>
      <trkpt lat="43.46286" lon="3.49869">
        <ele>82</ele>
        <time>2012-01-29T08:28:26Z</time>
      </trkpt>
      <trkpt lat="43.46283" lon="3.49866">
        <ele>82</ele>
        <time>2012-01-29T08:28:29Z</time>
      </trkpt>
      <trkpt lat="43.4628" lon="3.49862">
        <ele>81</ele>
        <time>2012-01-29T08:28:33Z</time>
      </trkpt>
      <trkpt lat="43.46277" lon="3.49859">
        <ele>81</ele>
        <time>2012-01-29T08:28:36Z</time>
      </trkpt>
      <trkpt lat="43.46275" lon="3.49856">
        <ele>81</ele>
        <time>2012-01-29T08:28:39Z</time>
      </trkpt>
      <trkpt lat="43.46272" lon="3.49852">
        <ele>81</ele>
        <time>2012-01-29T08:28:42Z</time>
      </trkpt>
      <trkpt lat="43.46268" lon="3.49849">
        <ele>82</ele>
        <time>2012-01-29T08:28:46Z</time>
      </trkpt>
      <trkpt lat="43.46265" lon="3.49845">
        <ele>82</ele>
        <time>2012-01-29T08:28:50Z</time>
      </trkpt>
      <trkpt lat="43.46261" lon="3.49842">
        <ele>83</ele>
        <time>2012-01-29T08:28:54Z</time>
      </trkpt>
      <trkpt lat="43.46258" lon="3.49839">
        <ele>83</ele>
        <time>2012-01-29T08:28:58Z</time>
      </trkpt>
      <trkpt lat="43.46256" lon="3.49836">
        <ele>83</ele>
        <time>2012-01-29T08:29:01Z</time>
      </trkpt>
      <trkpt lat="43.46253" lon="3.49831">
        <ele>83</ele>
        <time>2012-01-29T08:29:05Z</time>
      </trkpt>
      <trkpt lat="43.46252" lon="3.4983">
        <ele>83</ele>
        <time>2012-01-29T08:29:06Z</time>
      </trkpt>
      <trkpt lat="43.46247" lon="3.49823">
        <ele>83</ele>
        <time>2012-01-29T08:29:13Z</time>
      </trkpt>
      <trkpt lat="43.46244" lon="3.49819">
        <ele>83</ele>
        <time>2012-01-29T08:29:17Z</time>
      </trkpt>
      <trkpt lat="43.46241" lon="3.49815">
        <ele>84</ele>
        <time>2012-01-29T08:29:21Z</time>
      </trkpt>
      <trkpt lat="43.46239" lon="3.49811">
        <ele>84</ele>
        <time>2012-01-29T08:29:24Z</time>
      </trkpt>
      <trkpt lat="43.46237" lon="3.49807">
        <ele>84</ele>
        <time>2012-01-29T08:29:27Z</time>
      </trkpt>
      <trkpt lat="43.46235" lon="3.49803">
        <ele>83</ele>
        <time>2012-01-29T08:29:30Z</time>
      </trkpt>
      <trkpt lat="43.46232" lon="3.49799">
        <ele>82</ele>
        <time>2012-01-29T08:29:33Z</time>
      </trkpt>
      <trkpt lat="43.4623" lon="3.49794">
        <ele>82</ele>
        <time>2012-01-29T08:29:36Z</time>
      </trkpt>
      <trkpt lat="43.46228" lon="3.4979">
        <ele>81</ele>
        <time>2012-01-29T08:29:39Z</time>
      </trkpt>
      <trkpt lat="43.46226" lon="3.49785">
        <ele>81</ele>
        <time>2012-01-29T08:29:42Z</time>
      </trkpt>
      <trkpt lat="43.46225" lon="3.4978">
        <ele>81</ele>
        <time>2012-01-29T08:29:45Z</time>
      </trkpt>
      <trkpt lat="43.46223" lon="3.49776">
        <ele>80</ele>
        <time>2012-01-29T08:29:48Z</time>
      </trkpt>
      <trkpt lat="43.46221" lon="3.49771">
        <ele>79</ele>
        <time>2012-01-29T08:29:51Z</time>
      </trkpt>
      <trkpt lat="43.46219" lon="3.49767">
        <ele>80</ele>
        <time>2012-01-29T08:29:54Z</time>
      </trkpt>
      <trkpt lat="43.46216" lon="3.49763">
        <ele>80</ele>
        <time>2012-01-29T08:29:57Z</time>
      </trkpt>
      <trkpt lat="43.46214" lon="3.49759">
        <ele>81</ele>
        <time>2012-01-29T08:30:00Z</time>
      </trkpt>
      <trkpt lat="43.46212" lon="3.49755">
        <ele>81</ele>
        <time>2012-01-29T08:30:03Z</time>
      </trkpt>
      <trkpt lat="43.46209" lon="3.49752">
        <ele>81</ele>
        <time>2012-01-29T08:30:06Z</time>
      </trkpt>
      <trkpt lat="43.46208" lon="3.49751">
        <ele>81</ele>
        <time>2012-01-29T08:30:07Z</time>
      </trkpt>
      <trkpt lat="43.46203" lon="3.49746">
        <ele>80</ele>
        <time>2012-01-29T08:30:12Z</time>
      </trkpt>
      <trkpt lat="43.462" lon="3.49743">
        <ele>80</ele>
        <time>2012-01-29T08:30:15Z</time>
      </trkpt>
      <trkpt lat="43.46197" lon="3.49741">
        <ele>80</ele>
        <time>2012-01-29T08:30:18Z</time>
      </trkpt>
      <trkpt lat="43.46193" lon="3.49739">
        <ele>80</ele>
        <time>2012-01-29T08:30:21Z</time>
      </trkpt>
      <trkpt lat="43.46189" lon="3.49737">
        <ele>80</ele>
        <time>2012-01-29T08:30:24Z</time>
      </trkpt>
      <trkpt lat="43.46186" lon="3.49735">
        <ele>79</ele>
        <time>2012-01-29T08:30:27Z</time>
      </trkpt>
      <trkpt lat="43.46183" lon="3.49733">
        <ele>79</ele>
        <time>2012-01-29T08:30:30Z</time>
      </trkpt>
      <trkpt lat="43.4618" lon="3.49731">
        <ele>79</ele>
        <time>2012-01-29T08:30:33Z</time>
      </trkpt>
      <trkpt lat="43.46175" lon="3.4973">
        <ele>79</ele>
        <time>2012-01-29T08:30:37Z</time>
      </trkpt>
      <trkpt lat="43.46172" lon="3.49728">
        <ele>79</ele>
        <time>2012-01-29T08:30:40Z</time>
      </trkpt>
      <trkpt lat="43.46169" lon="3.49727">
        <ele>79</ele>
        <time>2012-01-29T08:30:43Z</time>
      </trkpt>
      <trkpt lat="43.46165" lon="3.49725">
        <ele>79</ele>
        <time>2012-01-29T08:30:46Z</time>
      </trkpt>
      <trkpt lat="43.46161" lon="3.49724">
        <ele>79</ele>
        <time>2012-01-29T08:30:50Z</time>
      </trkpt>
      <trkpt lat="43.46157" lon="3.49722">
        <ele>79</ele>
        <time>2012-01-29T08:30:54Z</time>
      </trkpt>
      <trkpt lat="43.46154" lon="3.49721">
        <ele>79</ele>
        <time>2012-01-29T08:30:57Z</time>
      </trkpt>
      <trkpt lat="43.4615" lon="3.4972">
        <ele>78</ele>
        <time>2012-01-29T08:31:00Z</time>
      </trkpt>
      <trkpt lat="43.46146" lon="3.49718">
        <ele>78</ele>
        <time>2012-01-29T08:31:03Z</time>
      </trkpt>
      <trkpt lat="43.46142" lon="3.49717">
        <ele>78</ele>
        <time>2012-01-29T08:31:06Z</time>
      </trkpt>
      <trkpt lat="43.46138" lon="3.49715">
        <ele>78</ele>
        <time>2012-01-29T08:31:09Z</time>
      </trkpt>
      <trkpt lat="43.46137" lon="3.49714">
        <ele>78</ele>
        <time>2012-01-29T08:31:10Z</time>
      </trkpt>
      <trkpt lat="43.4613" lon="3.49711">
        <ele>78</ele>
        <time>2012-01-29T08:31:15Z</time>
      </trkpt>
      <trkpt lat="43.46126" lon="3.49709">
        <ele>78</ele>
        <time>2012-01-29T08:31:18Z</time>
      </trkpt>
      <trkpt lat="43.46123" lon="3.49708">
        <ele>77</ele>
        <time>2012-01-29T08:31:21Z</time>
      </trkpt>
      <trkpt lat="43.46119" lon="3.49706">
        <ele>77</ele>
        <time>2012-01-29T08:31:24Z</time>
      </trkpt>
      <trkpt lat="43.46115" lon="3.49704">
        <ele>77</ele>
        <time>2012-01-29T08:31:27Z</time>
      </trkpt>
      <trkpt lat="43.46111" lon="3.49702">
        <ele>78</ele>
        <time>2012-01-29T08:31:30Z</time>
      </trkpt>
      <trkpt lat="43.46107" lon="3.497">
        <ele>78</ele>
        <time>2012-01-29T08:31:33Z</time>
      </trkpt>
      <trkpt lat="43.46104" lon="3.49698">
        <ele>78</ele>
        <time>2012-01-29T08:31:36Z</time>
      </trkpt>
      <trkpt lat="43.461" lon="3.49697">
        <ele>78</ele>
        <time>2012-01-29T08:31:39Z</time>
      </trkpt>
      <trkpt lat="43.46097" lon="3.49695">
        <ele>78</ele>
        <time>2012-01-29T08:31:42Z</time>
      </trkpt>
      <trkpt lat="43.46093" lon="3.49693">
        <ele>78</ele>
        <time>2012-01-29T08:31:45Z</time>
      </trkpt>
      <trkpt lat="43.46089" lon="3.49692">
        <ele>78</ele>
        <time>2012-01-29T08:31:48Z</time>
      </trkpt>
      <trkpt lat="43.46086" lon="3.4969">
        <ele>78</ele>
        <time>2012-01-29T08:31:51Z</time>
      </trkpt>
      <trkpt lat="43.46082" lon="3.49688">
        <ele>77</ele>
        <time>2012-01-29T08:31:54Z</time>
      </trkpt>
      <trkpt lat="43.46078" lon="3.49686">
        <ele>78</ele>
        <time>2012-01-29T08:31:57Z</time>
      </trkpt>
      <trkpt lat="43.46075" lon="3.49685">
        <ele>78</ele>
        <time>2012-01-29T08:32:00Z</time>
      </trkpt>
      <trkpt lat="43.46071" lon="3.49683">
        <ele>77</ele>
        <time>2012-01-29T08:32:03Z</time>
      </trkpt>
      <trkpt lat="43.46068" lon="3.49682">
        <ele>77</ele>
        <time>2012-01-29T08:32:06Z</time>
      </trkpt>
      <trkpt lat="43.46064" lon="3.49681">
        <ele>78</ele>
        <time>2012-01-29T08:32:09Z</time>
      </trkpt>
      <trkpt lat="43.4606" lon="3.49679">
        <ele>78</ele>
        <time>2012-01-29T08:32:12Z</time>
      </trkpt>
      <trkpt lat="43.46059" lon="3.49679">
        <ele>78</ele>
        <time>2012-01-29T08:32:13Z</time>
      </trkpt>
      <trkpt lat="43.46053" lon="3.49676">
        <ele>78</ele>
        <time>2012-01-29T08:32:18Z</time>
      </trkpt>
      <trkpt lat="43.46049" lon="3.49675">
        <ele>77</ele>
        <time>2012-01-29T08:32:21Z</time>
      </trkpt>
      <trkpt lat="43.46045" lon="3.49673">
        <ele>78</ele>
        <time>2012-01-29T08:32:24Z</time>
      </trkpt>
      <trkpt lat="43.46041" lon="3.49671">
        <ele>77</ele>
        <time>2012-01-29T08:32:27Z</time>
      </trkpt>
      <trkpt lat="43.46037" lon="3.49669">
        <ele>77</ele>
        <time>2012-01-29T08:32:30Z</time>
      </trkpt>
      <trkpt lat="43.46034" lon="3.49666">
        <ele>77</ele>
        <time>2012-01-29T08:32:33Z</time>
      </trkpt>
      <trkpt lat="43.46031" lon="3.49662">
        <ele>77</ele>
        <time>2012-01-29T08:32:36Z</time>
      </trkpt>
      <trkpt lat="43.46029" lon="3.49659">
        <ele>77</ele>
        <time>2012-01-29T08:32:39Z</time>
      </trkpt>
      <trkpt lat="43.46026" lon="3.49655">
        <ele>77</ele>
        <time>2012-01-29T08:32:42Z</time>
      </trkpt>
      <trkpt lat="43.46024" lon="3.49651">
        <ele>77</ele>
        <time>2012-01-29T08:32:45Z</time>
      </trkpt>
      <trkpt lat="43.46023" lon="3.49646">
        <ele>77</ele>
        <time>2012-01-29T08:32:48Z</time>
      </trkpt>
      <trkpt lat="43.46021" lon="3.49642">
        <ele>77</ele>
        <time>2012-01-29T08:32:51Z</time>
      </trkpt>
      <trkpt lat="43.4602" lon="3.49637">
        <ele>78</ele>
        <time>2012-01-29T08:32:54Z</time>
      </trkpt>
      <trkpt lat="43.46019" lon="3.49632">
        <ele>77</ele>
        <time>2012-01-29T08:32:57Z</time>
      </trkpt>
      <trkpt lat="43.46019" lon="3.49626">
        <ele>77</ele>
        <time>2012-01-29T08:33:00Z</time>
      </trkpt>
      <trkpt lat="43.46019" lon="3.49621">
        <ele>77</ele>
        <time>2012-01-29T08:33:03Z</time>
      </trkpt>
      <trkpt lat="43.46019" lon="3.49616">
        <ele>78</ele>
        <time>2012-01-29T08:33:06Z</time>
      </trkpt>
      <trkpt lat="43.46019" lon="3.4961">
        <ele>78</ele>
        <time>2012-01-29T08:33:09Z</time>
      </trkpt>
      <trkpt lat="43.4602" lon="3.49605">
        <ele>78</ele>
        <time>2012-01-29T08:33:12Z</time>
      </trkpt>
      <trkpt lat="43.46019" lon="3.496">
        <ele>77</ele>
        <time>2012-01-29T08:33:15Z</time>
      </trkpt>
      <trkpt lat="43.46019" lon="3.49599">
        <ele>77</ele>
        <time>2012-01-29T08:33:16Z</time>
      </trkpt>
      <trkpt lat="43.46019" lon="3.49591">
        <ele>77</ele>
        <time>2012-01-29T08:33:21Z</time>
      </trkpt>
      <trkpt lat="43.46018" lon="3.49586">
        <ele>78</ele>
        <time>2012-01-29T08:33:24Z</time>
      </trkpt>
      <trkpt lat="43.46018" lon="3.49581">
        <ele>79</ele>
        <time>2012-01-29T08:33:27Z</time>
      </trkpt>
      <trkpt lat="43.46017" lon="3.49576">
        <ele>79</ele>
        <time>2012-01-29T08:33:30Z</time>
      </trkpt>
      <trkpt lat="43.46016" lon="3.49571">
        <ele>78</ele>
        <time>2012-01-29T08:33:33Z</time>
      </trkpt>
      <trkpt lat="43.46015" lon="3.49567">
        <ele>78</ele>
        <time>2012-01-29T08:33:36Z</time>
      </trkpt>
      <trkpt lat="43.46014" lon="3.49562">
        <ele>78</ele>
        <time>2012-01-29T08:33:39Z</time>
      </trkpt>
      <trkpt lat="43.46012" lon="3.49558">
        <ele>79</ele>
        <time>2012-01-29T08:33:42Z</time>
      </trkpt>
      <trkpt lat="43.4601" lon="3.49553">
        <ele>79</ele>
        <time>2012-01-29T08:33:46Z</time>
      </trkpt>
      <trkpt lat="43.46008" lon="3.49548">
        <ele>80</ele>
        <time>2012-01-29T08:33:50Z</time>
      </trkpt>
      <trkpt lat="43.46006" lon="3.49543">
        <ele>80</ele>
        <time>2012-01-29T08:33:54Z</time>
      </trkpt>
      <trkpt lat="43.46004" lon="3.49539">
        <ele>79</ele>
        <time>2012-01-29T08:33:57Z</time>
      </trkpt>
      <trkpt lat="43.46002" lon="3.49535">
        <ele>80</ele>
        <time>2012-01-29T08:34:00Z</time>
      </trkpt>
      <trkpt lat="43.46" lon="3.49532">
        <ele>80</ele>
        <time>2012-01-29T08:34:03Z</time>
      </trkpt>
      <trkpt lat="43.45998" lon="3.49527">
        <ele>80</ele>
        <time>2012-01-29T08:34:06Z</time>
      </trkpt>
      <trkpt lat="43.45996" lon="3.49523">
        <ele>80</ele>
        <time>2012-01-29T08:34:09Z</time>
      </trkpt>
      <trkpt lat="43.45994" lon="3.49519">
        <ele>79</ele>
        <time>2012-01-29T08:34:12Z</time>
      </trkpt>
      <trkpt lat="43.45992" lon="3.49515">
        <ele>80</ele>
        <time>2012-01-29T08:34:15Z</time>
      </trkpt>
      <trkpt lat="43.4599" lon="3.49511">
        <ele>81</ele>
        <time>2012-01-29T08:34:18Z</time>
      </trkpt>
      <trkpt lat="43.4599" lon="3.49509">
        <ele>81</ele>
        <time>2012-01-29T08:34:19Z</time>
      </trkpt>
      <trkpt lat="43.45987" lon="3.49502">
        <ele>81</ele>
        <time>2012-01-29T08:34:24Z</time>
      </trkpt>
      <trkpt lat="43.45985" lon="3.49498">
        <ele>81</ele>
        <time>2012-01-29T08:34:27Z</time>
      </trkpt>
      <trkpt lat="43.45983" lon="3.49493">
        <ele>81</ele>
        <time>2012-01-29T08:34:30Z</time>
      </trkpt>
      <trkpt lat="43.45981" lon="3.49489">
        <ele>81</ele>
        <time>2012-01-29T08:34:33Z</time>
      </trkpt>
      <trkpt lat="43.4598" lon="3.49484">
        <ele>81</ele>
        <time>2012-01-29T08:34:36Z</time>
      </trkpt>
      <trkpt lat="43.45978" lon="3.49479">
        <ele>80</ele>
        <time>2012-01-29T08:34:39Z</time>
      </trkpt>
      <trkpt lat="43.45977" lon="3.49474">
        <ele>80</ele>
        <time>2012-01-29T08:34:42Z</time>
      </trkpt>
      <trkpt lat="43.45975" lon="3.49469">
        <ele>80</ele>
        <time>2012-01-29T08:34:45Z</time>
      </trkpt>
      <trkpt lat="43.45974" lon="3.49464">
        <ele>81</ele>
        <time>2012-01-29T08:34:48Z</time>
      </trkpt>
      <trkpt lat="43.45973" lon="3.4946">
        <ele>80</ele>
        <time>2012-01-29T08:34:51Z</time>
      </trkpt>
      <trkpt lat="43.45972" lon="3.49454">
        <ele>80</ele>
        <time>2012-01-29T08:34:54Z</time>
      </trkpt>
      <trkpt lat="43.45971" lon="3.4945">
        <ele>81</ele>
        <time>2012-01-29T08:34:57Z</time>
      </trkpt>
      <trkpt lat="43.4597" lon="3.49445">
        <ele>81</ele>
        <time>2012-01-29T08:35:00Z</time>
      </trkpt>
      <trkpt lat="43.45969" lon="3.4944">
        <ele>81</ele>
        <time>2012-01-29T08:35:03Z</time>
      </trkpt>
      <trkpt lat="43.45967" lon="3.49435">
        <ele>81</ele>
        <time>2012-01-29T08:35:06Z</time>
      </trkpt>
      <trkpt lat="43.45966" lon="3.4943">
        <ele>81</ele>
        <time>2012-01-29T08:35:09Z</time>
      </trkpt>
      <trkpt lat="43.45964" lon="3.49426">
        <ele>81</ele>
        <time>2012-01-29T08:35:12Z</time>
      </trkpt>
      <trkpt lat="43.45962" lon="3.49421">
        <ele>81</ele>
        <time>2012-01-29T08:35:15Z</time>
      </trkpt>
      <trkpt lat="43.4596" lon="3.49417">
        <ele>81</ele>
        <time>2012-01-29T08:35:18Z</time>
      </trkpt>
      <trkpt lat="43.45958" lon="3.49413">
        <ele>81</ele>
        <time>2012-01-29T08:35:21Z</time>
      </trkpt>
      <trkpt lat="43.45957" lon="3.49411">
        <ele>82</ele>
        <time>2012-01-29T08:35:22Z</time>
      </trkpt>
      <trkpt lat="43.45954" lon="3.49404">
        <ele>81</ele>
        <time>2012-01-29T08:35:27Z</time>
      </trkpt>
      <trkpt lat="43.45951" lon="3.494">
        <ele>80</ele>
        <time>2012-01-29T08:35:30Z</time>
      </trkpt>
      <trkpt lat="43.45949" lon="3.49396">
        <ele>81</ele>
        <time>2012-01-29T08:35:33Z</time>
      </trkpt>
      <trkpt lat="43.45947" lon="3.49392">
        <ele>81</ele>
        <time>2012-01-29T08:35:36Z</time>
      </trkpt>
      <trkpt lat="43.45945" lon="3.49388">
        <ele>81</ele>
        <time>2012-01-29T08:35:39Z</time>
      </trkpt>
      <trkpt lat="43.45942" lon="3.49384">
        <ele>81</ele>
        <time>2012-01-29T08:35:42Z</time>
      </trkpt>
      <trkpt lat="43.4594" lon="3.4938">
        <ele>81</ele>
        <time>2012-01-29T08:35:45Z</time>
      </trkpt>
      <trkpt lat="43.45938" lon="3.49376">
        <ele>82</ele>
        <time>2012-01-29T08:35:48Z</time>
      </trkpt>
      <trkpt lat="43.45936" lon="3.49371">
        <ele>81</ele>
        <time>2012-01-29T08:35:51Z</time>
      </trkpt>
      <trkpt lat="43.45933" lon="3.49367">
        <ele>82</ele>
        <time>2012-01-29T08:35:54Z</time>
      </trkpt>
      <trkpt lat="43.45931" lon="3.49364">
        <ele>83</ele>
        <time>2012-01-29T08:35:57Z</time>
      </trkpt>
      <trkpt lat="43.45928" lon="3.4936">
        <ele>82</ele>
        <time>2012-01-29T08:36:00Z</time>
      </trkpt>
      <trkpt lat="43.45925" lon="3.49357">
        <ele>82</ele>
        <time>2012-01-29T08:36:03Z</time>
      </trkpt>
      <trkpt lat="43.45922" lon="3.49354">
        <ele>82</ele>
        <time>2012-01-29T08:36:06Z</time>
      </trkpt>
      <trkpt lat="43.45919" lon="3.49352">
        <ele>82</ele>
        <time>2012-01-29T08:36:09Z</time>
      </trkpt>
      <trkpt lat="43.45915" lon="3.4935">
        <ele>82</ele>
        <time>2012-01-29T08:36:12Z</time>
      </trkpt>
      <trkpt lat="43.45911" lon="3.49349">
        <ele>83</ele>
        <time>2012-01-29T08:36:15Z</time>
      </trkpt>
      <trkpt lat="43.45908" lon="3.49349">
        <ele>83</ele>
        <time>2012-01-29T08:36:18Z</time>
      </trkpt>
      <trkpt lat="43.45904" lon="3.4935">
        <ele>83</ele>
        <time>2012-01-29T08:36:21Z</time>
      </trkpt>
      <trkpt lat="43.45901" lon="3.49351">
        <ele>82</ele>
        <time>2012-01-29T08:36:24Z</time>
      </trkpt>
      <trkpt lat="43.45899" lon="3.49352">
        <ele>82</ele>
        <time>2012-01-29T08:36:25Z</time>
      </trkpt>
      <trkpt lat="43.45894" lon="3.49355">
        <ele>83</ele>
        <time>2012-01-29T08:36:30Z</time>
      </trkpt>
      <trkpt lat="43.45891" lon="3.49358">
        <ele>83</ele>
        <time>2012-01-29T08:36:33Z</time>
      </trkpt>
      <trkpt lat="43.45888" lon="3.49361">
        <ele>83</ele>
        <time>2012-01-29T08:36:36Z</time>
      </trkpt>
      <trkpt lat="43.45885" lon="3.49364">
        <ele>83</ele>
        <time>2012-01-29T08:36:40Z</time>
      </trkpt>
      <trkpt lat="43.45881" lon="3.49367">
        <ele>83</ele>
        <time>2012-01-29T08:36:44Z</time>
      </trkpt>
      <trkpt lat="43.45877" lon="3.4937">
        <ele>83</ele>
        <time>2012-01-29T08:36:48Z</time>
      </trkpt>
      <trkpt lat="43.45874" lon="3.49372">
        <ele>83</ele>
        <time>2012-01-29T08:36:51Z</time>
      </trkpt>
      <trkpt lat="43.45871" lon="3.49373">
        <ele>83</ele>
        <time>2012-01-29T08:36:54Z</time>
      </trkpt>
      <trkpt lat="43.45866" lon="3.49374">
        <ele>83</ele>
        <time>2012-01-29T08:36:58Z</time>
      </trkpt>
      <trkpt lat="43.45862" lon="3.49375">
        <ele>84</ele>
        <time>2012-01-29T08:37:02Z</time>
      </trkpt>
      <trkpt lat="43.45859" lon="3.49375">
        <ele>84</ele>
        <time>2012-01-29T08:37:05Z</time>
      </trkpt>
      <trkpt lat="43.45855" lon="3.49376">
        <ele>85</ele>
        <time>2012-01-29T08:37:08Z</time>
      </trkpt>
      <trkpt lat="43.45852" lon="3.49376">
        <ele>85</ele>
        <time>2012-01-29T08:37:11Z</time>
      </trkpt>
      <trkpt lat="43.45848" lon="3.49377">
        <ele>85</ele>
        <time>2012-01-29T08:37:14Z</time>
      </trkpt>
      <trkpt lat="43.45844" lon="3.49377">
        <ele>85</ele>
        <time>2012-01-29T08:37:17Z</time>
      </trkpt>
      <trkpt lat="43.4584" lon="3.49376">
        <ele>85</ele>
        <time>2012-01-29T08:37:20Z</time>
      </trkpt>
      <trkpt lat="43.45837" lon="3.49376">
        <ele>85</ele>
        <time>2012-01-29T08:37:23Z</time>
      </trkpt>
      <trkpt lat="43.45833" lon="3.49375">
        <ele>86</ele>
        <time>2012-01-29T08:37:26Z</time>
      </trkpt>
      <trkpt lat="43.45832" lon="3.49375">
        <ele>86</ele>
        <time>2012-01-29T08:37:27Z</time>
      </trkpt>
      <trkpt lat="43.45825" lon="3.49374">
        <ele>86</ele>
        <time>2012-01-29T08:37:32Z</time>
      </trkpt>
      <trkpt lat="43.45821" lon="3.49374">
        <ele>86</ele>
        <time>2012-01-29T08:37:35Z</time>
      </trkpt>
      <trkpt lat="43.45818" lon="3.49374">
        <ele>86</ele>
        <time>2012-01-29T08:37:38Z</time>
      </trkpt>
      <trkpt lat="43.45814" lon="3.49373">
        <ele>85</ele>
        <time>2012-01-29T08:37:41Z</time>
      </trkpt>
      <trkpt lat="43.45811" lon="3.49373">
        <ele>86</ele>
        <time>2012-01-29T08:37:44Z</time>
      </trkpt>
      <trkpt lat="43.45807" lon="3.49372">
        <ele>86</ele>
        <time>2012-01-29T08:37:47Z</time>
      </trkpt>
      <trkpt lat="43.45803" lon="3.49372">
        <ele>86</ele>
        <time>2012-01-29T08:37:50Z</time>
      </trkpt>
      <trkpt lat="43.458" lon="3.49371">
        <ele>85</ele>
        <time>2012-01-29T08:37:53Z</time>
      </trkpt>
      <trkpt lat="43.45796" lon="3.4937">
        <ele>86</ele>
        <time>2012-01-29T08:37:56Z</time>
      </trkpt>
      <trkpt lat="43.45793" lon="3.49369">
        <ele>86</ele>
        <time>2012-01-29T08:37:59Z</time>
      </trkpt>
      <trkpt lat="43.45789" lon="3.49368">
        <ele>86</ele>
        <time>2012-01-29T08:38:02Z</time>
      </trkpt>
      <trkpt lat="43.45786" lon="3.49366">
        <ele>86</ele>
        <time>2012-01-29T08:38:05Z</time>
      </trkpt>
      <trkpt lat="43.45782" lon="3.49365">
        <ele>86</ele>
        <time>2012-01-29T08:38:08Z</time>
      </trkpt>
      <trkpt lat="43.45779" lon="3.49363">
        <ele>85</ele>
        <time>2012-01-29T08:38:11Z</time>
      </trkpt>
      <trkpt lat="43.45776" lon="3.4936">
        <ele>85</ele>
        <time>2012-01-29T08:38:14Z</time>
      </trkpt>
      <trkpt lat="43.45773" lon="3.49358">
        <ele>85</ele>
        <time>2012-01-29T08:38:17Z</time>
      </trkpt>
      <trkpt lat="43.45769" lon="3.49355">
        <ele>85</ele>
        <time>2012-01-29T08:38:20Z</time>
      </trkpt>
      <trkpt lat="43.45766" lon="3.49353">
        <ele>85</ele>
        <time>2012-01-29T08:38:23Z</time>
      </trkpt>
      <trkpt lat="43.45763" lon="3.4935">
        <ele>85</ele>
        <time>2012-01-29T08:38:26Z</time>
      </trkpt>
      <trkpt lat="43.4576" lon="3.49347">
        <ele>85</ele>
        <time>2012-01-29T08:38:29Z</time>
      </trkpt>
      <trkpt lat="43.45759" lon="3.49347">
        <ele>85</ele>
        <time>2012-01-29T08:38:30Z</time>
      </trkpt>
      <trkpt lat="43.45754" lon="3.49342">
        <ele>85</ele>
        <time>2012-01-29T08:38:35Z</time>
      </trkpt>
      <trkpt lat="43.45751" lon="3.49339">
        <ele>84</ele>
        <time>2012-01-29T08:38:38Z</time>
      </trkpt>
      <trkpt lat="43.45747" lon="3.49337">
        <ele>85</ele>
        <time>2012-01-29T08:38:41Z</time>
      </trkpt>
      <trkpt lat="43.45744" lon="3.49334">
        <ele>84</ele>
        <time>2012-01-29T08:38:44Z</time>
      </trkpt>
      <trkpt lat="43.4574" lon="3.49332">
        <ele>83</ele>
        <time>2012-01-29T08:38:47Z</time>
      </trkpt>
      <trkpt lat="43.45737" lon="3.49331">
        <ele>84</ele>
        <time>2012-01-29T08:38:50Z</time>
      </trkpt>
      <trkpt lat="43.45733" lon="3.49329">
        <ele>84</ele>
        <time>2012-01-29T08:38:53Z</time>
      </trkpt>
      <trkpt lat="43.45729" lon="3.49328">
        <ele>84</ele>
        <time>2012-01-29T08:38:56Z</time>
      </trkpt>
      <trkpt lat="43.45725" lon="3.49327">
        <ele>83</ele>
        <time>2012-01-29T08:38:59Z</time>
      </trkpt>
      <trkpt lat="43.45722" lon="3.49326">
        <ele>83</ele>
        <time>2012-01-29T08:39:02Z</time>
      </trkpt>
      <trkpt lat="43.45717" lon="3.49324">
        <ele>83</ele>
        <time>2012-01-29T08:39:05Z</time>
      </trkpt>
      <trkpt lat="43.45714" lon="3.49323">
        <ele>82</ele>
        <time>2012-01-29T08:39:08Z</time>
      </trkpt>
      <trkpt lat="43.4571" lon="3.49322">
        <ele>82</ele>
        <time>2012-01-29T08:39:11Z</time>
      </trkpt>
      <trkpt lat="43.45706" lon="3.49322">
        <ele>82</ele>
        <time>2012-01-29T08:39:14Z</time>
      </trkpt>
      <trkpt lat="43.45701" lon="3.49321">
        <ele>82</ele>
        <time>2012-01-29T08:39:17Z</time>
      </trkpt>
      <trkpt lat="43.45697" lon="3.49322">
        <ele>81</ele>
        <time>2012-01-29T08:39:20Z</time>
      </trkpt>
      <trkpt lat="43.45693" lon="3.49322">
        <ele>82</ele>
        <time>2012-01-29T08:39:23Z</time>
      </trkpt>
      <trkpt lat="43.45689" lon="3.49322">
        <ele>82</ele>
        <time>2012-01-29T08:39:26Z</time>
      </trkpt>
      <trkpt lat="43.45685" lon="3.49322">
        <ele>80</ele>
        <time>2012-01-29T08:39:29Z</time>
      </trkpt>
      <trkpt lat="43.45681" lon="3.49321">
        <ele>80</ele>
        <time>2012-01-29T08:39:32Z</time>
      </trkpt>
      <trkpt lat="43.4568" lon="3.49321">
        <ele>80</ele>
        <time>2012-01-29T08:39:33Z</time>
      </trkpt>
      <trkpt lat="43.45674" lon="3.49318">
        <ele>81</ele>
        <time>2012-01-29T08:39:38Z</time>
      </trkpt>
      <trkpt lat="43.4567" lon="3.49315">
        <ele>80</ele>
        <time>2012-01-29T08:39:41Z</time>
      </trkpt>
      <trkpt lat="43.45667" lon="3.49313">
        <ele>79</ele>
        <time>2012-01-29T08:39:44Z</time>
      </trkpt>
      <trkpt lat="43.45663" lon="3.4931">
        <ele>79</ele>
        <time>2012-01-29T08:39:47Z</time>
      </trkpt>
      <trkpt lat="43.4566" lon="3.49307">
        <ele>79</ele>
        <time>2012-01-29T08:39:50Z</time>
      </trkpt>
      <trkpt lat="43.45657" lon="3.49304">
        <ele>79</ele>
        <time>2012-01-29T08:39:54Z</time>
      </trkpt>
      <trkpt lat="43.45654" lon="3.49301">
        <ele>79</ele>
        <time>2012-01-29T08:39:57Z</time>
      </trkpt>
      <trkpt lat="43.4565" lon="3.49299">
        <ele>80</ele>
        <time>2012-01-29T08:40:00Z</time>
      </trkpt>
      <trkpt lat="43.45647" lon="3.49297">
        <ele>80</ele>
        <time>2012-01-29T08:40:03Z</time>
      </trkpt>
      <trkpt lat="43.45644" lon="3.49295">
        <ele>79</ele>
        <time>2012-01-29T08:40:06Z</time>
      </trkpt>
      <trkpt lat="43.4564" lon="3.49294">
        <ele>79</ele>
        <time>2012-01-29T08:40:09Z</time>
      </trkpt>
      <trkpt lat="43.45636" lon="3.49294">
        <ele>79</ele>
        <time>2012-01-29T08:40:12Z</time>
      </trkpt>
      <trkpt lat="43.45633" lon="3.49293">
        <ele>79</ele>
        <time>2012-01-29T08:40:15Z</time>
      </trkpt>
      <trkpt lat="43.45629" lon="3.49294">
        <ele>78</ele>
        <time>2012-01-29T08:40:18Z</time>
      </trkpt>
      <trkpt lat="43.45625" lon="3.49295">
        <ele>78</ele>
        <time>2012-01-29T08:40:21Z</time>
      </trkpt>
      <trkpt lat="43.45621" lon="3.49295">
        <ele>78</ele>
        <time>2012-01-29T08:40:24Z</time>
      </trkpt>
      <trkpt lat="43.45617" lon="3.49296">
        <ele>79</ele>
        <time>2012-01-29T08:40:27Z</time>
      </trkpt>
      <trkpt lat="43.45614" lon="3.49297">
        <ele>79</ele>
        <time>2012-01-29T08:40:30Z</time>
      </trkpt>
      <trkpt lat="43.4561" lon="3.49298">
        <ele>79</ele>
        <time>2012-01-29T08:40:33Z</time>
      </trkpt>
      <trkpt lat="43.45609" lon="3.49299">
        <ele>79</ele>
        <time>2012-01-29T08:40:34Z</time>
      </trkpt>
      <trkpt lat="43.45603" lon="3.49301">
        <ele>79</ele>
        <time>2012-01-29T08:40:39Z</time>
      </trkpt>
      <trkpt lat="43.45599" lon="3.49303">
        <ele>78</ele>
        <time>2012-01-29T08:40:42Z</time>
      </trkpt>
      <trkpt lat="43.45595" lon="3.49304">
        <ele>79</ele>
        <time>2012-01-29T08:40:45Z</time>
      </trkpt>
      <trkpt lat="43.45592" lon="3.49306">
        <ele>79</ele>
        <time>2012-01-29T08:40:48Z</time>
      </trkpt>
      <trkpt lat="43.45588" lon="3.49308">
        <ele>79</ele>
        <time>2012-01-29T08:40:51Z</time>
      </trkpt>
      <trkpt lat="43.45585" lon="3.4931">
        <ele>79</ele>
        <time>2012-01-29T08:40:54Z</time>
      </trkpt>
      <trkpt lat="43.45581" lon="3.49311">
        <ele>79</ele>
        <time>2012-01-29T08:40:57Z</time>
      </trkpt>
      <trkpt lat="43.45578" lon="3.49314">
        <ele>78</ele>
        <time>2012-01-29T08:41:00Z</time>
      </trkpt>
      <trkpt lat="43.45574" lon="3.49315">
        <ele>79</ele>
        <time>2012-01-29T08:41:03Z</time>
      </trkpt>
      <trkpt lat="43.45571" lon="3.49317">
        <ele>78</ele>
        <time>2012-01-29T08:41:06Z</time>
      </trkpt>
      <trkpt lat="43.45567" lon="3.49319">
        <ele>78</ele>
        <time>2012-01-29T08:41:09Z</time>
      </trkpt>
      <trkpt lat="43.45564" lon="3.49321">
        <ele>78</ele>
        <time>2012-01-29T08:41:12Z</time>
      </trkpt>
      <trkpt lat="43.4556" lon="3.49323">
        <ele>77</ele>
        <time>2012-01-29T08:41:15Z</time>
      </trkpt>
      <trkpt lat="43.45557" lon="3.49325">
        <ele>78</ele>
        <time>2012-01-29T08:41:18Z</time>
      </trkpt>
      <trkpt lat="43.45554" lon="3.49327">
        <ele>78</ele>
        <time>2012-01-29T08:41:21Z</time>
      </trkpt>
      <trkpt lat="43.4555" lon="3.49329">
        <ele>77</ele>
        <time>2012-01-29T08:41:24Z</time>
      </trkpt>
      <trkpt lat="43.45546" lon="3.49331">
        <ele>76</ele>
        <time>2012-01-29T08:41:27Z</time>
      </trkpt>
      <trkpt lat="43.45543" lon="3.49333">
        <ele>77</ele>
        <time>2012-01-29T08:41:30Z</time>
      </trkpt>
      <trkpt lat="43.45539" lon="3.49335">
        <ele>77</ele>
        <time>2012-01-29T08:41:33Z</time>
      </trkpt>
      <trkpt lat="43.45535" lon="3.49336">
        <ele>78</ele>
        <time>2012-01-29T08:41:36Z</time>
      </trkpt>
      <trkpt lat="43.45534" lon="3.49336">
        <ele>78</ele>
        <time>2012-01-29T08:41:37Z</time>
      </trkpt>
      <trkpt lat="43.45528" lon="3.49339">
        <ele>78</ele>
        <time>2012-01-29T08:41:42Z</time>
      </trkpt>
      <trkpt lat="43.45524" lon="3.4934">
        <ele>77</ele>
        <time>2012-01-29T08:41:45Z</time>
      </trkpt>
      <trkpt lat="43.45521" lon="3.49342">
        <ele>77</ele>
        <time>2012-01-29T08:41:48Z</time>
      </trkpt>
      <trkpt lat="43.45517" lon="3.49343">
        <ele>77</ele>
        <time>2012-01-29T08:41:51Z</time>
      </trkpt>
      <trkpt lat="43.45514" lon="3.49345">
        <ele>77</ele>
        <time>2012-01-29T08:41:54Z</time>
      </trkpt>
      <trkpt lat="43.4551" lon="3.49346">
        <ele>78</ele>
        <time>2012-01-29T08:41:57Z</time>
      </trkpt>
      <trkpt lat="43.45507" lon="3.49348">
        <ele>78</ele>
        <time>2012-01-29T08:42:00Z</time>
      </trkpt>
      <trkpt lat="43.45504" lon="3.4935">
        <ele>78</ele>
        <time>2012-01-29T08:42:03Z</time>
      </trkpt>
      <trkpt lat="43.455" lon="3.49352">
        <ele>78</ele>
        <time>2012-01-29T08:42:06Z</time>
      </trkpt>
      <trkpt lat="43.45497" lon="3.49354">
        <ele>78</ele>
        <time>2012-01-29T08:42:09Z</time>
      </trkpt>
      <trkpt lat="43.45493" lon="3.49357">
        <ele>78</ele>
        <time>2012-01-29T08:42:12Z</time>
      </trkpt>
      <trkpt lat="43.4549" lon="3.49359">
        <ele>78</ele>
        <time>2012-01-29T08:42:15Z</time>
      </trkpt>
      <trkpt lat="43.45486" lon="3.49362">
        <ele>78</ele>
        <time>2012-01-29T08:42:18Z</time>
      </trkpt>
      <trkpt lat="43.45483" lon="3.49365">
        <ele>77</ele>
        <time>2012-01-29T08:42:21Z</time>
      </trkpt>
      <trkpt lat="43.4548" lon="3.49367">
        <ele>78</ele>
        <time>2012-01-29T08:42:24Z</time>
      </trkpt>
      <trkpt lat="43.45476" lon="3.49369">
        <ele>78</ele>
        <time>2012-01-29T08:42:27Z</time>
      </trkpt>
      <trkpt lat="43.45473" lon="3.49371">
        <ele>79</ele>
        <time>2012-01-29T08:42:30Z</time>
      </trkpt>
      <trkpt lat="43.45469" lon="3.49373">
        <ele>78</ele>
        <time>2012-01-29T08:42:33Z</time>
      </trkpt>
      <trkpt lat="43.45466" lon="3.49375">
        <ele>78</ele>
        <time>2012-01-29T08:42:36Z</time>
      </trkpt>
      <trkpt lat="43.45462" lon="3.49376">
        <ele>79</ele>
        <time>2012-01-29T08:42:39Z</time>
      </trkpt>
      <trkpt lat="43.45461" lon="3.49377">
        <ele>79</ele>
        <time>2012-01-29T08:42:40Z</time>
      </trkpt>
      <trkpt lat="43.45455" lon="3.49379">
        <ele>79</ele>
        <time>2012-01-29T08:42:45Z</time>
      </trkpt>
      <trkpt lat="43.45452" lon="3.49381">
        <ele>78</ele>
        <time>2012-01-29T08:42:48Z</time>
      </trkpt>
      <trkpt lat="43.45448" lon="3.49382">
        <ele>78</ele>
        <time>2012-01-29T08:42:51Z</time>
      </trkpt>
      <trkpt lat="43.45445" lon="3.49384">
        <ele>78</ele>
        <time>2012-01-29T08:42:54Z</time>
      </trkpt>
      <trkpt lat="43.45441" lon="3.49385">
        <ele>78</ele>
        <time>2012-01-29T08:42:57Z</time>
      </trkpt>
      <trkpt lat="43.45438" lon="3.49386">
        <ele>79</ele>
        <time>2012-01-29T08:43:00Z</time>
      </trkpt>
      <trkpt lat="43.45434" lon="3.49388">
        <ele>79</ele>
        <time>2012-01-29T08:43:03Z</time>
      </trkpt>
      <trkpt lat="43.45431" lon="3.49389">
        <ele>78</ele>
        <time>2012-01-29T08:43:06Z</time>
      </trkpt>
      <trkpt lat="43.45427" lon="3.4939">
        <ele>78</ele>
        <time>2012-01-29T08:43:09Z</time>
      </trkpt>
      <trkpt lat="43.45423" lon="3.49392">
        <ele>78</ele>
        <time>2012-01-29T08:43:12Z</time>
      </trkpt>
      <trkpt lat="43.4542" lon="3.49393">
        <ele>78</ele>
        <time>2012-01-29T08:43:19Z</time>
      </trkpt>
      <trkpt lat="43.45415" lon="3.49394">
        <ele>78</ele>
        <time>2012-01-29T08:43:23Z</time>
      </trkpt>
      <trkpt lat="43.45412" lon="3.49396">
        <ele>78</ele>
        <time>2012-01-29T08:43:26Z</time>
      </trkpt>
      <trkpt lat="43.45409" lon="3.49398">
        <ele>78</ele>
        <time>2012-01-29T08:43:29Z</time>
      </trkpt>
      <trkpt lat="43.45405" lon="3.49399">
        <ele>78</ele>
        <time>2012-01-29T08:43:32Z</time>
      </trkpt>
      <trkpt lat="43.45402" lon="3.49401">
        <ele>79</ele>
        <time>2012-01-29T08:43:35Z</time>
      </trkpt>
      <trkpt lat="43.45398" lon="3.49402">
        <ele>80</ele>
        <time>2012-01-29T08:43:38Z</time>
      </trkpt>
      <trkpt lat="43.45395" lon="3.49402">
        <ele>80</ele>
        <time>2012-01-29T08:43:41Z</time>
      </trkpt>
      <trkpt lat="43.45394" lon="3.49402">
        <ele>80</ele>
        <time>2012-01-29T08:43:42Z</time>
      </trkpt>
      <trkpt lat="43.45388" lon="3.49401">
        <ele>80</ele>
        <time>2012-01-29T08:43:47Z</time>
      </trkpt>
      <trkpt lat="43.45384" lon="3.494">
        <ele>79</ele>
        <time>2012-01-29T08:43:50Z</time>
      </trkpt>
      <trkpt lat="43.45381" lon="3.49399">
        <ele>79</ele>
        <time>2012-01-29T08:43:53Z</time>
      </trkpt>
      <trkpt lat="43.45377" lon="3.49397">
        <ele>78</ele>
        <time>2012-01-29T08:43:56Z</time>
      </trkpt>
      <trkpt lat="43.45373" lon="3.49396">
        <ele>79</ele>
        <time>2012-01-29T08:43:59Z</time>
      </trkpt>
      <trkpt lat="43.4537" lon="3.49394">
        <ele>79</ele>
        <time>2012-01-29T08:44:02Z</time>
      </trkpt>
      <trkpt lat="43.45366" lon="3.49392">
        <ele>79</ele>
        <time>2012-01-29T08:44:05Z</time>
      </trkpt>
      <trkpt lat="43.45363" lon="3.49391">
        <ele>79</ele>
        <time>2012-01-29T08:44:08Z</time>
      </trkpt>
      <trkpt lat="43.45359" lon="3.49389">
        <ele>79</ele>
        <time>2012-01-29T08:44:11Z</time>
      </trkpt>
      <trkpt lat="43.45356" lon="3.49387">
        <ele>80</ele>
        <time>2012-01-29T08:44:14Z</time>
      </trkpt>
      <trkpt lat="43.45352" lon="3.49385">
        <ele>79</ele>
        <time>2012-01-29T08:44:17Z</time>
      </trkpt>
      <trkpt lat="43.45349" lon="3.49383">
        <ele>79</ele>
        <time>2012-01-29T08:44:20Z</time>
      </trkpt>
      <trkpt lat="43.45346" lon="3.49381">
        <ele>79</ele>
        <time>2012-01-29T08:44:23Z</time>
      </trkpt>
      <trkpt lat="43.45342" lon="3.49378">
        <ele>79</ele>
        <time>2012-01-29T08:44:26Z</time>
      </trkpt>
      <trkpt lat="43.45339" lon="3.49375">
        <ele>79</ele>
        <time>2012-01-29T08:44:30Z</time>
      </trkpt>
      <trkpt lat="43.45336" lon="3.4937">
        <ele>79</ele>
        <time>2012-01-29T08:44:45Z</time>
      </trkpt>
      <trkpt lat="43.45336" lon="3.4937">
        <ele>79</ele>
        <time>2012-01-29T08:44:46Z</time>
      </trkpt>
      <trkpt lat="43.45332" lon="3.49361">
        <ele>79</ele>
        <time>2012-01-29T08:44:54Z</time>
      </trkpt>
      <trkpt lat="43.45331" lon="3.49355">
        <ele>79</ele>
        <time>2012-01-29T08:44:59Z</time>
      </trkpt>
      <trkpt lat="43.45331" lon="3.4936">
        <ele>79</ele>
        <time>2012-01-29T08:45:42Z</time>
      </trkpt>
      <trkpt lat="43.45332" lon="3.49365">
        <ele>79</ele>
        <time>2012-01-29T08:45:47Z</time>
      </trkpt>
      <trkpt lat="43.45333" lon="3.49366">
        <ele>79</ele>
        <time>2012-01-29T08:45:48Z</time>
      </trkpt>
      <trkpt lat="43.45334" lon="3.49365">
        <ele>79</ele>
        <time>2012-01-29T08:47:46Z</time>
      </trkpt>
      <trkpt lat="43.45334" lon="3.49364">
        <ele>79</ele>
        <time>2012-01-29T08:47:47Z</time>
      </trkpt>
      <trkpt lat="43.45331" lon="3.49363">
        <ele>78</ele>
        <time>2012-01-29T08:49:18Z</time>
      </trkpt>
      <trkpt lat="43.45331" lon="3.49364">
        <ele>78</ele>
        <time>2012-01-29T08:49:19Z</time>
      </trkpt>
      <trkpt lat="43.45329" lon="3.49369">
        <ele>78</ele>
        <time>2012-01-29T08:50:30Z</time>
      </trkpt>
      <trkpt lat="43.45324" lon="3.49378">
        <ele>78</ele>
        <time>2012-01-29T08:51:30Z</time>
      </trkpt>
      <trkpt lat="43.45324" lon="3.49379">
        <ele>78</ele>
        <time>2012-01-29T08:51:31Z</time>
      </trkpt>
      <trkpt lat="43.4532" lon="3.49387">
        <ele>78</ele>
        <time>2012-01-29T08:51:38Z</time>
      </trkpt>
      <trkpt lat="43.45317" lon="3.49391">
        <ele>79</ele>
        <time>2012-01-29T08:51:42Z</time>
      </trkpt>
      <trkpt lat="43.45315" lon="3.49395">
        <ele>80</ele>
        <time>2012-01-29T08:51:45Z</time>
      </trkpt>
      <trkpt lat="43.45313" lon="3.49399">
        <ele>80</ele>
        <time>2012-01-29T08:51:48Z</time>
      </trkpt>
      <trkpt lat="43.45311" lon="3.49403">
        <ele>78</ele>
        <time>2012-01-29T08:51:51Z</time>
      </trkpt>
      <trkpt lat="43.45308" lon="3.49407">
        <ele>79</ele>
        <time>2012-01-29T08:51:54Z</time>
      </trkpt>
      <trkpt lat="43.45306" lon="3.4941">
        <ele>79</ele>
        <time>2012-01-29T08:51:57Z</time>
      </trkpt>
      <trkpt lat="43.45304" lon="3.49414">
        <ele>79</ele>
        <time>2012-01-29T08:52:00Z</time>
      </trkpt>
      <trkpt lat="43.45302" lon="3.49418">
        <ele>79</ele>
        <time>2012-01-29T08:52:03Z</time>
      </trkpt>
      <trkpt lat="43.453" lon="3.49422">
        <ele>79</ele>
        <time>2012-01-29T08:52:06Z</time>
      </trkpt>
      <trkpt lat="43.45298" lon="3.49426">
        <ele>79</ele>
        <time>2012-01-29T08:52:09Z</time>
      </trkpt>
      <trkpt lat="43.45296" lon="3.4943">
        <ele>79</ele>
        <time>2012-01-29T08:52:12Z</time>
      </trkpt>
      <trkpt lat="43.45293" lon="3.49434">
        <ele>79</ele>
        <time>2012-01-29T08:52:15Z</time>
      </trkpt>
      <trkpt lat="43.45291" lon="3.49439">
        <ele>79</ele>
        <time>2012-01-29T08:52:18Z</time>
      </trkpt>
      <trkpt lat="43.45289" lon="3.49443">
        <ele>79</ele>
        <time>2012-01-29T08:52:21Z</time>
      </trkpt>
      <trkpt lat="43.45286" lon="3.49447">
        <ele>79</ele>
        <time>2012-01-29T08:52:24Z</time>
      </trkpt>
      <trkpt lat="43.45284" lon="3.49451">
        <ele>78</ele>
        <time>2012-01-29T08:52:27Z</time>
      </trkpt>
      <trkpt lat="43.45282" lon="3.49456">
        <ele>78</ele>
        <time>2012-01-29T08:52:30Z</time>
      </trkpt>
      <trkpt lat="43.4528" lon="3.4946">
        <ele>78</ele>
        <time>2012-01-29T08:52:33Z</time>
      </trkpt>
      <trkpt lat="43.45279" lon="3.49461">
        <ele>77</ele>
        <time>2012-01-29T08:52:34Z</time>
      </trkpt>
      <trkpt lat="43.45275" lon="3.49467">
        <ele>78</ele>
        <time>2012-01-29T08:52:39Z</time>
      </trkpt>
      <trkpt lat="43.45272" lon="3.49472">
        <ele>78</ele>
        <time>2012-01-29T08:52:42Z</time>
      </trkpt>
      <trkpt lat="43.4527" lon="3.49476">
        <ele>78</ele>
        <time>2012-01-29T08:52:45Z</time>
      </trkpt>
      <trkpt lat="43.45267" lon="3.49479">
        <ele>78</ele>
        <time>2012-01-29T08:52:48Z</time>
      </trkpt>
      <trkpt lat="43.45265" lon="3.49483">
        <ele>78</ele>
        <time>2012-01-29T08:52:51Z</time>
      </trkpt>
      <trkpt lat="43.45262" lon="3.49487">
        <ele>77</ele>
        <time>2012-01-29T08:52:54Z</time>
      </trkpt>
      <trkpt lat="43.4526" lon="3.49491">
        <ele>77</ele>
        <time>2012-01-29T08:52:57Z</time>
      </trkpt>
      <trkpt lat="43.45257" lon="3.49495">
        <ele>77</ele>
        <time>2012-01-29T08:53:00Z</time>
      </trkpt>
      <trkpt lat="43.45255" lon="3.49499">
        <ele>77</ele>
        <time>2012-01-29T08:53:03Z</time>
      </trkpt>
      <trkpt lat="43.45253" lon="3.49503">
        <ele>78</ele>
        <time>2012-01-29T08:53:06Z</time>
      </trkpt>
      <trkpt lat="43.4525" lon="3.49507">
        <ele>77</ele>
        <time>2012-01-29T08:53:09Z</time>
      </trkpt>
      <trkpt lat="43.45248" lon="3.49511">
        <ele>77</ele>
        <time>2012-01-29T08:53:12Z</time>
      </trkpt>
      <trkpt lat="43.45246" lon="3.49514">
        <ele>77</ele>
        <time>2012-01-29T08:53:15Z</time>
      </trkpt>
      <trkpt lat="43.45244" lon="3.49518">
        <ele>76</ele>
        <time>2012-01-29T08:53:18Z</time>
      </trkpt>
      <trkpt lat="43.45241" lon="3.49522">
        <ele>77</ele>
        <time>2012-01-29T08:53:21Z</time>
      </trkpt>
      <trkpt lat="43.45239" lon="3.49526">
        <ele>77</ele>
        <time>2012-01-29T08:53:24Z</time>
      </trkpt>
      <trkpt lat="43.45237" lon="3.4953">
        <ele>77</ele>
        <time>2012-01-29T08:53:27Z</time>
      </trkpt>
      <trkpt lat="43.45235" lon="3.49534">
        <ele>77</ele>
        <time>2012-01-29T08:53:30Z</time>
      </trkpt>
      <trkpt lat="43.45232" lon="3.49538">
        <ele>77</ele>
        <time>2012-01-29T08:53:33Z</time>
      </trkpt>
      <trkpt lat="43.4523" lon="3.49542">
        <ele>77</ele>
        <time>2012-01-29T08:53:36Z</time>
      </trkpt>
      <trkpt lat="43.4523" lon="3.49543">
        <ele>77</ele>
        <time>2012-01-29T08:53:37Z</time>
      </trkpt>
      <trkpt lat="43.45226" lon="3.4955">
        <ele>77</ele>
        <time>2012-01-29T08:53:42Z</time>
      </trkpt>
      <trkpt lat="43.45224" lon="3.49554">
        <ele>77</ele>
        <time>2012-01-29T08:53:45Z</time>
      </trkpt>
      <trkpt lat="43.45222" lon="3.49558">
        <ele>77</ele>
        <time>2012-01-29T08:53:48Z</time>
      </trkpt>
      <trkpt lat="43.4522" lon="3.49562">
        <ele>77</ele>
        <time>2012-01-29T08:53:51Z</time>
      </trkpt>
      <trkpt lat="43.45217" lon="3.49566">
        <ele>76</ele>
        <time>2012-01-29T08:53:54Z</time>
      </trkpt>
      <trkpt lat="43.45215" lon="3.4957">
        <ele>76</ele>
        <time>2012-01-29T08:53:57Z</time>
      </trkpt>
      <trkpt lat="43.45213" lon="3.49574">
        <ele>76</ele>
        <time>2012-01-29T08:54:00Z</time>
      </trkpt>
      <trkpt lat="43.45211" lon="3.49578">
        <ele>76</ele>
        <time>2012-01-29T08:54:03Z</time>
      </trkpt>
      <trkpt lat="43.45209" lon="3.49583">
        <ele>77</ele>
        <time>2012-01-29T08:54:06Z</time>
      </trkpt>
      <trkpt lat="43.45207" lon="3.49587">
        <ele>76</ele>
        <time>2012-01-29T08:54:09Z</time>
      </trkpt>
      <trkpt lat="43.45205" lon="3.49591">
        <ele>77</ele>
        <time>2012-01-29T08:54:12Z</time>
      </trkpt>
      <trkpt lat="43.45203" lon="3.49595">
        <ele>77</ele>
        <time>2012-01-29T08:54:15Z</time>
      </trkpt>
      <trkpt lat="43.45201" lon="3.49599">
        <ele>77</ele>
        <time>2012-01-29T08:54:18Z</time>
      </trkpt>
      <trkpt lat="43.45199" lon="3.49603">
        <ele>77</ele>
        <time>2012-01-29T08:54:21Z</time>
      </trkpt>
      <trkpt lat="43.45197" lon="3.49607">
        <ele>77</ele>
        <time>2012-01-29T08:54:24Z</time>
      </trkpt>
      <trkpt lat="43.45195" lon="3.49611">
        <ele>77</ele>
        <time>2012-01-29T08:54:27Z</time>
      </trkpt>
      <trkpt lat="43.45193" lon="3.49615">
        <ele>77</ele>
        <time>2012-01-29T08:54:30Z</time>
      </trkpt>
      <trkpt lat="43.45191" lon="3.49619">
        <ele>77</ele>
        <time>2012-01-29T08:54:33Z</time>
      </trkpt>
      <trkpt lat="43.45189" lon="3.49623">
        <ele>76</ele>
        <time>2012-01-29T08:54:36Z</time>
      </trkpt>
      <trkpt lat="43.45187" lon="3.49627">
        <ele>76</ele>
        <time>2012-01-29T08:54:39Z</time>
      </trkpt>
      <trkpt lat="43.45186" lon="3.49628">
        <ele>76</ele>
        <time>2012-01-29T08:54:40Z</time>
      </trkpt>
      <trkpt lat="43.45183" lon="3.49635">
        <ele>76</ele>
        <time>2012-01-29T08:54:45Z</time>
      </trkpt>
      <trkpt lat="43.4518" lon="3.49639">
        <ele>76</ele>
        <time>2012-01-29T08:54:48Z</time>
      </trkpt>
      <trkpt lat="43.45178" lon="3.49643">
        <ele>76</ele>
        <time>2012-01-29T08:54:51Z</time>
      </trkpt>
      <trkpt lat="43.45176" lon="3.49646">
        <ele>76</ele>
        <time>2012-01-29T08:54:54Z</time>
      </trkpt>
      <trkpt lat="43.45174" lon="3.4965">
        <ele>76</ele>
        <time>2012-01-29T08:54:57Z</time>
      </trkpt>
      <trkpt lat="43.45171" lon="3.49655">
        <ele>76</ele>
        <time>2012-01-29T08:55:01Z</time>
      </trkpt>
      <trkpt lat="43.45169" lon="3.4966">
        <ele>76</ele>
        <time>2012-01-29T08:55:05Z</time>
      </trkpt>
      <trkpt lat="43.45167" lon="3.49665">
        <ele>76</ele>
        <time>2012-01-29T08:55:08Z</time>
      </trkpt>
      <trkpt lat="43.45165" lon="3.49669">
        <ele>76</ele>
        <time>2012-01-29T08:55:11Z</time>
      </trkpt>
      <trkpt lat="43.45163" lon="3.49673">
        <ele>76</ele>
        <time>2012-01-29T08:55:14Z</time>
      </trkpt>
      <trkpt lat="43.45161" lon="3.49677">
        <ele>75</ele>
        <time>2012-01-29T08:55:17Z</time>
      </trkpt>
      <trkpt lat="43.45159" lon="3.49681">
        <ele>76</ele>
        <time>2012-01-29T08:55:20Z</time>
      </trkpt>
      <trkpt lat="43.45157" lon="3.49685">
        <ele>77</ele>
        <time>2012-01-29T08:55:23Z</time>
      </trkpt>
      <trkpt lat="43.45155" lon="3.49689">
        <ele>78</ele>
        <time>2012-01-29T08:55:26Z</time>
      </trkpt>
      <trkpt lat="43.45153" lon="3.49693">
        <ele>77</ele>
        <time>2012-01-29T08:55:29Z</time>
      </trkpt>
      <trkpt lat="43.45151" lon="3.49698">
        <ele>78</ele>
        <time>2012-01-29T08:55:32Z</time>
      </trkpt>
      <trkpt lat="43.45149" lon="3.49702">
        <ele>77</ele>
        <time>2012-01-29T08:55:35Z</time>
      </trkpt>
      <trkpt lat="43.45147" lon="3.49705">
        <ele>77</ele>
        <time>2012-01-29T08:55:38Z</time>
      </trkpt>
      <trkpt lat="43.45144" lon="3.49709">
        <ele>77</ele>
        <time>2012-01-29T08:55:41Z</time>
      </trkpt>
      <trkpt lat="43.45144" lon="3.4971">
        <ele>77</ele>
        <time>2012-01-29T08:55:42Z</time>
      </trkpt>
      <trkpt lat="43.4514" lon="3.49716">
        <ele>77</ele>
        <time>2012-01-29T08:55:47Z</time>
      </trkpt>
      <trkpt lat="43.45137" lon="3.4972">
        <ele>77</ele>
        <time>2012-01-29T08:55:50Z</time>
      </trkpt>
      <trkpt lat="43.45135" lon="3.49723">
        <ele>77</ele>
        <time>2012-01-29T08:55:53Z</time>
      </trkpt>
      <trkpt lat="43.45132" lon="3.49726">
        <ele>77</ele>
        <time>2012-01-29T08:55:56Z</time>
      </trkpt>
      <trkpt lat="43.45129" lon="3.49729">
        <ele>77</ele>
        <time>2012-01-29T08:55:59Z</time>
      </trkpt>
      <trkpt lat="43.45126" lon="3.49732">
        <ele>77</ele>
        <time>2012-01-29T08:56:02Z</time>
      </trkpt>
      <trkpt lat="43.45123" lon="3.49736">
        <ele>77</ele>
        <time>2012-01-29T08:56:05Z</time>
      </trkpt>
      <trkpt lat="43.4512" lon="3.49738">
        <ele>77</ele>
        <time>2012-01-29T08:56:08Z</time>
      </trkpt>
      <trkpt lat="43.45117" lon="3.49741">
        <ele>77</ele>
        <time>2012-01-29T08:56:11Z</time>
      </trkpt>
      <trkpt lat="43.45114" lon="3.49744">
        <ele>76</ele>
        <time>2012-01-29T08:56:14Z</time>
      </trkpt>
      <trkpt lat="43.45111" lon="3.49746">
        <ele>76</ele>
        <time>2012-01-29T08:56:17Z</time>
      </trkpt>
      <trkpt lat="43.45109" lon="3.4975">
        <ele>75</ele>
        <time>2012-01-29T08:56:20Z</time>
      </trkpt>
      <trkpt lat="43.45105" lon="3.49753">
        <ele>75</ele>
        <time>2012-01-29T08:56:24Z</time>
      </trkpt>
      <trkpt lat="43.45102" lon="3.49757">
        <ele>76</ele>
        <time>2012-01-29T08:56:28Z</time>
      </trkpt>
      <trkpt lat="43.45099" lon="3.4976">
        <ele>77</ele>
        <time>2012-01-29T08:56:31Z</time>
      </trkpt>
      <trkpt lat="43.45096" lon="3.49763">
        <ele>76</ele>
        <time>2012-01-29T08:56:35Z</time>
      </trkpt>
      <trkpt lat="43.45091" lon="3.49765">
        <ele>76</ele>
        <time>2012-01-29T08:56:40Z</time>
      </trkpt>
      <trkpt lat="43.45088" lon="3.49762">
        <ele>76</ele>
        <time>2012-01-29T08:56:47Z</time>
      </trkpt>
      <trkpt lat="43.45088" lon="3.49761">
        <ele>77</ele>
        <time>2012-01-29T08:56:48Z</time>
      </trkpt>
      <trkpt lat="43.45087" lon="3.49765">
        <ele>76</ele>
        <time>2012-01-29T08:57:59Z</time>
      </trkpt>
      <trkpt lat="43.45087" lon="3.49765">
        <ele>76</ele>
        <time>2012-01-29T08:58:00Z</time>
      </trkpt>
      <trkpt lat="43.45084" lon="3.49769">
        <ele>76</ele>
        <time>2012-01-29T08:59:54Z</time>
      </trkpt>
      <trkpt lat="43.45081" lon="3.49779">
        <ele>75</ele>
        <time>2012-01-29T09:01:56Z</time>
      </trkpt>
      <trkpt lat="43.45081" lon="3.4978">
        <ele>75</ele>
        <time>2012-01-29T09:01:57Z</time>
      </trkpt>
      <trkpt lat="43.45075" lon="3.49786">
        <ele>75</ele>
        <time>2012-01-29T09:02:07Z</time>
      </trkpt>
      <trkpt lat="43.45072" lon="3.49789">
        <ele>75</ele>
        <time>2012-01-29T09:02:12Z</time>
      </trkpt>
      <trkpt lat="43.45069" lon="3.49794">
        <ele>74</ele>
        <time>2012-01-29T09:02:18Z</time>
      </trkpt>
      <trkpt lat="43.45066" lon="3.49798">
        <ele>75</ele>
        <time>2012-01-29T09:02:24Z</time>
      </trkpt>
      <trkpt lat="43.45064" lon="3.49802">
        <ele>75</ele>
        <time>2012-01-29T09:02:29Z</time>
      </trkpt>
      <trkpt lat="43.45062" lon="3.49808">
        <ele>75</ele>
        <time>2012-01-29T09:02:34Z</time>
      </trkpt>
      <trkpt lat="43.4506" lon="3.49812">
        <ele>76</ele>
        <time>2012-01-29T09:02:38Z</time>
      </trkpt>
      <trkpt lat="43.45057" lon="3.49816">
        <ele>76</ele>
        <time>2012-01-29T09:02:42Z</time>
      </trkpt>
      <trkpt lat="43.45053" lon="3.4982">
        <ele>76</ele>
        <time>2012-01-29T09:02:46Z</time>
      </trkpt>
      <trkpt lat="43.45051" lon="3.49825">
        <ele>76</ele>
        <time>2012-01-29T09:02:50Z</time>
      </trkpt>
      <trkpt lat="43.45049" lon="3.49829">
        <ele>76</ele>
        <time>2012-01-29T09:02:53Z</time>
      </trkpt>
      <trkpt lat="43.45047" lon="3.49834">
        <ele>76</ele>
        <time>2012-01-29T09:02:57Z</time>
      </trkpt>
      <trkpt lat="43.45046" lon="3.49835">
        <ele>76</ele>
        <time>2012-01-29T09:02:58Z</time>
      </trkpt>
      <trkpt lat="43.45044" lon="3.49842">
        <ele>76</ele>
        <time>2012-01-29T09:03:03Z</time>
      </trkpt>
      <trkpt lat="43.45042" lon="3.49846">
        <ele>76</ele>
        <time>2012-01-29T09:03:06Z</time>
      </trkpt>
      <trkpt lat="43.4504" lon="3.49851">
        <ele>76</ele>
        <time>2012-01-29T09:03:09Z</time>
      </trkpt>
      <trkpt lat="43.45038" lon="3.49854">
        <ele>76</ele>
        <time>2012-01-29T09:03:12Z</time>
      </trkpt>
      <trkpt lat="43.45036" lon="3.49859">
        <ele>76</ele>
        <time>2012-01-29T09:03:16Z</time>
      </trkpt>
      <trkpt lat="43.45033" lon="3.49863">
        <ele>75</ele>
        <time>2012-01-29T09:03:19Z</time>
      </trkpt>
      <trkpt lat="43.45031" lon="3.49867">
        <ele>75</ele>
        <time>2012-01-29T09:03:22Z</time>
      </trkpt>
      <trkpt lat="43.45029" lon="3.49871">
        <ele>75</ele>
        <time>2012-01-29T09:03:25Z</time>
      </trkpt>
      <trkpt lat="43.45027" lon="3.49875">
        <ele>75</ele>
        <time>2012-01-29T09:03:28Z</time>
      </trkpt>
      <trkpt lat="43.45024" lon="3.49879">
        <ele>74</ele>
        <time>2012-01-29T09:03:31Z</time>
      </trkpt>
      <trkpt lat="43.45023" lon="3.49883">
        <ele>74</ele>
        <time>2012-01-29T09:03:34Z</time>
      </trkpt>
      <trkpt lat="43.45021" lon="3.49887">
        <ele>75</ele>
        <time>2012-01-29T09:03:37Z</time>
      </trkpt>
      <trkpt lat="43.45019" lon="3.49891">
        <ele>74</ele>
        <time>2012-01-29T09:03:40Z</time>
      </trkpt>
      <trkpt lat="43.45017" lon="3.49896">
        <ele>75</ele>
        <time>2012-01-29T09:03:43Z</time>
      </trkpt>
      <trkpt lat="43.45015" lon="3.499">
        <ele>75</ele>
        <time>2012-01-29T09:03:46Z</time>
      </trkpt>
      <trkpt lat="43.45013" lon="3.49904">
        <ele>73</ele>
        <time>2012-01-29T09:03:49Z</time>
      </trkpt>
      <trkpt lat="43.45011" lon="3.49909">
        <ele>73</ele>
        <time>2012-01-29T09:03:52Z</time>
      </trkpt>
      <trkpt lat="43.4501" lon="3.49914">
        <ele>74</ele>
        <time>2012-01-29T09:03:55Z</time>
      </trkpt>
      <trkpt lat="43.45008" lon="3.49919">
        <ele>74</ele>
        <time>2012-01-29T09:03:58Z</time>
      </trkpt>
      <trkpt lat="43.45008" lon="3.49921">
        <ele>73</ele>
        <time>2012-01-29T09:03:59Z</time>
      </trkpt>
      <trkpt lat="43.45006" lon="3.4993">
        <ele>73</ele>
        <time>2012-01-29T09:04:04Z</time>
      </trkpt>
      <trkpt lat="43.45004" lon="3.49936">
        <ele>73</ele>
        <time>2012-01-29T09:04:07Z</time>
      </trkpt>
      <trkpt lat="43.45002" lon="3.49942">
        <ele>72</ele>
        <time>2012-01-29T09:04:10Z</time>
      </trkpt>
      <trkpt lat="43.45001" lon="3.49947">
        <ele>72</ele>
        <time>2012-01-29T09:04:13Z</time>
      </trkpt>
      <trkpt lat="43.44999" lon="3.49952">
        <ele>73</ele>
        <time>2012-01-29T09:04:16Z</time>
      </trkpt>
      <trkpt lat="43.44998" lon="3.49957">
        <ele>73</ele>
        <time>2012-01-29T09:04:19Z</time>
      </trkpt>
      <trkpt lat="43.44996" lon="3.49961">
        <ele>73</ele>
        <time>2012-01-29T09:04:22Z</time>
      </trkpt>
      <trkpt lat="43.44994" lon="3.49966">
        <ele>73</ele>
        <time>2012-01-29T09:04:25Z</time>
      </trkpt>
      <trkpt lat="43.44993" lon="3.49971">
        <ele>72</ele>
        <time>2012-01-29T09:04:28Z</time>
      </trkpt>
      <trkpt lat="43.44991" lon="3.49975">
        <ele>72</ele>
        <time>2012-01-29T09:04:31Z</time>
      </trkpt>
      <trkpt lat="43.4499" lon="3.4998">
        <ele>72</ele>
        <time>2012-01-29T09:04:34Z</time>
      </trkpt>
      <trkpt lat="43.44988" lon="3.49984">
        <ele>72</ele>
        <time>2012-01-29T09:04:37Z</time>
      </trkpt>
      <trkpt lat="43.44987" lon="3.49989">
        <ele>72</ele>
        <time>2012-01-29T09:04:40Z</time>
      </trkpt>
      <trkpt lat="43.44986" lon="3.49994">
        <ele>72</ele>
        <time>2012-01-29T09:04:43Z</time>
      </trkpt>
      <trkpt lat="43.44984" lon="3.49999">
        <ele>73</ele>
        <time>2012-01-29T09:04:46Z</time>
      </trkpt>
      <trkpt lat="43.44983" lon="3.50003">
        <ele>73</ele>
        <time>2012-01-29T09:04:49Z</time>
      </trkpt>
      <trkpt lat="43.44982" lon="3.50008">
        <ele>73</ele>
        <time>2012-01-29T09:04:52Z</time>
      </trkpt>
      <trkpt lat="43.44981" lon="3.50013">
        <ele>73</ele>
        <time>2012-01-29T09:04:55Z</time>
      </trkpt>
      <trkpt lat="43.4498" lon="3.50017">
        <ele>73</ele>
        <time>2012-01-29T09:04:58Z</time>
      </trkpt>
      <trkpt lat="43.44979" lon="3.50022">
        <ele>73</ele>
        <time>2012-01-29T09:05:01Z</time>
      </trkpt>
      <trkpt lat="43.44979" lon="3.50023">
        <ele>73</ele>
        <time>2012-01-29T09:05:02Z</time>
      </trkpt>
      <trkpt lat="43.44976" lon="3.50031">
        <ele>74</ele>
        <time>2012-01-29T09:05:07Z</time>
      </trkpt>
      <trkpt lat="43.44974" lon="3.50036">
        <ele>74</ele>
        <time>2012-01-29T09:05:10Z</time>
      </trkpt>
      <trkpt lat="43.44973" lon="3.50041">
        <ele>74</ele>
        <time>2012-01-29T09:05:13Z</time>
      </trkpt>
      <trkpt lat="43.44971" lon="3.50045">
        <ele>74</ele>
        <time>2012-01-29T09:05:16Z</time>
      </trkpt>
      <trkpt lat="43.44969" lon="3.50049">
        <ele>75</ele>
        <time>2012-01-29T09:05:19Z</time>
      </trkpt>
      <trkpt lat="43.44967" lon="3.50054">
        <ele>75</ele>
        <time>2012-01-29T09:05:22Z</time>
      </trkpt>
      <trkpt lat="43.44965" lon="3.50058">
        <ele>74</ele>
        <time>2012-01-29T09:05:25Z</time>
      </trkpt>
      <trkpt lat="43.44964" lon="3.50062">
        <ele>75</ele>
        <time>2012-01-29T09:05:28Z</time>
      </trkpt>
      <trkpt lat="43.44962" lon="3.50066">
        <ele>75</ele>
        <time>2012-01-29T09:05:31Z</time>
      </trkpt>
      <trkpt lat="43.4496" lon="3.50071">
        <ele>75</ele>
        <time>2012-01-29T09:05:34Z</time>
      </trkpt>
      <trkpt lat="43.44959" lon="3.50076">
        <ele>75</ele>
        <time>2012-01-29T09:05:37Z</time>
      </trkpt>
      <trkpt lat="43.44957" lon="3.5008">
        <ele>75</ele>
        <time>2012-01-29T09:05:40Z</time>
      </trkpt>
      <trkpt lat="43.44955" lon="3.50084">
        <ele>74</ele>
        <time>2012-01-29T09:05:43Z</time>
      </trkpt>
      <trkpt lat="43.44953" lon="3.50089">
        <ele>73</ele>
        <time>2012-01-29T09:05:46Z</time>
      </trkpt>
      <trkpt lat="43.44951" lon="3.50094">
        <ele>74</ele>
        <time>2012-01-29T09:05:49Z</time>
      </trkpt>
      <trkpt lat="43.4495" lon="3.50098">
        <ele>75</ele>
        <time>2012-01-29T09:05:52Z</time>
      </trkpt>
      <trkpt lat="43.44948" lon="3.50102">
        <ele>75</ele>
        <time>2012-01-29T09:05:55Z</time>
      </trkpt>
      <trkpt lat="43.44946" lon="3.50107">
        <ele>76</ele>
        <time>2012-01-29T09:05:58Z</time>
      </trkpt>
      <trkpt lat="43.44944" lon="3.50112">
        <ele>75</ele>
        <time>2012-01-29T09:06:02Z</time>
      </trkpt>
      <trkpt lat="43.44944" lon="3.50114">
        <ele>75</ele>
        <time>2012-01-29T09:06:03Z</time>
      </trkpt>
      <trkpt lat="43.44942" lon="3.50123">
        <ele>74</ele>
        <time>2012-01-29T09:06:09Z</time>
      </trkpt>
      <trkpt lat="43.44941" lon="3.50129">
        <ele>74</ele>
        <time>2012-01-29T09:06:13Z</time>
      </trkpt>
      <trkpt lat="43.44941" lon="3.50135">
        <ele>76</ele>
        <time>2012-01-29T09:06:17Z</time>
      </trkpt>
      <trkpt lat="43.44941" lon="3.5014">
        <ele>75</ele>
        <time>2012-01-29T09:06:20Z</time>
      </trkpt>
      <trkpt lat="43.44941" lon="3.50146">
        <ele>76</ele>
        <time>2012-01-29T09:06:24Z</time>
      </trkpt>
      <trkpt lat="43.44942" lon="3.50152">
        <ele>76</ele>
        <time>2012-01-29T09:06:28Z</time>
      </trkpt>
      <trkpt lat="43.44943" lon="3.50158">
        <ele>77</ele>
        <time>2012-01-29T09:06:32Z</time>
      </trkpt>
      <trkpt lat="43.44944" lon="3.50162">
        <ele>77</ele>
        <time>2012-01-29T09:06:35Z</time>
      </trkpt>
      <trkpt lat="43.44945" lon="3.50167">
        <ele>77</ele>
        <time>2012-01-29T09:06:38Z</time>
      </trkpt>
      <trkpt lat="43.44946" lon="3.50171">
        <ele>77</ele>
        <time>2012-01-29T09:06:41Z</time>
      </trkpt>
      <trkpt lat="43.44947" lon="3.50177">
        <ele>77</ele>
        <time>2012-01-29T09:06:44Z</time>
      </trkpt>
      <trkpt lat="43.44948" lon="3.50181">
        <ele>77</ele>
        <time>2012-01-29T09:06:47Z</time>
      </trkpt>
      <trkpt lat="43.44948" lon="3.50186">
        <ele>77</ele>
        <time>2012-01-29T09:06:50Z</time>
      </trkpt>
      <trkpt lat="43.44948" lon="3.50192">
        <ele>77</ele>
        <time>2012-01-29T09:06:53Z</time>
      </trkpt>
      <trkpt lat="43.44948" lon="3.50196">
        <ele>77</ele>
        <time>2012-01-29T09:06:56Z</time>
      </trkpt>
      <trkpt lat="43.44947" lon="3.50201">
        <ele>77</ele>
        <time>2012-01-29T09:06:59Z</time>
      </trkpt>
      <trkpt lat="43.44947" lon="3.50206">
        <ele>77</ele>
        <time>2012-01-29T09:07:02Z</time>
      </trkpt>
      <trkpt lat="43.44946" lon="3.50211">
        <ele>77</ele>
        <time>2012-01-29T09:07:05Z</time>
      </trkpt>
      <trkpt lat="43.44946" lon="3.50213">
        <ele>78</ele>
        <time>2012-01-29T09:07:06Z</time>
      </trkpt>
      <trkpt lat="43.44944" lon="3.50221">
        <ele>79</ele>
        <time>2012-01-29T09:07:12Z</time>
      </trkpt>
      <trkpt lat="43.44941" lon="3.50226">
        <ele>79</ele>
        <time>2012-01-29T09:07:16Z</time>
      </trkpt>
      <trkpt lat="43.44939" lon="3.50231">
        <ele>78</ele>
        <time>2012-01-29T09:07:20Z</time>
      </trkpt>
      <trkpt lat="43.44937" lon="3.50237">
        <ele>79</ele>
        <time>2012-01-29T09:07:24Z</time>
      </trkpt>
      <trkpt lat="43.44936" lon="3.50241">
        <ele>80</ele>
        <time>2012-01-29T09:07:27Z</time>
      </trkpt>
      <trkpt lat="43.44934" lon="3.50247">
        <ele>80</ele>
        <time>2012-01-29T09:07:31Z</time>
      </trkpt>
      <trkpt lat="43.44934" lon="3.50252">
        <ele>80</ele>
        <time>2012-01-29T09:07:35Z</time>
      </trkpt>
      <trkpt lat="43.44933" lon="3.50257">
        <ele>80</ele>
        <time>2012-01-29T09:07:38Z</time>
      </trkpt>
      <trkpt lat="43.44932" lon="3.50262">
        <ele>80</ele>
        <time>2012-01-29T09:07:41Z</time>
      </trkpt>
      <trkpt lat="43.44931" lon="3.50267">
        <ele>80</ele>
        <time>2012-01-29T09:07:44Z</time>
      </trkpt>
      <trkpt lat="43.4493" lon="3.50271">
        <ele>80</ele>
        <time>2012-01-29T09:07:47Z</time>
      </trkpt>
      <trkpt lat="43.44929" lon="3.50276">
        <ele>81</ele>
        <time>2012-01-29T09:07:50Z</time>
      </trkpt>
      <trkpt lat="43.44928" lon="3.50281">
        <ele>81</ele>
        <time>2012-01-29T09:07:53Z</time>
      </trkpt>
      <trkpt lat="43.44926" lon="3.50286">
        <ele>81</ele>
        <time>2012-01-29T09:07:56Z</time>
      </trkpt>
      <trkpt lat="43.44924" lon="3.50291">
        <ele>81</ele>
        <time>2012-01-29T09:07:59Z</time>
      </trkpt>
      <trkpt lat="43.44923" lon="3.50295">
        <ele>81</ele>
        <time>2012-01-29T09:08:02Z</time>
      </trkpt>
      <trkpt lat="43.4492" lon="3.503">
        <ele>80</ele>
        <time>2012-01-29T09:08:05Z</time>
      </trkpt>
      <trkpt lat="43.44918" lon="3.50304">
        <ele>80</ele>
        <time>2012-01-29T09:08:08Z</time>
      </trkpt>
      <trkpt lat="43.44918" lon="3.50305">
        <ele>80</ele>
        <time>2012-01-29T09:08:09Z</time>
      </trkpt>
      <trkpt lat="43.44914" lon="3.50312">
        <ele>80</ele>
        <time>2012-01-29T09:08:14Z</time>
      </trkpt>
      <trkpt lat="43.44913" lon="3.50316">
        <ele>80</ele>
        <time>2012-01-29T09:08:17Z</time>
      </trkpt>
      <trkpt lat="43.44911" lon="3.5032">
        <ele>79</ele>
        <time>2012-01-29T09:08:20Z</time>
      </trkpt>
      <trkpt lat="43.44909" lon="3.50324">
        <ele>80</ele>
        <time>2012-01-29T09:08:23Z</time>
      </trkpt>
      <trkpt lat="43.44907" lon="3.50328">
        <ele>80</ele>
        <time>2012-01-29T09:08:26Z</time>
      </trkpt>
      <trkpt lat="43.44905" lon="3.50332">
        <ele>80</ele>
        <time>2012-01-29T09:08:29Z</time>
      </trkpt>
      <trkpt lat="43.44903" lon="3.50336">
        <ele>80</ele>
        <time>2012-01-29T09:08:32Z</time>
      </trkpt>
      <trkpt lat="43.44901" lon="3.5034">
        <ele>80</ele>
        <time>2012-01-29T09:08:35Z</time>
      </trkpt>
      <trkpt lat="43.44899" lon="3.50343">
        <ele>80</ele>
        <time>2012-01-29T09:08:38Z</time>
      </trkpt>
      <trkpt lat="43.44897" lon="3.50348">
        <ele>79</ele>
        <time>2012-01-29T09:08:42Z</time>
      </trkpt>
      <trkpt lat="43.44895" lon="3.50352">
        <ele>79</ele>
        <time>2012-01-29T09:08:45Z</time>
      </trkpt>
      <trkpt lat="43.44893" lon="3.50356">
        <ele>79</ele>
        <time>2012-01-29T09:08:48Z</time>
      </trkpt>
      <trkpt lat="43.44891" lon="3.50362">
        <ele>79</ele>
        <time>2012-01-29T09:08:52Z</time>
      </trkpt>
      <trkpt lat="43.44889" lon="3.50367">
        <ele>79</ele>
        <time>2012-01-29T09:08:56Z</time>
      </trkpt>
      <trkpt lat="43.44888" lon="3.50372">
        <ele>79</ele>
        <time>2012-01-29T09:09:00Z</time>
      </trkpt>
      <trkpt lat="43.44886" lon="3.50378">
        <ele>79</ele>
        <time>2012-01-29T09:09:04Z</time>
      </trkpt>
      <trkpt lat="43.44885" lon="3.50383">
        <ele>79</ele>
        <time>2012-01-29T09:09:08Z</time>
      </trkpt>
      <trkpt lat="43.44883" lon="3.50389">
        <ele>79</ele>
        <time>2012-01-29T09:09:12Z</time>
      </trkpt>
      <trkpt lat="43.44883" lon="3.5039">
        <ele>79</ele>
        <time>2012-01-29T09:09:13Z</time>
      </trkpt>
      <trkpt lat="43.4488" lon="3.50398">
        <ele>79</ele>
        <time>2012-01-29T09:09:19Z</time>
      </trkpt>
      <trkpt lat="43.44877" lon="3.50403">
        <ele>78</ele>
        <time>2012-01-29T09:09:22Z</time>
      </trkpt>
      <trkpt lat="43.44875" lon="3.50408">
        <ele>78</ele>
        <time>2012-01-29T09:09:25Z</time>
      </trkpt>
      <trkpt lat="43.44873" lon="3.50412">
        <ele>78</ele>
        <time>2012-01-29T09:09:28Z</time>
      </trkpt>
      <trkpt lat="43.44871" lon="3.50417">
        <ele>78</ele>
        <time>2012-01-29T09:09:32Z</time>
      </trkpt>
      <trkpt lat="43.44869" lon="3.50422">
        <ele>79</ele>
        <time>2012-01-29T09:09:36Z</time>
      </trkpt>
      <trkpt lat="43.44868" lon="3.50426">
        <ele>79</ele>
        <time>2012-01-29T09:09:39Z</time>
      </trkpt>
      <trkpt lat="43.44866" lon="3.50431">
        <ele>79</ele>
        <time>2012-01-29T09:09:42Z</time>
      </trkpt>
      <trkpt lat="43.44865" lon="3.50435">
        <ele>79</ele>
        <time>2012-01-29T09:09:45Z</time>
      </trkpt>
      <trkpt lat="43.44863" lon="3.5044">
        <ele>78</ele>
        <time>2012-01-29T09:09:49Z</time>
      </trkpt>
      <trkpt lat="43.44861" lon="3.50446">
        <ele>79</ele>
        <time>2012-01-29T09:09:53Z</time>
      </trkpt>
      <trkpt lat="43.44859" lon="3.50451">
        <ele>79</ele>
        <time>2012-01-29T09:09:57Z</time>
      </trkpt>
      <trkpt lat="43.44857" lon="3.50456">
        <ele>79</ele>
        <time>2012-01-29T09:10:01Z</time>
      </trkpt>
      <trkpt lat="43.44856" lon="3.5046">
        <ele>79</ele>
        <time>2012-01-29T09:10:05Z</time>
      </trkpt>
      <trkpt lat="43.44855" lon="3.50465">
        <ele>79</ele>
        <time>2012-01-29T09:10:09Z</time>
      </trkpt>
      <trkpt lat="43.44852" lon="3.50469">
        <ele>80</ele>
        <time>2012-01-29T09:10:13Z</time>
      </trkpt>
      <trkpt lat="43.44851" lon="3.50469">
        <ele>80</ele>
        <time>2012-01-29T09:10:14Z</time>
      </trkpt>
      <trkpt lat="43.44844" lon="3.50467">
        <ele>80</ele>
        <time>2012-01-29T09:10:22Z</time>
      </trkpt>
      <trkpt lat="43.4484" lon="3.50465">
        <ele>80</ele>
        <time>2012-01-29T09:10:27Z</time>
      </trkpt>
      <trkpt lat="43.44836" lon="3.50464">
        <ele>80</ele>
        <time>2012-01-29T09:10:31Z</time>
      </trkpt>
      <trkpt lat="43.44832" lon="3.50462">
        <ele>81</ele>
        <time>2012-01-29T09:10:35Z</time>
      </trkpt>
      <trkpt lat="43.44828" lon="3.50461">
        <ele>80</ele>
        <time>2012-01-29T09:10:40Z</time>
      </trkpt>
      <trkpt lat="43.44824" lon="3.5046">
        <ele>80</ele>
        <time>2012-01-29T09:10:44Z</time>
      </trkpt>
      <trkpt lat="43.4482" lon="3.5046">
        <ele>80</ele>
        <time>2012-01-29T09:10:48Z</time>
      </trkpt>
      <trkpt lat="43.44816" lon="3.50459">
        <ele>80</ele>
        <time>2012-01-29T09:10:53Z</time>
      </trkpt>
      <trkpt lat="43.44812" lon="3.50459">
        <ele>80</ele>
        <time>2012-01-29T09:10:58Z</time>
      </trkpt>
      <trkpt lat="43.44807" lon="3.50458">
        <ele>80</ele>
        <time>2012-01-29T09:11:04Z</time>
      </trkpt>
      <trkpt lat="43.44804" lon="3.50455">
        <ele>79</ele>
        <time>2012-01-29T09:11:09Z</time>
      </trkpt>
      <trkpt lat="43.44801" lon="3.5045">
        <ele>78</ele>
        <time>2012-01-29T09:11:21Z</time>
      </trkpt>
      <trkpt lat="43.44802" lon="3.5045">
        <ele>77</ele>
        <time>2012-01-29T09:11:22Z</time>
      </trkpt>
      <trkpt lat="43.448" lon="3.50456">
        <ele>77</ele>
        <time>2012-01-29T09:14:00Z</time>
      </trkpt>
      <trkpt lat="43.44795" lon="3.50456">
        <ele>78</ele>
        <time>2012-01-29T09:15:20Z</time>
      </trkpt>
      <trkpt lat="43.44789" lon="3.50461">
        <ele>79</ele>
        <time>2012-01-29T09:16:04Z</time>
      </trkpt>
      <trkpt lat="43.44785" lon="3.50462">
        <ele>79</ele>
        <time>2012-01-29T09:16:09Z</time>
      </trkpt>
      <trkpt lat="43.44781" lon="3.50462">
        <ele>79</ele>
        <time>2012-01-29T09:16:14Z</time>
      </trkpt>
      <trkpt lat="43.44777" lon="3.50464">
        <ele>79</ele>
        <time>2012-01-29T09:16:19Z</time>
      </trkpt>
      <trkpt lat="43.44774" lon="3.50465">
        <ele>79</ele>
        <time>2012-01-29T09:16:23Z</time>
      </trkpt>
      <trkpt lat="43.44773" lon="3.50465">
        <ele>79</ele>
        <time>2012-01-29T09:16:24Z</time>
      </trkpt>
      <trkpt lat="43.44767" lon="3.50469">
        <ele>77</ele>
        <time>2012-01-29T09:16:31Z</time>
      </trkpt>
      <trkpt lat="43.44763" lon="3.50471">
        <ele>77</ele>
        <time>2012-01-29T09:16:35Z</time>
      </trkpt>
      <trkpt lat="43.4476" lon="3.50473">
        <ele>77</ele>
        <time>2012-01-29T09:16:38Z</time>
      </trkpt>
      <trkpt lat="43.44757" lon="3.50477">
        <ele>77</ele>
        <time>2012-01-29T09:16:42Z</time>
      </trkpt>
      <trkpt lat="43.44753" lon="3.5048">
        <ele>77</ele>
        <time>2012-01-29T09:16:46Z</time>
      </trkpt>
      <trkpt lat="43.4475" lon="3.50483">
        <ele>77</ele>
        <time>2012-01-29T09:16:50Z</time>
      </trkpt>
      <trkpt lat="43.44746" lon="3.50486">
        <ele>77</ele>
        <time>2012-01-29T09:16:54Z</time>
      </trkpt>
      <trkpt lat="43.44743" lon="3.50488">
        <ele>76</ele>
        <time>2012-01-29T09:16:57Z</time>
      </trkpt>
      <trkpt lat="43.44739" lon="3.5049">
        <ele>76</ele>
        <time>2012-01-29T09:17:00Z</time>
      </trkpt>
      <trkpt lat="43.44736" lon="3.50491">
        <ele>76</ele>
        <time>2012-01-29T09:17:03Z</time>
      </trkpt>
      <trkpt lat="43.44732" lon="3.50492">
        <ele>76</ele>
        <time>2012-01-29T09:17:06Z</time>
      </trkpt>
      <trkpt lat="43.44728" lon="3.50493">
        <ele>77</ele>
        <time>2012-01-29T09:17:09Z</time>
      </trkpt>
      <trkpt lat="43.44724" lon="3.50493">
        <ele>76</ele>
        <time>2012-01-29T09:17:12Z</time>
      </trkpt>
      <trkpt lat="43.4472" lon="3.50492">
        <ele>77</ele>
        <time>2012-01-29T09:17:15Z</time>
      </trkpt>
      <trkpt lat="43.44716" lon="3.50491">
        <ele>76</ele>
        <time>2012-01-29T09:17:18Z</time>
      </trkpt>
      <trkpt lat="43.44712" lon="3.5049">
        <ele>76</ele>
        <time>2012-01-29T09:17:21Z</time>
      </trkpt>
      <trkpt lat="43.44708" lon="3.50489">
        <ele>76</ele>
        <time>2012-01-29T09:17:24Z</time>
      </trkpt>
      <trkpt lat="43.44707" lon="3.50488">
        <ele>76</ele>
        <time>2012-01-29T09:17:25Z</time>
      </trkpt>
      <trkpt lat="43.44701" lon="3.50486">
        <ele>75</ele>
        <time>2012-01-29T09:17:30Z</time>
      </trkpt>
      <trkpt lat="43.44697" lon="3.50484">
        <ele>75</ele>
        <time>2012-01-29T09:17:33Z</time>
      </trkpt>
      <trkpt lat="43.44693" lon="3.50483">
        <ele>75</ele>
        <time>2012-01-29T09:17:37Z</time>
      </trkpt>
      <trkpt lat="43.44689" lon="3.50481">
        <ele>75</ele>
        <time>2012-01-29T09:17:41Z</time>
      </trkpt>
      <trkpt lat="43.44685" lon="3.50479">
        <ele>75</ele>
        <time>2012-01-29T09:17:45Z</time>
      </trkpt>
      <trkpt lat="43.44682" lon="3.50476">
        <ele>74</ele>
        <time>2012-01-29T09:17:48Z</time>
      </trkpt>
      <trkpt lat="43.44679" lon="3.50475">
        <ele>74</ele>
        <time>2012-01-29T09:17:51Z</time>
      </trkpt>
      <trkpt lat="43.44675" lon="3.50472">
        <ele>74</ele>
        <time>2012-01-29T09:17:54Z</time>
      </trkpt>
      <trkpt lat="43.44672" lon="3.5047">
        <ele>74</ele>
        <time>2012-01-29T09:17:57Z</time>
      </trkpt>
      <trkpt lat="43.44669" lon="3.50467">
        <ele>74</ele>
        <time>2012-01-29T09:18:00Z</time>
      </trkpt>
      <trkpt lat="43.44666" lon="3.50465">
        <ele>73</ele>
        <time>2012-01-29T09:18:03Z</time>
      </trkpt>
      <trkpt lat="43.44662" lon="3.50464">
        <ele>74</ele>
        <time>2012-01-29T09:18:06Z</time>
      </trkpt>
      <trkpt lat="43.44659" lon="3.50462">
        <ele>73</ele>
        <time>2012-01-29T09:18:09Z</time>
      </trkpt>
      <trkpt lat="43.44655" lon="3.5046">
        <ele>72</ele>
        <time>2012-01-29T09:18:12Z</time>
      </trkpt>
      <trkpt lat="43.44652" lon="3.50458">
        <ele>72</ele>
        <time>2012-01-29T09:18:15Z</time>
      </trkpt>
      <trkpt lat="43.44648" lon="3.50457">
        <ele>72</ele>
        <time>2012-01-29T09:18:18Z</time>
      </trkpt>
      <trkpt lat="43.44645" lon="3.50455">
        <ele>72</ele>
        <time>2012-01-29T09:18:21Z</time>
      </trkpt>
      <trkpt lat="43.44641" lon="3.50453">
        <ele>72</ele>
        <time>2012-01-29T09:18:24Z</time>
      </trkpt>
      <trkpt lat="43.44637" lon="3.50451">
        <ele>72</ele>
        <time>2012-01-29T09:18:27Z</time>
      </trkpt>
      <trkpt lat="43.44636" lon="3.50451">
        <ele>72</ele>
        <time>2012-01-29T09:18:28Z</time>
      </trkpt>
      <trkpt lat="43.4463" lon="3.50448">
        <ele>72</ele>
        <time>2012-01-29T09:18:33Z</time>
      </trkpt>
      <trkpt lat="43.44626" lon="3.50446">
        <ele>71</ele>
        <time>2012-01-29T09:18:36Z</time>
      </trkpt>
      <trkpt lat="43.44622" lon="3.50445">
        <ele>71</ele>
        <time>2012-01-29T09:18:39Z</time>
      </trkpt>
      <trkpt lat="43.44618" lon="3.50444">
        <ele>71</ele>
        <time>2012-01-29T09:18:43Z</time>
      </trkpt>
      <trkpt lat="43.44614" lon="3.50442">
        <ele>71</ele>
        <time>2012-01-29T09:18:46Z</time>
      </trkpt>
      <trkpt lat="43.44611" lon="3.50441">
        <ele>71</ele>
        <time>2012-01-29T09:18:49Z</time>
      </trkpt>
      <trkpt lat="43.44607" lon="3.5044">
        <ele>71</ele>
        <time>2012-01-29T09:18:52Z</time>
      </trkpt>
      <trkpt lat="43.44604" lon="3.50439">
        <ele>71</ele>
        <time>2012-01-29T09:18:55Z</time>
      </trkpt>
      <trkpt lat="43.446" lon="3.50438">
        <ele>70</ele>
        <time>2012-01-29T09:18:58Z</time>
      </trkpt>
      <trkpt lat="43.44597" lon="3.50436">
        <ele>69</ele>
        <time>2012-01-29T09:19:01Z</time>
      </trkpt>
      <trkpt lat="43.44593" lon="3.50434">
        <ele>69</ele>
        <time>2012-01-29T09:19:04Z</time>
      </trkpt>
      <trkpt lat="43.44589" lon="3.50433">
        <ele>69</ele>
        <time>2012-01-29T09:19:07Z</time>
      </trkpt>
      <trkpt lat="43.44585" lon="3.50432">
        <ele>69</ele>
        <time>2012-01-29T09:19:10Z</time>
      </trkpt>
      <trkpt lat="43.44581" lon="3.50431">
        <ele>69</ele>
        <time>2012-01-29T09:19:13Z</time>
      </trkpt>
      <trkpt lat="43.44577" lon="3.5043">
        <ele>69</ele>
        <time>2012-01-29T09:19:16Z</time>
      </trkpt>
      <trkpt lat="43.44573" lon="3.50428">
        <ele>69</ele>
        <time>2012-01-29T09:19:19Z</time>
      </trkpt>
      <trkpt lat="43.44569" lon="3.50427">
        <ele>69</ele>
        <time>2012-01-29T09:19:22Z</time>
      </trkpt>
      <trkpt lat="43.44565" lon="3.50426">
        <ele>68</ele>
        <time>2012-01-29T09:19:25Z</time>
      </trkpt>
      <trkpt lat="43.44561" lon="3.50425">
        <ele>69</ele>
        <time>2012-01-29T09:19:28Z</time>
      </trkpt>
      <trkpt lat="43.4456" lon="3.50425">
        <ele>69</ele>
        <time>2012-01-29T09:19:29Z</time>
      </trkpt>
      <trkpt lat="43.44553" lon="3.50422">
        <ele>68</ele>
        <time>2012-01-29T09:19:34Z</time>
      </trkpt>
      <trkpt lat="43.44549" lon="3.50421">
        <ele>68</ele>
        <time>2012-01-29T09:19:37Z</time>
      </trkpt>
      <trkpt lat="43.44545" lon="3.5042">
        <ele>68</ele>
        <time>2012-01-29T09:19:40Z</time>
      </trkpt>
      <trkpt lat="43.44541" lon="3.50419">
        <ele>68</ele>
        <time>2012-01-29T09:19:43Z</time>
      </trkpt>
      <trkpt lat="43.44537" lon="3.50417">
        <ele>68</ele>
        <time>2012-01-29T09:19:46Z</time>
      </trkpt>
      <trkpt lat="43.44533" lon="3.50416">
        <ele>68</ele>
        <time>2012-01-29T09:19:49Z</time>
      </trkpt>
      <trkpt lat="43.4453" lon="3.50415">
        <ele>68</ele>
        <time>2012-01-29T09:19:52Z</time>
      </trkpt>
      <trkpt lat="43.44526" lon="3.50414">
        <ele>67</ele>
        <time>2012-01-29T09:19:55Z</time>
      </trkpt>
      <trkpt lat="43.44523" lon="3.50412">
        <ele>66</ele>
        <time>2012-01-29T09:19:58Z</time>
      </trkpt>
      <trkpt lat="43.44519" lon="3.50411">
        <ele>66</ele>
        <time>2012-01-29T09:20:01Z</time>
      </trkpt>
      <trkpt lat="43.44515" lon="3.50409">
        <ele>67</ele>
        <time>2012-01-29T09:20:04Z</time>
      </trkpt>
      <trkpt lat="43.44512" lon="3.50407">
        <ele>67</ele>
        <time>2012-01-29T09:20:07Z</time>
      </trkpt>
      <trkpt lat="43.44508" lon="3.50405">
        <ele>67</ele>
        <time>2012-01-29T09:20:10Z</time>
      </trkpt>
      <trkpt lat="43.44505" lon="3.50404">
        <ele>67</ele>
        <time>2012-01-29T09:20:13Z</time>
      </trkpt>
      <trkpt lat="43.44502" lon="3.50402">
        <ele>67</ele>
        <time>2012-01-29T09:20:16Z</time>
      </trkpt>
      <trkpt lat="43.44498" lon="3.504">
        <ele>67</ele>
        <time>2012-01-29T09:20:22Z</time>
      </trkpt>
      <trkpt lat="43.44495" lon="3.50398">
        <ele>67</ele>
        <time>2012-01-29T09:20:26Z</time>
      </trkpt>
      <trkpt lat="43.44491" lon="3.50397">
        <ele>66</ele>
        <time>2012-01-29T09:20:30Z</time>
      </trkpt>
      <trkpt lat="43.4449" lon="3.50397">
        <ele>66</ele>
        <time>2012-01-29T09:20:31Z</time>
      </trkpt>
      <trkpt lat="43.44484" lon="3.50394">
        <ele>66</ele>
        <time>2012-01-29T09:20:36Z</time>
      </trkpt>
      <trkpt lat="43.4448" lon="3.50394">
        <ele>67</ele>
        <time>2012-01-29T09:20:39Z</time>
      </trkpt>
      <trkpt lat="43.44477" lon="3.50393">
        <ele>67</ele>
        <time>2012-01-29T09:20:42Z</time>
      </trkpt>
      <trkpt lat="43.44473" lon="3.50392">
        <ele>66</ele>
        <time>2012-01-29T09:20:45Z</time>
      </trkpt>
      <trkpt lat="43.44469" lon="3.50392">
        <ele>66</ele>
        <time>2012-01-29T09:20:48Z</time>
      </trkpt>
      <trkpt lat="43.44465" lon="3.50392">
        <ele>65</ele>
        <time>2012-01-29T09:20:51Z</time>
      </trkpt>
      <trkpt lat="43.44461" lon="3.50391">
        <ele>65</ele>
        <time>2012-01-29T09:20:54Z</time>
      </trkpt>
      <trkpt lat="43.44457" lon="3.50391">
        <ele>64</ele>
        <time>2012-01-29T09:20:57Z</time>
      </trkpt>
      <trkpt lat="43.44453" lon="3.50391">
        <ele>64</ele>
        <time>2012-01-29T09:21:00Z</time>
      </trkpt>
      <trkpt lat="43.44449" lon="3.50391">
        <ele>64</ele>
        <time>2012-01-29T09:21:03Z</time>
      </trkpt>
      <trkpt lat="43.44445" lon="3.50391">
        <ele>64</ele>
        <time>2012-01-29T09:21:06Z</time>
      </trkpt>
      <trkpt lat="43.44441" lon="3.50391">
        <ele>64</ele>
        <time>2012-01-29T09:21:09Z</time>
      </trkpt>
      <trkpt lat="43.44437" lon="3.50391">
        <ele>64</ele>
        <time>2012-01-29T09:21:12Z</time>
      </trkpt>
      <trkpt lat="43.44433" lon="3.5039">
        <ele>64</ele>
        <time>2012-01-29T09:21:15Z</time>
      </trkpt>
      <trkpt lat="43.44429" lon="3.5039">
        <ele>64</ele>
        <time>2012-01-29T09:21:18Z</time>
      </trkpt>
      <trkpt lat="43.44425" lon="3.50389">
        <ele>63</ele>
        <time>2012-01-29T09:21:21Z</time>
      </trkpt>
      <trkpt lat="43.44421" lon="3.50389">
        <ele>62</ele>
        <time>2012-01-29T09:21:24Z</time>
      </trkpt>
      <trkpt lat="43.44417" lon="3.50389">
        <ele>63</ele>
        <time>2012-01-29T09:21:27Z</time>
      </trkpt>
      <trkpt lat="43.44413" lon="3.50389">
        <ele>62</ele>
        <time>2012-01-29T09:21:30Z</time>
      </trkpt>
      <trkpt lat="43.44408" lon="3.50388">
        <ele>62</ele>
        <time>2012-01-29T09:21:33Z</time>
      </trkpt>
      <trkpt lat="43.44407" lon="3.50388">
        <ele>62</ele>
        <time>2012-01-29T09:21:34Z</time>
      </trkpt>
      <trkpt lat="43.444" lon="3.50388">
        <ele>62</ele>
        <time>2012-01-29T09:21:39Z</time>
      </trkpt>
      <trkpt lat="43.44395" lon="3.50387">
        <ele>62</ele>
        <time>2012-01-29T09:21:42Z</time>
      </trkpt>
      <trkpt lat="43.44392" lon="3.50387">
        <ele>62</ele>
        <time>2012-01-29T09:21:45Z</time>
      </trkpt>
      <trkpt lat="43.44388" lon="3.50386">
        <ele>62</ele>
        <time>2012-01-29T09:21:48Z</time>
      </trkpt>
      <trkpt lat="43.44385" lon="3.50385">
        <ele>62</ele>
        <time>2012-01-29T09:21:51Z</time>
      </trkpt>
      <trkpt lat="43.44381" lon="3.50384">
        <ele>62</ele>
        <time>2012-01-29T09:21:54Z</time>
      </trkpt>
      <trkpt lat="43.44378" lon="3.50384">
        <ele>62</ele>
        <time>2012-01-29T09:21:59Z</time>
      </trkpt>
      <trkpt lat="43.44374" lon="3.50384">
        <ele>61</ele>
        <time>2012-01-29T09:22:02Z</time>
      </trkpt>
      <trkpt lat="43.4437" lon="3.50384">
        <ele>62</ele>
        <time>2012-01-29T09:22:05Z</time>
      </trkpt>
      <trkpt lat="43.44366" lon="3.50383">
        <ele>62</ele>
        <time>2012-01-29T09:22:08Z</time>
      </trkpt>
      <trkpt lat="43.44363" lon="3.50382">
        <ele>61</ele>
        <time>2012-01-29T09:22:11Z</time>
      </trkpt>
      <trkpt lat="43.44359" lon="3.50382">
        <ele>60</ele>
        <time>2012-01-29T09:22:14Z</time>
      </trkpt>
      <trkpt lat="43.44355" lon="3.50381">
        <ele>60</ele>
        <time>2012-01-29T09:22:17Z</time>
      </trkpt>
      <trkpt lat="43.44351" lon="3.50381">
        <ele>60</ele>
        <time>2012-01-29T09:22:20Z</time>
      </trkpt>
      <trkpt lat="43.44347" lon="3.5038">
        <ele>60</ele>
        <time>2012-01-29T09:22:23Z</time>
      </trkpt>
      <trkpt lat="43.44343" lon="3.50379">
        <ele>59</ele>
        <time>2012-01-29T09:22:26Z</time>
      </trkpt>
      <trkpt lat="43.44339" lon="3.50379">
        <ele>59</ele>
        <time>2012-01-29T09:22:29Z</time>
      </trkpt>
      <trkpt lat="43.44336" lon="3.50379">
        <ele>59</ele>
        <time>2012-01-29T09:22:32Z</time>
      </trkpt>
      <trkpt lat="43.44331" lon="3.50378">
        <ele>59</ele>
        <time>2012-01-29T09:22:36Z</time>
      </trkpt>
      <trkpt lat="43.4433" lon="3.50377">
        <ele>60</ele>
        <time>2012-01-29T09:22:37Z</time>
      </trkpt>
      <trkpt lat="43.44324" lon="3.50376">
        <ele>59</ele>
        <time>2012-01-29T09:22:42Z</time>
      </trkpt>
      <trkpt lat="43.4432" lon="3.50374">
        <ele>60</ele>
        <time>2012-01-29T09:22:46Z</time>
      </trkpt>
      <trkpt lat="43.44317" lon="3.50373">
        <ele>60</ele>
        <time>2012-01-29T09:22:49Z</time>
      </trkpt>
      <trkpt lat="43.44312" lon="3.50372">
        <ele>60</ele>
        <time>2012-01-29T09:22:53Z</time>
      </trkpt>
      <trkpt lat="43.44308" lon="3.50371">
        <ele>59</ele>
        <time>2012-01-29T09:22:57Z</time>
      </trkpt>
      <trkpt lat="43.44305" lon="3.5037">
        <ele>59</ele>
        <time>2012-01-29T09:23:00Z</time>
      </trkpt>
      <trkpt lat="43.44301" lon="3.50369">
        <ele>59</ele>
        <time>2012-01-29T09:23:04Z</time>
      </trkpt>
      <trkpt lat="43.44297" lon="3.50368">
        <ele>59</ele>
        <time>2012-01-29T09:23:08Z</time>
      </trkpt>
      <trkpt lat="43.44293" lon="3.50366">
        <ele>59</ele>
        <time>2012-01-29T09:23:12Z</time>
      </trkpt>
      <trkpt lat="43.4429" lon="3.50365">
        <ele>59</ele>
        <time>2012-01-29T09:23:16Z</time>
      </trkpt>
      <trkpt lat="43.44286" lon="3.50363">
        <ele>59</ele>
        <time>2012-01-29T09:23:19Z</time>
      </trkpt>
      <trkpt lat="43.44282" lon="3.5036">
        <ele>59</ele>
        <time>2012-01-29T09:23:23Z</time>
      </trkpt>
      <trkpt lat="43.44279" lon="3.50359">
        <ele>59</ele>
        <time>2012-01-29T09:23:26Z</time>
      </trkpt>
      <trkpt lat="43.44276" lon="3.50357">
        <ele>59</ele>
        <time>2012-01-29T09:23:29Z</time>
      </trkpt>
      <trkpt lat="43.44273" lon="3.50355">
        <ele>58</ele>
        <time>2012-01-29T09:23:32Z</time>
      </trkpt>
      <trkpt lat="43.44269" lon="3.50353">
        <ele>58</ele>
        <time>2012-01-29T09:23:35Z</time>
      </trkpt>
      <trkpt lat="43.44265" lon="3.50351">
        <ele>58</ele>
        <time>2012-01-29T09:23:38Z</time>
      </trkpt>
      <trkpt lat="43.44264" lon="3.5035">
        <ele>58</ele>
        <time>2012-01-29T09:23:39Z</time>
      </trkpt>
      <trkpt lat="43.44258" lon="3.50347">
        <ele>57</ele>
        <time>2012-01-29T09:23:44Z</time>
      </trkpt>
      <trkpt lat="43.44254" lon="3.50344">
        <ele>57</ele>
        <time>2012-01-29T09:23:47Z</time>
      </trkpt>
      <trkpt lat="43.4425" lon="3.50342">
        <ele>57</ele>
        <time>2012-01-29T09:23:50Z</time>
      </trkpt>
      <trkpt lat="43.44246" lon="3.50339">
        <ele>56</ele>
        <time>2012-01-29T09:23:53Z</time>
      </trkpt>
      <trkpt lat="43.44243" lon="3.50337">
        <ele>56</ele>
        <time>2012-01-29T09:23:55Z</time>
      </trkpt>
      <trkpt lat="43.44239" lon="3.50336">
        <ele>56</ele>
        <time>2012-01-29T09:23:58Z</time>
      </trkpt>
      <trkpt lat="43.44236" lon="3.50334">
        <ele>55</ele>
        <time>2012-01-29T09:24:00Z</time>
      </trkpt>
      <trkpt lat="43.44233" lon="3.50333">
        <ele>55</ele>
        <time>2012-01-29T09:24:02Z</time>
      </trkpt>
      <trkpt lat="43.44229" lon="3.50333">
        <ele>55</ele>
        <time>2012-01-29T09:24:05Z</time>
      </trkpt>
      <trkpt lat="43.44225" lon="3.50332">
        <ele>55</ele>
        <time>2012-01-29T09:24:08Z</time>
      </trkpt>
      <trkpt lat="43.44221" lon="3.50332">
        <ele>55</ele>
        <time>2012-01-29T09:24:11Z</time>
      </trkpt>
      <trkpt lat="43.44217" lon="3.50332">
        <ele>56</ele>
        <time>2012-01-29T09:24:14Z</time>
      </trkpt>
      <trkpt lat="43.44213" lon="3.50333">
        <ele>56</ele>
        <time>2012-01-29T09:24:17Z</time>
      </trkpt>
      <trkpt lat="43.44209" lon="3.50333">
        <ele>56</ele>
        <time>2012-01-29T09:24:20Z</time>
      </trkpt>
      <trkpt lat="43.44205" lon="3.50335">
        <ele>56</ele>
        <time>2012-01-29T09:24:23Z</time>
      </trkpt>
      <trkpt lat="43.44201" lon="3.50336">
        <ele>56</ele>
        <time>2012-01-29T09:24:26Z</time>
      </trkpt>
      <trkpt lat="43.44198" lon="3.50339">
        <ele>55</ele>
        <time>2012-01-29T09:24:29Z</time>
      </trkpt>
      <trkpt lat="43.44194" lon="3.50341">
        <ele>55</ele>
        <time>2012-01-29T09:24:32Z</time>
      </trkpt>
      <trkpt lat="43.44191" lon="3.50344">
        <ele>55</ele>
        <time>2012-01-29T09:24:35Z</time>
      </trkpt>
      <trkpt lat="43.44188" lon="3.50346">
        <ele>54</ele>
        <time>2012-01-29T09:24:38Z</time>
      </trkpt>
      <trkpt lat="43.44184" lon="3.50349">
        <ele>55</ele>
        <time>2012-01-29T09:24:41Z</time>
      </trkpt>
      <trkpt lat="43.44183" lon="3.5035">
        <ele>55</ele>
        <time>2012-01-29T09:24:42Z</time>
      </trkpt>
      <trkpt lat="43.44178" lon="3.50355">
        <ele>54</ele>
        <time>2012-01-29T09:24:47Z</time>
      </trkpt>
      <trkpt lat="43.44176" lon="3.50358">
        <ele>55</ele>
        <time>2012-01-29T09:24:50Z</time>
      </trkpt>
      <trkpt lat="43.44173" lon="3.50361">
        <ele>55</ele>
        <time>2012-01-29T09:24:53Z</time>
      </trkpt>
      <trkpt lat="43.4417" lon="3.50364">
        <ele>55</ele>
        <time>2012-01-29T09:24:56Z</time>
      </trkpt>
      <trkpt lat="43.44167" lon="3.50366">
        <ele>55</ele>
        <time>2012-01-29T09:24:59Z</time>
      </trkpt>
      <trkpt lat="43.44163" lon="3.50367">
        <ele>55</ele>
        <time>2012-01-29T09:25:02Z</time>
      </trkpt>
      <trkpt lat="43.44159" lon="3.50369">
        <ele>55</ele>
        <time>2012-01-29T09:25:06Z</time>
      </trkpt>
      <trkpt lat="43.44155" lon="3.5037">
        <ele>55</ele>
        <time>2012-01-29T09:25:09Z</time>
      </trkpt>
      <trkpt lat="43.44151" lon="3.50371">
        <ele>55</ele>
        <time>2012-01-29T09:25:12Z</time>
      </trkpt>
      <trkpt lat="43.44148" lon="3.50372">
        <ele>55</ele>
        <time>2012-01-29T09:25:15Z</time>
      </trkpt>
      <trkpt lat="43.44144" lon="3.50373">
        <ele>55</ele>
        <time>2012-01-29T09:25:18Z</time>
      </trkpt>
      <trkpt lat="43.4414" lon="3.50373">
        <ele>55</ele>
        <time>2012-01-29T09:25:21Z</time>
      </trkpt>
      <trkpt lat="43.44136" lon="3.50374">
        <ele>54</ele>
        <time>2012-01-29T09:25:24Z</time>
      </trkpt>
      <trkpt lat="43.44132" lon="3.50376">
        <ele>54</ele>
        <time>2012-01-29T09:25:27Z</time>
      </trkpt>
      <trkpt lat="43.44129" lon="3.50377">
        <ele>54</ele>
        <time>2012-01-29T09:25:30Z</time>
      </trkpt>
      <trkpt lat="43.44125" lon="3.50378">
        <ele>55</ele>
        <time>2012-01-29T09:25:32Z</time>
      </trkpt>
      <trkpt lat="43.44122" lon="3.5038">
        <ele>54</ele>
        <time>2012-01-29T09:25:35Z</time>
      </trkpt>
      <trkpt lat="43.44118" lon="3.50383">
        <ele>54</ele>
        <time>2012-01-29T09:25:38Z</time>
      </trkpt>
      <trkpt lat="43.44115" lon="3.50386">
        <ele>54</ele>
        <time>2012-01-29T09:25:41Z</time>
      </trkpt>
      <trkpt lat="43.44111" lon="3.5039">
        <ele>53</ele>
        <time>2012-01-29T09:25:44Z</time>
      </trkpt>
      <trkpt lat="43.4411" lon="3.50391">
        <ele>53</ele>
        <time>2012-01-29T09:25:45Z</time>
      </trkpt>
      <trkpt lat="43.44105" lon="3.50397">
        <ele>54</ele>
        <time>2012-01-29T09:25:50Z</time>
      </trkpt>
      <trkpt lat="43.44102" lon="3.50401">
        <ele>54</ele>
        <time>2012-01-29T09:25:53Z</time>
      </trkpt>
      <trkpt lat="43.44099" lon="3.50404">
        <ele>54</ele>
        <time>2012-01-29T09:25:56Z</time>
      </trkpt>
      <trkpt lat="43.44096" lon="3.50408">
        <ele>54</ele>
        <time>2012-01-29T09:25:59Z</time>
      </trkpt>
      <trkpt lat="43.44093" lon="3.50411">
        <ele>54</ele>
        <time>2012-01-29T09:26:02Z</time>
      </trkpt>
      <trkpt lat="43.44091" lon="3.50415">
        <ele>54</ele>
        <time>2012-01-29T09:26:05Z</time>
      </trkpt>
      <trkpt lat="43.44089" lon="3.50418">
        <ele>54</ele>
        <time>2012-01-29T09:26:08Z</time>
      </trkpt>
      <trkpt lat="43.44086" lon="3.50423">
        <ele>54</ele>
        <time>2012-01-29T09:26:11Z</time>
      </trkpt>
      <trkpt lat="43.44083" lon="3.50427">
        <ele>54</ele>
        <time>2012-01-29T09:26:14Z</time>
      </trkpt>
      <trkpt lat="43.44081" lon="3.50431">
        <ele>54</ele>
        <time>2012-01-29T09:26:17Z</time>
      </trkpt>
      <trkpt lat="43.44079" lon="3.50435">
        <ele>54</ele>
        <time>2012-01-29T09:26:20Z</time>
      </trkpt>
      <trkpt lat="43.44076" lon="3.50438">
        <ele>54</ele>
        <time>2012-01-29T09:26:23Z</time>
      </trkpt>
      <trkpt lat="43.44074" lon="3.50443">
        <ele>55</ele>
        <time>2012-01-29T09:26:26Z</time>
      </trkpt>
      <trkpt lat="43.44072" lon="3.50447">
        <ele>55</ele>
        <time>2012-01-29T09:26:29Z</time>
      </trkpt>
      <trkpt lat="43.44069" lon="3.5045">
        <ele>56</ele>
        <time>2012-01-29T09:26:32Z</time>
      </trkpt>
      <trkpt lat="43.44067" lon="3.50454">
        <ele>56</ele>
        <time>2012-01-29T09:26:35Z</time>
      </trkpt>
      <trkpt lat="43.44063" lon="3.50457">
        <ele>55</ele>
        <time>2012-01-29T09:26:39Z</time>
      </trkpt>
      <trkpt lat="43.44059" lon="3.50459">
        <ele>56</ele>
        <time>2012-01-29T09:26:44Z</time>
      </trkpt>
      <trkpt lat="43.44055" lon="3.50458">
        <ele>55</ele>
        <time>2012-01-29T09:26:49Z</time>
      </trkpt>
      <trkpt lat="43.44054" lon="3.50457">
        <ele>55</ele>
        <time>2012-01-29T09:26:50Z</time>
      </trkpt>
      <trkpt lat="43.44049" lon="3.50451">
        <ele>54</ele>
        <time>2012-01-29T09:26:57Z</time>
      </trkpt>
      <trkpt lat="43.44046" lon="3.50447">
        <ele>54</ele>
        <time>2012-01-29T09:27:01Z</time>
      </trkpt>
      <trkpt lat="43.44042" lon="3.50443">
        <ele>54</ele>
        <time>2012-01-29T09:27:05Z</time>
      </trkpt>
      <trkpt lat="43.44039" lon="3.5044">
        <ele>54</ele>
        <time>2012-01-29T09:27:09Z</time>
      </trkpt>
      <trkpt lat="43.44035" lon="3.50437">
        <ele>53</ele>
        <time>2012-01-29T09:27:13Z</time>
      </trkpt>
      <trkpt lat="43.44032" lon="3.50433">
        <ele>52</ele>
        <time>2012-01-29T09:27:17Z</time>
      </trkpt>
      <trkpt lat="43.44029" lon="3.5043">
        <ele>52</ele>
        <time>2012-01-29T09:27:20Z</time>
      </trkpt>
      <trkpt lat="43.44027" lon="3.50427">
        <ele>52</ele>
        <time>2012-01-29T09:27:23Z</time>
      </trkpt>
      <trkpt lat="43.44023" lon="3.50423">
        <ele>52</ele>
        <time>2012-01-29T09:27:27Z</time>
      </trkpt>
      <trkpt lat="43.44021" lon="3.5042">
        <ele>51</ele>
        <time>2012-01-29T09:27:30Z</time>
      </trkpt>
      <trkpt lat="43.44018" lon="3.50417">
        <ele>51</ele>
        <time>2012-01-29T09:27:33Z</time>
      </trkpt>
      <trkpt lat="43.44015" lon="3.50414">
        <ele>51</ele>
        <time>2012-01-29T09:27:36Z</time>
      </trkpt>
      <trkpt lat="43.44012" lon="3.5041">
        <ele>51</ele>
        <time>2012-01-29T09:27:40Z</time>
      </trkpt>
      <trkpt lat="43.44009" lon="3.50407">
        <ele>51</ele>
        <time>2012-01-29T09:27:43Z</time>
      </trkpt>
      <trkpt lat="43.44006" lon="3.50404">
        <ele>51</ele>
        <time>2012-01-29T09:27:46Z</time>
      </trkpt>
      <trkpt lat="43.44003" lon="3.50401">
        <ele>51</ele>
        <time>2012-01-29T09:27:49Z</time>
      </trkpt>
      <trkpt lat="43.44" lon="3.50398">
        <ele>51</ele>
        <time>2012-01-29T09:27:52Z</time>
      </trkpt>
      <trkpt lat="43.43999" lon="3.50397">
        <ele>50</ele>
        <time>2012-01-29T09:27:53Z</time>
      </trkpt>
      <trkpt lat="43.43994" lon="3.50391">
        <ele>50</ele>
        <time>2012-01-29T09:27:58Z</time>
      </trkpt>
      <trkpt lat="43.43992" lon="3.50388">
        <ele>50</ele>
        <time>2012-01-29T09:28:01Z</time>
      </trkpt>
      <trkpt lat="43.43989" lon="3.50386">
        <ele>49</ele>
        <time>2012-01-29T09:28:04Z</time>
      </trkpt>
      <trkpt lat="43.43986" lon="3.50382">
        <ele>49</ele>
        <time>2012-01-29T09:28:07Z</time>
      </trkpt>
      <trkpt lat="43.43983" lon="3.50379">
        <ele>49</ele>
        <time>2012-01-29T09:28:10Z</time>
      </trkpt>
      <trkpt lat="43.4398" lon="3.50376">
        <ele>48</ele>
        <time>2012-01-29T09:28:13Z</time>
      </trkpt>
      <trkpt lat="43.43978" lon="3.50373">
        <ele>48</ele>
        <time>2012-01-29T09:28:16Z</time>
      </trkpt>
      <trkpt lat="43.43974" lon="3.5037">
        <ele>49</ele>
        <time>2012-01-29T09:28:20Z</time>
      </trkpt>
      <trkpt lat="43.43971" lon="3.50367">
        <ele>48</ele>
        <time>2012-01-29T09:28:23Z</time>
      </trkpt>
      <trkpt lat="43.43968" lon="3.50363">
        <ele>48</ele>
        <time>2012-01-29T09:28:26Z</time>
      </trkpt>
      <trkpt lat="43.43965" lon="3.50361">
        <ele>48</ele>
        <time>2012-01-29T09:28:29Z</time>
      </trkpt>
      <trkpt lat="43.43962" lon="3.50358">
        <ele>48</ele>
        <time>2012-01-29T09:28:32Z</time>
      </trkpt>
      <trkpt lat="43.43959" lon="3.50355">
        <ele>47</ele>
        <time>2012-01-29T09:28:35Z</time>
      </trkpt>
      <trkpt lat="43.43955" lon="3.50352">
        <ele>47</ele>
        <time>2012-01-29T09:28:38Z</time>
      </trkpt>
      <trkpt lat="43.43952" lon="3.5035">
        <ele>46</ele>
        <time>2012-01-29T09:28:41Z</time>
      </trkpt>
      <trkpt lat="43.43949" lon="3.50348">
        <ele>46</ele>
        <time>2012-01-29T09:28:44Z</time>
      </trkpt>
      <trkpt lat="43.43947" lon="3.50345">
        <ele>47</ele>
        <time>2012-01-29T09:28:47Z</time>
      </trkpt>
      <trkpt lat="43.43943" lon="3.50342">
        <ele>47</ele>
        <time>2012-01-29T09:28:50Z</time>
      </trkpt>
      <trkpt lat="43.4394" lon="3.50339">
        <ele>47</ele>
        <time>2012-01-29T09:28:53Z</time>
      </trkpt>
      <trkpt lat="43.43939" lon="3.50338">
        <ele>47</ele>
        <time>2012-01-29T09:28:54Z</time>
      </trkpt>
      <trkpt lat="43.43935" lon="3.50333">
        <ele>46</ele>
        <time>2012-01-29T09:28:59Z</time>
      </trkpt>
      <trkpt lat="43.43931" lon="3.5033">
        <ele>46</ele>
        <time>2012-01-29T09:29:02Z</time>
      </trkpt>
      <trkpt lat="43.43928" lon="3.50327">
        <ele>46</ele>
        <time>2012-01-29T09:29:05Z</time>
      </trkpt>
      <trkpt lat="43.43925" lon="3.50324">
        <ele>46</ele>
        <time>2012-01-29T09:29:08Z</time>
      </trkpt>
      <trkpt lat="43.43923" lon="3.50321">
        <ele>46</ele>
        <time>2012-01-29T09:29:11Z</time>
      </trkpt>
      <trkpt lat="43.4392" lon="3.50318">
        <ele>46</ele>
        <time>2012-01-29T09:29:14Z</time>
      </trkpt>
      <trkpt lat="43.43917" lon="3.50315">
        <ele>46</ele>
        <time>2012-01-29T09:29:17Z</time>
      </trkpt>
      <trkpt lat="43.43914" lon="3.50312">
        <ele>46</ele>
        <time>2012-01-29T09:29:20Z</time>
      </trkpt>
      <trkpt lat="43.43912" lon="3.50309">
        <ele>46</ele>
        <time>2012-01-29T09:29:23Z</time>
      </trkpt>
      <trkpt lat="43.43909" lon="3.50306">
        <ele>46</ele>
        <time>2012-01-29T09:29:26Z</time>
      </trkpt>
      <trkpt lat="43.43906" lon="3.50302">
        <ele>46</ele>
        <time>2012-01-29T09:29:29Z</time>
      </trkpt>
      <trkpt lat="43.43903" lon="3.50299">
        <ele>45</ele>
        <time>2012-01-29T09:29:32Z</time>
      </trkpt>
      <trkpt lat="43.439" lon="3.50296">
        <ele>45</ele>
        <time>2012-01-29T09:29:36Z</time>
      </trkpt>
      <trkpt lat="43.43897" lon="3.50293">
        <ele>45</ele>
        <time>2012-01-29T09:29:39Z</time>
      </trkpt>
      <trkpt lat="43.43895" lon="3.50289">
        <ele>46</ele>
        <time>2012-01-29T09:29:42Z</time>
      </trkpt>
      <trkpt lat="43.43892" lon="3.50285">
        <ele>45</ele>
        <time>2012-01-29T09:29:46Z</time>
      </trkpt>
      <trkpt lat="43.43889" lon="3.50281">
        <ele>45</ele>
        <time>2012-01-29T09:29:50Z</time>
      </trkpt>
      <trkpt lat="43.43885" lon="3.50277">
        <ele>45</ele>
        <time>2012-01-29T09:29:54Z</time>
      </trkpt>
      <trkpt lat="43.43885" lon="3.50276">
        <ele>45</ele>
        <time>2012-01-29T09:29:55Z</time>
      </trkpt>
      <trkpt lat="43.4388" lon="3.50271">
        <ele>45</ele>
        <time>2012-01-29T09:30:00Z</time>
      </trkpt>
      <trkpt lat="43.43877" lon="3.50268">
        <ele>45</ele>
        <time>2012-01-29T09:30:03Z</time>
      </trkpt>
      <trkpt lat="43.43875" lon="3.50265">
        <ele>45</ele>
        <time>2012-01-29T09:30:06Z</time>
      </trkpt>
      <trkpt lat="43.43872" lon="3.50262">
        <ele>45</ele>
        <time>2012-01-29T09:30:09Z</time>
      </trkpt>
      <trkpt lat="43.43869" lon="3.50258">
        <ele>45</ele>
        <time>2012-01-29T09:30:12Z</time>
      </trkpt>
      <trkpt lat="43.43866" lon="3.50254">
        <ele>46</ele>
        <time>2012-01-29T09:30:16Z</time>
      </trkpt>
      <trkpt lat="43.43863" lon="3.50251">
        <ele>45</ele>
        <time>2012-01-29T09:30:20Z</time>
      </trkpt>
      <trkpt lat="43.43859" lon="3.50251">
        <ele>45</ele>
        <time>2012-01-29T09:30:24Z</time>
      </trkpt>
      <trkpt lat="43.43855" lon="3.50252">
        <ele>45</ele>
        <time>2012-01-29T09:30:27Z</time>
      </trkpt>
      <trkpt lat="43.43852" lon="3.50255">
        <ele>46</ele>
        <time>2012-01-29T09:30:30Z</time>
      </trkpt>
      <trkpt lat="43.43849" lon="3.50258">
        <ele>46</ele>
        <time>2012-01-29T09:30:33Z</time>
      </trkpt>
      <trkpt lat="43.43846" lon="3.50261">
        <ele>46</ele>
        <time>2012-01-29T09:30:36Z</time>
      </trkpt>
      <trkpt lat="43.43844" lon="3.50264">
        <ele>45</ele>
        <time>2012-01-29T09:30:39Z</time>
      </trkpt>
      <trkpt lat="43.43841" lon="3.50268">
        <ele>46</ele>
        <time>2012-01-29T09:30:42Z</time>
      </trkpt>
      <trkpt lat="43.43838" lon="3.50271">
        <ele>46</ele>
        <time>2012-01-29T09:30:45Z</time>
      </trkpt>
      <trkpt lat="43.43836" lon="3.50274">
        <ele>46</ele>
        <time>2012-01-29T09:30:48Z</time>
      </trkpt>
      <trkpt lat="43.43833" lon="3.50278">
        <ele>46</ele>
        <time>2012-01-29T09:30:51Z</time>
      </trkpt>
      <trkpt lat="43.4383" lon="3.50281">
        <ele>46</ele>
        <time>2012-01-29T09:30:54Z</time>
      </trkpt>
      <trkpt lat="43.43827" lon="3.50283">
        <ele>46</ele>
        <time>2012-01-29T09:30:57Z</time>
      </trkpt>
      <trkpt lat="43.43826" lon="3.50284">
        <ele>46</ele>
        <time>2012-01-29T09:30:58Z</time>
      </trkpt>
      <trkpt lat="43.4382" lon="3.5029">
        <ele>46</ele>
        <time>2012-01-29T09:31:04Z</time>
      </trkpt>
      <trkpt lat="43.43817" lon="3.50292">
        <ele>46</ele>
        <time>2012-01-29T09:31:07Z</time>
      </trkpt>
      <trkpt lat="43.43815" lon="3.50295">
        <ele>46</ele>
        <time>2012-01-29T09:31:10Z</time>
      </trkpt>
      <trkpt lat="43.43811" lon="3.50299">
        <ele>47</ele>
        <time>2012-01-29T09:31:15Z</time>
      </trkpt>
      <trkpt lat="43.43808" lon="3.50297">
        <ele>48</ele>
        <time>2012-01-29T09:31:29Z</time>
      </trkpt>
      <trkpt lat="43.43804" lon="3.50298">
        <ele>47</ele>
        <time>2012-01-29T09:31:34Z</time>
      </trkpt>
      <trkpt lat="43.43803" lon="3.50304">
        <ele>48</ele>
        <time>2012-01-29T09:31:59Z</time>
      </trkpt>
      <trkpt lat="43.43803" lon="3.50305">
        <ele>48</ele>
        <time>2012-01-29T09:32:00Z</time>
      </trkpt>
      <trkpt lat="43.43808" lon="3.50295">
        <ele>47</ele>
        <time>2012-01-29T09:34:11Z</time>
      </trkpt>
      <trkpt lat="43.43808" lon="3.50296">
        <ele>47</ele>
        <time>2012-01-29T09:34:12Z</time>
      </trkpt>
      <trkpt lat="43.43813" lon="3.50295">
        <ele>47</ele>
        <time>2012-01-29T09:36:53Z</time>
      </trkpt>
      <trkpt lat="43.4382" lon="3.50292">
        <ele>46</ele>
        <time>2012-01-29T09:37:01Z</time>
      </trkpt>
      <trkpt lat="43.43824" lon="3.50289">
        <ele>45</ele>
        <time>2012-01-29T09:37:05Z</time>
      </trkpt>
      <trkpt lat="43.43827" lon="3.50286">
        <ele>46</ele>
        <time>2012-01-29T09:37:09Z</time>
      </trkpt>
      <trkpt lat="43.43831" lon="3.50282">
        <ele>46</ele>
        <time>2012-01-29T09:37:13Z</time>
      </trkpt>
      <trkpt lat="43.43834" lon="3.50278">
        <ele>46</ele>
        <time>2012-01-29T09:37:17Z</time>
      </trkpt>
      <trkpt lat="43.43837" lon="3.50274">
        <ele>46</ele>
        <time>2012-01-29T09:37:21Z</time>
      </trkpt>
      <trkpt lat="43.4384" lon="3.50269">
        <ele>45</ele>
        <time>2012-01-29T09:37:25Z</time>
      </trkpt>
      <trkpt lat="43.43842" lon="3.50265">
        <ele>45</ele>
        <time>2012-01-29T09:37:29Z</time>
      </trkpt>
      <trkpt lat="43.43846" lon="3.5026">
        <ele>45</ele>
        <time>2012-01-29T09:37:33Z</time>
      </trkpt>
      <trkpt lat="43.43848" lon="3.50257">
        <ele>45</ele>
        <time>2012-01-29T09:37:36Z</time>
      </trkpt>
      <trkpt lat="43.43851" lon="3.50253">
        <ele>45</ele>
        <time>2012-01-29T09:37:40Z</time>
      </trkpt>
      <trkpt lat="43.43853" lon="3.50248">
        <ele>44</ele>
        <time>2012-01-29T09:37:44Z</time>
      </trkpt>
      <trkpt lat="43.43855" lon="3.50243">
        <ele>45</ele>
        <time>2012-01-29T09:37:48Z</time>
      </trkpt>
      <trkpt lat="43.43857" lon="3.50238">
        <ele>45</ele>
        <time>2012-01-29T09:37:52Z</time>
      </trkpt>
      <trkpt lat="43.43859" lon="3.50233">
        <ele>45</ele>
        <time>2012-01-29T09:37:56Z</time>
      </trkpt>
      <trkpt lat="43.43859" lon="3.50232">
        <ele>45</ele>
        <time>2012-01-29T09:37:57Z</time>
      </trkpt>
      <trkpt lat="43.43863" lon="3.50224">
        <ele>45</ele>
        <time>2012-01-29T09:38:03Z</time>
      </trkpt>
      <trkpt lat="43.43864" lon="3.5022">
        <ele>45</ele>
        <time>2012-01-29T09:38:06Z</time>
      </trkpt>
      <trkpt lat="43.43866" lon="3.50216">
        <ele>44</ele>
        <time>2012-01-29T09:38:09Z</time>
      </trkpt>
      <trkpt lat="43.43868" lon="3.50211">
        <ele>44</ele>
        <time>2012-01-29T09:38:12Z</time>
      </trkpt>
      <trkpt lat="43.43869" lon="3.50207">
        <ele>44</ele>
        <time>2012-01-29T09:38:15Z</time>
      </trkpt>
      <trkpt lat="43.43871" lon="3.50202">
        <ele>44</ele>
        <time>2012-01-29T09:38:18Z</time>
      </trkpt>
      <trkpt lat="43.43872" lon="3.50198">
        <ele>44</ele>
        <time>2012-01-29T09:38:21Z</time>
      </trkpt>
      <trkpt lat="43.43873" lon="3.50194">
        <ele>44</ele>
        <time>2012-01-29T09:38:24Z</time>
      </trkpt>
      <trkpt lat="43.43875" lon="3.50189">
        <ele>44</ele>
        <time>2012-01-29T09:38:27Z</time>
      </trkpt>
      <trkpt lat="43.43876" lon="3.50185">
        <ele>44</ele>
        <time>2012-01-29T09:38:30Z</time>
      </trkpt>
      <trkpt lat="43.43878" lon="3.50181">
        <ele>44</ele>
        <time>2012-01-29T09:38:33Z</time>
      </trkpt>
      <trkpt lat="43.4388" lon="3.50176">
        <ele>44</ele>
        <time>2012-01-29T09:38:36Z</time>
      </trkpt>
      <trkpt lat="43.43881" lon="3.50171">
        <ele>44</ele>
        <time>2012-01-29T09:38:40Z</time>
      </trkpt>
      <trkpt lat="43.43883" lon="3.50166">
        <ele>44</ele>
        <time>2012-01-29T09:38:43Z</time>
      </trkpt>
      <trkpt lat="43.43885" lon="3.50162">
        <ele>44</ele>
        <time>2012-01-29T09:38:46Z</time>
      </trkpt>
      <trkpt lat="43.43886" lon="3.50158">
        <ele>44</ele>
        <time>2012-01-29T09:38:49Z</time>
      </trkpt>
      <trkpt lat="43.43888" lon="3.50154">
        <ele>44</ele>
        <time>2012-01-29T09:38:52Z</time>
      </trkpt>
      <trkpt lat="43.4389" lon="3.50149">
        <ele>45</ele>
        <time>2012-01-29T09:38:55Z</time>
      </trkpt>
      <trkpt lat="43.43891" lon="3.50144">
        <ele>45</ele>
        <time>2012-01-29T09:38:58Z</time>
      </trkpt>
      <trkpt lat="43.43892" lon="3.50143">
        <ele>44</ele>
        <time>2012-01-29T09:38:59Z</time>
      </trkpt>
      <trkpt lat="43.43895" lon="3.50135">
        <ele>44</ele>
        <time>2012-01-29T09:39:05Z</time>
      </trkpt>
      <trkpt lat="43.43897" lon="3.5013">
        <ele>45</ele>
        <time>2012-01-29T09:39:08Z</time>
      </trkpt>
      <trkpt lat="43.43898" lon="3.50126">
        <ele>45</ele>
        <time>2012-01-29T09:39:11Z</time>
      </trkpt>
      <trkpt lat="43.439" lon="3.50122">
        <ele>45</ele>
        <time>2012-01-29T09:39:14Z</time>
      </trkpt>
      <trkpt lat="43.43901" lon="3.50117">
        <ele>44</ele>
        <time>2012-01-29T09:39:17Z</time>
      </trkpt>
      <trkpt lat="43.43902" lon="3.50113">
        <ele>44</ele>
        <time>2012-01-29T09:39:20Z</time>
      </trkpt>
      <trkpt lat="43.43904" lon="3.50108">
        <ele>44</ele>
        <time>2012-01-29T09:39:23Z</time>
      </trkpt>
      <trkpt lat="43.43905" lon="3.50104">
        <ele>44</ele>
        <time>2012-01-29T09:39:26Z</time>
      </trkpt>
      <trkpt lat="43.43907" lon="3.501">
        <ele>44</ele>
        <time>2012-01-29T09:39:29Z</time>
      </trkpt>
      <trkpt lat="43.43908" lon="3.50095">
        <ele>44</ele>
        <time>2012-01-29T09:39:32Z</time>
      </trkpt>
      <trkpt lat="43.4391" lon="3.50091">
        <ele>44</ele>
        <time>2012-01-29T09:39:35Z</time>
      </trkpt>
      <trkpt lat="43.43911" lon="3.50087">
        <ele>44</ele>
        <time>2012-01-29T09:39:38Z</time>
      </trkpt>
      <trkpt lat="43.43913" lon="3.50082">
        <ele>44</ele>
        <time>2012-01-29T09:39:41Z</time>
      </trkpt>
      <trkpt lat="43.43914" lon="3.50078">
        <ele>43</ele>
        <time>2012-01-29T09:39:44Z</time>
      </trkpt>
      <trkpt lat="43.43916" lon="3.50074">
        <ele>43</ele>
        <time>2012-01-29T09:39:47Z</time>
      </trkpt>
      <trkpt lat="43.43917" lon="3.50069">
        <ele>43</ele>
        <time>2012-01-29T09:39:50Z</time>
      </trkpt>
      <trkpt lat="43.43919" lon="3.50065">
        <ele>43</ele>
        <time>2012-01-29T09:39:53Z</time>
      </trkpt>
      <trkpt lat="43.4392" lon="3.5006">
        <ele>43</ele>
        <time>2012-01-29T09:39:56Z</time>
      </trkpt>
      <trkpt lat="43.43922" lon="3.50056">
        <ele>43</ele>
        <time>2012-01-29T09:39:59Z</time>
      </trkpt>
      <trkpt lat="43.43923" lon="3.50054">
        <ele>43</ele>
        <time>2012-01-29T09:40:00Z</time>
      </trkpt>
      <trkpt lat="43.43926" lon="3.50046">
        <ele>43</ele>
        <time>2012-01-29T09:40:06Z</time>
      </trkpt>
      <trkpt lat="43.43928" lon="3.50042">
        <ele>43</ele>
        <time>2012-01-29T09:40:09Z</time>
      </trkpt>
      <trkpt lat="43.43929" lon="3.50038">
        <ele>43</ele>
        <time>2012-01-29T09:40:12Z</time>
      </trkpt>
      <trkpt lat="43.43931" lon="3.50033">
        <ele>43</ele>
        <time>2012-01-29T09:40:15Z</time>
      </trkpt>
      <trkpt lat="43.43934" lon="3.50028">
        <ele>43</ele>
        <time>2012-01-29T09:40:19Z</time>
      </trkpt>
      <trkpt lat="43.43936" lon="3.50023">
        <ele>43</ele>
        <time>2012-01-29T09:40:23Z</time>
      </trkpt>
      <trkpt lat="43.43938" lon="3.50019">
        <ele>42</ele>
        <time>2012-01-29T09:40:26Z</time>
      </trkpt>
      <trkpt lat="43.43939" lon="3.50014">
        <ele>42</ele>
        <time>2012-01-29T09:40:29Z</time>
      </trkpt>
      <trkpt lat="43.43941" lon="3.5001">
        <ele>42</ele>
        <time>2012-01-29T09:40:32Z</time>
      </trkpt>
      <trkpt lat="43.43943" lon="3.50006">
        <ele>42</ele>
        <time>2012-01-29T09:40:35Z</time>
      </trkpt>
      <trkpt lat="43.43945" lon="3.50002">
        <ele>42</ele>
        <time>2012-01-29T09:40:38Z</time>
      </trkpt>
      <trkpt lat="43.43946" lon="3.49997">
        <ele>42</ele>
        <time>2012-01-29T09:40:41Z</time>
      </trkpt>
      <trkpt lat="43.43948" lon="3.49992">
        <ele>42</ele>
        <time>2012-01-29T09:40:44Z</time>
      </trkpt>
      <trkpt lat="43.43949" lon="3.49987">
        <ele>42</ele>
        <time>2012-01-29T09:40:47Z</time>
      </trkpt>
      <trkpt lat="43.4395" lon="3.49982">
        <ele>42</ele>
        <time>2012-01-29T09:40:50Z</time>
      </trkpt>
      <trkpt lat="43.43951" lon="3.49976">
        <ele>42</ele>
        <time>2012-01-29T09:40:54Z</time>
      </trkpt>
      <trkpt lat="43.43952" lon="3.4997">
        <ele>43</ele>
        <time>2012-01-29T09:40:58Z</time>
      </trkpt>
      <trkpt lat="43.43951" lon="3.49964">
        <ele>43</ele>
        <time>2012-01-29T09:41:02Z</time>
      </trkpt>
      <trkpt lat="43.43951" lon="3.49963">
        <ele>42</ele>
        <time>2012-01-29T09:41:03Z</time>
      </trkpt>
      <trkpt lat="43.43949" lon="3.49953">
        <ele>42</ele>
        <time>2012-01-29T09:41:10Z</time>
      </trkpt>
      <trkpt lat="43.43951" lon="3.49948">
        <ele>42</ele>
        <time>2012-01-29T09:41:14Z</time>
      </trkpt>
      <trkpt lat="43.43954" lon="3.49945">
        <ele>42</ele>
        <time>2012-01-29T09:41:17Z</time>
      </trkpt>
      <trkpt lat="43.43957" lon="3.49942">
        <ele>43</ele>
        <time>2012-01-29T09:41:21Z</time>
      </trkpt>
      <trkpt lat="43.43961" lon="3.4994">
        <ele>42</ele>
        <time>2012-01-29T09:41:25Z</time>
      </trkpt>
      <trkpt lat="43.43964" lon="3.49937">
        <ele>42</ele>
        <time>2012-01-29T09:41:29Z</time>
      </trkpt>
      <trkpt lat="43.43969" lon="3.49935">
        <ele>43</ele>
        <time>2012-01-29T09:41:34Z</time>
      </trkpt>
      <trkpt lat="43.43972" lon="3.49933">
        <ele>42</ele>
        <time>2012-01-29T09:41:38Z</time>
      </trkpt>
      <trkpt lat="43.43977" lon="3.49932">
        <ele>43</ele>
        <time>2012-01-29T09:41:43Z</time>
      </trkpt>
      <trkpt lat="43.43981" lon="3.49931">
        <ele>42</ele>
        <time>2012-01-29T09:41:47Z</time>
      </trkpt>
      <trkpt lat="43.43985" lon="3.49931">
        <ele>43</ele>
        <time>2012-01-29T09:41:51Z</time>
      </trkpt>
      <trkpt lat="43.43988" lon="3.49931">
        <ele>42</ele>
        <time>2012-01-29T09:41:54Z</time>
      </trkpt>
      <trkpt lat="43.43992" lon="3.49932">
        <ele>42</ele>
        <time>2012-01-29T09:41:57Z</time>
      </trkpt>
      <trkpt lat="43.43995" lon="3.49933">
        <ele>42</ele>
        <time>2012-01-29T09:42:00Z</time>
      </trkpt>
      <trkpt lat="43.44" lon="3.49935">
        <ele>42</ele>
        <time>2012-01-29T09:42:04Z</time>
      </trkpt>
      <trkpt lat="43.44001" lon="3.49935">
        <ele>42</ele>
        <time>2012-01-29T09:42:05Z</time>
      </trkpt>
      <trkpt lat="43.44006" lon="3.49938">
        <ele>43</ele>
        <time>2012-01-29T09:42:10Z</time>
      </trkpt>
      <trkpt lat="43.4401" lon="3.4994">
        <ele>43</ele>
        <time>2012-01-29T09:42:13Z</time>
      </trkpt>
      <trkpt lat="43.44014" lon="3.49942">
        <ele>42</ele>
        <time>2012-01-29T09:42:17Z</time>
      </trkpt>
      <trkpt lat="43.44017" lon="3.49943">
        <ele>42</ele>
        <time>2012-01-29T09:42:20Z</time>
      </trkpt>
      <trkpt lat="43.44021" lon="3.49945">
        <ele>42</ele>
        <time>2012-01-29T09:42:23Z</time>
      </trkpt>
      <trkpt lat="43.44024" lon="3.49947">
        <ele>41</ele>
        <time>2012-01-29T09:42:26Z</time>
      </trkpt>
      <trkpt lat="43.44027" lon="3.49949">
        <ele>42</ele>
        <time>2012-01-29T09:42:29Z</time>
      </trkpt>
      <trkpt lat="43.4403" lon="3.49951">
        <ele>42</ele>
        <time>2012-01-29T09:42:32Z</time>
      </trkpt>
      <trkpt lat="43.44034" lon="3.49953">
        <ele>41</ele>
        <time>2012-01-29T09:42:35Z</time>
      </trkpt>
      <trkpt lat="43.44037" lon="3.49955">
        <ele>41</ele>
        <time>2012-01-29T09:42:38Z</time>
      </trkpt>
      <trkpt lat="43.4404" lon="3.49957">
        <ele>42</ele>
        <time>2012-01-29T09:42:41Z</time>
      </trkpt>
      <trkpt lat="43.44044" lon="3.49959">
        <ele>41</ele>
        <time>2012-01-29T09:42:44Z</time>
      </trkpt>
      <trkpt lat="43.44047" lon="3.4996">
        <ele>42</ele>
        <time>2012-01-29T09:42:47Z</time>
      </trkpt>
      <trkpt lat="43.4405" lon="3.4996">
        <ele>42</ele>
        <time>2012-01-29T09:42:50Z</time>
      </trkpt>
      <trkpt lat="43.44054" lon="3.4996">
        <ele>41</ele>
        <time>2012-01-29T09:42:54Z</time>
      </trkpt>
      <trkpt lat="43.44058" lon="3.49959">
        <ele>41</ele>
        <time>2012-01-29T09:42:58Z</time>
      </trkpt>
      <trkpt lat="43.44062" lon="3.49959">
        <ele>41</ele>
        <time>2012-01-29T09:43:02Z</time>
      </trkpt>
      <trkpt lat="43.44065" lon="3.49958">
        <ele>41</ele>
        <time>2012-01-29T09:43:05Z</time>
      </trkpt>
      <trkpt lat="43.44066" lon="3.49957">
        <ele>41</ele>
        <time>2012-01-29T09:43:06Z</time>
      </trkpt>
      <trkpt lat="43.44072" lon="3.49955">
        <ele>41</ele>
        <time>2012-01-29T09:43:12Z</time>
      </trkpt>
      <trkpt lat="43.44075" lon="3.49953">
        <ele>41</ele>
        <time>2012-01-29T09:43:16Z</time>
      </trkpt>
      <trkpt lat="43.44079" lon="3.4995">
        <ele>43</ele>
        <time>2012-01-29T09:43:21Z</time>
      </trkpt>
      <trkpt lat="43.44083" lon="3.49947">
        <ele>43</ele>
        <time>2012-01-29T09:43:26Z</time>
      </trkpt>
      <trkpt lat="43.44087" lon="3.49945">
        <ele>44</ele>
        <time>2012-01-29T09:43:30Z</time>
      </trkpt>
      <trkpt lat="43.4409" lon="3.49943">
        <ele>44</ele>
        <time>2012-01-29T09:43:34Z</time>
      </trkpt>
      <trkpt lat="43.44094" lon="3.49939">
        <ele>43</ele>
        <time>2012-01-29T09:43:38Z</time>
      </trkpt>
      <trkpt lat="43.44096" lon="3.49936">
        <ele>44</ele>
        <time>2012-01-29T09:43:41Z</time>
      </trkpt>
      <trkpt lat="43.44099" lon="3.49933">
        <ele>44</ele>
        <time>2012-01-29T09:43:44Z</time>
      </trkpt>
      <trkpt lat="43.44102" lon="3.49929">
        <ele>44</ele>
        <time>2012-01-29T09:43:47Z</time>
      </trkpt>
      <trkpt lat="43.44104" lon="3.49926">
        <ele>44</ele>
        <time>2012-01-29T09:43:50Z</time>
      </trkpt>
      <trkpt lat="43.44107" lon="3.49923">
        <ele>43</ele>
        <time>2012-01-29T09:43:53Z</time>
      </trkpt>
      <trkpt lat="43.44109" lon="3.4992">
        <ele>43</ele>
        <time>2012-01-29T09:43:56Z</time>
      </trkpt>
      <trkpt lat="43.44112" lon="3.49916">
        <ele>42</ele>
        <time>2012-01-29T09:43:59Z</time>
      </trkpt>
      <trkpt lat="43.44115" lon="3.49912">
        <ele>43</ele>
        <time>2012-01-29T09:44:03Z</time>
      </trkpt>
      <trkpt lat="43.44117" lon="3.49908">
        <ele>43</ele>
        <time>2012-01-29T09:44:06Z</time>
      </trkpt>
      <trkpt lat="43.44118" lon="3.49907">
        <ele>43</ele>
        <time>2012-01-29T09:44:07Z</time>
      </trkpt>
      <trkpt lat="43.44123" lon="3.49901">
        <ele>43</ele>
        <time>2012-01-29T09:44:12Z</time>
      </trkpt>
      <trkpt lat="43.44126" lon="3.49897">
        <ele>43</ele>
        <time>2012-01-29T09:44:15Z</time>
      </trkpt>
      <trkpt lat="43.44129" lon="3.49894">
        <ele>43</ele>
        <time>2012-01-29T09:44:18Z</time>
      </trkpt>
      <trkpt lat="43.44133" lon="3.49891">
        <ele>43</ele>
        <time>2012-01-29T09:44:22Z</time>
      </trkpt>
      <trkpt lat="43.44136" lon="3.49888">
        <ele>43</ele>
        <time>2012-01-29T09:44:26Z</time>
      </trkpt>
      <trkpt lat="43.4414" lon="3.49886">
        <ele>42</ele>
        <time>2012-01-29T09:44:29Z</time>
      </trkpt>
      <trkpt lat="43.44143" lon="3.49884">
        <ele>42</ele>
        <time>2012-01-29T09:44:32Z</time>
      </trkpt>
      <trkpt lat="43.44146" lon="3.49883">
        <ele>42</ele>
        <time>2012-01-29T09:44:35Z</time>
      </trkpt>
      <trkpt lat="43.4415" lon="3.49881">
        <ele>42</ele>
        <time>2012-01-29T09:44:38Z</time>
      </trkpt>
      <trkpt lat="43.44153" lon="3.4988">
        <ele>42</ele>
        <time>2012-01-29T09:44:42Z</time>
      </trkpt>
      <trkpt lat="43.44157" lon="3.49877">
        <ele>42</ele>
        <time>2012-01-29T09:44:47Z</time>
      </trkpt>
      <trkpt lat="43.44162" lon="3.49877">
        <ele>43</ele>
        <time>2012-01-29T09:44:51Z</time>
      </trkpt>
      <trkpt lat="43.44165" lon="3.49875">
        <ele>43</ele>
        <time>2012-01-29T09:44:57Z</time>
      </trkpt>
      <trkpt lat="43.44169" lon="3.49874">
        <ele>43</ele>
        <time>2012-01-29T09:45:01Z</time>
      </trkpt>
      <trkpt lat="43.44173" lon="3.49873">
        <ele>43</ele>
        <time>2012-01-29T09:45:05Z</time>
      </trkpt>
      <trkpt lat="43.44177" lon="3.49872">
        <ele>43</ele>
        <time>2012-01-29T09:45:09Z</time>
      </trkpt>
      <trkpt lat="43.44178" lon="3.49871">
        <ele>43</ele>
        <time>2012-01-29T09:45:10Z</time>
      </trkpt>
      <trkpt lat="43.44184" lon="3.49869">
        <ele>43</ele>
        <time>2012-01-29T09:45:15Z</time>
      </trkpt>
      <trkpt lat="43.44188" lon="3.49868">
        <ele>42</ele>
        <time>2012-01-29T09:45:18Z</time>
      </trkpt>
      <trkpt lat="43.44192" lon="3.49866">
        <ele>42</ele>
        <time>2012-01-29T09:45:21Z</time>
      </trkpt>
      <trkpt lat="43.44196" lon="3.49865">
        <ele>42</ele>
        <time>2012-01-29T09:45:24Z</time>
      </trkpt>
      <trkpt lat="43.442" lon="3.49864">
        <ele>43</ele>
        <time>2012-01-29T09:45:27Z</time>
      </trkpt>
      <trkpt lat="43.44204" lon="3.49862">
        <ele>43</ele>
        <time>2012-01-29T09:45:30Z</time>
      </trkpt>
      <trkpt lat="43.44208" lon="3.4986">
        <ele>43</ele>
        <time>2012-01-29T09:45:33Z</time>
      </trkpt>
      <trkpt lat="43.44212" lon="3.49859">
        <ele>42</ele>
        <time>2012-01-29T09:45:36Z</time>
      </trkpt>
      <trkpt lat="43.44215" lon="3.49857">
        <ele>43</ele>
        <time>2012-01-29T09:45:39Z</time>
      </trkpt>
      <trkpt lat="43.44218" lon="3.49855">
        <ele>43</ele>
        <time>2012-01-29T09:45:42Z</time>
      </trkpt>
      <trkpt lat="43.44222" lon="3.49853">
        <ele>43</ele>
        <time>2012-01-29T09:45:45Z</time>
      </trkpt>
      <trkpt lat="43.44225" lon="3.49851">
        <ele>43</ele>
        <time>2012-01-29T09:45:48Z</time>
      </trkpt>
      <trkpt lat="43.44228" lon="3.49849">
        <ele>43</ele>
        <time>2012-01-29T09:45:51Z</time>
      </trkpt>
      <trkpt lat="43.44232" lon="3.49847">
        <ele>43</ele>
        <time>2012-01-29T09:45:54Z</time>
      </trkpt>
      <trkpt lat="43.44235" lon="3.49845">
        <ele>43</ele>
        <time>2012-01-29T09:45:57Z</time>
      </trkpt>
      <trkpt lat="43.44238" lon="3.49844">
        <ele>43</ele>
        <time>2012-01-29T09:46:00Z</time>
      </trkpt>
      <trkpt lat="43.44242" lon="3.49842">
        <ele>44</ele>
        <time>2012-01-29T09:46:04Z</time>
      </trkpt>
      <trkpt lat="43.44246" lon="3.4984">
        <ele>43</ele>
        <time>2012-01-29T09:46:08Z</time>
      </trkpt>
      <trkpt lat="43.44251" lon="3.49839">
        <ele>44</ele>
        <time>2012-01-29T09:46:12Z</time>
      </trkpt>
      <trkpt lat="43.44252" lon="3.49839">
        <ele>44</ele>
        <time>2012-01-29T09:46:13Z</time>
      </trkpt>
      <trkpt lat="43.44259" lon="3.49837">
        <ele>43</ele>
        <time>2012-01-29T09:46:21Z</time>
      </trkpt>
      <trkpt lat="43.44263" lon="3.49836">
        <ele>43</ele>
        <time>2012-01-29T09:46:25Z</time>
      </trkpt>
      <trkpt lat="43.44267" lon="3.49835">
        <ele>43</ele>
        <time>2012-01-29T09:46:29Z</time>
      </trkpt>
      <trkpt lat="43.44271" lon="3.49833">
        <ele>42</ele>
        <time>2012-01-29T09:46:33Z</time>
      </trkpt>
      <trkpt lat="43.44274" lon="3.49831">
        <ele>43</ele>
        <time>2012-01-29T09:46:36Z</time>
      </trkpt>
      <trkpt lat="43.44278" lon="3.49831">
        <ele>43</ele>
        <time>2012-01-29T09:46:40Z</time>
      </trkpt>
      <trkpt lat="43.44282" lon="3.49831">
        <ele>43</ele>
        <time>2012-01-29T09:46:43Z</time>
      </trkpt>
      <trkpt lat="43.44286" lon="3.49831">
        <ele>43</ele>
        <time>2012-01-29T09:46:47Z</time>
      </trkpt>
      <trkpt lat="43.44289" lon="3.49832">
        <ele>44</ele>
        <time>2012-01-29T09:46:50Z</time>
      </trkpt>
      <trkpt lat="43.44293" lon="3.49831">
        <ele>43</ele>
        <time>2012-01-29T09:46:53Z</time>
      </trkpt>
      <trkpt lat="43.44298" lon="3.49832">
        <ele>44</ele>
        <time>2012-01-29T09:46:56Z</time>
      </trkpt>
      <trkpt lat="43.44302" lon="3.49831">
        <ele>43</ele>
        <time>2012-01-29T09:46:59Z</time>
      </trkpt>
      <trkpt lat="43.44305" lon="3.49831">
        <ele>44</ele>
        <time>2012-01-29T09:47:02Z</time>
      </trkpt>
      <trkpt lat="43.44309" lon="3.4983">
        <ele>44</ele>
        <time>2012-01-29T09:47:05Z</time>
      </trkpt>
      <trkpt lat="43.44313" lon="3.49831">
        <ele>44</ele>
        <time>2012-01-29T09:47:08Z</time>
      </trkpt>
      <trkpt lat="43.44317" lon="3.49832">
        <ele>44</ele>
        <time>2012-01-29T09:47:11Z</time>
      </trkpt>
      <trkpt lat="43.44321" lon="3.49832">
        <ele>44</ele>
        <time>2012-01-29T09:47:14Z</time>
      </trkpt>
      <trkpt lat="43.44322" lon="3.49833">
        <ele>44</ele>
        <time>2012-01-29T09:47:15Z</time>
      </trkpt>
      <trkpt lat="43.44328" lon="3.49834">
        <ele>45</ele>
        <time>2012-01-29T09:47:20Z</time>
      </trkpt>
      <trkpt lat="43.44331" lon="3.49834">
        <ele>45</ele>
        <time>2012-01-29T09:47:23Z</time>
      </trkpt>
      <trkpt lat="43.44335" lon="3.49834">
        <ele>44</ele>
        <time>2012-01-29T09:47:26Z</time>
      </trkpt>
      <trkpt lat="43.44339" lon="3.49834">
        <ele>44</ele>
        <time>2012-01-29T09:47:30Z</time>
      </trkpt>
      <trkpt lat="43.44343" lon="3.49834">
        <ele>43</ele>
        <time>2012-01-29T09:47:34Z</time>
      </trkpt>
      <trkpt lat="43.44347" lon="3.49834">
        <ele>43</ele>
        <time>2012-01-29T09:47:37Z</time>
      </trkpt>
      <trkpt lat="43.44351" lon="3.49834">
        <ele>43</ele>
        <time>2012-01-29T09:47:41Z</time>
      </trkpt>
      <trkpt lat="43.44354" lon="3.49835">
        <ele>43</ele>
        <time>2012-01-29T09:47:45Z</time>
      </trkpt>
      <trkpt lat="43.44358" lon="3.49835">
        <ele>44</ele>
        <time>2012-01-29T09:47:48Z</time>
      </trkpt>
      <trkpt lat="43.44361" lon="3.49835">
        <ele>45</ele>
        <time>2012-01-29T09:47:51Z</time>
      </trkpt>
      <trkpt lat="43.44365" lon="3.49835">
        <ele>45</ele>
        <time>2012-01-29T09:47:54Z</time>
      </trkpt>
      <trkpt lat="43.4437" lon="3.49834">
        <ele>45</ele>
        <time>2012-01-29T09:47:57Z</time>
      </trkpt>
      <trkpt lat="43.44374" lon="3.49834">
        <ele>44</ele>
        <time>2012-01-29T09:48:00Z</time>
      </trkpt>
      <trkpt lat="43.44378" lon="3.49833">
        <ele>44</ele>
        <time>2012-01-29T09:48:03Z</time>
      </trkpt>
      <trkpt lat="43.44382" lon="3.49833">
        <ele>45</ele>
        <time>2012-01-29T09:48:07Z</time>
      </trkpt>
      <trkpt lat="43.44385" lon="3.49831">
        <ele>45</ele>
        <time>2012-01-29T09:48:10Z</time>
      </trkpt>
      <trkpt lat="43.44389" lon="3.4983">
        <ele>45</ele>
        <time>2012-01-29T09:48:13Z</time>
      </trkpt>
      <trkpt lat="43.44392" lon="3.49828">
        <ele>44</ele>
        <time>2012-01-29T09:48:16Z</time>
      </trkpt>
      <trkpt lat="43.44394" lon="3.49828">
        <ele>45</ele>
        <time>2012-01-29T09:48:17Z</time>
      </trkpt>
      <trkpt lat="43.44399" lon="3.49824">
        <ele>44</ele>
        <time>2012-01-29T09:48:22Z</time>
      </trkpt>
      <trkpt lat="43.44403" lon="3.49823">
        <ele>45</ele>
        <time>2012-01-29T09:48:25Z</time>
      </trkpt>
      <trkpt lat="43.44406" lon="3.4982">
        <ele>45</ele>
        <time>2012-01-29T09:48:28Z</time>
      </trkpt>
      <trkpt lat="43.4441" lon="3.49818">
        <ele>45</ele>
        <time>2012-01-29T09:48:31Z</time>
      </trkpt>
      <trkpt lat="43.44414" lon="3.49817">
        <ele>45</ele>
        <time>2012-01-29T09:48:34Z</time>
      </trkpt>
      <trkpt lat="43.44417" lon="3.49815">
        <ele>46</ele>
        <time>2012-01-29T09:48:37Z</time>
      </trkpt>
      <trkpt lat="43.44421" lon="3.49814">
        <ele>45</ele>
        <time>2012-01-29T09:48:40Z</time>
      </trkpt>
      <trkpt lat="43.44424" lon="3.49813">
        <ele>45</ele>
        <time>2012-01-29T09:48:43Z</time>
      </trkpt>
      <trkpt lat="43.44428" lon="3.49813">
        <ele>45</ele>
        <time>2012-01-29T09:48:46Z</time>
      </trkpt>
      <trkpt lat="43.44432" lon="3.49812">
        <ele>46</ele>
        <time>2012-01-29T09:48:49Z</time>
      </trkpt>
      <trkpt lat="43.44436" lon="3.49812">
        <ele>46</ele>
        <time>2012-01-29T09:48:52Z</time>
      </trkpt>
      <trkpt lat="43.4444" lon="3.49811">
        <ele>47</ele>
        <time>2012-01-29T09:48:56Z</time>
      </trkpt>
      <trkpt lat="43.44443" lon="3.49807">
        <ele>46</ele>
        <time>2012-01-29T09:49:09Z</time>
      </trkpt>
      <trkpt lat="43.44447" lon="3.49805">
        <ele>46</ele>
        <time>2012-01-29T09:49:13Z</time>
      </trkpt>
      <trkpt lat="43.4445" lon="3.49803">
        <ele>46</ele>
        <time>2012-01-29T09:49:17Z</time>
      </trkpt>
      <trkpt lat="43.44451" lon="3.49802">
        <ele>46</ele>
        <time>2012-01-29T09:49:18Z</time>
      </trkpt>
      <trkpt lat="43.44457" lon="3.49798">
        <ele>46</ele>
        <time>2012-01-29T09:49:24Z</time>
      </trkpt>
      <trkpt lat="43.44461" lon="3.49795">
        <ele>46</ele>
        <time>2012-01-29T09:49:28Z</time>
      </trkpt>
      <trkpt lat="43.44465" lon="3.49792">
        <ele>46</ele>
        <time>2012-01-29T09:49:32Z</time>
      </trkpt>
      <trkpt lat="43.44467" lon="3.4979">
        <ele>46</ele>
        <time>2012-01-29T09:49:35Z</time>
      </trkpt>
      <trkpt lat="43.44471" lon="3.49786">
        <ele>46</ele>
        <time>2012-01-29T09:49:39Z</time>
      </trkpt>
      <trkpt lat="43.44474" lon="3.49783">
        <ele>47</ele>
        <time>2012-01-29T09:49:42Z</time>
      </trkpt>
      <trkpt lat="43.44477" lon="3.49781">
        <ele>47</ele>
        <time>2012-01-29T09:49:45Z</time>
      </trkpt>
      <trkpt lat="43.4448" lon="3.49778">
        <ele>47</ele>
        <time>2012-01-29T09:49:48Z</time>
      </trkpt>
      <trkpt lat="43.44484" lon="3.49775">
        <ele>46</ele>
        <time>2012-01-29T09:49:52Z</time>
      </trkpt>
      <trkpt lat="43.44487" lon="3.49773">
        <ele>47</ele>
        <time>2012-01-29T09:49:55Z</time>
      </trkpt>
      <trkpt lat="43.4449" lon="3.4977">
        <ele>47</ele>
        <time>2012-01-29T09:49:58Z</time>
      </trkpt>
      <trkpt lat="43.44493" lon="3.49767">
        <ele>47</ele>
        <time>2012-01-29T09:50:02Z</time>
      </trkpt>
      <trkpt lat="43.44497" lon="3.49764">
        <ele>46</ele>
        <time>2012-01-29T09:50:06Z</time>
      </trkpt>
      <trkpt lat="43.445" lon="3.49761">
        <ele>46</ele>
        <time>2012-01-29T09:50:09Z</time>
      </trkpt>
      <trkpt lat="43.44503" lon="3.49758">
        <ele>47</ele>
        <time>2012-01-29T09:50:12Z</time>
      </trkpt>
      <trkpt lat="43.44505" lon="3.49756">
        <ele>48</ele>
        <time>2012-01-29T09:50:15Z</time>
      </trkpt>
      <trkpt lat="43.44509" lon="3.49754">
        <ele>47</ele>
        <time>2012-01-29T09:50:18Z</time>
      </trkpt>
      <trkpt lat="43.4451" lon="3.49753">
        <ele>47</ele>
        <time>2012-01-29T09:50:19Z</time>
      </trkpt>
      <trkpt lat="43.44516" lon="3.49749">
        <ele>48</ele>
        <time>2012-01-29T09:50:25Z</time>
      </trkpt>
      <trkpt lat="43.44519" lon="3.49747">
        <ele>48</ele>
        <time>2012-01-29T09:50:28Z</time>
      </trkpt>
      <trkpt lat="43.44523" lon="3.49745">
        <ele>48</ele>
        <time>2012-01-29T09:50:32Z</time>
      </trkpt>
      <trkpt lat="43.44527" lon="3.49742">
        <ele>47</ele>
        <time>2012-01-29T09:50:36Z</time>
      </trkpt>
      <trkpt lat="43.44531" lon="3.49739">
        <ele>47</ele>
        <time>2012-01-29T09:50:40Z</time>
      </trkpt>
      <trkpt lat="43.44534" lon="3.49736">
        <ele>47</ele>
        <time>2012-01-29T09:50:43Z</time>
      </trkpt>
      <trkpt lat="43.44536" lon="3.49733">
        <ele>48</ele>
        <time>2012-01-29T09:50:46Z</time>
      </trkpt>
      <trkpt lat="43.4454" lon="3.49729">
        <ele>48</ele>
        <time>2012-01-29T09:50:50Z</time>
      </trkpt>
      <trkpt lat="43.44543" lon="3.49725">
        <ele>47</ele>
        <time>2012-01-29T09:50:57Z</time>
      </trkpt>
      <trkpt lat="43.44546" lon="3.49722">
        <ele>47</ele>
        <time>2012-01-29T09:51:10Z</time>
      </trkpt>
      <trkpt lat="43.44549" lon="3.49717">
        <ele>48</ele>
        <time>2012-01-29T09:51:29Z</time>
      </trkpt>
      <trkpt lat="43.44549" lon="3.49717">
        <ele>48</ele>
        <time>2012-01-29T09:51:30Z</time>
      </trkpt>
      <trkpt lat="43.44545" lon="3.49721">
        <ele>47</ele>
        <time>2012-01-29T09:52:56Z</time>
      </trkpt>
      <trkpt lat="43.44545" lon="3.49714">
        <ele>71</ele>
        <time>2012-01-29T09:57:07Z</time>
      </trkpt>
      <trkpt lat="43.44553" lon="3.49714">
        <ele>72</ele>
        <time>2012-01-29T09:57:53Z</time>
      </trkpt>
      <trkpt lat="43.44556" lon="3.49712">
        <ele>72</ele>
        <time>2012-01-29T09:57:57Z</time>
      </trkpt>
      <trkpt lat="43.44559" lon="3.49709">
        <ele>72</ele>
        <time>2012-01-29T09:58:01Z</time>
      </trkpt>
      <trkpt lat="43.44563" lon="3.49707">
        <ele>71</ele>
        <time>2012-01-29T09:58:05Z</time>
      </trkpt>
      <trkpt lat="43.44567" lon="3.49705">
        <ele>71</ele>
        <time>2012-01-29T09:58:09Z</time>
      </trkpt>
      <trkpt lat="43.44568" lon="3.49705">
        <ele>71</ele>
        <time>2012-01-29T09:58:10Z</time>
      </trkpt>
      <trkpt lat="43.44575" lon="3.49704">
        <ele>71</ele>
        <time>2012-01-29T09:58:16Z</time>
      </trkpt>
      <trkpt lat="43.44579" lon="3.49704">
        <ele>71</ele>
        <time>2012-01-29T09:58:19Z</time>
      </trkpt>
      <trkpt lat="43.44583" lon="3.49705">
        <ele>71</ele>
        <time>2012-01-29T09:58:23Z</time>
      </trkpt>
      <trkpt lat="43.44587" lon="3.49704">
        <ele>71</ele>
        <time>2012-01-29T09:58:26Z</time>
      </trkpt>
      <trkpt lat="43.4459" lon="3.49704">
        <ele>72</ele>
        <time>2012-01-29T09:58:29Z</time>
      </trkpt>
      <trkpt lat="43.44594" lon="3.49704">
        <ele>72</ele>
        <time>2012-01-29T09:58:32Z</time>
      </trkpt>
      <trkpt lat="43.44597" lon="3.49703">
        <ele>71</ele>
        <time>2012-01-29T09:58:35Z</time>
      </trkpt>
      <trkpt lat="43.446" lon="3.49702">
        <ele>72</ele>
        <time>2012-01-29T09:58:38Z</time>
      </trkpt>
      <trkpt lat="43.44605" lon="3.49701">
        <ele>73</ele>
        <time>2012-01-29T09:58:42Z</time>
      </trkpt>
      <trkpt lat="43.44608" lon="3.49699">
        <ele>73</ele>
        <time>2012-01-29T09:58:45Z</time>
      </trkpt>
      <trkpt lat="43.44612" lon="3.49696">
        <ele>73</ele>
        <time>2012-01-29T09:58:49Z</time>
      </trkpt>
      <trkpt lat="43.44615" lon="3.49693">
        <ele>73</ele>
        <time>2012-01-29T09:58:52Z</time>
      </trkpt>
      <trkpt lat="43.44619" lon="3.49692">
        <ele>73</ele>
        <time>2012-01-29T09:58:56Z</time>
      </trkpt>
      <trkpt lat="43.44622" lon="3.49693">
        <ele>73</ele>
        <time>2012-01-29T09:58:59Z</time>
      </trkpt>
      <trkpt lat="43.44626" lon="3.49694">
        <ele>75</ele>
        <time>2012-01-29T09:59:03Z</time>
      </trkpt>
      <trkpt lat="43.4463" lon="3.49696">
        <ele>75</ele>
        <time>2012-01-29T09:59:07Z</time>
      </trkpt>
      <trkpt lat="43.44633" lon="3.49699">
        <ele>75</ele>
        <time>2012-01-29T09:59:12Z</time>
      </trkpt>
      <trkpt lat="43.44634" lon="3.49699">
        <ele>75</ele>
        <time>2012-01-29T09:59:13Z</time>
      </trkpt>
      <trkpt lat="43.44641" lon="3.49703">
        <ele>75</ele>
        <time>2012-01-29T09:59:19Z</time>
      </trkpt>
      <trkpt lat="43.44644" lon="3.49705">
        <ele>75</ele>
        <time>2012-01-29T09:59:22Z</time>
      </trkpt>
      <trkpt lat="43.44647" lon="3.49707">
        <ele>75</ele>
        <time>2012-01-29T09:59:25Z</time>
      </trkpt>
      <trkpt lat="43.4465" lon="3.49709">
        <ele>75</ele>
        <time>2012-01-29T09:59:28Z</time>
      </trkpt>
      <trkpt lat="43.44654" lon="3.49712">
        <ele>76</ele>
        <time>2012-01-29T09:59:31Z</time>
      </trkpt>
      <trkpt lat="43.44657" lon="3.49715">
        <ele>76</ele>
        <time>2012-01-29T09:59:34Z</time>
      </trkpt>
      <trkpt lat="43.4466" lon="3.49718">
        <ele>76</ele>
        <time>2012-01-29T09:59:37Z</time>
      </trkpt>
      <trkpt lat="43.44663" lon="3.49721">
        <ele>76</ele>
        <time>2012-01-29T09:59:40Z</time>
      </trkpt>
      <trkpt lat="43.44666" lon="3.49724">
        <ele>76</ele>
        <time>2012-01-29T09:59:43Z</time>
      </trkpt>
      <trkpt lat="43.44669" lon="3.49727">
        <ele>75</ele>
        <time>2012-01-29T09:59:46Z</time>
      </trkpt>
      <trkpt lat="43.44673" lon="3.4973">
        <ele>75</ele>
        <time>2012-01-29T09:59:49Z</time>
      </trkpt>
      <trkpt lat="43.44676" lon="3.49734">
        <ele>77</ele>
        <time>2012-01-29T09:59:52Z</time>
      </trkpt>
      <trkpt lat="43.44678" lon="3.49737">
        <ele>75</ele>
        <time>2012-01-29T09:59:55Z</time>
      </trkpt>
      <trkpt lat="43.44681" lon="3.49741">
        <ele>76</ele>
        <time>2012-01-29T09:59:58Z</time>
      </trkpt>
      <trkpt lat="43.44684" lon="3.49744">
        <ele>77</ele>
        <time>2012-01-29T10:00:01Z</time>
      </trkpt>
      <trkpt lat="43.44687" lon="3.49748">
        <ele>77</ele>
        <time>2012-01-29T10:00:04Z</time>
      </trkpt>
      <trkpt lat="43.44691" lon="3.4975">
        <ele>76</ele>
        <time>2012-01-29T10:00:07Z</time>
      </trkpt>
      <trkpt lat="43.44694" lon="3.49752">
        <ele>77</ele>
        <time>2012-01-29T10:00:10Z</time>
      </trkpt>
      <trkpt lat="43.44698" lon="3.49755">
        <ele>77</ele>
        <time>2012-01-29T10:00:14Z</time>
      </trkpt>
      <trkpt lat="43.44699" lon="3.49755">
        <ele>76</ele>
        <time>2012-01-29T10:00:15Z</time>
      </trkpt>
      <trkpt lat="43.44705" lon="3.49756">
        <ele>76</ele>
        <time>2012-01-29T10:00:20Z</time>
      </trkpt>
      <trkpt lat="43.44709" lon="3.49756">
        <ele>76</ele>
        <time>2012-01-29T10:00:23Z</time>
      </trkpt>
      <trkpt lat="43.44713" lon="3.49756">
        <ele>76</ele>
        <time>2012-01-29T10:00:27Z</time>
      </trkpt>
      <trkpt lat="43.44717" lon="3.49756">
        <ele>77</ele>
        <time>2012-01-29T10:00:30Z</time>
      </trkpt>
      <trkpt lat="43.44721" lon="3.49755">
        <ele>78</ele>
        <time>2012-01-29T10:00:34Z</time>
      </trkpt>
      <trkpt lat="43.44725" lon="3.49754">
        <ele>78</ele>
        <time>2012-01-29T10:00:38Z</time>
      </trkpt>
      <trkpt lat="43.44729" lon="3.49753">
        <ele>77</ele>
        <time>2012-01-29T10:00:42Z</time>
      </trkpt>
      <trkpt lat="43.44733" lon="3.49752">
        <ele>76</ele>
        <time>2012-01-29T10:00:46Z</time>
      </trkpt>
      <trkpt lat="43.44737" lon="3.49751">
        <ele>77</ele>
        <time>2012-01-29T10:00:50Z</time>
      </trkpt>
      <trkpt lat="43.44741" lon="3.4975">
        <ele>77</ele>
        <time>2012-01-29T10:00:53Z</time>
      </trkpt>
      <trkpt lat="43.44745" lon="3.49751">
        <ele>78</ele>
        <time>2012-01-29T10:00:57Z</time>
      </trkpt>
      <trkpt lat="43.44749" lon="3.49753">
        <ele>79</ele>
        <time>2012-01-29T10:01:01Z</time>
      </trkpt>
      <trkpt lat="43.44752" lon="3.49755">
        <ele>79</ele>
        <time>2012-01-29T10:01:04Z</time>
      </trkpt>
      <trkpt lat="43.44755" lon="3.49758">
        <ele>79</ele>
        <time>2012-01-29T10:01:07Z</time>
      </trkpt>
      <trkpt lat="43.44759" lon="3.4976">
        <ele>79</ele>
        <time>2012-01-29T10:01:10Z</time>
      </trkpt>
      <trkpt lat="43.44763" lon="3.49761">
        <ele>79</ele>
        <time>2012-01-29T10:01:14Z</time>
      </trkpt>
      <trkpt lat="43.44767" lon="3.4976">
        <ele>80</ele>
        <time>2012-01-29T10:01:19Z</time>
      </trkpt>
      <trkpt lat="43.44768" lon="3.49759">
        <ele>80</ele>
        <time>2012-01-29T10:01:20Z</time>
      </trkpt>
      <trkpt lat="43.44775" lon="3.49754">
        <ele>80</ele>
        <time>2012-01-29T10:01:27Z</time>
      </trkpt>
      <trkpt lat="43.44778" lon="3.49752">
        <ele>80</ele>
        <time>2012-01-29T10:01:31Z</time>
      </trkpt>
      <trkpt lat="43.44781" lon="3.49748">
        <ele>81</ele>
        <time>2012-01-29T10:01:35Z</time>
      </trkpt>
      <trkpt lat="43.44784" lon="3.49745">
        <ele>82</ele>
        <time>2012-01-29T10:01:39Z</time>
      </trkpt>
      <trkpt lat="43.44788" lon="3.49741">
        <ele>83</ele>
        <time>2012-01-29T10:01:43Z</time>
      </trkpt>
      <trkpt lat="43.4479" lon="3.49737">
        <ele>83</ele>
        <time>2012-01-29T10:01:47Z</time>
      </trkpt>
      <trkpt lat="43.44792" lon="3.49733">
        <ele>84</ele>
        <time>2012-01-29T10:01:51Z</time>
      </trkpt>
      <trkpt lat="43.44794" lon="3.49727">
        <ele>84</ele>
        <time>2012-01-29T10:01:55Z</time>
      </trkpt>
      <trkpt lat="43.44795" lon="3.49722">
        <ele>85</ele>
        <time>2012-01-29T10:01:59Z</time>
      </trkpt>
      <trkpt lat="43.44795" lon="3.49716">
        <ele>85</ele>
        <time>2012-01-29T10:02:03Z</time>
      </trkpt>
      <trkpt lat="43.44796" lon="3.4971">
        <ele>85</ele>
        <time>2012-01-29T10:02:07Z</time>
      </trkpt>
      <trkpt lat="43.44797" lon="3.49705">
        <ele>85</ele>
        <time>2012-01-29T10:02:10Z</time>
      </trkpt>
      <trkpt lat="43.44798" lon="3.497">
        <ele>85</ele>
        <time>2012-01-29T10:02:13Z</time>
      </trkpt>
      <trkpt lat="43.44798" lon="3.49695">
        <ele>85</ele>
        <time>2012-01-29T10:02:16Z</time>
      </trkpt>
      <trkpt lat="43.44799" lon="3.4969">
        <ele>85</ele>
        <time>2012-01-29T10:02:19Z</time>
      </trkpt>
      <trkpt lat="43.44801" lon="3.49686">
        <ele>85</ele>
        <time>2012-01-29T10:02:22Z</time>
      </trkpt>
      <trkpt lat="43.44802" lon="3.49685">
        <ele>85</ele>
        <time>2012-01-29T10:02:23Z</time>
      </trkpt>
      <trkpt lat="43.44806" lon="3.49679">
        <ele>86</ele>
        <time>2012-01-29T10:02:28Z</time>
      </trkpt>
      <trkpt lat="43.44809" lon="3.49676">
        <ele>86</ele>
        <time>2012-01-29T10:02:32Z</time>
      </trkpt>
      <trkpt lat="43.44812" lon="3.49673">
        <ele>86</ele>
        <time>2012-01-29T10:02:35Z</time>
      </trkpt>
      <trkpt lat="43.44815" lon="3.49671">
        <ele>87</ele>
        <time>2012-01-29T10:02:38Z</time>
      </trkpt>
      <trkpt lat="43.44818" lon="3.49668">
        <ele>87</ele>
        <time>2012-01-29T10:02:41Z</time>
      </trkpt>
      <trkpt lat="43.44822" lon="3.49666">
        <ele>87</ele>
        <time>2012-01-29T10:02:44Z</time>
      </trkpt>
      <trkpt lat="43.44825" lon="3.49663">
        <ele>88</ele>
        <time>2012-01-29T10:02:47Z</time>
      </trkpt>
      <trkpt lat="43.44828" lon="3.49661">
        <ele>88</ele>
        <time>2012-01-29T10:02:50Z</time>
      </trkpt>
      <trkpt lat="43.44831" lon="3.49658">
        <ele>90</ele>
        <time>2012-01-29T10:02:53Z</time>
      </trkpt>
      <trkpt lat="43.44834" lon="3.49656">
        <ele>89</ele>
        <time>2012-01-29T10:02:56Z</time>
      </trkpt>
      <trkpt lat="43.44838" lon="3.49653">
        <ele>89</ele>
        <time>2012-01-29T10:02:59Z</time>
      </trkpt>
      <trkpt lat="43.44841" lon="3.49651">
        <ele>89</ele>
        <time>2012-01-29T10:03:02Z</time>
      </trkpt>
      <trkpt lat="43.44844" lon="3.49649">
        <ele>89</ele>
        <time>2012-01-29T10:03:05Z</time>
      </trkpt>
      <trkpt lat="43.44847" lon="3.49648">
        <ele>89</ele>
        <time>2012-01-29T10:03:08Z</time>
      </trkpt>
      <trkpt lat="43.44851" lon="3.49646">
        <ele>89</ele>
        <time>2012-01-29T10:03:11Z</time>
      </trkpt>
      <trkpt lat="43.44854" lon="3.49645">
        <ele>89</ele>
        <time>2012-01-29T10:03:14Z</time>
      </trkpt>
      <trkpt lat="43.44858" lon="3.49642">
        <ele>89</ele>
        <time>2012-01-29T10:03:18Z</time>
      </trkpt>
      <trkpt lat="43.44862" lon="3.4964">
        <ele>90</ele>
        <time>2012-01-29T10:03:22Z</time>
      </trkpt>
      <trkpt lat="43.44866" lon="3.49637">
        <ele>89</ele>
        <time>2012-01-29T10:03:26Z</time>
      </trkpt>
      <trkpt lat="43.44867" lon="3.49637">
        <ele>90</ele>
        <time>2012-01-29T10:03:27Z</time>
      </trkpt>
      <trkpt lat="43.44873" lon="3.49631">
        <ele>90</ele>
        <time>2012-01-29T10:03:33Z</time>
      </trkpt>
      <trkpt lat="43.44875" lon="3.49628">
        <ele>90</ele>
        <time>2012-01-29T10:03:36Z</time>
      </trkpt>
      <trkpt lat="43.44878" lon="3.49624">
        <ele>90</ele>
        <time>2012-01-29T10:03:39Z</time>
      </trkpt>
      <trkpt lat="43.4488" lon="3.49621">
        <ele>90</ele>
        <time>2012-01-29T10:03:42Z</time>
      </trkpt>
      <trkpt lat="43.44883" lon="3.49618">
        <ele>90</ele>
        <time>2012-01-29T10:03:45Z</time>
      </trkpt>
      <trkpt lat="43.44886" lon="3.49616">
        <ele>90</ele>
        <time>2012-01-29T10:03:48Z</time>
      </trkpt>
      <trkpt lat="43.44889" lon="3.49613">
        <ele>89</ele>
        <time>2012-01-29T10:03:51Z</time>
      </trkpt>
      <trkpt lat="43.44892" lon="3.49611">
        <ele>90</ele>
        <time>2012-01-29T10:03:54Z</time>
      </trkpt>
      <trkpt lat="43.44895" lon="3.49609">
        <ele>90</ele>
        <time>2012-01-29T10:03:57Z</time>
      </trkpt>
      <trkpt lat="43.44899" lon="3.49607">
        <ele>90</ele>
        <time>2012-01-29T10:04:00Z</time>
      </trkpt>
      <trkpt lat="43.44902" lon="3.49604">
        <ele>91</ele>
        <time>2012-01-29T10:04:03Z</time>
      </trkpt>
      <trkpt lat="43.44905" lon="3.49602">
        <ele>91</ele>
        <time>2012-01-29T10:04:06Z</time>
      </trkpt>
      <trkpt lat="43.44909" lon="3.496">
        <ele>91</ele>
        <time>2012-01-29T10:04:09Z</time>
      </trkpt>
      <trkpt lat="43.44912" lon="3.49598">
        <ele>91</ele>
        <time>2012-01-29T10:04:12Z</time>
      </trkpt>
      <trkpt lat="43.44916" lon="3.49596">
        <ele>91</ele>
        <time>2012-01-29T10:04:15Z</time>
      </trkpt>
      <trkpt lat="43.4492" lon="3.49595">
        <ele>91</ele>
        <time>2012-01-29T10:04:18Z</time>
      </trkpt>
      <trkpt lat="43.44924" lon="3.49593">
        <ele>91</ele>
        <time>2012-01-29T10:04:21Z</time>
      </trkpt>
      <trkpt lat="43.44928" lon="3.49591">
        <ele>91</ele>
        <time>2012-01-29T10:04:24Z</time>
      </trkpt>
      <trkpt lat="43.44932" lon="3.4959">
        <ele>91</ele>
        <time>2012-01-29T10:04:27Z</time>
      </trkpt>
      <trkpt lat="43.44933" lon="3.4959">
        <ele>91</ele>
        <time>2012-01-29T10:04:28Z</time>
      </trkpt>
      <trkpt lat="43.44939" lon="3.4959">
        <ele>90</ele>
        <time>2012-01-29T10:04:33Z</time>
      </trkpt>
      <trkpt lat="43.44943" lon="3.49589">
        <ele>90</ele>
        <time>2012-01-29T10:04:36Z</time>
      </trkpt>
      <trkpt lat="43.44947" lon="3.49589">
        <ele>90</ele>
        <time>2012-01-29T10:04:39Z</time>
      </trkpt>
      <trkpt lat="43.44951" lon="3.49589">
        <ele>90</ele>
        <time>2012-01-29T10:04:43Z</time>
      </trkpt>
      <trkpt lat="43.44955" lon="3.49589">
        <ele>91</ele>
        <time>2012-01-29T10:04:48Z</time>
      </trkpt>
      <trkpt lat="43.4496" lon="3.49587">
        <ele>90</ele>
        <time>2012-01-29T10:04:52Z</time>
      </trkpt>
      <trkpt lat="43.44963" lon="3.49585">
        <ele>90</ele>
        <time>2012-01-29T10:04:55Z</time>
      </trkpt>
      <trkpt lat="43.44966" lon="3.49582">
        <ele>91</ele>
        <time>2012-01-29T10:04:58Z</time>
      </trkpt>
      <trkpt lat="43.44968" lon="3.49578">
        <ele>92</ele>
        <time>2012-01-29T10:05:01Z</time>
      </trkpt>
      <trkpt lat="43.44971" lon="3.49574">
        <ele>92</ele>
        <time>2012-01-29T10:05:04Z</time>
      </trkpt>
      <trkpt lat="43.44973" lon="3.49569">
        <ele>92</ele>
        <time>2012-01-29T10:05:07Z</time>
      </trkpt>
      <trkpt lat="43.44975" lon="3.49564">
        <ele>92</ele>
        <time>2012-01-29T10:05:10Z</time>
      </trkpt>
      <trkpt lat="43.44977" lon="3.49559">
        <ele>92</ele>
        <time>2012-01-29T10:05:13Z</time>
      </trkpt>
      <trkpt lat="43.44979" lon="3.49555">
        <ele>92</ele>
        <time>2012-01-29T10:05:16Z</time>
      </trkpt>
      <trkpt lat="43.44981" lon="3.49551">
        <ele>93</ele>
        <time>2012-01-29T10:05:19Z</time>
      </trkpt>
      <trkpt lat="43.44984" lon="3.49548">
        <ele>92</ele>
        <time>2012-01-29T10:05:22Z</time>
      </trkpt>
      <trkpt lat="43.44987" lon="3.49544">
        <ele>92</ele>
        <time>2012-01-29T10:05:25Z</time>
      </trkpt>
      <trkpt lat="43.4499" lon="3.49541">
        <ele>93</ele>
        <time>2012-01-29T10:05:28Z</time>
      </trkpt>
      <trkpt lat="43.44991" lon="3.49539">
        <ele>93</ele>
        <time>2012-01-29T10:05:29Z</time>
      </trkpt>
      <trkpt lat="43.44996" lon="3.49535">
        <ele>93</ele>
        <time>2012-01-29T10:05:34Z</time>
      </trkpt>
      <trkpt lat="43.44999" lon="3.49532">
        <ele>93</ele>
        <time>2012-01-29T10:05:37Z</time>
      </trkpt>
      <trkpt lat="43.45003" lon="3.49529">
        <ele>93</ele>
        <time>2012-01-29T10:05:40Z</time>
      </trkpt>
      <trkpt lat="43.45006" lon="3.49527">
        <ele>94</ele>
        <time>2012-01-29T10:05:43Z</time>
      </trkpt>
      <trkpt lat="43.45009" lon="3.49525">
        <ele>94</ele>
        <time>2012-01-29T10:05:46Z</time>
      </trkpt>
      <trkpt lat="43.45012" lon="3.49522">
        <ele>94</ele>
        <time>2012-01-29T10:05:50Z</time>
      </trkpt>
      <trkpt lat="43.45016" lon="3.49519">
        <ele>94</ele>
        <time>2012-01-29T10:05:54Z</time>
      </trkpt>
      <trkpt lat="43.45019" lon="3.49516">
        <ele>94</ele>
        <time>2012-01-29T10:05:57Z</time>
      </trkpt>
      <trkpt lat="43.45023" lon="3.49513">
        <ele>94</ele>
        <time>2012-01-29T10:06:01Z</time>
      </trkpt>
      <trkpt lat="43.45026" lon="3.4951">
        <ele>95</ele>
        <time>2012-01-29T10:06:04Z</time>
      </trkpt>
      <trkpt lat="43.45029" lon="3.49507">
        <ele>95</ele>
        <time>2012-01-29T10:06:07Z</time>
      </trkpt>
      <trkpt lat="43.45032" lon="3.49505">
        <ele>96</ele>
        <time>2012-01-29T10:06:10Z</time>
      </trkpt>
      <trkpt lat="43.45034" lon="3.49501">
        <ele>96</ele>
        <time>2012-01-29T10:06:13Z</time>
      </trkpt>
      <trkpt lat="43.45037" lon="3.49498">
        <ele>97</ele>
        <time>2012-01-29T10:06:16Z</time>
      </trkpt>
      <trkpt lat="43.4504" lon="3.49495">
        <ele>97</ele>
        <time>2012-01-29T10:06:19Z</time>
      </trkpt>
      <trkpt lat="43.45043" lon="3.49491">
        <ele>96</ele>
        <time>2012-01-29T10:06:22Z</time>
      </trkpt>
      <trkpt lat="43.45046" lon="3.49488">
        <ele>97</ele>
        <time>2012-01-29T10:06:25Z</time>
      </trkpt>
      <trkpt lat="43.45049" lon="3.49484">
        <ele>96</ele>
        <time>2012-01-29T10:06:28Z</time>
      </trkpt>
      <trkpt lat="43.45052" lon="3.49481">
        <ele>96</ele>
        <time>2012-01-29T10:06:31Z</time>
      </trkpt>
      <trkpt lat="43.45053" lon="3.4948">
        <ele>96</ele>
        <time>2012-01-29T10:06:32Z</time>
      </trkpt>
      <trkpt lat="43.45058" lon="3.49475">
        <ele>97</ele>
        <time>2012-01-29T10:06:37Z</time>
      </trkpt>
      <trkpt lat="43.4506" lon="3.49471">
        <ele>97</ele>
        <time>2012-01-29T10:06:40Z</time>
      </trkpt>
      <trkpt lat="43.45063" lon="3.49468">
        <ele>97</ele>
        <time>2012-01-29T10:06:43Z</time>
      </trkpt>
      <trkpt lat="43.45066" lon="3.49465">
        <ele>97</ele>
        <time>2012-01-29T10:06:46Z</time>
      </trkpt>
      <trkpt lat="43.45069" lon="3.49462">
        <ele>97</ele>
        <time>2012-01-29T10:06:49Z</time>
      </trkpt>
      <trkpt lat="43.45072" lon="3.49459">
        <ele>97</ele>
        <time>2012-01-29T10:06:52Z</time>
      </trkpt>
      <trkpt lat="43.45075" lon="3.49456">
        <ele>97</ele>
        <time>2012-01-29T10:06:55Z</time>
      </trkpt>
      <trkpt lat="43.45078" lon="3.49453">
        <ele>97</ele>
        <time>2012-01-29T10:06:58Z</time>
      </trkpt>
      <trkpt lat="43.45081" lon="3.4945">
        <ele>97</ele>
        <time>2012-01-29T10:07:01Z</time>
      </trkpt>
      <trkpt lat="43.45084" lon="3.49448">
        <ele>97</ele>
        <time>2012-01-29T10:07:04Z</time>
      </trkpt>
      <trkpt lat="43.45088" lon="3.49446">
        <ele>97</ele>
        <time>2012-01-29T10:07:07Z</time>
      </trkpt>
      <trkpt lat="43.45091" lon="3.49443">
        <ele>97</ele>
        <time>2012-01-29T10:07:10Z</time>
      </trkpt>
      <trkpt lat="43.45094" lon="3.49441">
        <ele>97</ele>
        <time>2012-01-29T10:07:13Z</time>
      </trkpt>
      <trkpt lat="43.45097" lon="3.4944">
        <ele>97</ele>
        <time>2012-01-29T10:07:16Z</time>
      </trkpt>
      <trkpt lat="43.45101" lon="3.49438">
        <ele>97</ele>
        <time>2012-01-29T10:07:19Z</time>
      </trkpt>
      <trkpt lat="43.45104" lon="3.49436">
        <ele>97</ele>
        <time>2012-01-29T10:07:22Z</time>
      </trkpt>
      <trkpt lat="43.45108" lon="3.49434">
        <ele>97</ele>
        <time>2012-01-29T10:07:26Z</time>
      </trkpt>
      <trkpt lat="43.45112" lon="3.49431">
        <ele>97</ele>
        <time>2012-01-29T10:07:30Z</time>
      </trkpt>
      <trkpt lat="43.45116" lon="3.4943">
        <ele>96</ele>
        <time>2012-01-29T10:07:33Z</time>
      </trkpt>
      <trkpt lat="43.45117" lon="3.49429">
        <ele>96</ele>
        <time>2012-01-29T10:07:34Z</time>
      </trkpt>
      <trkpt lat="43.45123" lon="3.49426">
        <ele>97</ele>
        <time>2012-01-29T10:07:39Z</time>
      </trkpt>
      <trkpt lat="43.45126" lon="3.49425">
        <ele>97</ele>
        <time>2012-01-29T10:07:42Z</time>
      </trkpt>
      <trkpt lat="43.45129" lon="3.49423">
        <ele>97</ele>
        <time>2012-01-29T10:07:45Z</time>
      </trkpt>
      <trkpt lat="43.45133" lon="3.49421">
        <ele>97</ele>
        <time>2012-01-29T10:07:48Z</time>
      </trkpt>
      <trkpt lat="43.45136" lon="3.49419">
        <ele>98</ele>
        <time>2012-01-29T10:07:51Z</time>
      </trkpt>
      <trkpt lat="43.4514" lon="3.49417">
        <ele>98</ele>
        <time>2012-01-29T10:07:54Z</time>
      </trkpt>
      <trkpt lat="43.45143" lon="3.49416">
        <ele>98</ele>
        <time>2012-01-29T10:07:57Z</time>
      </trkpt>
      <trkpt lat="43.45147" lon="3.49414">
        <ele>98</ele>
        <time>2012-01-29T10:08:00Z</time>
      </trkpt>
      <trkpt lat="43.4515" lon="3.49413">
        <ele>98</ele>
        <time>2012-01-29T10:08:03Z</time>
      </trkpt>
      <trkpt lat="43.45154" lon="3.49411">
        <ele>98</ele>
        <time>2012-01-29T10:08:06Z</time>
      </trkpt>
      <trkpt lat="43.45158" lon="3.4941">
        <ele>97</ele>
        <time>2012-01-29T10:08:09Z</time>
      </trkpt>
      <trkpt lat="43.45161" lon="3.49408">
        <ele>97</ele>
        <time>2012-01-29T10:08:12Z</time>
      </trkpt>
      <trkpt lat="43.45165" lon="3.49407">
        <ele>97</ele>
        <time>2012-01-29T10:08:15Z</time>
      </trkpt>
      <trkpt lat="43.45168" lon="3.49406">
        <ele>97</ele>
        <time>2012-01-29T10:08:18Z</time>
      </trkpt>
      <trkpt lat="43.45172" lon="3.49404">
        <ele>97</ele>
        <time>2012-01-29T10:08:21Z</time>
      </trkpt>
      <trkpt lat="43.45175" lon="3.49403">
        <ele>97</ele>
        <time>2012-01-29T10:08:24Z</time>
      </trkpt>
      <trkpt lat="43.45179" lon="3.49402">
        <ele>98</ele>
        <time>2012-01-29T10:08:27Z</time>
      </trkpt>
      <trkpt lat="43.45183" lon="3.494">
        <ele>98</ele>
        <time>2012-01-29T10:08:31Z</time>
      </trkpt>
      <trkpt lat="43.45186" lon="3.49399">
        <ele>99</ele>
        <time>2012-01-29T10:08:34Z</time>
      </trkpt>
      <trkpt lat="43.45187" lon="3.49399">
        <ele>99</ele>
        <time>2012-01-29T10:08:35Z</time>
      </trkpt>
      <trkpt lat="43.45193" lon="3.49397">
        <ele>98</ele>
        <time>2012-01-29T10:08:40Z</time>
      </trkpt>
      <trkpt lat="43.45197" lon="3.49396">
        <ele>99</ele>
        <time>2012-01-29T10:08:43Z</time>
      </trkpt>
      <trkpt lat="43.452" lon="3.49395">
        <ele>99</ele>
        <time>2012-01-29T10:08:46Z</time>
      </trkpt>
      <trkpt lat="43.45204" lon="3.49395">
        <ele>99</ele>
        <time>2012-01-29T10:08:49Z</time>
      </trkpt>
      <trkpt lat="43.45208" lon="3.49395">
        <ele>99</ele>
        <time>2012-01-29T10:08:54Z</time>
      </trkpt>
      <trkpt lat="43.45212" lon="3.49393">
        <ele>99</ele>
        <time>2012-01-29T10:08:58Z</time>
      </trkpt>
      <trkpt lat="43.45215" lon="3.49391">
        <ele>98</ele>
        <time>2012-01-29T10:09:01Z</time>
      </trkpt>
      <trkpt lat="43.45218" lon="3.49387">
        <ele>100</ele>
        <time>2012-01-29T10:09:05Z</time>
      </trkpt>
      <trkpt lat="43.4522" lon="3.49383">
        <ele>100</ele>
        <time>2012-01-29T10:09:09Z</time>
      </trkpt>
      <trkpt lat="43.45223" lon="3.49379">
        <ele>100</ele>
        <time>2012-01-29T10:09:13Z</time>
      </trkpt>
      <trkpt lat="43.45226" lon="3.49376">
        <ele>100</ele>
        <time>2012-01-29T10:09:16Z</time>
      </trkpt>
      <trkpt lat="43.45229" lon="3.49373">
        <ele>100</ele>
        <time>2012-01-29T10:09:19Z</time>
      </trkpt>
      <trkpt lat="43.45232" lon="3.4937">
        <ele>100</ele>
        <time>2012-01-29T10:09:22Z</time>
      </trkpt>
      <trkpt lat="43.45236" lon="3.49368">
        <ele>100</ele>
        <time>2012-01-29T10:09:25Z</time>
      </trkpt>
      <trkpt lat="43.45239" lon="3.49365">
        <ele>100</ele>
        <time>2012-01-29T10:09:28Z</time>
      </trkpt>
      <trkpt lat="43.45243" lon="3.49364">
        <ele>101</ele>
        <time>2012-01-29T10:09:31Z</time>
      </trkpt>
      <trkpt lat="43.45247" lon="3.49363">
        <ele>101</ele>
        <time>2012-01-29T10:09:34Z</time>
      </trkpt>
      <trkpt lat="43.45251" lon="3.49362">
        <ele>101</ele>
        <time>2012-01-29T10:09:37Z</time>
      </trkpt>
      <trkpt lat="43.45252" lon="3.49362">
        <ele>101</ele>
        <time>2012-01-29T10:09:38Z</time>
      </trkpt>
      <trkpt lat="43.45259" lon="3.4936">
        <ele>102</ele>
        <time>2012-01-29T10:09:44Z</time>
      </trkpt>
      <trkpt lat="43.45263" lon="3.49359">
        <ele>102</ele>
        <time>2012-01-29T10:09:48Z</time>
      </trkpt>
      <trkpt lat="43.45267" lon="3.49358">
        <ele>102</ele>
        <time>2012-01-29T10:09:51Z</time>
      </trkpt>
      <trkpt lat="43.4527" lon="3.49357">
        <ele>101</ele>
        <time>2012-01-29T10:09:54Z</time>
      </trkpt>
      <trkpt lat="43.45274" lon="3.49356">
        <ele>102</ele>
        <time>2012-01-29T10:09:58Z</time>
      </trkpt>
      <trkpt lat="43.45278" lon="3.49353">
        <ele>101</ele>
        <time>2012-01-29T10:10:04Z</time>
      </trkpt>
      <trkpt lat="43.45281" lon="3.49349">
        <ele>102</ele>
        <time>2012-01-29T10:10:09Z</time>
      </trkpt>
      <trkpt lat="43.45285" lon="3.49347">
        <ele>102</ele>
        <time>2012-01-29T10:10:20Z</time>
      </trkpt>
      <trkpt lat="43.45289" lon="3.49345">
        <ele>103</ele>
        <time>2012-01-29T10:11:21Z</time>
      </trkpt>
      <trkpt lat="43.45289" lon="3.49345">
        <ele>103</ele>
        <time>2012-01-29T10:11:22Z</time>
      </trkpt>
      <trkpt lat="43.45287" lon="3.49339">
        <ele>102</ele>
        <time>2012-01-29T10:14:01Z</time>
      </trkpt>
      <trkpt lat="43.45291" lon="3.4933">
        <ele>102</ele>
        <time>2012-01-29T10:14:14Z</time>
      </trkpt>
      <trkpt lat="43.45294" lon="3.49327">
        <ele>103</ele>
        <time>2012-01-29T10:14:18Z</time>
      </trkpt>
      <trkpt lat="43.45298" lon="3.49324">
        <ele>103</ele>
        <time>2012-01-29T10:14:23Z</time>
      </trkpt>
      <trkpt lat="43.45302" lon="3.49322">
        <ele>102</ele>
        <time>2012-01-29T10:14:27Z</time>
      </trkpt>
      <trkpt lat="43.45306" lon="3.49321">
        <ele>102</ele>
        <time>2012-01-29T10:14:32Z</time>
      </trkpt>
      <trkpt lat="43.4531" lon="3.4932">
        <ele>102</ele>
        <time>2012-01-29T10:14:36Z</time>
      </trkpt>
      <trkpt lat="43.45314" lon="3.49318">
        <ele>102</ele>
        <time>2012-01-29T10:14:41Z</time>
      </trkpt>
      <trkpt lat="43.45316" lon="3.49314">
        <ele>102</ele>
        <time>2012-01-29T10:14:46Z</time>
      </trkpt>
      <trkpt lat="43.45318" lon="3.49309">
        <ele>101</ele>
        <time>2012-01-29T10:14:50Z</time>
      </trkpt>
      <trkpt lat="43.45318" lon="3.49304">
        <ele>101</ele>
        <time>2012-01-29T10:14:54Z</time>
      </trkpt>
      <trkpt lat="43.45319" lon="3.49298">
        <ele>101</ele>
        <time>2012-01-29T10:14:58Z</time>
      </trkpt>
      <trkpt lat="43.45319" lon="3.49293">
        <ele>100</ele>
        <time>2012-01-29T10:15:01Z</time>
      </trkpt>
      <trkpt lat="43.45319" lon="3.49292">
        <ele>100</ele>
        <time>2012-01-29T10:15:02Z</time>
      </trkpt>
      <trkpt lat="43.45319" lon="3.49282">
        <ele>100</ele>
        <time>2012-01-29T10:15:08Z</time>
      </trkpt>
      <trkpt lat="43.45319" lon="3.49276">
        <ele>101</ele>
        <time>2012-01-29T10:15:11Z</time>
      </trkpt>
      <trkpt lat="43.45318" lon="3.49271">
        <ele>101</ele>
        <time>2012-01-29T10:15:14Z</time>
      </trkpt>
      <trkpt lat="43.45318" lon="3.49266">
        <ele>101</ele>
        <time>2012-01-29T10:15:17Z</time>
      </trkpt>
      <trkpt lat="43.45317" lon="3.49261">
        <ele>101</ele>
        <time>2012-01-29T10:15:20Z</time>
      </trkpt>
      <trkpt lat="43.45317" lon="3.49256">
        <ele>101</ele>
        <time>2012-01-29T10:15:23Z</time>
      </trkpt>
      <trkpt lat="43.45317" lon="3.49251">
        <ele>101</ele>
        <time>2012-01-29T10:15:26Z</time>
      </trkpt>
      <trkpt lat="43.45316" lon="3.49245">
        <ele>101</ele>
        <time>2012-01-29T10:15:30Z</time>
      </trkpt>
      <trkpt lat="43.45315" lon="3.4924">
        <ele>100</ele>
        <time>2012-01-29T10:15:33Z</time>
      </trkpt>
      <trkpt lat="43.45314" lon="3.49234">
        <ele>100</ele>
        <time>2012-01-29T10:15:37Z</time>
      </trkpt>
      <trkpt lat="43.45313" lon="3.49229">
        <ele>100</ele>
        <time>2012-01-29T10:15:40Z</time>
      </trkpt>
      <trkpt lat="43.45311" lon="3.49224">
        <ele>100</ele>
        <time>2012-01-29T10:15:44Z</time>
      </trkpt>
      <trkpt lat="43.45309" lon="3.49219">
        <ele>100</ele>
        <time>2012-01-29T10:15:48Z</time>
      </trkpt>
      <trkpt lat="43.45308" lon="3.49214">
        <ele>100</ele>
        <time>2012-01-29T10:15:51Z</time>
      </trkpt>
      <trkpt lat="43.45307" lon="3.49209">
        <ele>100</ele>
        <time>2012-01-29T10:15:54Z</time>
      </trkpt>
      <trkpt lat="43.45307" lon="3.49205">
        <ele>99</ele>
        <time>2012-01-29T10:15:57Z</time>
      </trkpt>
      <trkpt lat="43.45307" lon="3.492">
        <ele>99</ele>
        <time>2012-01-29T10:16:00Z</time>
      </trkpt>
      <trkpt lat="43.45307" lon="3.49195">
        <ele>98</ele>
        <time>2012-01-29T10:16:03Z</time>
      </trkpt>
      <trkpt lat="43.45307" lon="3.49193">
        <ele>98</ele>
        <time>2012-01-29T10:16:04Z</time>
      </trkpt>
      <trkpt lat="43.45307" lon="3.49185">
        <ele>99</ele>
        <time>2012-01-29T10:16:09Z</time>
      </trkpt>
      <trkpt lat="43.45307" lon="3.4918">
        <ele>99</ele>
        <time>2012-01-29T10:16:12Z</time>
      </trkpt>
      <trkpt lat="43.45306" lon="3.49174">
        <ele>98</ele>
        <time>2012-01-29T10:16:16Z</time>
      </trkpt>
      <trkpt lat="43.45306" lon="3.49169">
        <ele>98</ele>
        <time>2012-01-29T10:16:19Z</time>
      </trkpt>
      <trkpt lat="43.45306" lon="3.49165">
        <ele>99</ele>
        <time>2012-01-29T10:16:22Z</time>
      </trkpt>
      <trkpt lat="43.45305" lon="3.4916">
        <ele>99</ele>
        <time>2012-01-29T10:16:25Z</time>
      </trkpt>
      <trkpt lat="43.45304" lon="3.49154">
        <ele>98</ele>
        <time>2012-01-29T10:16:30Z</time>
      </trkpt>
      <trkpt lat="43.45303" lon="3.49149">
        <ele>98</ele>
        <time>2012-01-29T10:16:35Z</time>
      </trkpt>
      <trkpt lat="43.45301" lon="3.49144">
        <ele>98</ele>
        <time>2012-01-29T10:16:39Z</time>
      </trkpt>
      <trkpt lat="43.453" lon="3.49138">
        <ele>98</ele>
        <time>2012-01-29T10:16:43Z</time>
      </trkpt>
      <trkpt lat="43.45299" lon="3.49133">
        <ele>98</ele>
        <time>2012-01-29T10:16:46Z</time>
      </trkpt>
      <trkpt lat="43.45298" lon="3.49128">
        <ele>98</ele>
        <time>2012-01-29T10:16:49Z</time>
      </trkpt>
      <trkpt lat="43.45297" lon="3.49123">
        <ele>98</ele>
        <time>2012-01-29T10:16:52Z</time>
      </trkpt>
      <trkpt lat="43.45297" lon="3.49118">
        <ele>98</ele>
        <time>2012-01-29T10:16:55Z</time>
      </trkpt>
      <trkpt lat="43.45296" lon="3.49113">
        <ele>97</ele>
        <time>2012-01-29T10:16:58Z</time>
      </trkpt>
      <trkpt lat="43.45296" lon="3.49108">
        <ele>97</ele>
        <time>2012-01-29T10:17:01Z</time>
      </trkpt>
      <trkpt lat="43.45296" lon="3.49102">
        <ele>98</ele>
        <time>2012-01-29T10:17:05Z</time>
      </trkpt>
      <trkpt lat="43.45296" lon="3.491">
        <ele>98</ele>
        <time>2012-01-29T10:17:06Z</time>
      </trkpt>
      <trkpt lat="43.45297" lon="3.49091">
        <ele>98</ele>
        <time>2012-01-29T10:17:11Z</time>
      </trkpt>
      <trkpt lat="43.45298" lon="3.49087">
        <ele>98</ele>
        <time>2012-01-29T10:17:14Z</time>
      </trkpt>
      <trkpt lat="43.45299" lon="3.49081">
        <ele>98</ele>
        <time>2012-01-29T10:17:18Z</time>
      </trkpt>
      <trkpt lat="43.45299" lon="3.49075">
        <ele>98</ele>
        <time>2012-01-29T10:17:22Z</time>
      </trkpt>
      <trkpt lat="43.45299" lon="3.49069">
        <ele>98</ele>
        <time>2012-01-29T10:17:29Z</time>
      </trkpt>
      <trkpt lat="43.453" lon="3.49064">
        <ele>98</ele>
        <time>2012-01-29T10:17:32Z</time>
      </trkpt>
      <trkpt lat="43.45301" lon="3.49059">
        <ele>99</ele>
        <time>2012-01-29T10:17:35Z</time>
      </trkpt>
      <trkpt lat="43.45301" lon="3.49054">
        <ele>98</ele>
        <time>2012-01-29T10:17:38Z</time>
      </trkpt>
      <trkpt lat="43.45302" lon="3.49049">
        <ele>98</ele>
        <time>2012-01-29T10:17:41Z</time>
      </trkpt>
      <trkpt lat="43.45303" lon="3.49045">
        <ele>99</ele>
        <time>2012-01-29T10:17:44Z</time>
      </trkpt>
      <trkpt lat="43.45304" lon="3.4904">
        <ele>99</ele>
        <time>2012-01-29T10:17:47Z</time>
      </trkpt>
      <trkpt lat="43.45305" lon="3.49035">
        <ele>99</ele>
        <time>2012-01-29T10:17:50Z</time>
      </trkpt>
      <trkpt lat="43.45305" lon="3.4903">
        <ele>99</ele>
        <time>2012-01-29T10:17:53Z</time>
      </trkpt>
      <trkpt lat="43.45306" lon="3.49025">
        <ele>99</ele>
        <time>2012-01-29T10:17:56Z</time>
      </trkpt>
      <trkpt lat="43.45306" lon="3.4902">
        <ele>99</ele>
        <time>2012-01-29T10:17:59Z</time>
      </trkpt>
      <trkpt lat="43.45306" lon="3.49014">
        <ele>98</ele>
        <time>2012-01-29T10:18:02Z</time>
      </trkpt>
      <trkpt lat="43.45305" lon="3.49009">
        <ele>99</ele>
        <time>2012-01-29T10:18:05Z</time>
      </trkpt>
      <trkpt lat="43.45305" lon="3.49004">
        <ele>99</ele>
        <time>2012-01-29T10:18:08Z</time>
      </trkpt>
      <trkpt lat="43.45304" lon="3.49002">
        <ele>99</ele>
        <time>2012-01-29T10:18:09Z</time>
      </trkpt>
      <trkpt lat="43.45303" lon="3.48993">
        <ele>98</ele>
        <time>2012-01-29T10:18:16Z</time>
      </trkpt>
      <trkpt lat="43.45302" lon="3.48988">
        <ele>97</ele>
        <time>2012-01-29T10:18:19Z</time>
      </trkpt>
      <trkpt lat="43.45301" lon="3.48983">
        <ele>98</ele>
        <time>2012-01-29T10:18:22Z</time>
      </trkpt>
      <trkpt lat="43.453" lon="3.48978">
        <ele>98</ele>
        <time>2012-01-29T10:18:25Z</time>
      </trkpt>
      <trkpt lat="43.45299" lon="3.48973">
        <ele>97</ele>
        <time>2012-01-29T10:18:28Z</time>
      </trkpt>
      <trkpt lat="43.45298" lon="3.48968">
        <ele>98</ele>
        <time>2012-01-29T10:18:31Z</time>
      </trkpt>
      <trkpt lat="43.45297" lon="3.48962">
        <ele>98</ele>
        <time>2012-01-29T10:18:35Z</time>
      </trkpt>
      <trkpt lat="43.45296" lon="3.48957">
        <ele>98</ele>
        <time>2012-01-29T10:18:38Z</time>
      </trkpt>
      <trkpt lat="43.45296" lon="3.48953">
        <ele>98</ele>
        <time>2012-01-29T10:18:41Z</time>
      </trkpt>
      <trkpt lat="43.45295" lon="3.48948">
        <ele>98</ele>
        <time>2012-01-29T10:18:44Z</time>
      </trkpt>
      <trkpt lat="43.45295" lon="3.48942">
        <ele>98</ele>
        <time>2012-01-29T10:18:47Z</time>
      </trkpt>
      <trkpt lat="43.45296" lon="3.48937">
        <ele>99</ele>
        <time>2012-01-29T10:18:50Z</time>
      </trkpt>
      <trkpt lat="43.45295" lon="3.48933">
        <ele>99</ele>
        <time>2012-01-29T10:18:53Z</time>
      </trkpt>
      <trkpt lat="43.45296" lon="3.48927">
        <ele>98</ele>
        <time>2012-01-29T10:18:57Z</time>
      </trkpt>
      <trkpt lat="43.45297" lon="3.48921">
        <ele>99</ele>
        <time>2012-01-29T10:19:01Z</time>
      </trkpt>
      <trkpt lat="43.45299" lon="3.48917">
        <ele>98</ele>
        <time>2012-01-29T10:19:05Z</time>
      </trkpt>
      <trkpt lat="43.45299" lon="3.48912">
        <ele>99</ele>
        <time>2012-01-29T10:19:08Z</time>
      </trkpt>
      <trkpt lat="43.453" lon="3.48907">
        <ele>99</ele>
        <time>2012-01-29T10:19:11Z</time>
      </trkpt>
      <trkpt lat="43.453" lon="3.48906">
        <ele>99</ele>
        <time>2012-01-29T10:19:12Z</time>
      </trkpt>
      <trkpt lat="43.45302" lon="3.48898">
        <ele>99</ele>
        <time>2012-01-29T10:19:17Z</time>
      </trkpt>
      <trkpt lat="43.45302" lon="3.48892">
        <ele>99</ele>
        <time>2012-01-29T10:19:21Z</time>
      </trkpt>
      <trkpt lat="43.45302" lon="3.48886">
        <ele>99</ele>
        <time>2012-01-29T10:19:25Z</time>
      </trkpt>
      <trkpt lat="43.45302" lon="3.48882">
        <ele>99</ele>
        <time>2012-01-29T10:19:28Z</time>
      </trkpt>
      <trkpt lat="43.45302" lon="3.48876">
        <ele>99</ele>
        <time>2012-01-29T10:19:32Z</time>
      </trkpt>
      <trkpt lat="43.45301" lon="3.4887">
        <ele>99</ele>
        <time>2012-01-29T10:22:55Z</time>
      </trkpt>
      <trkpt lat="43.45301" lon="3.48869">
        <ele>99</ele>
        <time>2012-01-29T10:22:56Z</time>
      </trkpt>
      <trkpt lat="43.45301" lon="3.48859">
        <ele>99</ele>
        <time>2012-01-29T10:23:03Z</time>
      </trkpt>
      <trkpt lat="43.453" lon="3.48853">
        <ele>99</ele>
        <time>2012-01-29T10:23:07Z</time>
      </trkpt>
      <trkpt lat="43.453" lon="3.48848">
        <ele>100</ele>
        <time>2012-01-29T10:23:11Z</time>
      </trkpt>
      <trkpt lat="43.45299" lon="3.48842">
        <ele>100</ele>
        <time>2012-01-29T10:23:15Z</time>
      </trkpt>
      <trkpt lat="43.45298" lon="3.48837">
        <ele>101</ele>
        <time>2012-01-29T10:23:18Z</time>
      </trkpt>
      <trkpt lat="43.45297" lon="3.48832">
        <ele>101</ele>
        <time>2012-01-29T10:23:22Z</time>
      </trkpt>
      <trkpt lat="43.45296" lon="3.48826">
        <ele>100</ele>
        <time>2012-01-29T10:23:26Z</time>
      </trkpt>
      <trkpt lat="43.45295" lon="3.48822">
        <ele>100</ele>
        <time>2012-01-29T10:23:29Z</time>
      </trkpt>
      <trkpt lat="43.45294" lon="3.48818">
        <ele>100</ele>
        <time>2012-01-29T10:23:32Z</time>
      </trkpt>
      <trkpt lat="43.45292" lon="3.48812">
        <ele>101</ele>
        <time>2012-01-29T10:23:36Z</time>
      </trkpt>
      <trkpt lat="43.45291" lon="3.48808">
        <ele>101</ele>
        <time>2012-01-29T10:23:39Z</time>
      </trkpt>
      <trkpt lat="43.4529" lon="3.48803">
        <ele>100</ele>
        <time>2012-01-29T10:23:42Z</time>
      </trkpt>
      <trkpt lat="43.4529" lon="3.48799">
        <ele>100</ele>
        <time>2012-01-29T10:23:45Z</time>
      </trkpt>
      <trkpt lat="43.45289" lon="3.48793">
        <ele>101</ele>
        <time>2012-01-29T10:23:48Z</time>
      </trkpt>
      <trkpt lat="43.45288" lon="3.48788">
        <ele>102</ele>
        <time>2012-01-29T10:23:51Z</time>
      </trkpt>
      <trkpt lat="43.45288" lon="3.48783">
        <ele>102</ele>
        <time>2012-01-29T10:23:54Z</time>
      </trkpt>
      <trkpt lat="43.45287" lon="3.48778">
        <ele>101</ele>
        <time>2012-01-29T10:23:57Z</time>
      </trkpt>
      <trkpt lat="43.45287" lon="3.48777">
        <ele>101</ele>
        <time>2012-01-29T10:23:58Z</time>
      </trkpt>
      <trkpt lat="43.45286" lon="3.48767">
        <ele>102</ele>
        <time>2012-01-29T10:24:04Z</time>
      </trkpt>
      <trkpt lat="43.45286" lon="3.48763">
        <ele>101</ele>
        <time>2012-01-29T10:24:07Z</time>
      </trkpt>
      <trkpt lat="43.45286" lon="3.48758">
        <ele>102</ele>
        <time>2012-01-29T10:24:10Z</time>
      </trkpt>
      <trkpt lat="43.45285" lon="3.48753">
        <ele>102</ele>
        <time>2012-01-29T10:24:13Z</time>
      </trkpt>
      <trkpt lat="43.45284" lon="3.48748">
        <ele>101</ele>
        <time>2012-01-29T10:24:16Z</time>
      </trkpt>
      <trkpt lat="43.45283" lon="3.48743">
        <ele>100</ele>
        <time>2012-01-29T10:24:19Z</time>
      </trkpt>
      <trkpt lat="43.45282" lon="3.48738">
        <ele>101</ele>
        <time>2012-01-29T10:24:22Z</time>
      </trkpt>
      <trkpt lat="43.45282" lon="3.48733">
        <ele>102</ele>
        <time>2012-01-29T10:24:25Z</time>
      </trkpt>
      <trkpt lat="43.45281" lon="3.48728">
        <ele>102</ele>
        <time>2012-01-29T10:24:28Z</time>
      </trkpt>
      <trkpt lat="43.45279" lon="3.48723">
        <ele>102</ele>
        <time>2012-01-29T10:24:31Z</time>
      </trkpt>
      <trkpt lat="43.45278" lon="3.48718">
        <ele>102</ele>
        <time>2012-01-29T10:24:34Z</time>
      </trkpt>
      <trkpt lat="43.45277" lon="3.48714">
        <ele>101</ele>
        <time>2012-01-29T10:24:37Z</time>
      </trkpt>
      <trkpt lat="43.45275" lon="3.48709">
        <ele>100</ele>
        <time>2012-01-29T10:24:40Z</time>
      </trkpt>
      <trkpt lat="43.45274" lon="3.48705">
        <ele>100</ele>
        <time>2012-01-29T10:24:43Z</time>
      </trkpt>
      <trkpt lat="43.45272" lon="3.48701">
        <ele>100</ele>
        <time>2012-01-29T10:24:46Z</time>
      </trkpt>
      <trkpt lat="43.45269" lon="3.48696">
        <ele>101</ele>
        <time>2012-01-29T10:24:50Z</time>
      </trkpt>
      <trkpt lat="43.45267" lon="3.48691">
        <ele>101</ele>
        <time>2012-01-29T10:24:54Z</time>
      </trkpt>
      <trkpt lat="43.45264" lon="3.48687">
        <ele>101</ele>
        <time>2012-01-29T10:24:58Z</time>
      </trkpt>
      <trkpt lat="43.45262" lon="3.48682">
        <ele>102</ele>
        <time>2012-01-29T10:25:02Z</time>
      </trkpt>
      <trkpt lat="43.45262" lon="3.48681">
        <ele>102</ele>
        <time>2012-01-29T10:25:03Z</time>
      </trkpt>
      <trkpt lat="43.45256" lon="3.48674">
        <ele>101</ele>
        <time>2012-01-29T10:25:26Z</time>
      </trkpt>
      <trkpt lat="43.45252" lon="3.48676">
        <ele>103</ele>
        <time>2012-01-29T10:26:17Z</time>
      </trkpt>
      <trkpt lat="43.45252" lon="3.48676">
        <ele>103</ele>
        <time>2012-01-29T10:26:18Z</time>
      </trkpt>
      <trkpt lat="43.45255" lon="3.4867">
        <ele>102</ele>
        <time>2012-01-29T10:30:36Z</time>
      </trkpt>
      <trkpt lat="43.45255" lon="3.4866">
        <ele>102</ele>
        <time>2012-01-29T10:30:45Z</time>
      </trkpt>
      <trkpt lat="43.45254" lon="3.48654">
        <ele>102</ele>
        <time>2012-01-29T10:30:50Z</time>
      </trkpt>
      <trkpt lat="43.45254" lon="3.48648">
        <ele>104</ele>
        <time>2012-01-29T10:30:55Z</time>
      </trkpt>
      <trkpt lat="43.45252" lon="3.48643">
        <ele>104</ele>
        <time>2012-01-29T10:30:59Z</time>
      </trkpt>
      <trkpt lat="43.4525" lon="3.48638">
        <ele>104</ele>
        <time>2012-01-29T10:31:04Z</time>
      </trkpt>
      <trkpt lat="43.45248" lon="3.48633">
        <ele>104</ele>
        <time>2012-01-29T10:31:09Z</time>
      </trkpt>
      <trkpt lat="43.45246" lon="3.48628">
        <ele>104</ele>
        <time>2012-01-29T10:31:13Z</time>
      </trkpt>
      <trkpt lat="43.45244" lon="3.48623">
        <ele>104</ele>
        <time>2012-01-29T10:31:17Z</time>
      </trkpt>
      <trkpt lat="43.45241" lon="3.48619">
        <ele>103</ele>
        <time>2012-01-29T10:31:21Z</time>
      </trkpt>
      <trkpt lat="43.45238" lon="3.48615">
        <ele>104</ele>
        <time>2012-01-29T10:31:25Z</time>
      </trkpt>
      <trkpt lat="43.45235" lon="3.4861">
        <ele>104</ele>
        <time>2012-01-29T10:31:29Z</time>
      </trkpt>
      <trkpt lat="43.45232" lon="3.48606">
        <ele>104</ele>
        <time>2012-01-29T10:31:33Z</time>
      </trkpt>
      <trkpt lat="43.45229" lon="3.48601">
        <ele>104</ele>
        <time>2012-01-29T10:31:37Z</time>
      </trkpt>
      <trkpt lat="43.45229" lon="3.486">
        <ele>104</ele>
        <time>2012-01-29T10:31:38Z</time>
      </trkpt>
      <trkpt lat="43.45224" lon="3.48593">
        <ele>104</ele>
        <time>2012-01-29T10:31:45Z</time>
      </trkpt>
      <trkpt lat="43.45221" lon="3.48589">
        <ele>103</ele>
        <time>2012-01-29T10:31:49Z</time>
      </trkpt>
      <trkpt lat="43.45218" lon="3.48586">
        <ele>103</ele>
        <time>2012-01-29T10:31:53Z</time>
      </trkpt>
      <trkpt lat="43.45215" lon="3.48581">
        <ele>103</ele>
        <time>2012-01-29T10:31:57Z</time>
      </trkpt>
      <trkpt lat="43.45212" lon="3.48578">
        <ele>103</ele>
        <time>2012-01-29T10:32:01Z</time>
      </trkpt>
      <trkpt lat="43.45209" lon="3.48574">
        <ele>103</ele>
        <time>2012-01-29T10:32:04Z</time>
      </trkpt>
      <trkpt lat="43.45206" lon="3.48571">
        <ele>104</ele>
        <time>2012-01-29T10:32:08Z</time>
      </trkpt>
      <trkpt lat="43.45202" lon="3.4857">
        <ele>104</ele>
        <time>2012-01-29T10:32:11Z</time>
      </trkpt>
      <trkpt lat="43.45198" lon="3.48569">
        <ele>103</ele>
        <time>2012-01-29T10:32:15Z</time>
      </trkpt>
      <trkpt lat="43.45194" lon="3.48569">
        <ele>104</ele>
        <time>2012-01-29T10:32:19Z</time>
      </trkpt>
      <trkpt lat="43.4519" lon="3.48569">
        <ele>104</ele>
        <time>2012-01-29T10:32:23Z</time>
      </trkpt>
      <trkpt lat="43.45186" lon="3.48568">
        <ele>103</ele>
        <time>2012-01-29T10:32:27Z</time>
      </trkpt>
      <trkpt lat="43.45181" lon="3.48566">
        <ele>102</ele>
        <time>2012-01-29T10:32:31Z</time>
      </trkpt>
      <trkpt lat="43.45178" lon="3.48562">
        <ele>103</ele>
        <time>2012-01-29T10:32:35Z</time>
      </trkpt>
      <trkpt lat="43.45175" lon="3.48558">
        <ele>103</ele>
        <time>2012-01-29T10:32:39Z</time>
      </trkpt>
      <trkpt lat="43.45174" lon="3.48557">
        <ele>103</ele>
        <time>2012-01-29T10:32:40Z</time>
      </trkpt>
      <trkpt lat="43.45171" lon="3.4855">
        <ele>103</ele>
        <time>2012-01-29T10:32:46Z</time>
      </trkpt>
      <trkpt lat="43.45169" lon="3.48544">
        <ele>104</ele>
        <time>2012-01-29T10:32:50Z</time>
      </trkpt>
      <trkpt lat="43.45167" lon="3.4854">
        <ele>104</ele>
        <time>2012-01-29T10:32:54Z</time>
      </trkpt>
      <trkpt lat="43.45165" lon="3.48534">
        <ele>104</ele>
        <time>2012-01-29T10:32:58Z</time>
      </trkpt>
      <trkpt lat="43.45163" lon="3.48529">
        <ele>105</ele>
        <time>2012-01-29T10:33:02Z</time>
      </trkpt>
      <trkpt lat="43.45161" lon="3.48524">
        <ele>105</ele>
        <time>2012-01-29T10:33:06Z</time>
      </trkpt>
      <trkpt lat="43.45159" lon="3.48518">
        <ele>105</ele>
        <time>2012-01-29T10:33:10Z</time>
      </trkpt>
      <trkpt lat="43.45158" lon="3.48513">
        <ele>105</ele>
        <time>2012-01-29T10:33:14Z</time>
      </trkpt>
      <trkpt lat="43.45157" lon="3.48508">
        <ele>105</ele>
        <time>2012-01-29T10:33:17Z</time>
      </trkpt>
      <trkpt lat="43.45156" lon="3.48504">
        <ele>105</ele>
        <time>2012-01-29T10:33:20Z</time>
      </trkpt>
      <trkpt lat="43.45156" lon="3.48499">
        <ele>105</ele>
        <time>2012-01-29T10:33:23Z</time>
      </trkpt>
      <trkpt lat="43.45154" lon="3.48493">
        <ele>105</ele>
        <time>2012-01-29T10:33:27Z</time>
      </trkpt>
      <trkpt lat="43.45153" lon="3.48488">
        <ele>106</ele>
        <time>2012-01-29T10:33:31Z</time>
      </trkpt>
      <trkpt lat="43.45151" lon="3.48482">
        <ele>106</ele>
        <time>2012-01-29T10:33:35Z</time>
      </trkpt>
      <trkpt lat="43.4515" lon="3.48478">
        <ele>105</ele>
        <time>2012-01-29T10:33:38Z</time>
      </trkpt>
      <trkpt lat="43.45149" lon="3.48474">
        <ele>105</ele>
        <time>2012-01-29T10:33:41Z</time>
      </trkpt>
      <trkpt lat="43.45149" lon="3.48472">
        <ele>105</ele>
        <time>2012-01-29T10:33:42Z</time>
      </trkpt>
      <trkpt lat="43.45147" lon="3.48463">
        <ele>106</ele>
        <time>2012-01-29T10:33:49Z</time>
      </trkpt>
      <trkpt lat="43.45146" lon="3.48458">
        <ele>106</ele>
        <time>2012-01-29T10:33:53Z</time>
      </trkpt>
      <trkpt lat="43.45143" lon="3.48454">
        <ele>105</ele>
        <time>2012-01-29T10:33:57Z</time>
      </trkpt>
      <trkpt lat="43.4514" lon="3.4845">
        <ele>106</ele>
        <time>2012-01-29T10:34:01Z</time>
      </trkpt>
      <trkpt lat="43.45137" lon="3.48446">
        <ele>106</ele>
        <time>2012-01-29T10:34:05Z</time>
      </trkpt>
      <trkpt lat="43.45135" lon="3.48442">
        <ele>107</ele>
        <time>2012-01-29T10:34:08Z</time>
      </trkpt>
      <trkpt lat="43.45132" lon="3.48438">
        <ele>106</ele>
        <time>2012-01-29T10:34:12Z</time>
      </trkpt>
      <trkpt lat="43.45129" lon="3.48434">
        <ele>106</ele>
        <time>2012-01-29T10:34:17Z</time>
      </trkpt>
      <trkpt lat="43.45125" lon="3.48432">
        <ele>106</ele>
        <time>2012-01-29T10:34:23Z</time>
      </trkpt>
      <trkpt lat="43.45121" lon="3.48431">
        <ele>105</ele>
        <time>2012-01-29T10:34:32Z</time>
      </trkpt>
      <trkpt lat="43.45117" lon="3.48432">
        <ele>106</ele>
        <time>2012-01-29T10:34:37Z</time>
      </trkpt>
      <trkpt lat="43.45113" lon="3.48432">
        <ele>105</ele>
        <time>2012-01-29T10:34:43Z</time>
      </trkpt>
      <trkpt lat="43.45112" lon="3.48433">
        <ele>105</ele>
        <time>2012-01-29T10:34:44Z</time>
      </trkpt>
      <trkpt lat="43.45105" lon="3.48432">
        <ele>104</ele>
        <time>2012-01-29T10:34:54Z</time>
      </trkpt>
      <trkpt lat="43.45101" lon="3.48432">
        <ele>104</ele>
        <time>2012-01-29T10:34:58Z</time>
      </trkpt>
      <trkpt lat="43.45097" lon="3.48433">
        <ele>103</ele>
        <time>2012-01-29T10:35:02Z</time>
      </trkpt>
      <trkpt lat="43.45093" lon="3.48434">
        <ele>103</ele>
        <time>2012-01-29T10:35:06Z</time>
      </trkpt>
      <trkpt lat="43.45089" lon="3.48434">
        <ele>103</ele>
        <time>2012-01-29T10:35:09Z</time>
      </trkpt>
      <trkpt lat="43.45085" lon="3.48434">
        <ele>104</ele>
        <time>2012-01-29T10:35:12Z</time>
      </trkpt>
      <trkpt lat="43.45081" lon="3.48434">
        <ele>104</ele>
        <time>2012-01-29T10:35:15Z</time>
      </trkpt>
      <trkpt lat="43.45078" lon="3.48433">
        <ele>103</ele>
        <time>2012-01-29T10:35:18Z</time>
      </trkpt>
      <trkpt lat="43.45074" lon="3.48433">
        <ele>103</ele>
        <time>2012-01-29T10:35:21Z</time>
      </trkpt>
      <trkpt lat="43.4507" lon="3.48432">
        <ele>102</ele>
        <time>2012-01-29T10:35:24Z</time>
      </trkpt>
      <trkpt lat="43.45067" lon="3.48432">
        <ele>102</ele>
        <time>2012-01-29T10:35:27Z</time>
      </trkpt>
      <trkpt lat="43.45062" lon="3.48433">
        <ele>102</ele>
        <time>2012-01-29T10:35:31Z</time>
      </trkpt>
      <trkpt lat="43.45059" lon="3.48435">
        <ele>101</ele>
        <time>2012-01-29T10:35:34Z</time>
      </trkpt>
      <trkpt lat="43.45055" lon="3.48437">
        <ele>102</ele>
        <time>2012-01-29T10:35:37Z</time>
      </trkpt>
      <trkpt lat="43.45052" lon="3.48439">
        <ele>102</ele>
        <time>2012-01-29T10:35:40Z</time>
      </trkpt>
      <trkpt lat="43.45049" lon="3.48442">
        <ele>102</ele>
        <time>2012-01-29T10:35:43Z</time>
      </trkpt>
      <trkpt lat="43.45046" lon="3.48445">
        <ele>102</ele>
        <time>2012-01-29T10:35:46Z</time>
      </trkpt>
      <trkpt lat="43.45045" lon="3.48446">
        <ele>102</ele>
        <time>2012-01-29T10:35:47Z</time>
      </trkpt>
      <trkpt lat="43.4504" lon="3.4845">
        <ele>101</ele>
        <time>2012-01-29T10:35:52Z</time>
      </trkpt>
      <trkpt lat="43.45037" lon="3.48453">
        <ele>100</ele>
        <time>2012-01-29T10:35:55Z</time>
      </trkpt>
      <trkpt lat="43.45033" lon="3.48454">
        <ele>100</ele>
        <time>2012-01-29T10:36:00Z</time>
      </trkpt>
      <trkpt lat="43.45029" lon="3.48455">
        <ele>100</ele>
        <time>2012-01-29T10:36:12Z</time>
      </trkpt>
      <trkpt lat="43.45025" lon="3.48455">
        <ele>99</ele>
        <time>2012-01-29T10:36:16Z</time>
      </trkpt>
      <trkpt lat="43.45021" lon="3.48455">
        <ele>99</ele>
        <time>2012-01-29T10:36:20Z</time>
      </trkpt>
      <trkpt lat="43.45017" lon="3.48454">
        <ele>98</ele>
        <time>2012-01-29T10:36:24Z</time>
      </trkpt>
      <trkpt lat="43.45012" lon="3.48453">
        <ele>98</ele>
        <time>2012-01-29T10:36:28Z</time>
      </trkpt>
      <trkpt lat="43.45008" lon="3.48451">
        <ele>98</ele>
        <time>2012-01-29T10:36:32Z</time>
      </trkpt>
      <trkpt lat="43.45004" lon="3.48451">
        <ele>97</ele>
        <time>2012-01-29T10:36:36Z</time>
      </trkpt>
      <trkpt lat="43.45" lon="3.4845">
        <ele>97</ele>
        <time>2012-01-29T10:36:39Z</time>
      </trkpt>
      <trkpt lat="43.44996" lon="3.4845">
        <ele>97</ele>
        <time>2012-01-29T10:36:43Z</time>
      </trkpt>
      <trkpt lat="43.44992" lon="3.48449">
        <ele>96</ele>
        <time>2012-01-29T10:36:47Z</time>
      </trkpt>
      <trkpt lat="43.4499" lon="3.4845">
        <ele>96</ele>
        <time>2012-01-29T10:36:48Z</time>
      </trkpt>
      <trkpt lat="43.44983" lon="3.48449">
        <ele>95</ele>
        <time>2012-01-29T10:36:55Z</time>
      </trkpt>
      <trkpt lat="43.4498" lon="3.48449">
        <ele>95</ele>
        <time>2012-01-29T10:36:59Z</time>
      </trkpt>
      <trkpt lat="43.44976" lon="3.48449">
        <ele>95</ele>
        <time>2012-01-29T10:37:03Z</time>
      </trkpt>
      <trkpt lat="43.44972" lon="3.4845">
        <ele>95</ele>
        <time>2012-01-29T10:37:07Z</time>
      </trkpt>
      <trkpt lat="43.44967" lon="3.4845">
        <ele>94</ele>
        <time>2012-01-29T10:37:11Z</time>
      </trkpt>
      <trkpt lat="43.44963" lon="3.4845">
        <ele>94</ele>
        <time>2012-01-29T10:37:15Z</time>
      </trkpt>
      <trkpt lat="43.4496" lon="3.4845">
        <ele>93</ele>
        <time>2012-01-29T10:37:18Z</time>
      </trkpt>
      <trkpt lat="43.44955" lon="3.4845">
        <ele>93</ele>
        <time>2012-01-29T10:37:22Z</time>
      </trkpt>
      <trkpt lat="43.44951" lon="3.4845">
        <ele>93</ele>
        <time>2012-01-29T10:37:26Z</time>
      </trkpt>
      <trkpt lat="43.44946" lon="3.48451">
        <ele>91</ele>
        <time>2012-01-29T10:37:30Z</time>
      </trkpt>
      <trkpt lat="43.44943" lon="3.48452">
        <ele>91</ele>
        <time>2012-01-29T10:37:33Z</time>
      </trkpt>
      <trkpt lat="43.44939" lon="3.48452">
        <ele>91</ele>
        <time>2012-01-29T10:37:36Z</time>
      </trkpt>
      <trkpt lat="43.44936" lon="3.48453">
        <ele>90</ele>
        <time>2012-01-29T10:37:39Z</time>
      </trkpt>
      <trkpt lat="43.44932" lon="3.48454">
        <ele>90</ele>
        <time>2012-01-29T10:37:42Z</time>
      </trkpt>
      <trkpt lat="43.44929" lon="3.48455">
        <ele>90</ele>
        <time>2012-01-29T10:37:45Z</time>
      </trkpt>
      <trkpt lat="43.44925" lon="3.48456">
        <ele>89</ele>
        <time>2012-01-29T10:37:48Z</time>
      </trkpt>
      <trkpt lat="43.44922" lon="3.48457">
        <ele>89</ele>
        <time>2012-01-29T10:37:51Z</time>
      </trkpt>
      <trkpt lat="43.4492" lon="3.48457">
        <ele>89</ele>
        <time>2012-01-29T10:37:52Z</time>
      </trkpt>
      <trkpt lat="43.44914" lon="3.48459">
        <ele>87</ele>
        <time>2012-01-29T10:37:57Z</time>
      </trkpt>
      <trkpt lat="43.44911" lon="3.48459">
        <ele>87</ele>
        <time>2012-01-29T10:38:00Z</time>
      </trkpt>
      <trkpt lat="43.44907" lon="3.4846">
        <ele>87</ele>
        <time>2012-01-29T10:38:03Z</time>
      </trkpt>
      <trkpt lat="43.44904" lon="3.48462">
        <ele>87</ele>
        <time>2012-01-29T10:38:07Z</time>
      </trkpt>
      <trkpt lat="43.44901" lon="3.48464">
        <ele>87</ele>
        <time>2012-01-29T10:38:11Z</time>
      </trkpt>
      <trkpt lat="43.44897" lon="3.48467">
        <ele>86</ele>
        <time>2012-01-29T10:38:15Z</time>
      </trkpt>
      <trkpt lat="43.44893" lon="3.48469">
        <ele>86</ele>
        <time>2012-01-29T10:38:18Z</time>
      </trkpt>
      <trkpt lat="43.4489" lon="3.4847">
        <ele>86</ele>
        <time>2012-01-29T10:38:21Z</time>
      </trkpt>
      <trkpt lat="43.44886" lon="3.48471">
        <ele>85</ele>
        <time>2012-01-29T10:38:24Z</time>
      </trkpt>
      <trkpt lat="43.44882" lon="3.48472">
        <ele>85</ele>
        <time>2012-01-29T10:38:27Z</time>
      </trkpt>
      <trkpt lat="43.44878" lon="3.48473">
        <ele>85</ele>
        <time>2012-01-29T10:38:30Z</time>
      </trkpt>
      <trkpt lat="43.44874" lon="3.48473">
        <ele>85</ele>
        <time>2012-01-29T10:38:33Z</time>
      </trkpt>
      <trkpt lat="43.44869" lon="3.48474">
        <ele>85</ele>
        <time>2012-01-29T10:38:36Z</time>
      </trkpt>
      <trkpt lat="43.44865" lon="3.48474">
        <ele>85</ele>
        <time>2012-01-29T10:38:39Z</time>
      </trkpt>
      <trkpt lat="43.44861" lon="3.48475">
        <ele>84</ele>
        <time>2012-01-29T10:38:42Z</time>
      </trkpt>
      <trkpt lat="43.44857" lon="3.48476">
        <ele>84</ele>
        <time>2012-01-29T10:38:45Z</time>
      </trkpt>
      <trkpt lat="43.44853" lon="3.48476">
        <ele>84</ele>
        <time>2012-01-29T10:38:48Z</time>
      </trkpt>
      <trkpt lat="43.44849" lon="3.48477">
        <ele>83</ele>
        <time>2012-01-29T10:38:51Z</time>
      </trkpt>
      <trkpt lat="43.44845" lon="3.48477">
        <ele>83</ele>
        <time>2012-01-29T10:38:54Z</time>
      </trkpt>
      <trkpt lat="43.44843" lon="3.48477">
        <ele>83</ele>
        <time>2012-01-29T10:38:55Z</time>
      </trkpt>
      <trkpt lat="43.44837" lon="3.48478">
        <ele>83</ele>
        <time>2012-01-29T10:39:00Z</time>
      </trkpt>
      <trkpt lat="43.44834" lon="3.48478">
        <ele>83</ele>
        <time>2012-01-29T10:39:03Z</time>
      </trkpt>
      <trkpt lat="43.4483" lon="3.48478">
        <ele>83</ele>
        <time>2012-01-29T10:39:06Z</time>
      </trkpt>
      <trkpt lat="43.44826" lon="3.48479">
        <ele>82</ele>
        <time>2012-01-29T10:39:09Z</time>
      </trkpt>
      <trkpt lat="43.44823" lon="3.48479">
        <ele>82</ele>
        <time>2012-01-29T10:39:12Z</time>
      </trkpt>
      <trkpt lat="43.44819" lon="3.4848">
        <ele>82</ele>
        <time>2012-01-29T10:39:15Z</time>
      </trkpt>
      <trkpt lat="43.44815" lon="3.4848">
        <ele>82</ele>
        <time>2012-01-29T10:39:18Z</time>
      </trkpt>
      <trkpt lat="43.44811" lon="3.48481">
        <ele>82</ele>
        <time>2012-01-29T10:39:21Z</time>
      </trkpt>
      <trkpt lat="43.44807" lon="3.4848">
        <ele>81</ele>
        <time>2012-01-29T10:39:24Z</time>
      </trkpt>
      <trkpt lat="43.44803" lon="3.4848">
        <ele>82</ele>
        <time>2012-01-29T10:39:27Z</time>
      </trkpt>
      <trkpt lat="43.448" lon="3.48479">
        <ele>81</ele>
        <time>2012-01-29T10:39:30Z</time>
      </trkpt>
      <trkpt lat="43.44796" lon="3.4848">
        <ele>81</ele>
        <time>2012-01-29T10:39:33Z</time>
      </trkpt>
      <trkpt lat="43.44792" lon="3.4848">
        <ele>81</ele>
        <time>2012-01-29T10:39:36Z</time>
      </trkpt>
      <trkpt lat="43.44789" lon="3.4848">
        <ele>81</ele>
        <time>2012-01-29T10:39:39Z</time>
      </trkpt>
      <trkpt lat="43.44785" lon="3.48481">
        <ele>81</ele>
        <time>2012-01-29T10:39:42Z</time>
      </trkpt>
      <trkpt lat="43.44781" lon="3.48481">
        <ele>81</ele>
        <time>2012-01-29T10:39:45Z</time>
      </trkpt>
      <trkpt lat="43.44778" lon="3.48482">
        <ele>80</ele>
        <time>2012-01-29T10:39:48Z</time>
      </trkpt>
      <trkpt lat="43.44774" lon="3.48483">
        <ele>81</ele>
        <time>2012-01-29T10:39:51Z</time>
      </trkpt>
      <trkpt lat="43.4477" lon="3.48484">
        <ele>81</ele>
        <time>2012-01-29T10:39:54Z</time>
      </trkpt>
      <trkpt lat="43.44766" lon="3.48485">
        <ele>81</ele>
        <time>2012-01-29T10:39:57Z</time>
      </trkpt>
      <trkpt lat="43.44765" lon="3.48485">
        <ele>81</ele>
        <time>2012-01-29T10:39:58Z</time>
      </trkpt>
      <trkpt lat="43.44759" lon="3.48486">
        <ele>80</ele>
        <time>2012-01-29T10:40:03Z</time>
      </trkpt>
      <trkpt lat="43.44755" lon="3.48487">
        <ele>80</ele>
        <time>2012-01-29T10:40:06Z</time>
      </trkpt>
      <trkpt lat="43.44752" lon="3.48488">
        <ele>80</ele>
        <time>2012-01-29T10:40:09Z</time>
      </trkpt>
      <trkpt lat="43.44748" lon="3.48489">
        <ele>80</ele>
        <time>2012-01-29T10:40:12Z</time>
      </trkpt>
      <trkpt lat="43.44744" lon="3.48489">
        <ele>80</ele>
        <time>2012-01-29T10:40:15Z</time>
      </trkpt>
      <trkpt lat="43.4474" lon="3.4849">
        <ele>80</ele>
        <time>2012-01-29T10:40:18Z</time>
      </trkpt>
      <trkpt lat="43.44736" lon="3.48491">
        <ele>81</ele>
        <time>2012-01-29T10:40:21Z</time>
      </trkpt>
      <trkpt lat="43.44732" lon="3.48493">
        <ele>81</ele>
        <time>2012-01-29T10:40:24Z</time>
      </trkpt>
      <trkpt lat="43.44727" lon="3.48493">
        <ele>80</ele>
        <time>2012-01-29T10:40:27Z</time>
      </trkpt>
      <trkpt lat="43.44724" lon="3.48494">
        <ele>80</ele>
        <time>2012-01-29T10:40:30Z</time>
      </trkpt>
      <trkpt lat="43.4472" lon="3.48495">
        <ele>80</ele>
        <time>2012-01-29T10:40:33Z</time>
      </trkpt>
      <trkpt lat="43.44716" lon="3.48496">
        <ele>80</ele>
        <time>2012-01-29T10:40:36Z</time>
      </trkpt>
      <trkpt lat="43.44713" lon="3.48498">
        <ele>80</ele>
        <time>2012-01-29T10:40:39Z</time>
      </trkpt>
      <trkpt lat="43.44708" lon="3.48499">
        <ele>80</ele>
        <time>2012-01-29T10:40:43Z</time>
      </trkpt>
      <trkpt lat="43.44705" lon="3.485">
        <ele>80</ele>
        <time>2012-01-29T10:40:46Z</time>
      </trkpt>
      <trkpt lat="43.44702" lon="3.48502">
        <ele>80</ele>
        <time>2012-01-29T10:40:49Z</time>
      </trkpt>
      <trkpt lat="43.44697" lon="3.48502">
        <ele>80</ele>
        <time>2012-01-29T10:40:53Z</time>
      </trkpt>
      <trkpt lat="43.44693" lon="3.48502">
        <ele>80</ele>
        <time>2012-01-29T10:40:57Z</time>
      </trkpt>
      <trkpt lat="43.44689" lon="3.48502">
        <ele>81</ele>
        <time>2012-01-29T10:41:00Z</time>
      </trkpt>
      <trkpt lat="43.44688" lon="3.48502">
        <ele>81</ele>
        <time>2012-01-29T10:41:01Z</time>
      </trkpt>
      <trkpt lat="43.44682" lon="3.48501">
        <ele>81</ele>
        <time>2012-01-29T10:41:07Z</time>
      </trkpt>
      <trkpt lat="43.44678" lon="3.48501">
        <ele>81</ele>
        <time>2012-01-29T10:41:10Z</time>
      </trkpt>
      <trkpt lat="43.44674" lon="3.485">
        <ele>81</ele>
        <time>2012-01-29T10:41:13Z</time>
      </trkpt>
      <trkpt lat="43.44671" lon="3.48499">
        <ele>82</ele>
        <time>2012-01-29T10:41:16Z</time>
      </trkpt>
      <trkpt lat="43.44667" lon="3.48498">
        <ele>82</ele>
        <time>2012-01-29T10:41:19Z</time>
      </trkpt>
      <trkpt lat="43.44664" lon="3.48496">
        <ele>82</ele>
        <time>2012-01-29T10:41:22Z</time>
      </trkpt>
      <trkpt lat="43.44661" lon="3.48494">
        <ele>82</ele>
        <time>2012-01-29T10:41:25Z</time>
      </trkpt>
      <trkpt lat="43.44657" lon="3.48492">
        <ele>82</ele>
        <time>2012-01-29T10:41:28Z</time>
      </trkpt>
      <trkpt lat="43.44654" lon="3.48489">
        <ele>82</ele>
        <time>2012-01-29T10:41:32Z</time>
      </trkpt>
      <trkpt lat="43.4465" lon="3.48486">
        <ele>82</ele>
        <time>2012-01-29T10:41:36Z</time>
      </trkpt>
      <trkpt lat="43.44647" lon="3.48484">
        <ele>82</ele>
        <time>2012-01-29T10:41:47Z</time>
      </trkpt>
      <trkpt lat="43.44643" lon="3.48481">
        <ele>82</ele>
        <time>2012-01-29T10:42:01Z</time>
      </trkpt>
      <trkpt lat="43.44643" lon="3.48481">
        <ele>82</ele>
        <time>2012-01-29T10:42:02Z</time>
      </trkpt>
      <trkpt lat="43.44637" lon="3.48483">
        <ele>82</ele>
        <time>2012-01-29T10:43:14Z</time>
      </trkpt>
      <trkpt lat="43.44636" lon="3.48483">
        <ele>82</ele>
        <time>2012-01-29T10:43:15Z</time>
      </trkpt>
      <trkpt lat="43.44639" lon="3.48489">
        <ele>82</ele>
        <time>2012-01-29T10:44:29Z</time>
      </trkpt>
      <trkpt lat="43.44641" lon="3.48478">
        <ele>82</ele>
        <time>2012-01-29T10:45:23Z</time>
      </trkpt>
      <trkpt lat="43.44639" lon="3.48472">
        <ele>82</ele>
        <time>2012-01-29T10:45:28Z</time>
      </trkpt>
      <trkpt lat="43.44637" lon="3.48468">
        <ele>82</ele>
        <time>2012-01-29T10:45:33Z</time>
      </trkpt>
      <trkpt lat="43.44636" lon="3.48467">
        <ele>82</ele>
        <time>2012-01-29T10:45:34Z</time>
      </trkpt>
      <trkpt lat="43.44631" lon="3.4846">
        <ele>82</ele>
        <time>2012-01-29T10:45:43Z</time>
      </trkpt>
      <trkpt lat="43.44628" lon="3.48456">
        <ele>82</ele>
        <time>2012-01-29T10:45:47Z</time>
      </trkpt>
      <trkpt lat="43.44626" lon="3.48452">
        <ele>82</ele>
        <time>2012-01-29T10:45:51Z</time>
      </trkpt>
      <trkpt lat="43.44623" lon="3.48447">
        <ele>83</ele>
        <time>2012-01-29T10:45:55Z</time>
      </trkpt>
      <trkpt lat="43.44621" lon="3.48443">
        <ele>83</ele>
        <time>2012-01-29T10:45:58Z</time>
      </trkpt>
      <trkpt lat="43.44618" lon="3.48438">
        <ele>83</ele>
        <time>2012-01-29T10:46:02Z</time>
      </trkpt>
      <trkpt lat="43.44616" lon="3.48433">
        <ele>83</ele>
        <time>2012-01-29T10:46:06Z</time>
      </trkpt>
      <trkpt lat="43.44615" lon="3.48427">
        <ele>84</ele>
        <time>2012-01-29T10:46:10Z</time>
      </trkpt>
      <trkpt lat="43.44613" lon="3.48421">
        <ele>84</ele>
        <time>2012-01-29T10:46:14Z</time>
      </trkpt>
      <trkpt lat="43.44612" lon="3.48416">
        <ele>84</ele>
        <time>2012-01-29T10:46:18Z</time>
      </trkpt>
      <trkpt lat="43.44611" lon="3.48411">
        <ele>84</ele>
        <time>2012-01-29T10:46:22Z</time>
      </trkpt>
      <trkpt lat="43.44609" lon="3.48405">
        <ele>85</ele>
        <time>2012-01-29T10:46:26Z</time>
      </trkpt>
      <trkpt lat="43.44609" lon="3.48401">
        <ele>85</ele>
        <time>2012-01-29T10:46:29Z</time>
      </trkpt>
      <trkpt lat="43.44608" lon="3.48395">
        <ele>84</ele>
        <time>2012-01-29T10:46:33Z</time>
      </trkpt>
      <trkpt lat="43.44606" lon="3.4839">
        <ele>85</ele>
        <time>2012-01-29T10:46:37Z</time>
      </trkpt>
      <trkpt lat="43.44606" lon="3.48389">
        <ele>85</ele>
        <time>2012-01-29T10:46:38Z</time>
      </trkpt>
      <trkpt lat="43.44603" lon="3.48381">
        <ele>86</ele>
        <time>2012-01-29T10:46:45Z</time>
      </trkpt>
      <trkpt lat="43.44601" lon="3.48376">
        <ele>87</ele>
        <time>2012-01-29T10:46:49Z</time>
      </trkpt>
      <trkpt lat="43.44598" lon="3.48372">
        <ele>87</ele>
        <time>2012-01-29T10:46:53Z</time>
      </trkpt>
      <trkpt lat="43.44595" lon="3.48369">
        <ele>87</ele>
        <time>2012-01-29T10:46:57Z</time>
      </trkpt>
      <trkpt lat="43.44592" lon="3.48366">
        <ele>87</ele>
        <time>2012-01-29T10:47:01Z</time>
      </trkpt>
      <trkpt lat="43.44588" lon="3.48364">
        <ele>87</ele>
        <time>2012-01-29T10:47:05Z</time>
      </trkpt>
      <trkpt lat="43.44584" lon="3.48364">
        <ele>87</ele>
        <time>2012-01-29T10:47:09Z</time>
      </trkpt>
      <trkpt lat="43.4458" lon="3.48364">
        <ele>87</ele>
        <time>2012-01-29T10:47:13Z</time>
      </trkpt>
      <trkpt lat="43.44576" lon="3.48364">
        <ele>87</ele>
        <time>2012-01-29T10:47:18Z</time>
      </trkpt>
      <trkpt lat="43.44571" lon="3.48364">
        <ele>87</ele>
        <time>2012-01-29T10:47:23Z</time>
      </trkpt>
      <trkpt lat="43.44568" lon="3.48364">
        <ele>87</ele>
        <time>2012-01-29T10:47:27Z</time>
      </trkpt>
      <trkpt lat="43.44564" lon="3.48363">
        <ele>86</ele>
        <time>2012-01-29T10:47:31Z</time>
      </trkpt>
      <trkpt lat="43.4456" lon="3.48362">
        <ele>86</ele>
        <time>2012-01-29T10:47:35Z</time>
      </trkpt>
      <trkpt lat="43.44556" lon="3.48361">
        <ele>85</ele>
        <time>2012-01-29T10:47:38Z</time>
      </trkpt>
      <trkpt lat="43.44555" lon="3.4836">
        <ele>85</ele>
        <time>2012-01-29T10:47:39Z</time>
      </trkpt>
      <trkpt lat="43.44549" lon="3.48359">
        <ele>85</ele>
        <time>2012-01-29T10:47:44Z</time>
      </trkpt>
      <trkpt lat="43.44546" lon="3.48359">
        <ele>85</ele>
        <time>2012-01-29T10:47:47Z</time>
      </trkpt>
      <trkpt lat="43.44542" lon="3.48359">
        <ele>85</ele>
        <time>2012-01-29T10:47:50Z</time>
      </trkpt>
      <trkpt lat="43.44539" lon="3.48358">
        <ele>84</ele>
        <time>2012-01-29T10:47:53Z</time>
      </trkpt>
      <trkpt lat="43.44535" lon="3.48358">
        <ele>84</ele>
        <time>2012-01-29T10:47:56Z</time>
      </trkpt>
      <trkpt lat="43.44531" lon="3.48358">
        <ele>84</ele>
        <time>2012-01-29T10:48:00Z</time>
      </trkpt>
      <trkpt lat="43.44527" lon="3.48358">
        <ele>84</ele>
        <time>2012-01-29T10:48:03Z</time>
      </trkpt>
      <trkpt lat="43.44524" lon="3.48358">
        <ele>85</ele>
        <time>2012-01-29T10:48:06Z</time>
      </trkpt>
      <trkpt lat="43.4452" lon="3.48358">
        <ele>84</ele>
        <time>2012-01-29T10:48:09Z</time>
      </trkpt>
      <trkpt lat="43.44516" lon="3.48359">
        <ele>84</ele>
        <time>2012-01-29T10:48:12Z</time>
      </trkpt>
      <trkpt lat="43.44513" lon="3.48359">
        <ele>84</ele>
        <time>2012-01-29T10:48:15Z</time>
      </trkpt>
      <trkpt lat="43.44509" lon="3.4836">
        <ele>84</ele>
        <time>2012-01-29T10:48:18Z</time>
      </trkpt>
      <trkpt lat="43.44505" lon="3.48361">
        <ele>84</ele>
        <time>2012-01-29T10:48:21Z</time>
      </trkpt>
      <trkpt lat="43.44501" lon="3.48362">
        <ele>84</ele>
        <time>2012-01-29T10:48:24Z</time>
      </trkpt>
      <trkpt lat="43.44498" lon="3.48363">
        <ele>84</ele>
        <time>2012-01-29T10:48:27Z</time>
      </trkpt>
      <trkpt lat="43.44494" lon="3.48365">
        <ele>84</ele>
        <time>2012-01-29T10:48:30Z</time>
      </trkpt>
      <trkpt lat="43.44491" lon="3.48366">
        <ele>84</ele>
        <time>2012-01-29T10:48:33Z</time>
      </trkpt>
      <trkpt lat="43.44487" lon="3.48368">
        <ele>83</ele>
        <time>2012-01-29T10:48:36Z</time>
      </trkpt>
      <trkpt lat="43.44484" lon="3.48369">
        <ele>83</ele>
        <time>2012-01-29T10:48:39Z</time>
      </trkpt>
      <trkpt lat="43.44483" lon="3.48369">
        <ele>83</ele>
        <time>2012-01-29T10:48:40Z</time>
      </trkpt>
      <trkpt lat="43.44476" lon="3.4837">
        <ele>83</ele>
        <time>2012-01-29T10:48:45Z</time>
      </trkpt>
      <trkpt lat="43.44473" lon="3.4837">
        <ele>82</ele>
        <time>2012-01-29T10:48:48Z</time>
      </trkpt>
      <trkpt lat="43.44469" lon="3.48371">
        <ele>82</ele>
        <time>2012-01-29T10:48:51Z</time>
      </trkpt>
      <trkpt lat="43.44465" lon="3.48372">
        <ele>82</ele>
        <time>2012-01-29T10:48:54Z</time>
      </trkpt>
      <trkpt lat="43.44462" lon="3.48373">
        <ele>82</ele>
        <time>2012-01-29T10:48:57Z</time>
      </trkpt>
      <trkpt lat="43.44459" lon="3.48374">
        <ele>82</ele>
        <time>2012-01-29T10:49:00Z</time>
      </trkpt>
      <trkpt lat="43.44455" lon="3.48376">
        <ele>82</ele>
        <time>2012-01-29T10:49:04Z</time>
      </trkpt>
      <trkpt lat="43.44452" lon="3.48377">
        <ele>82</ele>
        <time>2012-01-29T10:49:08Z</time>
      </trkpt>
      <trkpt lat="43.44448" lon="3.48379">
        <ele>81</ele>
        <time>2012-01-29T10:49:12Z</time>
      </trkpt>
      <trkpt lat="43.44444" lon="3.48382">
        <ele>81</ele>
        <time>2012-01-29T10:49:16Z</time>
      </trkpt>
      <trkpt lat="43.4444" lon="3.48385">
        <ele>81</ele>
        <time>2012-01-29T10:49:20Z</time>
      </trkpt>
      <trkpt lat="43.44437" lon="3.48386">
        <ele>80</ele>
        <time>2012-01-29T10:49:24Z</time>
      </trkpt>
      <trkpt lat="43.44432" lon="3.48386">
        <ele>81</ele>
        <time>2012-01-29T10:49:28Z</time>
      </trkpt>
      <trkpt lat="43.44429" lon="3.48383">
        <ele>81</ele>
        <time>2012-01-29T10:49:33Z</time>
      </trkpt>
      <trkpt lat="43.44425" lon="3.48382">
        <ele>80</ele>
        <time>2012-01-29T10:49:46Z</time>
      </trkpt>
      <trkpt lat="43.44424" lon="3.48382">
        <ele>80</ele>
        <time>2012-01-29T10:49:47Z</time>
      </trkpt>
      <trkpt lat="43.44422" lon="3.4839">
        <ele>81</ele>
        <time>2012-01-29T10:52:04Z</time>
      </trkpt>
      <trkpt lat="43.44422" lon="3.48391">
        <ele>81</ele>
        <time>2012-01-29T10:52:05Z</time>
      </trkpt>
      <trkpt lat="43.44418" lon="3.48389">
        <ele>80</ele>
        <time>2012-01-29T10:55:21Z</time>
      </trkpt>
      <trkpt lat="43.44412" lon="3.48382">
        <ele>80</ele>
        <time>2012-01-29T10:55:29Z</time>
      </trkpt>
      <trkpt lat="43.44408" lon="3.4838">
        <ele>79</ele>
        <time>2012-01-29T10:55:33Z</time>
      </trkpt>
      <trkpt lat="43.44404" lon="3.48378">
        <ele>79</ele>
        <time>2012-01-29T10:55:37Z</time>
      </trkpt>
      <trkpt lat="43.44401" lon="3.48376">
        <ele>79</ele>
        <time>2012-01-29T10:55:40Z</time>
      </trkpt>
      <trkpt lat="43.44397" lon="3.48374">
        <ele>79</ele>
        <time>2012-01-29T10:55:44Z</time>
      </trkpt>
      <trkpt lat="43.44393" lon="3.48373">
        <ele>79</ele>
        <time>2012-01-29T10:55:48Z</time>
      </trkpt>
      <trkpt lat="43.44389" lon="3.48371">
        <ele>79</ele>
        <time>2012-01-29T10:55:52Z</time>
      </trkpt>
      <trkpt lat="43.44386" lon="3.4837">
        <ele>79</ele>
        <time>2012-01-29T10:55:56Z</time>
      </trkpt>
      <trkpt lat="43.44381" lon="3.48368">
        <ele>79</ele>
        <time>2012-01-29T10:56:01Z</time>
      </trkpt>
      <trkpt lat="43.44377" lon="3.48367">
        <ele>79</ele>
        <time>2012-01-29T10:56:08Z</time>
      </trkpt>
      <trkpt lat="43.44373" lon="3.48366">
        <ele>78</ele>
        <time>2012-01-29T10:56:19Z</time>
      </trkpt>
      <trkpt lat="43.44369" lon="3.48366">
        <ele>79</ele>
        <time>2012-01-29T10:56:48Z</time>
      </trkpt>
      <trkpt lat="43.44368" lon="3.48365">
        <ele>78</ele>
        <time>2012-01-29T10:56:49Z</time>
      </trkpt>
      <trkpt lat="43.44367" lon="3.48359">
        <ele>79</ele>
        <time>2012-01-29T10:59:34Z</time>
      </trkpt>
      <trkpt lat="43.44371" lon="3.48358">
        <ele>78</ele>
        <time>2012-01-29T11:01:13Z</time>
      </trkpt>
      <trkpt lat="43.44371" lon="3.48357">
        <ele>78</ele>
        <time>2012-01-29T11:01:14Z</time>
      </trkpt>
      <trkpt lat="43.44374" lon="3.48363">
        <ele>78</ele>
        <time>2012-01-29T11:04:58Z</time>
      </trkpt>
      <trkpt lat="43.4437" lon="3.4836">
        <ele>79</ele>
        <time>2012-01-29T11:05:59Z</time>
      </trkpt>
      <trkpt lat="43.44373" lon="3.48365">
        <ele>80</ele>
        <time>2012-01-29T11:11:01Z</time>
      </trkpt>
      <trkpt lat="43.44369" lon="3.48361">
        <ele>80</ele>
        <time>2012-01-29T11:25:16Z</time>
      </trkpt>
      <trkpt lat="43.44366" lon="3.48356">
        <ele>80</ele>
        <time>2012-01-29T11:26:29Z</time>
      </trkpt>
      <trkpt lat="43.44368" lon="3.48362">
        <ele>81</ele>
        <time>2012-01-29T11:29:33Z</time>
      </trkpt>
      <trkpt lat="43.44366" lon="3.48367">
        <ele>82</ele>
        <time>2012-01-29T11:42:20Z</time>
      </trkpt>
      <trkpt lat="43.44368" lon="3.48357">
        <ele>82</ele>
        <time>2012-01-29T11:43:46Z</time>
      </trkpt>
      <trkpt lat="43.44368" lon="3.48357">
        <ele>82</ele>
        <time>2012-01-29T11:43:47Z</time>
      </trkpt>
      <trkpt lat="43.44372" lon="3.48362">
        <ele>81</ele>
        <time>2012-01-29T11:46:13Z</time>
      </trkpt>
      <trkpt lat="43.44378" lon="3.48366">
        <ele>81</ele>
        <time>2012-01-29T11:46:25Z</time>
      </trkpt>
      <trkpt lat="43.44381" lon="3.48368">
        <ele>82</ele>
        <time>2012-01-29T11:46:30Z</time>
      </trkpt>
      <trkpt lat="43.44385" lon="3.4837">
        <ele>82</ele>
        <time>2012-01-29T11:46:34Z</time>
      </trkpt>
      <trkpt lat="43.44389" lon="3.48372">
        <ele>82</ele>
        <time>2012-01-29T11:46:39Z</time>
      </trkpt>
      <trkpt lat="43.44392" lon="3.48374">
        <ele>82</ele>
        <time>2012-01-29T11:46:43Z</time>
      </trkpt>
      <trkpt lat="43.44396" lon="3.48375">
        <ele>82</ele>
        <time>2012-01-29T11:46:47Z</time>
      </trkpt>
      <trkpt lat="43.44393" lon="3.48375">
        <ele>83</ele>
        <time>2012-01-29T11:46:56Z</time>
      </trkpt>
      <trkpt lat="43.44389" lon="3.48375">
        <ele>82</ele>
        <time>2012-01-29T11:46:58Z</time>
      </trkpt>
      <trkpt lat="43.44385" lon="3.48375">
        <ele>83</ele>
        <time>2012-01-29T11:47:00Z</time>
      </trkpt>
      <trkpt lat="43.44389" lon="3.48375">
        <ele>82</ele>
        <time>2012-01-29T11:47:15Z</time>
      </trkpt>
      <trkpt lat="43.44389" lon="3.48375">
        <ele>82</ele>
        <time>2012-01-29T11:47:16Z</time>
      </trkpt>
      <trkpt lat="43.44397" lon="3.48378">
        <ele>82</ele>
        <time>2012-01-29T11:47:24Z</time>
      </trkpt>
      <trkpt lat="43.44401" lon="3.4838">
        <ele>83</ele>
        <time>2012-01-29T11:47:29Z</time>
      </trkpt>
      <trkpt lat="43.44405" lon="3.48382">
        <ele>82</ele>
        <time>2012-01-29T11:47:34Z</time>
      </trkpt>
      <trkpt lat="43.44408" lon="3.48384">
        <ele>83</ele>
        <time>2012-01-29T11:47:42Z</time>
      </trkpt>
      <trkpt lat="43.44412" lon="3.48386">
        <ele>83</ele>
        <time>2012-01-29T11:47:46Z</time>
      </trkpt>
      <trkpt lat="43.44415" lon="3.48387">
        <ele>84</ele>
        <time>2012-01-29T11:47:49Z</time>
      </trkpt>
      <trkpt lat="43.44419" lon="3.48385">
        <ele>83</ele>
        <time>2012-01-29T11:47:53Z</time>
      </trkpt>
      <trkpt lat="43.44422" lon="3.48381">
        <ele>83</ele>
        <time>2012-01-29T11:47:57Z</time>
      </trkpt>
      <trkpt lat="43.44424" lon="3.48376">
        <ele>84</ele>
        <time>2012-01-29T11:48:01Z</time>
      </trkpt>
      <trkpt lat="43.44425" lon="3.4837">
        <ele>84</ele>
        <time>2012-01-29T11:48:05Z</time>
      </trkpt>
      <trkpt lat="43.44422" lon="3.48365">
        <ele>84</ele>
        <time>2012-01-29T11:48:10Z</time>
      </trkpt>
      <trkpt lat="43.44418" lon="3.48363">
        <ele>85</ele>
        <time>2012-01-29T11:48:15Z</time>
      </trkpt>
      <trkpt lat="43.44414" lon="3.48361">
        <ele>85</ele>
        <time>2012-01-29T11:48:20Z</time>
      </trkpt>
      <trkpt lat="43.44414" lon="3.4836">
        <ele>85</ele>
        <time>2012-01-29T11:48:21Z</time>
      </trkpt>
      <trkpt lat="43.44408" lon="3.48356">
        <ele>84</ele>
        <time>2012-01-29T11:48:29Z</time>
      </trkpt>
      <trkpt lat="43.44404" lon="3.48352">
        <ele>84</ele>
        <time>2012-01-29T11:48:34Z</time>
      </trkpt>
      <trkpt lat="43.44401" lon="3.48349">
        <ele>83</ele>
        <time>2012-01-29T11:48:41Z</time>
      </trkpt>
      <trkpt lat="43.44398" lon="3.48344">
        <ele>83</ele>
        <time>2012-01-29T11:48:46Z</time>
      </trkpt>
      <trkpt lat="43.44396" lon="3.48339">
        <ele>83</ele>
        <time>2012-01-29T11:48:56Z</time>
      </trkpt>
      <trkpt lat="43.44395" lon="3.48334">
        <ele>83</ele>
        <time>2012-01-29T11:49:01Z</time>
      </trkpt>
      <trkpt lat="43.44394" lon="3.48328">
        <ele>83</ele>
        <time>2012-01-29T11:49:06Z</time>
      </trkpt>
      <trkpt lat="43.44392" lon="3.48323">
        <ele>83</ele>
        <time>2012-01-29T11:49:10Z</time>
      </trkpt>
      <trkpt lat="43.4439" lon="3.48318">
        <ele>83</ele>
        <time>2012-01-29T11:49:15Z</time>
      </trkpt>
      <trkpt lat="43.44389" lon="3.48313">
        <ele>83</ele>
        <time>2012-01-29T11:49:19Z</time>
      </trkpt>
      <trkpt lat="43.44388" lon="3.48308">
        <ele>82</ele>
        <time>2012-01-29T11:49:23Z</time>
      </trkpt>
      <trkpt lat="43.44387" lon="3.48307">
        <ele>81</ele>
        <time>2012-01-29T11:49:24Z</time>
      </trkpt>
      <trkpt lat="43.44384" lon="3.48298">
        <ele>82</ele>
        <time>2012-01-29T11:49:32Z</time>
      </trkpt>
      <trkpt lat="43.44382" lon="3.48293">
        <ele>83</ele>
        <time>2012-01-29T11:49:37Z</time>
      </trkpt>
      <trkpt lat="43.4438" lon="3.48289">
        <ele>82</ele>
        <time>2012-01-29T11:49:41Z</time>
      </trkpt>
      <trkpt lat="43.44378" lon="3.48284">
        <ele>83</ele>
        <time>2012-01-29T11:49:46Z</time>
      </trkpt>
      <trkpt lat="43.44376" lon="3.48279">
        <ele>82</ele>
        <time>2012-01-29T11:49:51Z</time>
      </trkpt>
      <trkpt lat="43.44374" lon="3.48274">
        <ele>81</ele>
        <time>2012-01-29T11:49:55Z</time>
      </trkpt>
      <trkpt lat="43.44371" lon="3.4827">
        <ele>81</ele>
        <time>2012-01-29T11:49:59Z</time>
      </trkpt>
      <trkpt lat="43.4437" lon="3.48265">
        <ele>81</ele>
        <time>2012-01-29T11:50:03Z</time>
      </trkpt>
      <trkpt lat="43.44368" lon="3.48261">
        <ele>82</ele>
        <time>2012-01-29T11:50:07Z</time>
      </trkpt>
      <trkpt lat="43.44367" lon="3.48256">
        <ele>82</ele>
        <time>2012-01-29T11:50:10Z</time>
      </trkpt>
      <trkpt lat="43.44365" lon="3.48252">
        <ele>82</ele>
        <time>2012-01-29T11:50:13Z</time>
      </trkpt>
      <trkpt lat="43.44363" lon="3.48248">
        <ele>81</ele>
        <time>2012-01-29T11:50:16Z</time>
      </trkpt>
      <trkpt lat="43.44362" lon="3.48244">
        <ele>82</ele>
        <time>2012-01-29T11:50:19Z</time>
      </trkpt>
      <trkpt lat="43.4436" lon="3.48238">
        <ele>82</ele>
        <time>2012-01-29T11:50:23Z</time>
      </trkpt>
      <trkpt lat="43.44359" lon="3.48233">
        <ele>82</ele>
        <time>2012-01-29T11:50:26Z</time>
      </trkpt>
      <trkpt lat="43.44359" lon="3.48232">
        <ele>82</ele>
        <time>2012-01-29T11:50:27Z</time>
      </trkpt>
      <trkpt lat="43.44357" lon="3.48223">
        <ele>81</ele>
        <time>2012-01-29T11:50:32Z</time>
      </trkpt>
      <trkpt lat="43.44357" lon="3.48218">
        <ele>82</ele>
        <time>2012-01-29T11:50:35Z</time>
      </trkpt>
      <trkpt lat="43.44356" lon="3.48213">
        <ele>82</ele>
        <time>2012-01-29T11:50:39Z</time>
      </trkpt>
      <trkpt lat="43.44355" lon="3.48208">
        <ele>82</ele>
        <time>2012-01-29T11:50:42Z</time>
      </trkpt>
      <trkpt lat="43.44355" lon="3.48203">
        <ele>82</ele>
        <time>2012-01-29T11:50:45Z</time>
      </trkpt>
      <trkpt lat="43.44354" lon="3.48198">
        <ele>82</ele>
        <time>2012-01-29T11:50:48Z</time>
      </trkpt>
      <trkpt lat="43.44354" lon="3.48193">
        <ele>82</ele>
        <time>2012-01-29T11:50:51Z</time>
      </trkpt>
      <trkpt lat="43.44355" lon="3.48187">
        <ele>82</ele>
        <time>2012-01-29T11:50:55Z</time>
      </trkpt>
      <trkpt lat="43.44355" lon="3.48182">
        <ele>82</ele>
        <time>2012-01-29T11:50:58Z</time>
      </trkpt>
      <trkpt lat="43.44354" lon="3.48176">
        <ele>81</ele>
        <time>2012-01-29T11:51:02Z</time>
      </trkpt>
      <trkpt lat="43.44353" lon="3.48171">
        <ele>81</ele>
        <time>2012-01-29T11:51:10Z</time>
      </trkpt>
      <trkpt lat="43.44349" lon="3.48167">
        <ele>81</ele>
        <time>2012-01-29T11:51:15Z</time>
      </trkpt>
      <trkpt lat="43.44346" lon="3.48165">
        <ele>80</ele>
        <time>2012-01-29T11:51:20Z</time>
      </trkpt>
      <trkpt lat="43.44341" lon="3.48164">
        <ele>81</ele>
        <time>2012-01-29T11:51:25Z</time>
      </trkpt>
      <trkpt lat="43.44338" lon="3.48163">
        <ele>81</ele>
        <time>2012-01-29T11:51:29Z</time>
      </trkpt>
      <trkpt lat="43.44337" lon="3.48163">
        <ele>81</ele>
        <time>2012-01-29T11:51:30Z</time>
      </trkpt>
      <trkpt lat="43.4433" lon="3.48158">
        <ele>81</ele>
        <time>2012-01-29T11:51:41Z</time>
      </trkpt>
      <trkpt lat="43.44328" lon="3.48153">
        <ele>81</ele>
        <time>2012-01-29T11:51:48Z</time>
      </trkpt>
      <trkpt lat="43.44324" lon="3.48151">
        <ele>82</ele>
        <time>2012-01-29T11:51:54Z</time>
      </trkpt>
      <trkpt lat="43.44321" lon="3.48147">
        <ele>82</ele>
        <time>2012-01-29T11:52:00Z</time>
      </trkpt>
      <trkpt lat="43.44321" lon="3.48141">
        <ele>82</ele>
        <time>2012-01-29T11:52:04Z</time>
      </trkpt>
      <trkpt lat="43.4432" lon="3.48136">
        <ele>83</ele>
        <time>2012-01-29T11:52:09Z</time>
      </trkpt>
      <trkpt lat="43.4432" lon="3.4813">
        <ele>83</ele>
        <time>2012-01-29T11:52:13Z</time>
      </trkpt>
      <trkpt lat="43.4432" lon="3.48124">
        <ele>83</ele>
        <time>2012-01-29T11:52:17Z</time>
      </trkpt>
      <trkpt lat="43.4432" lon="3.48119">
        <ele>83</ele>
        <time>2012-01-29T11:52:21Z</time>
      </trkpt>
      <trkpt lat="43.44321" lon="3.48115">
        <ele>83</ele>
        <time>2012-01-29T11:52:24Z</time>
      </trkpt>
      <trkpt lat="43.44322" lon="3.4811">
        <ele>83</ele>
        <time>2012-01-29T11:52:27Z</time>
      </trkpt>
      <trkpt lat="43.44323" lon="3.48105">
        <ele>84</ele>
        <time>2012-01-29T11:52:30Z</time>
      </trkpt>
      <trkpt lat="43.44323" lon="3.48104">
        <ele>84</ele>
        <time>2012-01-29T11:52:31Z</time>
      </trkpt>
      <trkpt lat="43.44324" lon="3.48096">
        <ele>84</ele>
        <time>2012-01-29T11:52:37Z</time>
      </trkpt>
      <trkpt lat="43.44324" lon="3.48091">
        <ele>85</ele>
        <time>2012-01-29T11:52:40Z</time>
      </trkpt>
      <trkpt lat="43.44325" lon="3.48086">
        <ele>85</ele>
        <time>2012-01-29T11:52:43Z</time>
      </trkpt>
      <trkpt lat="43.44325" lon="3.48081">
        <ele>84</ele>
        <time>2012-01-29T11:52:46Z</time>
      </trkpt>
      <trkpt lat="43.44324" lon="3.48076">
        <ele>84</ele>
        <time>2012-01-29T11:52:49Z</time>
      </trkpt>
      <trkpt lat="43.44324" lon="3.48071">
        <ele>84</ele>
        <time>2012-01-29T11:52:52Z</time>
      </trkpt>
      <trkpt lat="43.44323" lon="3.48065">
        <ele>83</ele>
        <time>2012-01-29T11:52:56Z</time>
      </trkpt>
      <trkpt lat="43.44321" lon="3.4806">
        <ele>83</ele>
        <time>2012-01-29T11:53:00Z</time>
      </trkpt>
      <trkpt lat="43.4432" lon="3.48054">
        <ele>82</ele>
        <time>2012-01-29T11:53:04Z</time>
      </trkpt>
      <trkpt lat="43.44319" lon="3.48048">
        <ele>83</ele>
        <time>2012-01-29T11:53:08Z</time>
      </trkpt>
      <trkpt lat="43.44317" lon="3.48043">
        <ele>83</ele>
        <time>2012-01-29T11:53:12Z</time>
      </trkpt>
      <trkpt lat="43.44316" lon="3.48037">
        <ele>82</ele>
        <time>2012-01-29T11:53:16Z</time>
      </trkpt>
      <trkpt lat="43.44315" lon="3.48032">
        <ele>83</ele>
        <time>2012-01-29T11:53:20Z</time>
      </trkpt>
      <trkpt lat="43.44314" lon="3.48026">
        <ele>83</ele>
        <time>2012-01-29T11:53:24Z</time>
      </trkpt>
      <trkpt lat="43.44313" lon="3.48022">
        <ele>83</ele>
        <time>2012-01-29T11:53:27Z</time>
      </trkpt>
      <trkpt lat="43.44311" lon="3.48017">
        <ele>83</ele>
        <time>2012-01-29T11:53:30Z</time>
      </trkpt>
      <trkpt lat="43.4431" lon="3.48013">
        <ele>83</ele>
        <time>2012-01-29T11:53:33Z</time>
      </trkpt>
      <trkpt lat="43.44309" lon="3.48011">
        <ele>83</ele>
        <time>2012-01-29T11:53:34Z</time>
      </trkpt>
      <trkpt lat="43.44306" lon="3.48003">
        <ele>84</ele>
        <time>2012-01-29T11:53:39Z</time>
      </trkpt>
      <trkpt lat="43.44304" lon="3.47999">
        <ele>84</ele>
        <time>2012-01-29T11:53:42Z</time>
      </trkpt>
      <trkpt lat="43.44303" lon="3.47994">
        <ele>84</ele>
        <time>2012-01-29T11:53:45Z</time>
      </trkpt>
      <trkpt lat="43.44301" lon="3.4799">
        <ele>83</ele>
        <time>2012-01-29T11:53:48Z</time>
      </trkpt>
      <trkpt lat="43.44299" lon="3.47986">
        <ele>84</ele>
        <time>2012-01-29T11:53:51Z</time>
      </trkpt>
      <trkpt lat="43.44297" lon="3.47981">
        <ele>84</ele>
        <time>2012-01-29T11:53:55Z</time>
      </trkpt>
      <trkpt lat="43.44296" lon="3.47975">
        <ele>84</ele>
        <time>2012-01-29T11:53:59Z</time>
      </trkpt>
      <trkpt lat="43.44294" lon="3.4797">
        <ele>84</ele>
        <time>2012-01-29T11:54:03Z</time>
      </trkpt>
      <trkpt lat="43.44293" lon="3.47965">
        <ele>85</ele>
        <time>2012-01-29T11:54:07Z</time>
      </trkpt>
      <trkpt lat="43.44291" lon="3.47961">
        <ele>85</ele>
        <time>2012-01-29T11:54:11Z</time>
      </trkpt>
      <trkpt lat="43.44289" lon="3.47956">
        <ele>85</ele>
        <time>2012-01-29T11:54:15Z</time>
      </trkpt>
      <trkpt lat="43.44286" lon="3.47951">
        <ele>87</ele>
        <time>2012-01-29T11:54:19Z</time>
      </trkpt>
      <trkpt lat="43.44284" lon="3.47947">
        <ele>86</ele>
        <time>2012-01-29T11:54:23Z</time>
      </trkpt>
      <trkpt lat="43.44282" lon="3.47942">
        <ele>87</ele>
        <time>2012-01-29T11:54:27Z</time>
      </trkpt>
      <trkpt lat="43.4428" lon="3.47937">
        <ele>87</ele>
        <time>2012-01-29T11:54:31Z</time>
      </trkpt>
      <trkpt lat="43.44279" lon="3.47932">
        <ele>87</ele>
        <time>2012-01-29T11:54:34Z</time>
      </trkpt>
      <trkpt lat="43.44278" lon="3.47931">
        <ele>87</ele>
        <time>2012-01-29T11:54:35Z</time>
      </trkpt>
      <trkpt lat="43.44276" lon="3.47922">
        <ele>88</ele>
        <time>2012-01-29T11:54:41Z</time>
      </trkpt>
      <trkpt lat="43.44276" lon="3.47917">
        <ele>87</ele>
        <time>2012-01-29T11:54:44Z</time>
      </trkpt>
      <trkpt lat="43.44275" lon="3.47912">
        <ele>88</ele>
        <time>2012-01-29T11:54:47Z</time>
      </trkpt>
      <trkpt lat="43.44274" lon="3.47906">
        <ele>89</ele>
        <time>2012-01-29T11:54:51Z</time>
      </trkpt>
      <trkpt lat="43.44273" lon="3.47901">
        <ele>89</ele>
        <time>2012-01-29T11:54:55Z</time>
      </trkpt>
      <trkpt lat="43.44274" lon="3.47895">
        <ele>89</ele>
        <time>2012-01-29T11:54:59Z</time>
      </trkpt>
      <trkpt lat="43.44276" lon="3.4789">
        <ele>89</ele>
        <time>2012-01-29T11:55:03Z</time>
      </trkpt>
      <trkpt lat="43.44277" lon="3.47886">
        <ele>89</ele>
        <time>2012-01-29T11:55:07Z</time>
      </trkpt>
      <trkpt lat="43.4428" lon="3.47881">
        <ele>89</ele>
        <time>2012-01-29T11:55:11Z</time>
      </trkpt>
      <trkpt lat="43.44282" lon="3.47876">
        <ele>89</ele>
        <time>2012-01-29T11:55:15Z</time>
      </trkpt>
      <trkpt lat="43.44284" lon="3.47871">
        <ele>88</ele>
        <time>2012-01-29T11:55:19Z</time>
      </trkpt>
      <trkpt lat="43.44286" lon="3.47866">
        <ele>89</ele>
        <time>2012-01-29T11:55:23Z</time>
      </trkpt>
      <trkpt lat="43.44288" lon="3.47862">
        <ele>90</ele>
        <time>2012-01-29T11:55:27Z</time>
      </trkpt>
      <trkpt lat="43.4429" lon="3.47857">
        <ele>90</ele>
        <time>2012-01-29T11:55:31Z</time>
      </trkpt>
      <trkpt lat="43.44292" lon="3.47852">
        <ele>90</ele>
        <time>2012-01-29T11:55:35Z</time>
      </trkpt>
      <trkpt lat="43.44293" lon="3.47851">
        <ele>91</ele>
        <time>2012-01-29T11:55:36Z</time>
      </trkpt>
      <trkpt lat="43.44295" lon="3.47841">
        <ele>90</ele>
        <time>2012-01-29T11:55:42Z</time>
      </trkpt>
      <trkpt lat="43.44295" lon="3.47836">
        <ele>90</ele>
        <time>2012-01-29T11:55:45Z</time>
      </trkpt>
      <trkpt lat="43.44295" lon="3.47831">
        <ele>91</ele>
        <time>2012-01-29T11:55:48Z</time>
      </trkpt>
      <trkpt lat="43.44295" lon="3.47826">
        <ele>91</ele>
        <time>2012-01-29T11:55:51Z</time>
      </trkpt>
      <trkpt lat="43.44295" lon="3.47821">
        <ele>90</ele>
        <time>2012-01-29T11:55:54Z</time>
      </trkpt>
      <trkpt lat="43.44294" lon="3.47817">
        <ele>91</ele>
        <time>2012-01-29T11:55:57Z</time>
      </trkpt>
      <trkpt lat="43.44294" lon="3.4781">
        <ele>91</ele>
        <time>2012-01-29T11:56:01Z</time>
      </trkpt>
      <trkpt lat="43.44294" lon="3.47806">
        <ele>91</ele>
        <time>2012-01-29T11:56:04Z</time>
      </trkpt>
      <trkpt lat="43.44293" lon="3.478">
        <ele>91</ele>
        <time>2012-01-29T11:56:08Z</time>
      </trkpt>
      <trkpt lat="43.44292" lon="3.47794">
        <ele>91</ele>
        <time>2012-01-29T11:56:12Z</time>
      </trkpt>
      <trkpt lat="43.44291" lon="3.47788">
        <ele>91</ele>
        <time>2012-01-29T11:56:16Z</time>
      </trkpt>
      <trkpt lat="43.44291" lon="3.47783">
        <ele>91</ele>
        <time>2012-01-29T11:56:20Z</time>
      </trkpt>
      <trkpt lat="43.4429" lon="3.47778">
        <ele>90</ele>
        <time>2012-01-29T11:56:24Z</time>
      </trkpt>
      <trkpt lat="43.4429" lon="3.47772">
        <ele>91</ele>
        <time>2012-01-29T11:56:28Z</time>
      </trkpt>
      <trkpt lat="43.4429" lon="3.47766">
        <ele>92</ele>
        <time>2012-01-29T11:56:32Z</time>
      </trkpt>
      <trkpt lat="43.4429" lon="3.4776">
        <ele>92</ele>
        <time>2012-01-29T11:56:36Z</time>
      </trkpt>
      <trkpt lat="43.4429" lon="3.47759">
        <ele>92</ele>
        <time>2012-01-29T11:56:37Z</time>
      </trkpt>
      <trkpt lat="43.44291" lon="3.47749">
        <ele>91</ele>
        <time>2012-01-29T11:56:43Z</time>
      </trkpt>
      <trkpt lat="43.44292" lon="3.47743">
        <ele>91</ele>
        <time>2012-01-29T11:56:47Z</time>
      </trkpt>
      <trkpt lat="43.44291" lon="3.47737">
        <ele>92</ele>
        <time>2012-01-29T11:57:25Z</time>
      </trkpt>
      <trkpt lat="43.44295" lon="3.47734">
        <ele>91</ele>
        <time>2012-01-29T11:57:31Z</time>
      </trkpt>
      <trkpt lat="43.44299" lon="3.47732">
        <ele>90</ele>
        <time>2012-01-29T11:57:35Z</time>
      </trkpt>
      <trkpt lat="43.44303" lon="3.47732">
        <ele>90</ele>
        <time>2012-01-29T11:57:40Z</time>
      </trkpt>
      <trkpt lat="43.44304" lon="3.47732">
        <ele>90</ele>
        <time>2012-01-29T11:57:41Z</time>
      </trkpt>
      <trkpt lat="43.44311" lon="3.4773">
        <ele>91</ele>
        <time>2012-01-29T11:57:49Z</time>
      </trkpt>
      <trkpt lat="43.44314" lon="3.47728">
        <ele>91</ele>
        <time>2012-01-29T11:57:53Z</time>
      </trkpt>
      <trkpt lat="43.44318" lon="3.47727">
        <ele>91</ele>
        <time>2012-01-29T11:57:57Z</time>
      </trkpt>
      <trkpt lat="43.44322" lon="3.47725">
        <ele>91</ele>
        <time>2012-01-29T11:58:01Z</time>
      </trkpt>
      <trkpt lat="43.44326" lon="3.47723">
        <ele>90</ele>
        <time>2012-01-29T11:58:05Z</time>
      </trkpt>
      <trkpt lat="43.4433" lon="3.47722">
        <ele>90</ele>
        <time>2012-01-29T11:58:09Z</time>
      </trkpt>
      <trkpt lat="43.44334" lon="3.4772">
        <ele>90</ele>
        <time>2012-01-29T11:58:13Z</time>
      </trkpt>
      <trkpt lat="43.44339" lon="3.47719">
        <ele>90</ele>
        <time>2012-01-29T11:58:17Z</time>
      </trkpt>
      <trkpt lat="43.44343" lon="3.47718">
        <ele>90</ele>
        <time>2012-01-29T11:58:22Z</time>
      </trkpt>
      <trkpt lat="43.44346" lon="3.47718">
        <ele>90</ele>
        <time>2012-01-29T11:58:25Z</time>
      </trkpt>
      <trkpt lat="43.4435" lon="3.47717">
        <ele>90</ele>
        <time>2012-01-29T11:58:28Z</time>
      </trkpt>
      <trkpt lat="43.44353" lon="3.47716">
        <ele>90</ele>
        <time>2012-01-29T11:58:31Z</time>
      </trkpt>
      <trkpt lat="43.44357" lon="3.47716">
        <ele>90</ele>
        <time>2012-01-29T11:58:34Z</time>
      </trkpt>
      <trkpt lat="43.4436" lon="3.47715">
        <ele>90</ele>
        <time>2012-01-29T11:58:37Z</time>
      </trkpt>
      <trkpt lat="43.44364" lon="3.47715">
        <ele>89</ele>
        <time>2012-01-29T11:58:40Z</time>
      </trkpt>
      <trkpt lat="43.44368" lon="3.47715">
        <ele>90</ele>
        <time>2012-01-29T11:58:44Z</time>
      </trkpt>
      <trkpt lat="43.44369" lon="3.47715">
        <ele>90</ele>
        <time>2012-01-29T11:58:45Z</time>
      </trkpt>
      <trkpt lat="43.44376" lon="3.47714">
        <ele>90</ele>
        <time>2012-01-29T11:58:51Z</time>
      </trkpt>
      <trkpt lat="43.44379" lon="3.47713">
        <ele>90</ele>
        <time>2012-01-29T11:58:54Z</time>
      </trkpt>
      <trkpt lat="43.44383" lon="3.47713">
        <ele>90</ele>
        <time>2012-01-29T11:58:57Z</time>
      </trkpt>
      <trkpt lat="43.44387" lon="3.47712">
        <ele>89</ele>
        <time>2012-01-29T11:59:01Z</time>
      </trkpt>
      <trkpt lat="43.44391" lon="3.47712">
        <ele>90</ele>
        <time>2012-01-29T11:59:04Z</time>
      </trkpt>
      <trkpt lat="43.44395" lon="3.47711">
        <ele>89</ele>
        <time>2012-01-29T11:59:08Z</time>
      </trkpt>
      <trkpt lat="43.44399" lon="3.47709">
        <ele>89</ele>
        <time>2012-01-29T11:59:12Z</time>
      </trkpt>
      <trkpt lat="43.44403" lon="3.47708">
        <ele>89</ele>
        <time>2012-01-29T11:59:15Z</time>
      </trkpt>
      <trkpt lat="43.44406" lon="3.47707">
        <ele>89</ele>
        <time>2012-01-29T11:59:18Z</time>
      </trkpt>
      <trkpt lat="43.4441" lon="3.47707">
        <ele>89</ele>
        <time>2012-01-29T11:59:21Z</time>
      </trkpt>
      <trkpt lat="43.44413" lon="3.47706">
        <ele>89</ele>
        <time>2012-01-29T11:59:24Z</time>
      </trkpt>
      <trkpt lat="43.44417" lon="3.47705">
        <ele>89</ele>
        <time>2012-01-29T11:59:27Z</time>
      </trkpt>
      <trkpt lat="43.44421" lon="3.47703">
        <ele>89</ele>
        <time>2012-01-29T11:59:30Z</time>
      </trkpt>
      <trkpt lat="43.44424" lon="3.47702">
        <ele>89</ele>
        <time>2012-01-29T11:59:33Z</time>
      </trkpt>
      <trkpt lat="43.44428" lon="3.47701">
        <ele>90</ele>
        <time>2012-01-29T11:59:37Z</time>
      </trkpt>
      <trkpt lat="43.44432" lon="3.47699">
        <ele>89</ele>
        <time>2012-01-29T11:59:41Z</time>
      </trkpt>
      <trkpt lat="43.44436" lon="3.47698">
        <ele>89</ele>
        <time>2012-01-29T11:59:44Z</time>
      </trkpt>
      <trkpt lat="43.4444" lon="3.47697">
        <ele>89</ele>
        <time>2012-01-29T11:59:48Z</time>
      </trkpt>
      <trkpt lat="43.44441" lon="3.47696">
        <ele>89</ele>
        <time>2012-01-29T11:59:49Z</time>
      </trkpt>
      <trkpt lat="43.44448" lon="3.47694">
        <ele>89</ele>
        <time>2012-01-29T11:59:55Z</time>
      </trkpt>
      <trkpt lat="43.44452" lon="3.47693">
        <ele>88</ele>
        <time>2012-01-29T11:59:59Z</time>
      </trkpt>
      <trkpt lat="43.44456" lon="3.47692">
        <ele>88</ele>
        <time>2012-01-29T12:00:02Z</time>
      </trkpt>
      <trkpt lat="43.4446" lon="3.4769">
        <ele>89</ele>
        <time>2012-01-29T12:00:06Z</time>
      </trkpt>
      <trkpt lat="43.44463" lon="3.47689">
        <ele>89</ele>
        <time>2012-01-29T12:00:09Z</time>
      </trkpt>
      <trkpt lat="43.44467" lon="3.47689">
        <ele>89</ele>
        <time>2012-01-29T12:00:12Z</time>
      </trkpt>
      <trkpt lat="43.44471" lon="3.47688">
        <ele>89</ele>
        <time>2012-01-29T12:00:15Z</time>
      </trkpt>
      <trkpt lat="43.44475" lon="3.47688">
        <ele>89</ele>
        <time>2012-01-29T12:00:18Z</time>
      </trkpt>
      <trkpt lat="43.44478" lon="3.47688">
        <ele>90</ele>
        <time>2012-01-29T12:00:21Z</time>
      </trkpt>
      <trkpt lat="43.44482" lon="3.47687">
        <ele>89</ele>
        <time>2012-01-29T12:00:24Z</time>
      </trkpt>
      <trkpt lat="43.44485" lon="3.47687">
        <ele>89</ele>
        <time>2012-01-29T12:00:27Z</time>
      </trkpt>
      <trkpt lat="43.44489" lon="3.47687">
        <ele>89</ele>
        <time>2012-01-29T12:00:30Z</time>
      </trkpt>
      <trkpt lat="43.44493" lon="3.47686">
        <ele>89</ele>
        <time>2012-01-29T12:00:33Z</time>
      </trkpt>
      <trkpt lat="43.44497" lon="3.47686">
        <ele>89</ele>
        <time>2012-01-29T12:00:37Z</time>
      </trkpt>
      <trkpt lat="43.44501" lon="3.47686">
        <ele>89</ele>
        <time>2012-01-29T12:00:40Z</time>
      </trkpt>
      <trkpt lat="43.44504" lon="3.47686">
        <ele>88</ele>
        <time>2012-01-29T12:00:43Z</time>
      </trkpt>
      <trkpt lat="43.44508" lon="3.47687">
        <ele>89</ele>
        <time>2012-01-29T12:00:46Z</time>
      </trkpt>
      <trkpt lat="43.44511" lon="3.47688">
        <ele>89</ele>
        <time>2012-01-29T12:00:49Z</time>
      </trkpt>
      <trkpt lat="43.44513" lon="3.47688">
        <ele>89</ele>
        <time>2012-01-29T12:00:50Z</time>
      </trkpt>
      <trkpt lat="43.4452" lon="3.47689">
        <ele>89</ele>
        <time>2012-01-29T12:00:56Z</time>
      </trkpt>
      <trkpt lat="43.44523" lon="3.47689">
        <ele>90</ele>
        <time>2012-01-29T12:00:59Z</time>
      </trkpt>
      <trkpt lat="43.44527" lon="3.4769">
        <ele>89</ele>
        <time>2012-01-29T12:01:02Z</time>
      </trkpt>
      <trkpt lat="43.4453" lon="3.4769">
        <ele>89</ele>
        <time>2012-01-29T12:01:05Z</time>
      </trkpt>
      <trkpt lat="43.44534" lon="3.47691">
        <ele>89</ele>
        <time>2012-01-29T12:01:08Z</time>
      </trkpt>
      <trkpt lat="43.44538" lon="3.47692">
        <ele>89</ele>
        <time>2012-01-29T12:01:11Z</time>
      </trkpt>
      <trkpt lat="43.44541" lon="3.47692">
        <ele>89</ele>
        <time>2012-01-29T12:01:14Z</time>
      </trkpt>
      <trkpt lat="43.44545" lon="3.47693">
        <ele>89</ele>
        <time>2012-01-29T12:01:17Z</time>
      </trkpt>
      <trkpt lat="43.44548" lon="3.47693">
        <ele>89</ele>
        <time>2012-01-29T12:01:20Z</time>
      </trkpt>
      <trkpt lat="43.44552" lon="3.47693">
        <ele>88</ele>
        <time>2012-01-29T12:01:23Z</time>
      </trkpt>
      <trkpt lat="43.44555" lon="3.47693">
        <ele>88</ele>
        <time>2012-01-29T12:01:26Z</time>
      </trkpt>
      <trkpt lat="43.44559" lon="3.47693">
        <ele>89</ele>
        <time>2012-01-29T12:01:29Z</time>
      </trkpt>
      <trkpt lat="43.44562" lon="3.47693">
        <ele>89</ele>
        <time>2012-01-29T12:01:32Z</time>
      </trkpt>
      <trkpt lat="43.44566" lon="3.47694">
        <ele>89</ele>
        <time>2012-01-29T12:01:35Z</time>
      </trkpt>
      <trkpt lat="43.4457" lon="3.47695">
        <ele>90</ele>
        <time>2012-01-29T12:01:38Z</time>
      </trkpt>
      <trkpt lat="43.44573" lon="3.47695">
        <ele>89</ele>
        <time>2012-01-29T12:01:41Z</time>
      </trkpt>
      <trkpt lat="43.44577" lon="3.47696">
        <ele>89</ele>
        <time>2012-01-29T12:01:44Z</time>
      </trkpt>
      <trkpt lat="43.4458" lon="3.47697">
        <ele>89</ele>
        <time>2012-01-29T12:01:47Z</time>
      </trkpt>
      <trkpt lat="43.44584" lon="3.47697">
        <ele>89</ele>
        <time>2012-01-29T12:01:50Z</time>
      </trkpt>
      <trkpt lat="43.44585" lon="3.47697">
        <ele>89</ele>
        <time>2012-01-29T12:01:51Z</time>
      </trkpt>
      <trkpt lat="43.44591" lon="3.47697">
        <ele>90</ele>
        <time>2012-01-29T12:01:56Z</time>
      </trkpt>
      <trkpt lat="43.44595" lon="3.47696">
        <ele>90</ele>
        <time>2012-01-29T12:02:00Z</time>
      </trkpt>
      <trkpt lat="43.44599" lon="3.47696">
        <ele>91</ele>
        <time>2012-01-29T12:02:03Z</time>
      </trkpt>
      <trkpt lat="43.44603" lon="3.47696">
        <ele>91</ele>
        <time>2012-01-29T12:02:06Z</time>
      </trkpt>
      <trkpt lat="43.44607" lon="3.47695">
        <ele>90</ele>
        <time>2012-01-29T12:02:10Z</time>
      </trkpt>
      <trkpt lat="43.4461" lon="3.47694">
        <ele>90</ele>
        <time>2012-01-29T12:02:13Z</time>
      </trkpt>
      <trkpt lat="43.44615" lon="3.47693">
        <ele>90</ele>
        <time>2012-01-29T12:02:17Z</time>
      </trkpt>
      <trkpt lat="43.44619" lon="3.47692">
        <ele>91</ele>
        <time>2012-01-29T12:02:21Z</time>
      </trkpt>
      <trkpt lat="43.44622" lon="3.47691">
        <ele>92</ele>
        <time>2012-01-29T12:02:24Z</time>
      </trkpt>
      <trkpt lat="43.44625" lon="3.47691">
        <ele>92</ele>
        <time>2012-01-29T12:02:27Z</time>
      </trkpt>
      <trkpt lat="43.4463" lon="3.47691">
        <ele>92</ele>
        <time>2012-01-29T12:02:31Z</time>
      </trkpt>
      <trkpt lat="43.44634" lon="3.47691">
        <ele>92</ele>
        <time>2012-01-29T12:02:35Z</time>
      </trkpt>
      <trkpt lat="43.44638" lon="3.47692">
        <ele>92</ele>
        <time>2012-01-29T12:02:39Z</time>
      </trkpt>
      <trkpt lat="43.44642" lon="3.47692">
        <ele>92</ele>
        <time>2012-01-29T12:02:43Z</time>
      </trkpt>
      <trkpt lat="43.44646" lon="3.47694">
        <ele>92</ele>
        <time>2012-01-29T12:02:47Z</time>
      </trkpt>
      <trkpt lat="43.44649" lon="3.47697">
        <ele>92</ele>
        <time>2012-01-29T12:02:51Z</time>
      </trkpt>
      <trkpt lat="43.4465" lon="3.47698">
        <ele>92</ele>
        <time>2012-01-29T12:02:52Z</time>
      </trkpt>
      <trkpt lat="43.44651" lon="3.47707">
        <ele>92</ele>
        <time>2012-01-29T12:03:00Z</time>
      </trkpt>
      <trkpt lat="43.4465" lon="3.47712">
        <ele>92</ele>
        <time>2012-01-29T12:03:04Z</time>
      </trkpt>
      <trkpt lat="43.44649" lon="3.47718">
        <ele>92</ele>
        <time>2012-01-29T12:03:09Z</time>
      </trkpt>
      <trkpt lat="43.44648" lon="3.47724">
        <ele>94</ele>
        <time>2012-01-29T12:03:14Z</time>
      </trkpt>
      <trkpt lat="43.44647" lon="3.4773">
        <ele>93</ele>
        <time>2012-01-29T12:03:20Z</time>
      </trkpt>
      <trkpt lat="43.4465" lon="3.47735">
        <ele>93</ele>
        <time>2012-01-29T12:05:52Z</time>
      </trkpt>
      <trkpt lat="43.4465" lon="3.47735">
        <ele>93</ele>
        <time>2012-01-29T12:05:53Z</time>
      </trkpt>
      <trkpt lat="43.44652" lon="3.47729">
        <ele>93</ele>
        <time>2012-01-29T12:08:03Z</time>
      </trkpt>
      <trkpt lat="43.44656" lon="3.47726">
        <ele>94</ele>
        <time>2012-01-29T12:09:26Z</time>
      </trkpt>
      <trkpt lat="43.44656" lon="3.47716">
        <ele>94</ele>
        <time>2012-01-29T12:09:34Z</time>
      </trkpt>
      <trkpt lat="43.44657" lon="3.4771">
        <ele>93</ele>
        <time>2012-01-29T12:09:38Z</time>
      </trkpt>
      <trkpt lat="43.44659" lon="3.47705">
        <ele>93</ele>
        <time>2012-01-29T12:09:42Z</time>
      </trkpt>
      <trkpt lat="43.44661" lon="3.477">
        <ele>92</ele>
        <time>2012-01-29T12:09:46Z</time>
      </trkpt>
      <trkpt lat="43.44665" lon="3.47698">
        <ele>93</ele>
        <time>2012-01-29T12:09:51Z</time>
      </trkpt>
      <trkpt lat="43.44669" lon="3.477">
        <ele>93</ele>
        <time>2012-01-29T12:09:56Z</time>
      </trkpt>
      <trkpt lat="43.44672" lon="3.47702">
        <ele>93</ele>
        <time>2012-01-29T12:10:00Z</time>
      </trkpt>
      <trkpt lat="43.44676" lon="3.47704">
        <ele>93</ele>
        <time>2012-01-29T12:10:04Z</time>
      </trkpt>
      <trkpt lat="43.44679" lon="3.47706">
        <ele>93</ele>
        <time>2012-01-29T12:10:08Z</time>
      </trkpt>
      <trkpt lat="43.44683" lon="3.47708">
        <ele>93</ele>
        <time>2012-01-29T12:10:12Z</time>
      </trkpt>
      <trkpt lat="43.44687" lon="3.47709">
        <ele>93</ele>
        <time>2012-01-29T12:10:17Z</time>
      </trkpt>
      <trkpt lat="43.44691" lon="3.47711">
        <ele>94</ele>
        <time>2012-01-29T12:10:22Z</time>
      </trkpt>
      <trkpt lat="43.44695" lon="3.47713">
        <ele>95</ele>
        <time>2012-01-29T12:10:26Z</time>
      </trkpt>
      <trkpt lat="43.44696" lon="3.47714">
        <ele>95</ele>
        <time>2012-01-29T12:10:27Z</time>
      </trkpt>
      <trkpt lat="43.44702" lon="3.47717">
        <ele>94</ele>
        <time>2012-01-29T12:10:33Z</time>
      </trkpt>
      <trkpt lat="43.44706" lon="3.47717">
        <ele>95</ele>
        <time>2012-01-29T12:10:37Z</time>
      </trkpt>
      <trkpt lat="43.4471" lon="3.47716">
        <ele>96</ele>
        <time>2012-01-29T12:10:41Z</time>
      </trkpt>
      <trkpt lat="43.44714" lon="3.47714">
        <ele>96</ele>
        <time>2012-01-29T12:10:45Z</time>
      </trkpt>
      <trkpt lat="43.44718" lon="3.47711">
        <ele>95</ele>
        <time>2012-01-29T12:10:49Z</time>
      </trkpt>
      <trkpt lat="43.44721" lon="3.47708">
        <ele>96</ele>
        <time>2012-01-29T12:10:53Z</time>
      </trkpt>
      <trkpt lat="43.44724" lon="3.47705">
        <ele>96</ele>
        <time>2012-01-29T12:10:56Z</time>
      </trkpt>
      <trkpt lat="43.44727" lon="3.47703">
        <ele>96</ele>
        <time>2012-01-29T12:10:59Z</time>
      </trkpt>
      <trkpt lat="43.4473" lon="3.477">
        <ele>96</ele>
        <time>2012-01-29T12:11:02Z</time>
      </trkpt>
      <trkpt lat="43.44733" lon="3.47697">
        <ele>97</ele>
        <time>2012-01-29T12:11:05Z</time>
      </trkpt>
      <trkpt lat="43.44736" lon="3.47695">
        <ele>97</ele>
        <time>2012-01-29T12:11:08Z</time>
      </trkpt>
      <trkpt lat="43.4474" lon="3.47692">
        <ele>97</ele>
        <time>2012-01-29T12:11:12Z</time>
      </trkpt>
      <trkpt lat="43.44743" lon="3.4769">
        <ele>98</ele>
        <time>2012-01-29T12:11:15Z</time>
      </trkpt>
      <trkpt lat="43.44746" lon="3.47688">
        <ele>97</ele>
        <time>2012-01-29T12:11:18Z</time>
      </trkpt>
      <trkpt lat="43.44749" lon="3.47686">
        <ele>97</ele>
        <time>2012-01-29T12:11:21Z</time>
      </trkpt>
      <trkpt lat="43.44752" lon="3.47683">
        <ele>97</ele>
        <time>2012-01-29T12:11:24Z</time>
      </trkpt>
      <trkpt lat="43.44755" lon="3.47681">
        <ele>98</ele>
        <time>2012-01-29T12:11:27Z</time>
      </trkpt>
      <trkpt lat="43.44756" lon="3.4768">
        <ele>98</ele>
        <time>2012-01-29T12:11:28Z</time>
      </trkpt>
      <trkpt lat="43.44761" lon="3.47676">
        <ele>98</ele>
        <time>2012-01-29T12:11:33Z</time>
      </trkpt>
      <trkpt lat="43.44765" lon="3.47673">
        <ele>98</ele>
        <time>2012-01-29T12:11:37Z</time>
      </trkpt>
      <trkpt lat="43.44768" lon="3.4767">
        <ele>98</ele>
        <time>2012-01-29T12:11:40Z</time>
      </trkpt>
      <trkpt lat="43.44771" lon="3.47667">
        <ele>98</ele>
        <time>2012-01-29T12:11:43Z</time>
      </trkpt>
      <trkpt lat="43.44774" lon="3.47665">
        <ele>98</ele>
        <time>2012-01-29T12:11:46Z</time>
      </trkpt>
      <trkpt lat="43.44777" lon="3.47662">
        <ele>98</ele>
        <time>2012-01-29T12:11:49Z</time>
      </trkpt>
      <trkpt lat="43.44781" lon="3.47661">
        <ele>98</ele>
        <time>2012-01-29T12:11:52Z</time>
      </trkpt>
      <trkpt lat="43.44785" lon="3.47658">
        <ele>98</ele>
        <time>2012-01-29T12:11:56Z</time>
      </trkpt>
      <trkpt lat="43.44789" lon="3.47656">
        <ele>98</ele>
        <time>2012-01-29T12:12:00Z</time>
      </trkpt>
      <trkpt lat="43.44793" lon="3.47654">
        <ele>99</ele>
        <time>2012-01-29T12:12:04Z</time>
      </trkpt>
      <trkpt lat="43.44797" lon="3.47652">
        <ele>98</ele>
        <time>2012-01-29T12:12:08Z</time>
      </trkpt>
      <trkpt lat="43.44801" lon="3.47651">
        <ele>99</ele>
        <time>2012-01-29T12:12:12Z</time>
      </trkpt>
      <trkpt lat="43.44805" lon="3.47649">
        <ele>100</ele>
        <time>2012-01-29T12:12:16Z</time>
      </trkpt>
      <trkpt lat="43.4481" lon="3.47648">
        <ele>100</ele>
        <time>2012-01-29T12:12:20Z</time>
      </trkpt>
      <trkpt lat="43.44813" lon="3.47647">
        <ele>100</ele>
        <time>2012-01-29T12:12:23Z</time>
      </trkpt>
      <trkpt lat="43.44817" lon="3.47647">
        <ele>101</ele>
        <time>2012-01-29T12:12:26Z</time>
      </trkpt>
      <trkpt lat="43.4482" lon="3.47648">
        <ele>101</ele>
        <time>2012-01-29T12:12:29Z</time>
      </trkpt>
      <trkpt lat="43.44821" lon="3.47648">
        <ele>100</ele>
        <time>2012-01-29T12:12:30Z</time>
      </trkpt>
      <trkpt lat="43.44829" lon="3.4765">
        <ele>102</ele>
        <time>2012-01-29T12:12:37Z</time>
      </trkpt>
      <trkpt lat="43.44832" lon="3.47648">
        <ele>102</ele>
        <time>2012-01-29T12:12:41Z</time>
      </trkpt>
      <trkpt lat="43.44835" lon="3.47645">
        <ele>102</ele>
        <time>2012-01-29T12:12:45Z</time>
      </trkpt>
      <trkpt lat="43.44838" lon="3.47641">
        <ele>103</ele>
        <time>2012-01-29T12:12:51Z</time>
      </trkpt>
      <trkpt lat="43.44841" lon="3.47637">
        <ele>104</ele>
        <time>2012-01-29T12:13:16Z</time>
      </trkpt>
      <trkpt lat="43.44843" lon="3.47632">
        <ele>104</ele>
        <time>2012-01-29T12:13:21Z</time>
      </trkpt>
      <trkpt lat="43.44844" lon="3.47626">
        <ele>105</ele>
        <time>2012-01-29T12:13:27Z</time>
      </trkpt>
      <trkpt lat="43.44845" lon="3.4762">
        <ele>105</ele>
        <time>2012-01-29T12:13:33Z</time>
      </trkpt>
      <trkpt lat="43.44846" lon="3.47619">
        <ele>105</ele>
        <time>2012-01-29T12:13:34Z</time>
      </trkpt>
      <trkpt lat="43.44849" lon="3.4761">
        <ele>107</ele>
        <time>2012-01-29T12:13:43Z</time>
      </trkpt>
      <trkpt lat="43.4485" lon="3.47606">
        <ele>108</ele>
        <time>2012-01-29T12:13:48Z</time>
      </trkpt>
      <trkpt lat="43.44853" lon="3.47601">
        <ele>108</ele>
        <time>2012-01-29T12:13:53Z</time>
      </trkpt>
      <trkpt lat="43.44854" lon="3.47596">
        <ele>109</ele>
        <time>2012-01-29T12:13:58Z</time>
      </trkpt>
      <trkpt lat="43.44854" lon="3.47591">
        <ele>109</ele>
        <time>2012-01-29T12:14:02Z</time>
      </trkpt>
      <trkpt lat="43.44854" lon="3.47585">
        <ele>109</ele>
        <time>2012-01-29T12:14:06Z</time>
      </trkpt>
      <trkpt lat="43.44854" lon="3.4758">
        <ele>110</ele>
        <time>2012-01-29T12:14:10Z</time>
      </trkpt>
      <trkpt lat="43.44854" lon="3.47575">
        <ele>110</ele>
        <time>2012-01-29T12:14:14Z</time>
      </trkpt>
      <trkpt lat="43.44855" lon="3.4757">
        <ele>110</ele>
        <time>2012-01-29T12:14:18Z</time>
      </trkpt>
      <trkpt lat="43.44855" lon="3.47564">
        <ele>111</ele>
        <time>2012-01-29T12:14:23Z</time>
      </trkpt>
      <trkpt lat="43.44855" lon="3.47559">
        <ele>112</ele>
        <time>2012-01-29T12:14:27Z</time>
      </trkpt>
      <trkpt lat="43.44853" lon="3.47553">
        <ele>113</ele>
        <time>2012-01-29T12:14:32Z</time>
      </trkpt>
      <trkpt lat="43.44852" lon="3.47548">
        <ele>112</ele>
        <time>2012-01-29T12:14:36Z</time>
      </trkpt>
      <trkpt lat="43.44852" lon="3.47547">
        <ele>112</ele>
        <time>2012-01-29T12:14:37Z</time>
      </trkpt>
      <trkpt lat="43.44852" lon="3.47536">
        <ele>113</ele>
        <time>2012-01-29T12:14:44Z</time>
      </trkpt>
      <trkpt lat="43.44852" lon="3.4753">
        <ele>112</ele>
        <time>2012-01-29T12:14:49Z</time>
      </trkpt>
      <trkpt lat="43.44851" lon="3.47524">
        <ele>113</ele>
        <time>2012-01-29T12:14:55Z</time>
      </trkpt>
      <trkpt lat="43.44849" lon="3.47519">
        <ele>113</ele>
        <time>2012-01-29T12:15:08Z</time>
      </trkpt>
      <trkpt lat="43.44845" lon="3.47519">
        <ele>113</ele>
        <time>2012-01-29T12:16:00Z</time>
      </trkpt>
      <trkpt lat="43.44845" lon="3.47519">
        <ele>113</ele>
        <time>2012-01-29T12:16:01Z</time>
      </trkpt>
      <trkpt lat="43.44845" lon="3.47507">
        <ele>112</ele>
        <time>2012-01-29T12:16:48Z</time>
      </trkpt>
      <trkpt lat="43.44844" lon="3.47502">
        <ele>112</ele>
        <time>2012-01-29T12:16:53Z</time>
      </trkpt>
      <trkpt lat="43.44842" lon="3.47497">
        <ele>112</ele>
        <time>2012-01-29T12:16:59Z</time>
      </trkpt>
      <trkpt lat="43.4484" lon="3.47491">
        <ele>111</ele>
        <time>2012-01-29T12:17:04Z</time>
      </trkpt>
      <trkpt lat="43.4484" lon="3.4749">
        <ele>111</ele>
        <time>2012-01-29T12:17:05Z</time>
      </trkpt>
      <trkpt lat="43.44839" lon="3.4748">
        <ele>110</ele>
        <time>2012-01-29T12:17:13Z</time>
      </trkpt>
      <trkpt lat="43.44838" lon="3.47474">
        <ele>111</ele>
        <time>2012-01-29T12:17:17Z</time>
      </trkpt>
      <trkpt lat="43.44837" lon="3.47469">
        <ele>111</ele>
        <time>2012-01-29T12:17:21Z</time>
      </trkpt>
      <trkpt lat="43.44836" lon="3.47464">
        <ele>111</ele>
        <time>2012-01-29T12:17:25Z</time>
      </trkpt>
      <trkpt lat="43.44834" lon="3.47459">
        <ele>110</ele>
        <time>2012-01-29T12:17:30Z</time>
      </trkpt>
      <trkpt lat="43.44831" lon="3.47454">
        <ele>111</ele>
        <time>2012-01-29T12:17:36Z</time>
      </trkpt>
      <trkpt lat="43.44828" lon="3.47452">
        <ele>111</ele>
        <time>2012-01-29T12:17:52Z</time>
      </trkpt>
      <trkpt lat="43.44823" lon="3.47452">
        <ele>111</ele>
        <time>2012-01-29T12:18:02Z</time>
      </trkpt>
      <trkpt lat="43.44828" lon="3.47451">
        <ele>112</ele>
        <time>2012-01-29T12:20:02Z</time>
      </trkpt>
      <trkpt lat="43.44828" lon="3.47451">
        <ele>112</ele>
        <time>2012-01-29T12:20:03Z</time>
      </trkpt>
      <trkpt lat="43.4483" lon="3.47456">
        <ele>111</ele>
        <time>2012-01-29T12:22:32Z</time>
      </trkpt>
      <trkpt lat="43.44828" lon="3.47444">
        <ele>112</ele>
        <time>2012-01-29T12:23:48Z</time>
      </trkpt>
      <trkpt lat="43.44827" lon="3.47444">
        <ele>112</ele>
        <time>2012-01-29T12:23:49Z</time>
      </trkpt>
      <trkpt lat="43.4483" lon="3.47449">
        <ele>113</ele>
        <time>2012-01-29T12:25:44Z</time>
      </trkpt>
      <trkpt lat="43.44836" lon="3.47456">
        <ele>112</ele>
        <time>2012-01-29T12:25:52Z</time>
      </trkpt>
      <trkpt lat="43.44839" lon="3.4746">
        <ele>113</ele>
        <time>2012-01-29T12:25:56Z</time>
      </trkpt>
      <trkpt lat="43.44842" lon="3.47462">
        <ele>113</ele>
        <time>2012-01-29T12:25:59Z</time>
      </trkpt>
      <trkpt lat="43.44845" lon="3.47465">
        <ele>114</ele>
        <time>2012-01-29T12:26:02Z</time>
      </trkpt>
      <trkpt lat="43.44848" lon="3.47468">
        <ele>113</ele>
        <time>2012-01-29T12:26:05Z</time>
      </trkpt>
      <trkpt lat="43.44851" lon="3.47472">
        <ele>114</ele>
        <time>2012-01-29T12:26:09Z</time>
      </trkpt>
      <trkpt lat="43.44853" lon="3.47476">
        <ele>114</ele>
        <time>2012-01-29T12:26:12Z</time>
      </trkpt>
      <trkpt lat="43.44856" lon="3.4748">
        <ele>114</ele>
        <time>2012-01-29T12:26:16Z</time>
      </trkpt>
      <trkpt lat="43.44859" lon="3.47484">
        <ele>114</ele>
        <time>2012-01-29T12:26:20Z</time>
      </trkpt>
      <trkpt lat="43.44862" lon="3.47489">
        <ele>115</ele>
        <time>2012-01-29T12:26:24Z</time>
      </trkpt>
      <trkpt lat="43.44864" lon="3.47494">
        <ele>115</ele>
        <time>2012-01-29T12:26:28Z</time>
      </trkpt>
      <trkpt lat="43.44867" lon="3.47497">
        <ele>115</ele>
        <time>2012-01-29T12:26:32Z</time>
      </trkpt>
      <trkpt lat="43.4487" lon="3.47502">
        <ele>114</ele>
        <time>2012-01-29T12:26:36Z</time>
      </trkpt>
      <trkpt lat="43.44873" lon="3.47505">
        <ele>116</ele>
        <time>2012-01-29T12:26:40Z</time>
      </trkpt>
      <trkpt lat="43.44875" lon="3.47509">
        <ele>116</ele>
        <time>2012-01-29T12:26:44Z</time>
      </trkpt>
      <trkpt lat="43.44876" lon="3.4751">
        <ele>116</ele>
        <time>2012-01-29T12:26:45Z</time>
      </trkpt>
      <trkpt lat="43.44881" lon="3.47516">
        <ele>117</ele>
        <time>2012-01-29T12:26:51Z</time>
      </trkpt>
      <trkpt lat="43.44883" lon="3.4752">
        <ele>117</ele>
        <time>2012-01-29T12:26:54Z</time>
      </trkpt>
      <trkpt lat="43.44885" lon="3.47524">
        <ele>117</ele>
        <time>2012-01-29T12:26:57Z</time>
      </trkpt>
      <trkpt lat="43.44886" lon="3.47528">
        <ele>117</ele>
        <time>2012-01-29T12:27:00Z</time>
      </trkpt>
      <trkpt lat="43.44888" lon="3.47533">
        <ele>117</ele>
        <time>2012-01-29T12:27:03Z</time>
      </trkpt>
      <trkpt lat="43.44891" lon="3.47536">
        <ele>118</ele>
        <time>2012-01-29T12:27:06Z</time>
      </trkpt>
      <trkpt lat="43.44893" lon="3.47541">
        <ele>118</ele>
        <time>2012-01-29T12:27:09Z</time>
      </trkpt>
      <trkpt lat="43.44895" lon="3.47545">
        <ele>117</ele>
        <time>2012-01-29T12:27:12Z</time>
      </trkpt>
      <trkpt lat="43.44897" lon="3.47549">
        <ele>117</ele>
        <time>2012-01-29T12:27:15Z</time>
      </trkpt>
      <trkpt lat="43.44899" lon="3.47553">
        <ele>117</ele>
        <time>2012-01-29T12:27:18Z</time>
      </trkpt>
      <trkpt lat="43.44902" lon="3.47557">
        <ele>116</ele>
        <time>2012-01-29T12:27:21Z</time>
      </trkpt>
      <trkpt lat="43.44904" lon="3.47561">
        <ele>117</ele>
        <time>2012-01-29T12:27:24Z</time>
      </trkpt>
      <trkpt lat="43.44907" lon="3.47564">
        <ele>116</ele>
        <time>2012-01-29T12:27:27Z</time>
      </trkpt>
      <trkpt lat="43.4491" lon="3.47567">
        <ele>117</ele>
        <time>2012-01-29T12:27:30Z</time>
      </trkpt>
      <trkpt lat="43.44913" lon="3.4757">
        <ele>117</ele>
        <time>2012-01-29T12:27:33Z</time>
      </trkpt>
      <trkpt lat="43.44916" lon="3.47573">
        <ele>116</ele>
        <time>2012-01-29T12:27:36Z</time>
      </trkpt>
      <trkpt lat="43.44919" lon="3.47577">
        <ele>116</ele>
        <time>2012-01-29T12:27:39Z</time>
      </trkpt>
      <trkpt lat="43.44922" lon="3.4758">
        <ele>116</ele>
        <time>2012-01-29T12:27:42Z</time>
      </trkpt>
      <trkpt lat="43.44925" lon="3.47582">
        <ele>116</ele>
        <time>2012-01-29T12:27:45Z</time>
      </trkpt>
      <trkpt lat="43.44926" lon="3.47583">
        <ele>116</ele>
        <time>2012-01-29T12:27:46Z</time>
      </trkpt>
      <trkpt lat="43.44931" lon="3.47588">
        <ele>116</ele>
        <time>2012-01-29T12:27:51Z</time>
      </trkpt>
      <trkpt lat="43.44934" lon="3.47591">
        <ele>116</ele>
        <time>2012-01-29T12:27:54Z</time>
      </trkpt>
      <trkpt lat="43.44937" lon="3.47594">
        <ele>116</ele>
        <time>2012-01-29T12:27:57Z</time>
      </trkpt>
      <trkpt lat="43.4494" lon="3.47597">
        <ele>116</ele>
        <time>2012-01-29T12:28:00Z</time>
      </trkpt>
      <trkpt lat="43.44943" lon="3.476">
        <ele>116</ele>
        <time>2012-01-29T12:28:03Z</time>
      </trkpt>
      <trkpt lat="43.44947" lon="3.47602">
        <ele>117</ele>
        <time>2012-01-29T12:28:06Z</time>
      </trkpt>
      <trkpt lat="43.4495" lon="3.47605">
        <ele>117</ele>
        <time>2012-01-29T12:28:09Z</time>
      </trkpt>
      <trkpt lat="43.44954" lon="3.47607">
        <ele>117</ele>
        <time>2012-01-29T12:28:12Z</time>
      </trkpt>
      <trkpt lat="43.44957" lon="3.47609">
        <ele>117</ele>
        <time>2012-01-29T12:28:15Z</time>
      </trkpt>
      <trkpt lat="43.44961" lon="3.47612">
        <ele>117</ele>
        <time>2012-01-29T12:28:18Z</time>
      </trkpt>
      <trkpt lat="43.44964" lon="3.47614">
        <ele>117</ele>
        <time>2012-01-29T12:28:21Z</time>
      </trkpt>
      <trkpt lat="43.44967" lon="3.47617">
        <ele>118</ele>
        <time>2012-01-29T12:28:24Z</time>
      </trkpt>
      <trkpt lat="43.4497" lon="3.4762">
        <ele>118</ele>
        <time>2012-01-29T12:28:27Z</time>
      </trkpt>
      <trkpt lat="43.44974" lon="3.47623">
        <ele>117</ele>
        <time>2012-01-29T12:28:30Z</time>
      </trkpt>
      <trkpt lat="43.44977" lon="3.47626">
        <ele>118</ele>
        <time>2012-01-29T12:28:33Z</time>
      </trkpt>
      <trkpt lat="43.4498" lon="3.47628">
        <ele>118</ele>
        <time>2012-01-29T12:28:36Z</time>
      </trkpt>
      <trkpt lat="43.44984" lon="3.47631">
        <ele>118</ele>
        <time>2012-01-29T12:28:39Z</time>
      </trkpt>
      <trkpt lat="43.44987" lon="3.47633">
        <ele>118</ele>
        <time>2012-01-29T12:28:42Z</time>
      </trkpt>
      <trkpt lat="43.44991" lon="3.47635">
        <ele>118</ele>
        <time>2012-01-29T12:28:45Z</time>
      </trkpt>
      <trkpt lat="43.44994" lon="3.47638">
        <ele>118</ele>
        <time>2012-01-29T12:28:48Z</time>
      </trkpt>
      <trkpt lat="43.44995" lon="3.47639">
        <ele>118</ele>
        <time>2012-01-29T12:28:49Z</time>
      </trkpt>
      <trkpt lat="43.44998" lon="3.47647">
        <ele>118</ele>
        <time>2012-01-29T12:28:54Z</time>
      </trkpt>
      <trkpt lat="43.44999" lon="3.47652">
        <ele>118</ele>
        <time>2012-01-29T12:28:57Z</time>
      </trkpt>
      <trkpt lat="43.45" lon="3.47657">
        <ele>118</ele>
        <time>2012-01-29T12:29:00Z</time>
      </trkpt>
      <trkpt lat="43.45" lon="3.47662">
        <ele>117</ele>
        <time>2012-01-29T12:29:03Z</time>
      </trkpt>
      <trkpt lat="43.45" lon="3.47667">
        <ele>117</ele>
        <time>2012-01-29T12:29:06Z</time>
      </trkpt>
      <trkpt lat="43.45" lon="3.47673">
        <ele>117</ele>
        <time>2012-01-29T12:29:10Z</time>
      </trkpt>
      <trkpt lat="43.45" lon="3.47677">
        <ele>117</ele>
        <time>2012-01-29T12:29:13Z</time>
      </trkpt>
      <trkpt lat="43.45002" lon="3.47682">
        <ele>117</ele>
        <time>2012-01-29T12:29:16Z</time>
      </trkpt>
      <trkpt lat="43.45004" lon="3.47686">
        <ele>118</ele>
        <time>2012-01-29T12:29:19Z</time>
      </trkpt>
      <trkpt lat="43.45005" lon="3.47691">
        <ele>117</ele>
        <time>2012-01-29T12:29:22Z</time>
      </trkpt>
      <trkpt lat="43.45007" lon="3.47696">
        <ele>117</ele>
        <time>2012-01-29T12:29:26Z</time>
      </trkpt>
      <trkpt lat="43.45009" lon="3.477">
        <ele>117</ele>
        <time>2012-01-29T12:29:29Z</time>
      </trkpt>
      <trkpt lat="43.45011" lon="3.47704">
        <ele>117</ele>
        <time>2012-01-29T12:29:32Z</time>
      </trkpt>
      <trkpt lat="43.45013" lon="3.47707">
        <ele>117</ele>
        <time>2012-01-29T12:29:35Z</time>
      </trkpt>
      <trkpt lat="43.45015" lon="3.47711">
        <ele>117</ele>
        <time>2012-01-29T12:29:38Z</time>
      </trkpt>
      <trkpt lat="43.45018" lon="3.47716">
        <ele>118</ele>
        <time>2012-01-29T12:29:42Z</time>
      </trkpt>
      <trkpt lat="43.4502" lon="3.4772">
        <ele>118</ele>
        <time>2012-01-29T12:29:46Z</time>
      </trkpt>
      <trkpt lat="43.45018" lon="3.47725">
        <ele>118</ele>
        <time>2012-01-29T12:29:50Z</time>
      </trkpt>
      <trkpt lat="43.45018" lon="3.47727">
        <ele>118</ele>
        <time>2012-01-29T12:29:51Z</time>
      </trkpt>
      <trkpt lat="43.45015" lon="3.47736">
        <ele>119</ele>
        <time>2012-01-29T12:29:59Z</time>
      </trkpt>
      <trkpt lat="43.45014" lon="3.47741">
        <ele>118</ele>
        <time>2012-01-29T12:30:02Z</time>
      </trkpt>
      <trkpt lat="43.45013" lon="3.47746">
        <ele>118</ele>
        <time>2012-01-29T12:30:05Z</time>
      </trkpt>
      <trkpt lat="43.45012" lon="3.47751">
        <ele>118</ele>
        <time>2012-01-29T12:30:08Z</time>
      </trkpt>
      <trkpt lat="43.45012" lon="3.47757">
        <ele>118</ele>
        <time>2012-01-29T12:30:12Z</time>
      </trkpt>
      <trkpt lat="43.45013" lon="3.47762">
        <ele>119</ele>
        <time>2012-01-29T12:30:15Z</time>
      </trkpt>
      <trkpt lat="43.45015" lon="3.47766">
        <ele>118</ele>
        <time>2012-01-29T12:30:18Z</time>
      </trkpt>
      <trkpt lat="43.45016" lon="3.47771">
        <ele>118</ele>
        <time>2012-01-29T12:30:21Z</time>
      </trkpt>
      <trkpt lat="43.45018" lon="3.47776">
        <ele>118</ele>
        <time>2012-01-29T12:30:24Z</time>
      </trkpt>
      <trkpt lat="43.45019" lon="3.47782">
        <ele>119</ele>
        <time>2012-01-29T12:30:27Z</time>
      </trkpt>
      <trkpt lat="43.4502" lon="3.47787">
        <ele>119</ele>
        <time>2012-01-29T12:30:30Z</time>
      </trkpt>
      <trkpt lat="43.45019" lon="3.47792">
        <ele>118</ele>
        <time>2012-01-29T12:30:33Z</time>
      </trkpt>
      <trkpt lat="43.45018" lon="3.47795">
        <ele>119</ele>
        <time>2012-01-29T12:30:35Z</time>
      </trkpt>
      <trkpt lat="43.45017" lon="3.47799">
        <ele>119</ele>
        <time>2012-01-29T12:30:37Z</time>
      </trkpt>
      <trkpt lat="43.45015" lon="3.47804">
        <ele>119</ele>
        <time>2012-01-29T12:30:40Z</time>
      </trkpt>
      <trkpt lat="43.45013" lon="3.4781">
        <ele>119</ele>
        <time>2012-01-29T12:30:43Z</time>
      </trkpt>
      <trkpt lat="43.45011" lon="3.47815">
        <ele>118</ele>
        <time>2012-01-29T12:30:46Z</time>
      </trkpt>
      <trkpt lat="43.45009" lon="3.4782">
        <ele>118</ele>
        <time>2012-01-29T12:30:49Z</time>
      </trkpt>
      <trkpt lat="43.45008" lon="3.47825">
        <ele>118</ele>
        <time>2012-01-29T12:30:52Z</time>
      </trkpt>
      <trkpt lat="43.45007" lon="3.47827">
        <ele>118</ele>
        <time>2012-01-29T12:30:53Z</time>
      </trkpt>
      <trkpt lat="43.45004" lon="3.47835">
        <ele>118</ele>
        <time>2012-01-29T12:30:58Z</time>
      </trkpt>
      <trkpt lat="43.45002" lon="3.4784">
        <ele>118</ele>
        <time>2012-01-29T12:31:01Z</time>
      </trkpt>
      <trkpt lat="43.45" lon="3.47844">
        <ele>118</ele>
        <time>2012-01-29T12:31:04Z</time>
      </trkpt>
      <trkpt lat="43.44998" lon="3.47848">
        <ele>118</ele>
        <time>2012-01-29T12:31:08Z</time>
      </trkpt>
      <trkpt lat="43.44999" lon="3.47854">
        <ele>118</ele>
        <time>2012-01-29T12:31:12Z</time>
      </trkpt>
      <trkpt lat="43.45003" lon="3.47856">
        <ele>118</ele>
        <time>2012-01-29T12:31:17Z</time>
      </trkpt>
      <trkpt lat="43.45006" lon="3.4786">
        <ele>118</ele>
        <time>2012-01-29T12:31:21Z</time>
      </trkpt>
      <trkpt lat="43.45009" lon="3.47862">
        <ele>118</ele>
        <time>2012-01-29T12:31:25Z</time>
      </trkpt>
      <trkpt lat="43.45012" lon="3.47866">
        <ele>118</ele>
        <time>2012-01-29T12:31:33Z</time>
      </trkpt>
      <trkpt lat="43.45014" lon="3.47871">
        <ele>118</ele>
        <time>2012-01-29T12:31:41Z</time>
      </trkpt>
      <trkpt lat="43.45018" lon="3.47875">
        <ele>118</ele>
        <time>2012-01-29T12:31:46Z</time>
      </trkpt>
      <trkpt lat="43.45021" lon="3.47877">
        <ele>118</ele>
        <time>2012-01-29T12:31:50Z</time>
      </trkpt>
      <trkpt lat="43.45026" lon="3.4788">
        <ele>119</ele>
        <time>2012-01-29T12:31:57Z</time>
      </trkpt>
      <trkpt lat="43.45026" lon="3.4788">
        <ele>119</ele>
        <time>2012-01-29T12:31:58Z</time>
      </trkpt>
      <trkpt lat="43.45032" lon="3.47879">
        <ele>119</ele>
        <time>2012-01-29T12:32:24Z</time>
      </trkpt>
      <trkpt lat="43.45036" lon="3.47881">
        <ele>120</ele>
        <time>2012-01-29T12:32:28Z</time>
      </trkpt>
      <trkpt lat="43.45039" lon="3.47884">
        <ele>119</ele>
        <time>2012-01-29T12:32:32Z</time>
      </trkpt>
      <trkpt lat="43.45043" lon="3.47887">
        <ele>118</ele>
        <time>2012-01-29T12:32:36Z</time>
      </trkpt>
      <trkpt lat="43.45047" lon="3.47889">
        <ele>118</ele>
        <time>2012-01-29T12:32:40Z</time>
      </trkpt>
      <trkpt lat="43.4505" lon="3.47891">
        <ele>119</ele>
        <time>2012-01-29T12:32:43Z</time>
      </trkpt>
      <trkpt lat="43.45053" lon="3.47893">
        <ele>120</ele>
        <time>2012-01-29T12:32:46Z</time>
      </trkpt>
      <trkpt lat="43.45057" lon="3.47896">
        <ele>120</ele>
        <time>2012-01-29T12:32:50Z</time>
      </trkpt>
      <trkpt lat="43.4506" lon="3.47898">
        <ele>120</ele>
        <time>2012-01-29T12:32:53Z</time>
      </trkpt>
      <trkpt lat="43.45063" lon="3.47901">
        <ele>121</ele>
        <time>2012-01-29T12:32:56Z</time>
      </trkpt>
      <trkpt lat="43.45066" lon="3.47904">
        <ele>120</ele>
        <time>2012-01-29T12:32:59Z</time>
      </trkpt>
      <trkpt lat="43.45067" lon="3.47904">
        <ele>120</ele>
        <time>2012-01-29T12:33:00Z</time>
      </trkpt>
      <trkpt lat="43.45074" lon="3.47908">
        <ele>119</ele>
        <time>2012-01-29T12:33:05Z</time>
      </trkpt>
      <trkpt lat="43.45078" lon="3.4791">
        <ele>120</ele>
        <time>2012-01-29T12:33:08Z</time>
      </trkpt>
      <trkpt lat="43.45081" lon="3.47911">
        <ele>120</ele>
        <time>2012-01-29T12:33:11Z</time>
      </trkpt>
      <trkpt lat="43.45085" lon="3.47912">
        <ele>121</ele>
        <time>2012-01-29T12:33:14Z</time>
      </trkpt>
      <trkpt lat="43.45089" lon="3.47913">
        <ele>121</ele>
        <time>2012-01-29T12:33:17Z</time>
      </trkpt>
      <trkpt lat="43.45093" lon="3.47914">
        <ele>121</ele>
        <time>2012-01-29T12:33:20Z</time>
      </trkpt>
      <trkpt lat="43.45097" lon="3.47914">
        <ele>121</ele>
        <time>2012-01-29T12:33:23Z</time>
      </trkpt>
      <trkpt lat="43.45101" lon="3.47915">
        <ele>120</ele>
        <time>2012-01-29T12:33:26Z</time>
      </trkpt>
      <trkpt lat="43.45105" lon="3.47915">
        <ele>120</ele>
        <time>2012-01-29T12:33:29Z</time>
      </trkpt>
      <trkpt lat="43.45108" lon="3.47917">
        <ele>120</ele>
        <time>2012-01-29T12:33:32Z</time>
      </trkpt>
      <trkpt lat="43.45112" lon="3.47918">
        <ele>121</ele>
        <time>2012-01-29T12:33:35Z</time>
      </trkpt>
      <trkpt lat="43.45115" lon="3.4792">
        <ele>120</ele>
        <time>2012-01-29T12:33:38Z</time>
      </trkpt>
      <trkpt lat="43.45119" lon="3.47922">
        <ele>120</ele>
        <time>2012-01-29T12:33:41Z</time>
      </trkpt>
      <trkpt lat="43.45122" lon="3.47924">
        <ele>120</ele>
        <time>2012-01-29T12:33:44Z</time>
      </trkpt>
      <trkpt lat="43.45125" lon="3.47927">
        <ele>120</ele>
        <time>2012-01-29T12:33:47Z</time>
      </trkpt>
      <trkpt lat="43.45129" lon="3.4793">
        <ele>120</ele>
        <time>2012-01-29T12:33:50Z</time>
      </trkpt>
      <trkpt lat="43.45132" lon="3.47933">
        <ele>119</ele>
        <time>2012-01-29T12:33:53Z</time>
      </trkpt>
      <trkpt lat="43.45134" lon="3.47937">
        <ele>119</ele>
        <time>2012-01-29T12:33:56Z</time>
      </trkpt>
      <trkpt lat="43.45137" lon="3.47942">
        <ele>119</ele>
        <time>2012-01-29T12:34:05Z</time>
      </trkpt>
      <trkpt lat="43.45137" lon="3.47942">
        <ele>119</ele>
        <time>2012-01-29T12:34:06Z</time>
      </trkpt>
      <trkpt lat="43.4514" lon="3.47952">
        <ele>119</ele>
        <time>2012-01-29T12:34:14Z</time>
      </trkpt>
      <trkpt lat="43.45142" lon="3.47956">
        <ele>119</ele>
        <time>2012-01-29T12:34:17Z</time>
      </trkpt>
      <trkpt lat="43.45143" lon="3.47962">
        <ele>119</ele>
        <time>2012-01-29T12:34:21Z</time>
      </trkpt>
      <trkpt lat="43.45145" lon="3.47967">
        <ele>119</ele>
        <time>2012-01-29T12:34:25Z</time>
      </trkpt>
      <trkpt lat="43.45146" lon="3.47971">
        <ele>119</ele>
        <time>2012-01-29T12:34:28Z</time>
      </trkpt>
      <trkpt lat="43.45148" lon="3.47976">
        <ele>119</ele>
        <time>2012-01-29T12:34:31Z</time>
      </trkpt>
      <trkpt lat="43.45149" lon="3.47981">
        <ele>118</ele>
        <time>2012-01-29T12:34:34Z</time>
      </trkpt>
      <trkpt lat="43.45151" lon="3.47986">
        <ele>118</ele>
        <time>2012-01-29T12:34:38Z</time>
      </trkpt>
      <trkpt lat="43.45154" lon="3.47991">
        <ele>118</ele>
        <time>2012-01-29T12:34:42Z</time>
      </trkpt>
      <trkpt lat="43.45156" lon="3.47997">
        <ele>118</ele>
        <time>2012-01-29T12:34:46Z</time>
      </trkpt>
      <trkpt lat="43.45158" lon="3.48001">
        <ele>118</ele>
        <time>2012-01-29T12:34:49Z</time>
      </trkpt>
      <trkpt lat="43.4516" lon="3.48005">
        <ele>118</ele>
        <time>2012-01-29T12:34:53Z</time>
      </trkpt>
      <trkpt lat="43.45162" lon="3.48009">
        <ele>117</ele>
        <time>2012-01-29T12:34:56Z</time>
      </trkpt>
      <trkpt lat="43.45164" lon="3.48013">
        <ele>117</ele>
        <time>2012-01-29T12:34:59Z</time>
      </trkpt>
      <trkpt lat="43.45166" lon="3.48017">
        <ele>117</ele>
        <time>2012-01-29T12:35:02Z</time>
      </trkpt>
      <trkpt lat="43.45169" lon="3.48022">
        <ele>117</ele>
        <time>2012-01-29T12:35:06Z</time>
      </trkpt>
      <trkpt lat="43.45169" lon="3.48023">
        <ele>117</ele>
        <time>2012-01-29T12:35:07Z</time>
      </trkpt>
      <trkpt lat="43.45173" lon="3.48031">
        <ele>116</ele>
        <time>2012-01-29T12:35:13Z</time>
      </trkpt>
      <trkpt lat="43.45176" lon="3.48034">
        <ele>116</ele>
        <time>2012-01-29T12:35:16Z</time>
      </trkpt>
      <trkpt lat="43.45177" lon="3.48038">
        <ele>116</ele>
        <time>2012-01-29T12:35:19Z</time>
      </trkpt>
      <trkpt lat="43.4518" lon="3.48042">
        <ele>116</ele>
        <time>2012-01-29T12:35:22Z</time>
      </trkpt>
      <trkpt lat="43.45183" lon="3.48046">
        <ele>116</ele>
        <time>2012-01-29T12:35:26Z</time>
      </trkpt>
      <trkpt lat="43.45186" lon="3.48051">
        <ele>116</ele>
        <time>2012-01-29T12:35:30Z</time>
      </trkpt>
      <trkpt lat="43.45188" lon="3.48054">
        <ele>115</ele>
        <time>2012-01-29T12:35:33Z</time>
      </trkpt>
      <trkpt lat="43.45191" lon="3.48058">
        <ele>116</ele>
        <time>2012-01-29T12:35:37Z</time>
      </trkpt>
      <trkpt lat="43.45194" lon="3.48062">
        <ele>116</ele>
        <time>2012-01-29T12:35:40Z</time>
      </trkpt>
      <trkpt lat="43.45196" lon="3.48065">
        <ele>115</ele>
        <time>2012-01-29T12:35:43Z</time>
      </trkpt>
      <trkpt lat="43.45199" lon="3.48069">
        <ele>115</ele>
        <time>2012-01-29T12:35:46Z</time>
      </trkpt>
      <trkpt lat="43.45201" lon="3.48072">
        <ele>116</ele>
        <time>2012-01-29T12:35:49Z</time>
      </trkpt>
      <trkpt lat="43.45203" lon="3.48076">
        <ele>115</ele>
        <time>2012-01-29T12:35:52Z</time>
      </trkpt>
      <trkpt lat="43.45205" lon="3.4808">
        <ele>115</ele>
        <time>2012-01-29T12:35:55Z</time>
      </trkpt>
      <trkpt lat="43.45207" lon="3.48085">
        <ele>115</ele>
        <time>2012-01-29T12:35:58Z</time>
      </trkpt>
      <trkpt lat="43.45209" lon="3.48089">
        <ele>115</ele>
        <time>2012-01-29T12:36:01Z</time>
      </trkpt>
      <trkpt lat="43.4521" lon="3.48093">
        <ele>115</ele>
        <time>2012-01-29T12:36:04Z</time>
      </trkpt>
      <trkpt lat="43.45212" lon="3.48098">
        <ele>114</ele>
        <time>2012-01-29T12:36:07Z</time>
      </trkpt>
      <trkpt lat="43.45212" lon="3.48099">
        <ele>114</ele>
        <time>2012-01-29T12:36:08Z</time>
      </trkpt>
      <trkpt lat="43.45214" lon="3.48107">
        <ele>115</ele>
        <time>2012-01-29T12:36:13Z</time>
      </trkpt>
      <trkpt lat="43.45215" lon="3.48111">
        <ele>114</ele>
        <time>2012-01-29T12:36:16Z</time>
      </trkpt>
      <trkpt lat="43.45216" lon="3.48116">
        <ele>114</ele>
        <time>2012-01-29T12:36:19Z</time>
      </trkpt>
      <trkpt lat="43.45216" lon="3.48121">
        <ele>114</ele>
        <time>2012-01-29T12:36:22Z</time>
      </trkpt>
      <trkpt lat="43.45216" lon="3.48126">
        <ele>114</ele>
        <time>2012-01-29T12:36:25Z</time>
      </trkpt>
      <trkpt lat="43.45216" lon="3.48131">
        <ele>114</ele>
        <time>2012-01-29T12:36:28Z</time>
      </trkpt>
      <trkpt lat="43.45215" lon="3.48136">
        <ele>113</ele>
        <time>2012-01-29T12:36:31Z</time>
      </trkpt>
      <trkpt lat="43.45214" lon="3.48141">
        <ele>113</ele>
        <time>2012-01-29T12:36:34Z</time>
      </trkpt>
      <trkpt lat="43.45214" lon="3.48146">
        <ele>113</ele>
        <time>2012-01-29T12:36:37Z</time>
      </trkpt>
      <trkpt lat="43.45214" lon="3.48151">
        <ele>113</ele>
        <time>2012-01-29T12:36:40Z</time>
      </trkpt>
      <trkpt lat="43.45215" lon="3.48156">
        <ele>113</ele>
        <time>2012-01-29T12:36:43Z</time>
      </trkpt>
      <trkpt lat="43.45216" lon="3.4816">
        <ele>113</ele>
        <time>2012-01-29T12:36:46Z</time>
      </trkpt>
      <trkpt lat="43.45217" lon="3.48165">
        <ele>113</ele>
        <time>2012-01-29T12:36:49Z</time>
      </trkpt>
      <trkpt lat="43.45218" lon="3.48169">
        <ele>113</ele>
        <time>2012-01-29T12:36:52Z</time>
      </trkpt>
      <trkpt lat="43.45219" lon="3.48174">
        <ele>113</ele>
        <time>2012-01-29T12:36:55Z</time>
      </trkpt>
      <trkpt lat="43.45221" lon="3.48179">
        <ele>112</ele>
        <time>2012-01-29T12:36:59Z</time>
      </trkpt>
      <trkpt lat="43.45222" lon="3.48184">
        <ele>112</ele>
        <time>2012-01-29T12:37:02Z</time>
      </trkpt>
      <trkpt lat="43.45223" lon="3.48189">
        <ele>112</ele>
        <time>2012-01-29T12:37:05Z</time>
      </trkpt>
      <trkpt lat="43.45225" lon="3.48194">
        <ele>112</ele>
        <time>2012-01-29T12:37:08Z</time>
      </trkpt>
      <trkpt lat="43.45225" lon="3.48195">
        <ele>112</ele>
        <time>2012-01-29T12:37:09Z</time>
      </trkpt>
      <trkpt lat="43.45229" lon="3.48202">
        <ele>112</ele>
        <time>2012-01-29T12:37:14Z</time>
      </trkpt>
      <trkpt lat="43.45231" lon="3.48206">
        <ele>113</ele>
        <time>2012-01-29T12:37:17Z</time>
      </trkpt>
      <trkpt lat="43.45234" lon="3.4821">
        <ele>112</ele>
        <time>2012-01-29T12:37:20Z</time>
      </trkpt>
      <trkpt lat="43.45236" lon="3.48214">
        <ele>112</ele>
        <time>2012-01-29T12:37:23Z</time>
      </trkpt>
      <trkpt lat="43.45239" lon="3.48217">
        <ele>111</ele>
        <time>2012-01-29T12:37:26Z</time>
      </trkpt>
      <trkpt lat="43.45241" lon="3.48221">
        <ele>111</ele>
        <time>2012-01-29T12:37:29Z</time>
      </trkpt>
      <trkpt lat="43.45244" lon="3.48225">
        <ele>111</ele>
        <time>2012-01-29T12:37:32Z</time>
      </trkpt>
      <trkpt lat="43.45246" lon="3.48228">
        <ele>111</ele>
        <time>2012-01-29T12:37:35Z</time>
      </trkpt>
      <trkpt lat="43.45249" lon="3.48232">
        <ele>111</ele>
        <time>2012-01-29T12:37:38Z</time>
      </trkpt>
      <trkpt lat="43.45251" lon="3.48235">
        <ele>111</ele>
        <time>2012-01-29T12:37:41Z</time>
      </trkpt>
      <trkpt lat="43.45254" lon="3.48239">
        <ele>111</ele>
        <time>2012-01-29T12:37:44Z</time>
      </trkpt>
      <trkpt lat="43.45257" lon="3.48241">
        <ele>110</ele>
        <time>2012-01-29T12:37:47Z</time>
      </trkpt>
      <trkpt lat="43.4526" lon="3.48243">
        <ele>110</ele>
        <time>2012-01-29T12:37:50Z</time>
      </trkpt>
      <trkpt lat="43.45264" lon="3.48243">
        <ele>109</ele>
        <time>2012-01-29T12:37:54Z</time>
      </trkpt>
      <trkpt lat="43.45268" lon="3.48243">
        <ele>109</ele>
        <time>2012-01-29T12:37:57Z</time>
      </trkpt>
      <trkpt lat="43.45271" lon="3.48244">
        <ele>109</ele>
        <time>2012-01-29T12:38:00Z</time>
      </trkpt>
      <trkpt lat="43.45275" lon="3.48245">
        <ele>110</ele>
        <time>2012-01-29T12:38:03Z</time>
      </trkpt>
      <trkpt lat="43.45279" lon="3.48247">
        <ele>110</ele>
        <time>2012-01-29T12:38:06Z</time>
      </trkpt>
      <trkpt lat="43.45282" lon="3.48249">
        <ele>110</ele>
        <time>2012-01-29T12:38:09Z</time>
      </trkpt>
      <trkpt lat="43.45283" lon="3.48249">
        <ele>110</ele>
        <time>2012-01-29T12:38:10Z</time>
      </trkpt>
      <trkpt lat="43.45289" lon="3.48254">
        <ele>110</ele>
        <time>2012-01-29T12:38:15Z</time>
      </trkpt>
      <trkpt lat="43.45292" lon="3.48256">
        <ele>109</ele>
        <time>2012-01-29T12:38:18Z</time>
      </trkpt>
      <trkpt lat="43.45296" lon="3.48259">
        <ele>109</ele>
        <time>2012-01-29T12:38:21Z</time>
      </trkpt>
      <trkpt lat="43.45299" lon="3.48261">
        <ele>109</ele>
        <time>2012-01-29T12:38:24Z</time>
      </trkpt>
      <trkpt lat="43.45302" lon="3.48265">
        <ele>109</ele>
        <time>2012-01-29T12:38:28Z</time>
      </trkpt>
      <trkpt lat="43.45305" lon="3.48268">
        <ele>109</ele>
        <time>2012-01-29T12:38:31Z</time>
      </trkpt>
      <trkpt lat="43.45307" lon="3.48272">
        <ele>108</ele>
        <time>2012-01-29T12:38:34Z</time>
      </trkpt>
      <trkpt lat="43.4531" lon="3.48275">
        <ele>108</ele>
        <time>2012-01-29T12:38:37Z</time>
      </trkpt>
      <trkpt lat="43.45313" lon="3.48278">
        <ele>108</ele>
        <time>2012-01-29T12:38:40Z</time>
      </trkpt>
      <trkpt lat="43.45315" lon="3.48281">
        <ele>109</ele>
        <time>2012-01-29T12:38:43Z</time>
      </trkpt>
      <trkpt lat="43.45318" lon="3.48284">
        <ele>109</ele>
        <time>2012-01-29T12:38:46Z</time>
      </trkpt>
      <trkpt lat="43.4532" lon="3.48288">
        <ele>108</ele>
        <time>2012-01-29T12:38:49Z</time>
      </trkpt>
      <trkpt lat="43.45323" lon="3.48291">
        <ele>108</ele>
        <time>2012-01-29T12:38:52Z</time>
      </trkpt>
      <trkpt lat="43.45325" lon="3.48295">
        <ele>108</ele>
        <time>2012-01-29T12:38:55Z</time>
      </trkpt>
      <trkpt lat="43.45328" lon="3.48298">
        <ele>108</ele>
        <time>2012-01-29T12:38:58Z</time>
      </trkpt>
      <trkpt lat="43.4533" lon="3.48302">
        <ele>108</ele>
        <time>2012-01-29T12:39:01Z</time>
      </trkpt>
      <trkpt lat="43.45333" lon="3.48305">
        <ele>108</ele>
        <time>2012-01-29T12:39:04Z</time>
      </trkpt>
      <trkpt lat="43.45336" lon="3.48309">
        <ele>108</ele>
        <time>2012-01-29T12:39:07Z</time>
      </trkpt>
      <trkpt lat="43.45338" lon="3.48313">
        <ele>107</ele>
        <time>2012-01-29T12:39:10Z</time>
      </trkpt>
      <trkpt lat="43.45338" lon="3.48314">
        <ele>107</ele>
        <time>2012-01-29T12:39:11Z</time>
      </trkpt>
      <trkpt lat="43.45342" lon="3.4832">
        <ele>107</ele>
        <time>2012-01-29T12:39:16Z</time>
      </trkpt>
      <trkpt lat="43.45344" lon="3.48324">
        <ele>107</ele>
        <time>2012-01-29T12:39:19Z</time>
      </trkpt>
      <trkpt lat="43.45346" lon="3.48328">
        <ele>107</ele>
        <time>2012-01-29T12:39:22Z</time>
      </trkpt>
      <trkpt lat="43.4535" lon="3.48331">
        <ele>107</ele>
        <time>2012-01-29T12:39:26Z</time>
      </trkpt>
      <trkpt lat="43.45354" lon="3.48333">
        <ele>107</ele>
        <time>2012-01-29T12:39:30Z</time>
      </trkpt>
      <trkpt lat="43.45358" lon="3.48334">
        <ele>106</ele>
        <time>2012-01-29T12:39:34Z</time>
      </trkpt>
      <trkpt lat="43.45362" lon="3.48334">
        <ele>106</ele>
        <time>2012-01-29T12:39:37Z</time>
      </trkpt>
      <trkpt lat="43.45365" lon="3.48335">
        <ele>106</ele>
        <time>2012-01-29T12:39:40Z</time>
      </trkpt>
      <trkpt lat="43.45368" lon="3.48336">
        <ele>106</ele>
        <time>2012-01-29T12:39:43Z</time>
      </trkpt>
      <trkpt lat="43.45372" lon="3.48337">
        <ele>105</ele>
        <time>2012-01-29T12:39:46Z</time>
      </trkpt>
      <trkpt lat="43.45375" lon="3.48339">
        <ele>105</ele>
        <time>2012-01-29T12:39:49Z</time>
      </trkpt>
      <trkpt lat="43.45378" lon="3.48344">
        <ele>105</ele>
        <time>2012-01-29T12:39:53Z</time>
      </trkpt>
      <trkpt lat="43.45381" lon="3.48348">
        <ele>105</ele>
        <time>2012-01-29T12:39:57Z</time>
      </trkpt>
      <trkpt lat="43.45382" lon="3.48353">
        <ele>106</ele>
        <time>2012-01-29T12:40:01Z</time>
      </trkpt>
      <trkpt lat="43.45381" lon="3.48358">
        <ele>105</ele>
        <time>2012-01-29T12:40:05Z</time>
      </trkpt>
      <trkpt lat="43.45381" lon="3.48364">
        <ele>106</ele>
        <time>2012-01-29T12:40:09Z</time>
      </trkpt>
      <trkpt lat="43.4538" lon="3.48369">
        <ele>106</ele>
        <time>2012-01-29T12:40:14Z</time>
      </trkpt>
      <trkpt lat="43.4538" lon="3.4837">
        <ele>106</ele>
        <time>2012-01-29T12:40:15Z</time>
      </trkpt>
      <trkpt lat="43.45378" lon="3.48379">
        <ele>107</ele>
        <time>2012-01-29T12:40:22Z</time>
      </trkpt>
      <trkpt lat="43.45377" lon="3.48384">
        <ele>107</ele>
        <time>2012-01-29T12:40:26Z</time>
      </trkpt>
      <trkpt lat="43.45375" lon="3.4839">
        <ele>106</ele>
        <time>2012-01-29T12:40:30Z</time>
      </trkpt>
      <trkpt lat="43.45374" lon="3.48396">
        <ele>106</ele>
        <time>2012-01-29T12:40:34Z</time>
      </trkpt>
      <trkpt lat="43.45373" lon="3.48401">
        <ele>107</ele>
        <time>2012-01-29T12:40:38Z</time>
      </trkpt>
      <trkpt lat="43.45372" lon="3.48406">
        <ele>107</ele>
        <time>2012-01-29T12:40:41Z</time>
      </trkpt>
      <trkpt lat="43.45371" lon="3.48411">
        <ele>107</ele>
        <time>2012-01-29T12:40:44Z</time>
      </trkpt>
      <trkpt lat="43.4537" lon="3.48417">
        <ele>107</ele>
        <time>2012-01-29T12:40:48Z</time>
      </trkpt>
      <trkpt lat="43.45369" lon="3.48422">
        <ele>106</ele>
        <time>2012-01-29T12:40:52Z</time>
      </trkpt>
      <trkpt lat="43.45368" lon="3.48428">
        <ele>107</ele>
        <time>2012-01-29T12:40:56Z</time>
      </trkpt>
      <trkpt lat="43.45366" lon="3.48433">
        <ele>108</ele>
        <time>2012-01-29T12:40:59Z</time>
      </trkpt>
      <trkpt lat="43.45364" lon="3.48437">
        <ele>107</ele>
        <time>2012-01-29T12:41:02Z</time>
      </trkpt>
      <trkpt lat="43.45363" lon="3.48441">
        <ele>107</ele>
        <time>2012-01-29T12:41:05Z</time>
      </trkpt>
      <trkpt lat="43.45361" lon="3.48447">
        <ele>107</ele>
        <time>2012-01-29T12:41:09Z</time>
      </trkpt>
      <trkpt lat="43.4536" lon="3.48452">
        <ele>107</ele>
        <time>2012-01-29T12:41:12Z</time>
      </trkpt>
      <trkpt lat="43.45358" lon="3.48456">
        <ele>107</ele>
        <time>2012-01-29T12:41:15Z</time>
      </trkpt>
      <trkpt lat="43.45358" lon="3.48458">
        <ele>107</ele>
        <time>2012-01-29T12:41:16Z</time>
      </trkpt>
      <trkpt lat="43.45356" lon="3.48467">
        <ele>107</ele>
        <time>2012-01-29T12:41:22Z</time>
      </trkpt>
      <trkpt lat="43.45355" lon="3.48471">
        <ele>107</ele>
        <time>2012-01-29T12:41:25Z</time>
      </trkpt>
      <trkpt lat="43.45353" lon="3.48476">
        <ele>107</ele>
        <time>2012-01-29T12:41:28Z</time>
      </trkpt>
      <trkpt lat="43.45352" lon="3.48481">
        <ele>108</ele>
        <time>2012-01-29T12:41:31Z</time>
      </trkpt>
      <trkpt lat="43.4535" lon="3.48485">
        <ele>108</ele>
        <time>2012-01-29T12:41:34Z</time>
      </trkpt>
      <trkpt lat="43.45349" lon="3.4849">
        <ele>108</ele>
        <time>2012-01-29T12:41:37Z</time>
      </trkpt>
      <trkpt lat="43.45347" lon="3.48494">
        <ele>108</ele>
        <time>2012-01-29T12:41:40Z</time>
      </trkpt>
      <trkpt lat="43.45346" lon="3.48499">
        <ele>108</ele>
        <time>2012-01-29T12:41:43Z</time>
      </trkpt>
      <trkpt lat="43.45344" lon="3.48503">
        <ele>108</ele>
        <time>2012-01-29T12:41:46Z</time>
      </trkpt>
      <trkpt lat="43.45343" lon="3.48508">
        <ele>108</ele>
        <time>2012-01-29T12:41:49Z</time>
      </trkpt>
      <trkpt lat="43.45342" lon="3.48513">
        <ele>107</ele>
        <time>2012-01-29T12:41:52Z</time>
      </trkpt>
      <trkpt lat="43.45341" lon="3.48517">
        <ele>108</ele>
        <time>2012-01-29T12:41:55Z</time>
      </trkpt>
      <trkpt lat="43.45339" lon="3.48522">
        <ele>108</ele>
        <time>2012-01-29T12:41:58Z</time>
      </trkpt>
      <trkpt lat="43.45338" lon="3.48527">
        <ele>108</ele>
        <time>2012-01-29T12:42:01Z</time>
      </trkpt>
      <trkpt lat="43.45337" lon="3.48531">
        <ele>109</ele>
        <time>2012-01-29T12:42:04Z</time>
      </trkpt>
      <trkpt lat="43.45336" lon="3.48536">
        <ele>109</ele>
        <time>2012-01-29T12:42:07Z</time>
      </trkpt>
      <trkpt lat="43.45336" lon="3.48542">
        <ele>109</ele>
        <time>2012-01-29T12:42:11Z</time>
      </trkpt>
      <trkpt lat="43.45336" lon="3.48549">
        <ele>109</ele>
        <time>2012-01-29T12:42:15Z</time>
      </trkpt>
      <trkpt lat="43.45337" lon="3.48553">
        <ele>109</ele>
        <time>2012-01-29T12:42:18Z</time>
      </trkpt>
      <trkpt lat="43.45337" lon="3.48555">
        <ele>109</ele>
        <time>2012-01-29T12:42:19Z</time>
      </trkpt>
      <trkpt lat="43.45338" lon="3.48564">
        <ele>109</ele>
        <time>2012-01-29T12:42:25Z</time>
      </trkpt>
      <trkpt lat="43.4534" lon="3.48568">
        <ele>109</ele>
        <time>2012-01-29T12:42:30Z</time>
      </trkpt>
      <trkpt lat="43.45343" lon="3.48573">
        <ele>109</ele>
        <time>2012-01-29T12:42:34Z</time>
      </trkpt>
      <trkpt lat="43.45346" lon="3.48577">
        <ele>109</ele>
        <time>2012-01-29T12:42:38Z</time>
      </trkpt>
      <trkpt lat="43.45349" lon="3.4858">
        <ele>109</ele>
        <time>2012-01-29T12:42:41Z</time>
      </trkpt>
      <trkpt lat="43.45351" lon="3.48583">
        <ele>109</ele>
        <time>2012-01-29T12:42:44Z</time>
      </trkpt>
      <trkpt lat="43.45354" lon="3.48586">
        <ele>109</ele>
        <time>2012-01-29T12:42:47Z</time>
      </trkpt>
      <trkpt lat="43.45356" lon="3.48589">
        <ele>109</ele>
        <time>2012-01-29T12:42:50Z</time>
      </trkpt>
      <trkpt lat="43.4536" lon="3.48593">
        <ele>109</ele>
        <time>2012-01-29T12:42:54Z</time>
      </trkpt>
      <trkpt lat="43.45362" lon="3.48597">
        <ele>110</ele>
        <time>2012-01-29T12:42:57Z</time>
      </trkpt>
      <trkpt lat="43.45365" lon="3.48601">
        <ele>111</ele>
        <time>2012-01-29T12:43:01Z</time>
      </trkpt>
      <trkpt lat="43.45368" lon="3.48605">
        <ele>110</ele>
        <time>2012-01-29T12:43:05Z</time>
      </trkpt>
      <trkpt lat="43.45371" lon="3.48609">
        <ele>110</ele>
        <time>2012-01-29T12:43:08Z</time>
      </trkpt>
      <trkpt lat="43.45373" lon="3.48612">
        <ele>110</ele>
        <time>2012-01-29T12:43:11Z</time>
      </trkpt>
      <trkpt lat="43.45377" lon="3.48615">
        <ele>110</ele>
        <time>2012-01-29T12:43:15Z</time>
      </trkpt>
      <trkpt lat="43.45379" lon="3.48618">
        <ele>110</ele>
        <time>2012-01-29T12:43:18Z</time>
      </trkpt>
      <trkpt lat="43.45382" lon="3.48622">
        <ele>110</ele>
        <time>2012-01-29T12:43:21Z</time>
      </trkpt>
      <trkpt lat="43.45383" lon="3.48623">
        <ele>111</ele>
        <time>2012-01-29T12:43:22Z</time>
      </trkpt>
      <trkpt lat="43.45387" lon="3.48628">
        <ele>111</ele>
        <time>2012-01-29T12:43:27Z</time>
      </trkpt>
      <trkpt lat="43.4539" lon="3.48631">
        <ele>111</ele>
        <time>2012-01-29T12:43:30Z</time>
      </trkpt>
      <trkpt lat="43.45393" lon="3.48635">
        <ele>111</ele>
        <time>2012-01-29T12:43:33Z</time>
      </trkpt>
      <trkpt lat="43.45395" lon="3.48638">
        <ele>111</ele>
        <time>2012-01-29T12:43:36Z</time>
      </trkpt>
      <trkpt lat="43.45398" lon="3.48641">
        <ele>111</ele>
        <time>2012-01-29T12:43:39Z</time>
      </trkpt>
      <trkpt lat="43.45401" lon="3.48645">
        <ele>111</ele>
        <time>2012-01-29T12:43:43Z</time>
      </trkpt>
      <trkpt lat="43.45404" lon="3.48648">
        <ele>111</ele>
        <time>2012-01-29T12:43:46Z</time>
      </trkpt>
      <trkpt lat="43.45407" lon="3.48651">
        <ele>112</ele>
        <time>2012-01-29T12:43:49Z</time>
      </trkpt>
      <trkpt lat="43.4541" lon="3.48654">
        <ele>112</ele>
        <time>2012-01-29T12:43:52Z</time>
      </trkpt>
      <trkpt lat="43.45413" lon="3.48657">
        <ele>112</ele>
        <time>2012-01-29T12:43:55Z</time>
      </trkpt>
      <trkpt lat="43.45415" lon="3.4866">
        <ele>112</ele>
        <time>2012-01-29T12:43:58Z</time>
      </trkpt>
      <trkpt lat="43.45418" lon="3.48662">
        <ele>112</ele>
        <time>2012-01-29T12:44:01Z</time>
      </trkpt>
      <trkpt lat="43.45421" lon="3.48666">
        <ele>112</ele>
        <time>2012-01-29T12:44:04Z</time>
      </trkpt>
      <trkpt lat="43.45424" lon="3.48669">
        <ele>113</ele>
        <time>2012-01-29T12:44:07Z</time>
      </trkpt>
      <trkpt lat="43.45427" lon="3.48671">
        <ele>113</ele>
        <time>2012-01-29T12:44:10Z</time>
      </trkpt>
      <trkpt lat="43.4543" lon="3.48674">
        <ele>112</ele>
        <time>2012-01-29T12:44:13Z</time>
      </trkpt>
      <trkpt lat="43.45433" lon="3.48676">
        <ele>113</ele>
        <time>2012-01-29T12:44:16Z</time>
      </trkpt>
      <trkpt lat="43.45436" lon="3.48678">
        <ele>113</ele>
        <time>2012-01-29T12:44:19Z</time>
      </trkpt>
      <trkpt lat="43.4544" lon="3.4868">
        <ele>112</ele>
        <time>2012-01-29T12:44:22Z</time>
      </trkpt>
      <trkpt lat="43.45441" lon="3.48681">
        <ele>112</ele>
        <time>2012-01-29T12:44:23Z</time>
      </trkpt>
      <trkpt lat="43.45447" lon="3.48683">
        <ele>113</ele>
        <time>2012-01-29T12:44:28Z</time>
      </trkpt>
      <trkpt lat="43.4545" lon="3.48686">
        <ele>113</ele>
        <time>2012-01-29T12:44:31Z</time>
      </trkpt>
      <trkpt lat="43.45453" lon="3.48689">
        <ele>113</ele>
        <time>2012-01-29T12:44:34Z</time>
      </trkpt>
      <trkpt lat="43.45456" lon="3.48692">
        <ele>113</ele>
        <time>2012-01-29T12:44:37Z</time>
      </trkpt>
      <trkpt lat="43.45458" lon="3.48696">
        <ele>113</ele>
        <time>2012-01-29T12:44:40Z</time>
      </trkpt>
      <trkpt lat="43.4546" lon="3.487">
        <ele>114</ele>
        <time>2012-01-29T12:44:43Z</time>
      </trkpt>
      <trkpt lat="43.45463" lon="3.48704">
        <ele>114</ele>
        <time>2012-01-29T12:44:46Z</time>
      </trkpt>
      <trkpt lat="43.45464" lon="3.48708">
        <ele>113</ele>
        <time>2012-01-29T12:44:49Z</time>
      </trkpt>
      <trkpt lat="43.45466" lon="3.48712">
        <ele>114</ele>
        <time>2012-01-29T12:44:52Z</time>
      </trkpt>
      <trkpt lat="43.45468" lon="3.48716">
        <ele>114</ele>
        <time>2012-01-29T12:44:55Z</time>
      </trkpt>
      <trkpt lat="43.45471" lon="3.4872">
        <ele>114</ele>
        <time>2012-01-29T12:44:59Z</time>
      </trkpt>
      <trkpt lat="43.45474" lon="3.48724">
        <ele>114</ele>
        <time>2012-01-29T12:45:02Z</time>
      </trkpt>
      <trkpt lat="43.45477" lon="3.48728">
        <ele>115</ele>
        <time>2012-01-29T12:45:06Z</time>
      </trkpt>
      <trkpt lat="43.4548" lon="3.48731">
        <ele>115</ele>
        <time>2012-01-29T12:45:09Z</time>
      </trkpt>
      <trkpt lat="43.45482" lon="3.48735">
        <ele>115</ele>
        <time>2012-01-29T12:45:12Z</time>
      </trkpt>
      <trkpt lat="43.45485" lon="3.48739">
        <ele>115</ele>
        <time>2012-01-29T12:45:15Z</time>
      </trkpt>
      <trkpt lat="43.45487" lon="3.48743">
        <ele>115</ele>
        <time>2012-01-29T12:45:18Z</time>
      </trkpt>
      <trkpt lat="43.45489" lon="3.48747">
        <ele>115</ele>
        <time>2012-01-29T12:45:21Z</time>
      </trkpt>
      <trkpt lat="43.45491" lon="3.48751">
        <ele>115</ele>
        <time>2012-01-29T12:45:24Z</time>
      </trkpt>
      <trkpt lat="43.45492" lon="3.48753">
        <ele>115</ele>
        <time>2012-01-29T12:45:25Z</time>
      </trkpt>
      <trkpt lat="43.45495" lon="3.4876">
        <ele>115</ele>
        <time>2012-01-29T12:45:30Z</time>
      </trkpt>
      <trkpt lat="43.45497" lon="3.48765">
        <ele>115</ele>
        <time>2012-01-29T12:45:33Z</time>
      </trkpt>
      <trkpt lat="43.45499" lon="3.4877">
        <ele>115</ele>
        <time>2012-01-29T12:45:36Z</time>
      </trkpt>
      <trkpt lat="43.45501" lon="3.48774">
        <ele>115</ele>
        <time>2012-01-29T12:45:39Z</time>
      </trkpt>
      <trkpt lat="43.45503" lon="3.48779">
        <ele>115</ele>
        <time>2012-01-29T12:45:42Z</time>
      </trkpt>
      <trkpt lat="43.45505" lon="3.48783">
        <ele>115</ele>
        <time>2012-01-29T12:45:45Z</time>
      </trkpt>
      <trkpt lat="43.45507" lon="3.48788">
        <ele>115</ele>
        <time>2012-01-29T12:45:48Z</time>
      </trkpt>
      <trkpt lat="43.45509" lon="3.48792">
        <ele>116</ele>
        <time>2012-01-29T12:45:51Z</time>
      </trkpt>
      <trkpt lat="43.45511" lon="3.48797">
        <ele>115</ele>
        <time>2012-01-29T12:45:54Z</time>
      </trkpt>
      <trkpt lat="43.45513" lon="3.48801">
        <ele>115</ele>
        <time>2012-01-29T12:45:57Z</time>
      </trkpt>
      <trkpt lat="43.45515" lon="3.48806">
        <ele>115</ele>
        <time>2012-01-29T12:46:00Z</time>
      </trkpt>
      <trkpt lat="43.45517" lon="3.4881">
        <ele>115</ele>
        <time>2012-01-29T12:46:03Z</time>
      </trkpt>
      <trkpt lat="43.45519" lon="3.48815">
        <ele>114</ele>
        <time>2012-01-29T12:46:06Z</time>
      </trkpt>
      <trkpt lat="43.45521" lon="3.48819">
        <ele>114</ele>
        <time>2012-01-29T12:46:09Z</time>
      </trkpt>
      <trkpt lat="43.45523" lon="3.48824">
        <ele>114</ele>
        <time>2012-01-29T12:46:12Z</time>
      </trkpt>
      <trkpt lat="43.45525" lon="3.48828">
        <ele>115</ele>
        <time>2012-01-29T12:46:15Z</time>
      </trkpt>
      <trkpt lat="43.45526" lon="3.48833">
        <ele>115</ele>
        <time>2012-01-29T12:46:18Z</time>
      </trkpt>
      <trkpt lat="43.45528" lon="3.48839">
        <ele>114</ele>
        <time>2012-01-29T12:46:21Z</time>
      </trkpt>
      <trkpt lat="43.45529" lon="3.48844">
        <ele>114</ele>
        <time>2012-01-29T12:46:24Z</time>
      </trkpt>
      <trkpt lat="43.4553" lon="3.48849">
        <ele>115</ele>
        <time>2012-01-29T12:46:27Z</time>
      </trkpt>
      <trkpt lat="43.45531" lon="3.48851">
        <ele>115</ele>
        <time>2012-01-29T12:46:28Z</time>
      </trkpt>
      <trkpt lat="43.45531" lon="3.48859">
        <ele>115</ele>
        <time>2012-01-29T12:46:33Z</time>
      </trkpt>
      <trkpt lat="43.45533" lon="3.48864">
        <ele>115</ele>
        <time>2012-01-29T12:46:36Z</time>
      </trkpt>
      <trkpt lat="43.45534" lon="3.48868">
        <ele>115</ele>
        <time>2012-01-29T12:46:39Z</time>
      </trkpt>
      <trkpt lat="43.45535" lon="3.48873">
        <ele>113</ele>
        <time>2012-01-29T12:46:42Z</time>
      </trkpt>
      <trkpt lat="43.45537" lon="3.48877">
        <ele>114</ele>
        <time>2012-01-29T12:46:45Z</time>
      </trkpt>
      <trkpt lat="43.45539" lon="3.48881">
        <ele>114</ele>
        <time>2012-01-29T12:46:48Z</time>
      </trkpt>
      <trkpt lat="43.45541" lon="3.48885">
        <ele>114</ele>
        <time>2012-01-29T12:46:51Z</time>
      </trkpt>
      <trkpt lat="43.45544" lon="3.4889">
        <ele>114</ele>
        <time>2012-01-29T12:46:55Z</time>
      </trkpt>
      <trkpt lat="43.45546" lon="3.48894">
        <ele>115</ele>
        <time>2012-01-29T12:46:58Z</time>
      </trkpt>
      <trkpt lat="43.45548" lon="3.48897">
        <ele>115</ele>
        <time>2012-01-29T12:47:01Z</time>
      </trkpt>
      <trkpt lat="43.4555" lon="3.48901">
        <ele>114</ele>
        <time>2012-01-29T12:47:04Z</time>
      </trkpt>
      <trkpt lat="43.45553" lon="3.48905">
        <ele>114</ele>
        <time>2012-01-29T12:47:07Z</time>
      </trkpt>
      <trkpt lat="43.45555" lon="3.48909">
        <ele>113</ele>
        <time>2012-01-29T12:47:10Z</time>
      </trkpt>
      <trkpt lat="43.45557" lon="3.48912">
        <ele>113</ele>
        <time>2012-01-29T12:47:13Z</time>
      </trkpt>
      <trkpt lat="43.45559" lon="3.48917">
        <ele>113</ele>
        <time>2012-01-29T12:47:16Z</time>
      </trkpt>
      <trkpt lat="43.45561" lon="3.48922">
        <ele>113</ele>
        <time>2012-01-29T12:47:19Z</time>
      </trkpt>
      <trkpt lat="43.45563" lon="3.48927">
        <ele>113</ele>
        <time>2012-01-29T12:47:22Z</time>
      </trkpt>
      <trkpt lat="43.45564" lon="3.48932">
        <ele>113</ele>
        <time>2012-01-29T12:47:25Z</time>
      </trkpt>
      <trkpt lat="43.45565" lon="3.48937">
        <ele>114</ele>
        <time>2012-01-29T12:47:28Z</time>
      </trkpt>
      <trkpt lat="43.45566" lon="3.48938">
        <ele>114</ele>
        <time>2012-01-29T12:47:29Z</time>
      </trkpt>
      <trkpt lat="43.45568" lon="3.48946">
        <ele>114</ele>
        <time>2012-01-29T12:47:34Z</time>
      </trkpt>
      <trkpt lat="43.4557" lon="3.4895">
        <ele>114</ele>
        <time>2012-01-29T12:47:37Z</time>
      </trkpt>
      <trkpt lat="43.45572" lon="3.48955">
        <ele>115</ele>
        <time>2012-01-29T12:47:40Z</time>
      </trkpt>
      <trkpt lat="43.45574" lon="3.48959">
        <ele>114</ele>
        <time>2012-01-29T12:47:43Z</time>
      </trkpt>
      <trkpt lat="43.45576" lon="3.48964">
        <ele>113</ele>
        <time>2012-01-29T12:47:46Z</time>
      </trkpt>
      <trkpt lat="43.45578" lon="3.48968">
        <ele>113</ele>
        <time>2012-01-29T12:47:49Z</time>
      </trkpt>
      <trkpt lat="43.4558" lon="3.48972">
        <ele>114</ele>
        <time>2012-01-29T12:47:52Z</time>
      </trkpt>
      <trkpt lat="43.45582" lon="3.48976">
        <ele>113</ele>
        <time>2012-01-29T12:47:55Z</time>
      </trkpt>
      <trkpt lat="43.45584" lon="3.48981">
        <ele>113</ele>
        <time>2012-01-29T12:47:58Z</time>
      </trkpt>
      <trkpt lat="43.45587" lon="3.48984">
        <ele>113</ele>
        <time>2012-01-29T12:48:01Z</time>
      </trkpt>
      <trkpt lat="43.45589" lon="3.48988">
        <ele>113</ele>
        <time>2012-01-29T12:48:04Z</time>
      </trkpt>
      <trkpt lat="43.45591" lon="3.48991">
        <ele>113</ele>
        <time>2012-01-29T12:48:07Z</time>
      </trkpt>
      <trkpt lat="43.45594" lon="3.48995">
        <ele>113</ele>
        <time>2012-01-29T12:48:10Z</time>
      </trkpt>
      <trkpt lat="43.45596" lon="3.48998">
        <ele>113</ele>
        <time>2012-01-29T12:48:13Z</time>
      </trkpt>
      <trkpt lat="43.45599" lon="3.49001">
        <ele>113</ele>
        <time>2012-01-29T12:48:16Z</time>
      </trkpt>
      <trkpt lat="43.45602" lon="3.49004">
        <ele>112</ele>
        <time>2012-01-29T12:48:19Z</time>
      </trkpt>
      <trkpt lat="43.45605" lon="3.49008">
        <ele>113</ele>
        <time>2012-01-29T12:48:23Z</time>
      </trkpt>
      <trkpt lat="43.45608" lon="3.49011">
        <ele>113</ele>
        <time>2012-01-29T12:48:26Z</time>
      </trkpt>
      <trkpt lat="43.4561" lon="3.49015">
        <ele>113</ele>
        <time>2012-01-29T12:48:29Z</time>
      </trkpt>
      <trkpt lat="43.45611" lon="3.49016">
        <ele>113</ele>
        <time>2012-01-29T12:48:30Z</time>
      </trkpt>
      <trkpt lat="43.45615" lon="3.49022">
        <ele>113</ele>
        <time>2012-01-29T12:48:35Z</time>
      </trkpt>
      <trkpt lat="43.45617" lon="3.49026">
        <ele>114</ele>
        <time>2012-01-29T12:48:38Z</time>
      </trkpt>
      <trkpt lat="43.45619" lon="3.4903">
        <ele>114</ele>
        <time>2012-01-29T12:48:41Z</time>
      </trkpt>
      <trkpt lat="43.45622" lon="3.49034">
        <ele>113</ele>
        <time>2012-01-29T12:48:44Z</time>
      </trkpt>
      <trkpt lat="43.45624" lon="3.49038">
        <ele>113</ele>
        <time>2012-01-29T12:48:47Z</time>
      </trkpt>
      <trkpt lat="43.45627" lon="3.49042">
        <ele>114</ele>
        <time>2012-01-29T12:48:50Z</time>
      </trkpt>
      <trkpt lat="43.45629" lon="3.49045">
        <ele>113</ele>
        <time>2012-01-29T12:48:53Z</time>
      </trkpt>
      <trkpt lat="43.45632" lon="3.49049">
        <ele>113</ele>
        <time>2012-01-29T12:48:56Z</time>
      </trkpt>
      <trkpt lat="43.45634" lon="3.49053">
        <ele>113</ele>
        <time>2012-01-29T12:48:59Z</time>
      </trkpt>
      <trkpt lat="43.45636" lon="3.49058">
        <ele>113</ele>
        <time>2012-01-29T12:49:03Z</time>
      </trkpt>
      <trkpt lat="43.45637" lon="3.49062">
        <ele>113</ele>
        <time>2012-01-29T12:49:06Z</time>
      </trkpt>
      <trkpt lat="43.45636" lon="3.49067">
        <ele>113</ele>
        <time>2012-01-29T12:49:09Z</time>
      </trkpt>
      <trkpt lat="43.45635" lon="3.49072">
        <ele>113</ele>
        <time>2012-01-29T12:49:12Z</time>
      </trkpt>
      <trkpt lat="43.45634" lon="3.49076">
        <ele>114</ele>
        <time>2012-01-29T12:49:15Z</time>
      </trkpt>
      <trkpt lat="43.45633" lon="3.49081">
        <ele>114</ele>
        <time>2012-01-29T12:49:18Z</time>
      </trkpt>
      <trkpt lat="43.45631" lon="3.49086">
        <ele>113</ele>
        <time>2012-01-29T12:49:22Z</time>
      </trkpt>
      <trkpt lat="43.45629" lon="3.49091">
        <ele>113</ele>
        <time>2012-01-29T12:49:26Z</time>
      </trkpt>
      <trkpt lat="43.45626" lon="3.49095">
        <ele>113</ele>
        <time>2012-01-29T12:49:29Z</time>
      </trkpt>
      <trkpt lat="43.45623" lon="3.49098">
        <ele>112</ele>
        <time>2012-01-29T12:49:32Z</time>
      </trkpt>
      <trkpt lat="43.45622" lon="3.49099">
        <ele>112</ele>
        <time>2012-01-29T12:49:33Z</time>
      </trkpt>
      <trkpt lat="43.45617" lon="3.49105">
        <ele>112</ele>
        <time>2012-01-29T12:49:38Z</time>
      </trkpt>
      <trkpt lat="43.45614" lon="3.49107">
        <ele>112</ele>
        <time>2012-01-29T12:49:41Z</time>
      </trkpt>
      <trkpt lat="43.45611" lon="3.4911">
        <ele>112</ele>
        <time>2012-01-29T12:49:44Z</time>
      </trkpt>
      <trkpt lat="43.45608" lon="3.49113">
        <ele>111</ele>
        <time>2012-01-29T12:49:47Z</time>
      </trkpt>
      <trkpt lat="43.45606" lon="3.49116">
        <ele>111</ele>
        <time>2012-01-29T12:49:50Z</time>
      </trkpt>
      <trkpt lat="43.45603" lon="3.49119">
        <ele>111</ele>
        <time>2012-01-29T12:49:53Z</time>
      </trkpt>
      <trkpt lat="43.456" lon="3.49122">
        <ele>110</ele>
        <time>2012-01-29T12:49:56Z</time>
      </trkpt>
      <trkpt lat="43.45597" lon="3.49125">
        <ele>110</ele>
        <time>2012-01-29T12:49:59Z</time>
      </trkpt>
      <trkpt lat="43.45594" lon="3.49128">
        <ele>111</ele>
        <time>2012-01-29T12:50:02Z</time>
      </trkpt>
      <trkpt lat="43.45591" lon="3.49131">
        <ele>111</ele>
        <time>2012-01-29T12:50:05Z</time>
      </trkpt>
      <trkpt lat="43.45588" lon="3.49134">
        <ele>111</ele>
        <time>2012-01-29T12:50:08Z</time>
      </trkpt>
      <trkpt lat="43.45585" lon="3.49137">
        <ele>111</ele>
        <time>2012-01-29T12:50:11Z</time>
      </trkpt>
      <trkpt lat="43.45582" lon="3.49139">
        <ele>111</ele>
        <time>2012-01-29T12:50:14Z</time>
      </trkpt>
      <trkpt lat="43.45579" lon="3.49142">
        <ele>111</ele>
        <time>2012-01-29T12:50:17Z</time>
      </trkpt>
      <trkpt lat="43.45576" lon="3.49145">
        <ele>111</ele>
        <time>2012-01-29T12:50:20Z</time>
      </trkpt>
      <trkpt lat="43.45574" lon="3.49148">
        <ele>110</ele>
        <time>2012-01-29T12:50:23Z</time>
      </trkpt>
      <trkpt lat="43.45571" lon="3.49151">
        <ele>110</ele>
        <time>2012-01-29T12:50:26Z</time>
      </trkpt>
      <trkpt lat="43.45567" lon="3.49154">
        <ele>110</ele>
        <time>2012-01-29T12:50:30Z</time>
      </trkpt>
      <trkpt lat="43.45563" lon="3.49157">
        <ele>111</ele>
        <time>2012-01-29T12:50:34Z</time>
      </trkpt>
      <trkpt lat="43.45562" lon="3.49157">
        <ele>111</ele>
        <time>2012-01-29T12:50:35Z</time>
      </trkpt>
      <trkpt lat="43.45555" lon="3.4916">
        <ele>110</ele>
        <time>2012-01-29T12:50:43Z</time>
      </trkpt>
      <trkpt lat="43.45551" lon="3.4916">
        <ele>110</ele>
        <time>2012-01-29T12:51:02Z</time>
      </trkpt>
      <trkpt lat="43.45554" lon="3.49164">
        <ele>111</ele>
        <time>2012-01-29T12:52:06Z</time>
      </trkpt>
      <trkpt lat="43.45554" lon="3.49164">
        <ele>111</ele>
        <time>2012-01-29T12:52:07Z</time>
      </trkpt>
      <trkpt lat="43.4555" lon="3.49167">
        <ele>111</ele>
        <time>2012-01-29T12:53:08Z</time>
      </trkpt>
      <trkpt lat="43.45555" lon="3.49167">
        <ele>109</ele>
        <time>2012-01-29T12:55:31Z</time>
      </trkpt>
      <trkpt lat="43.45563" lon="3.49162">
        <ele>109</ele>
        <time>2012-01-29T12:55:45Z</time>
      </trkpt>
      <trkpt lat="43.45566" lon="3.49159">
        <ele>110</ele>
        <time>2012-01-29T12:55:49Z</time>
      </trkpt>
      <trkpt lat="43.45569" lon="3.49157">
        <ele>111</ele>
        <time>2012-01-29T12:55:53Z</time>
      </trkpt>
      <trkpt lat="43.45573" lon="3.49154">
        <ele>111</ele>
        <time>2012-01-29T12:55:57Z</time>
      </trkpt>
      <trkpt lat="43.45576" lon="3.49151">
        <ele>111</ele>
        <time>2012-01-29T12:56:01Z</time>
      </trkpt>
      <trkpt lat="43.45579" lon="3.49148">
        <ele>111</ele>
        <time>2012-01-29T12:56:05Z</time>
      </trkpt>
      <trkpt lat="43.45583" lon="3.49144">
        <ele>110</ele>
        <time>2012-01-29T12:56:09Z</time>
      </trkpt>
      <trkpt lat="43.45586" lon="3.49141">
        <ele>110</ele>
        <time>2012-01-29T12:56:13Z</time>
      </trkpt>
      <trkpt lat="43.4559" lon="3.49138">
        <ele>110</ele>
        <time>2012-01-29T12:56:17Z</time>
      </trkpt>
      <trkpt lat="43.45593" lon="3.49134">
        <ele>111</ele>
        <time>2012-01-29T12:56:21Z</time>
      </trkpt>
      <trkpt lat="43.45597" lon="3.49131">
        <ele>111</ele>
        <time>2012-01-29T12:56:25Z</time>
      </trkpt>
      <trkpt lat="43.456" lon="3.49127">
        <ele>111</ele>
        <time>2012-01-29T12:56:29Z</time>
      </trkpt>
      <trkpt lat="43.45603" lon="3.49123">
        <ele>111</ele>
        <time>2012-01-29T12:56:33Z</time>
      </trkpt>
      <trkpt lat="43.45604" lon="3.49122">
        <ele>111</ele>
        <time>2012-01-29T12:56:34Z</time>
      </trkpt>
      <trkpt lat="43.45611" lon="3.49117">
        <ele>111</ele>
        <time>2012-01-29T12:56:41Z</time>
      </trkpt>
      <trkpt lat="43.45614" lon="3.49113">
        <ele>111</ele>
        <time>2012-01-29T12:56:45Z</time>
      </trkpt>
      <trkpt lat="43.45617" lon="3.49111">
        <ele>112</ele>
        <time>2012-01-29T12:56:48Z</time>
      </trkpt>
      <trkpt lat="43.4562" lon="3.49107">
        <ele>111</ele>
        <time>2012-01-29T12:56:52Z</time>
      </trkpt>
      <trkpt lat="43.45623" lon="3.49104">
        <ele>112</ele>
        <time>2012-01-29T12:56:56Z</time>
      </trkpt>
      <trkpt lat="43.45626" lon="3.491">
        <ele>111</ele>
        <time>2012-01-29T12:57:00Z</time>
      </trkpt>
      <trkpt lat="43.45628" lon="3.49097">
        <ele>111</ele>
        <time>2012-01-29T12:57:03Z</time>
      </trkpt>
      <trkpt lat="43.45631" lon="3.49093">
        <ele>111</ele>
        <time>2012-01-29T12:57:06Z</time>
      </trkpt>
      <trkpt lat="43.45633" lon="3.49089">
        <ele>112</ele>
        <time>2012-01-29T12:57:10Z</time>
      </trkpt>
      <trkpt lat="43.45634" lon="3.49083">
        <ele>113</ele>
        <time>2012-01-29T12:57:14Z</time>
      </trkpt>
      <trkpt lat="43.45636" lon="3.49078">
        <ele>113</ele>
        <time>2012-01-29T12:57:18Z</time>
      </trkpt>
      <trkpt lat="43.45638" lon="3.49073">
        <ele>113</ele>
        <time>2012-01-29T12:57:22Z</time>
      </trkpt>
      <trkpt lat="43.4564" lon="3.49068">
        <ele>112</ele>
        <time>2012-01-29T12:57:27Z</time>
      </trkpt>
      <trkpt lat="43.45643" lon="3.49064">
        <ele>113</ele>
        <time>2012-01-29T12:57:39Z</time>
      </trkpt>
      <trkpt lat="43.45644" lon="3.49063">
        <ele>113</ele>
        <time>2012-01-29T12:57:40Z</time>
      </trkpt>
      <trkpt lat="43.45648" lon="3.49056">
        <ele>113</ele>
        <time>2012-01-29T12:57:47Z</time>
      </trkpt>
      <trkpt lat="43.4565" lon="3.49052">
        <ele>113</ele>
        <time>2012-01-29T12:57:50Z</time>
      </trkpt>
      <trkpt lat="43.45653" lon="3.49047">
        <ele>113</ele>
        <time>2012-01-29T12:57:54Z</time>
      </trkpt>
      <trkpt lat="43.45655" lon="3.49043">
        <ele>112</ele>
        <time>2012-01-29T12:57:57Z</time>
      </trkpt>
      <trkpt lat="43.45657" lon="3.4904">
        <ele>112</ele>
        <time>2012-01-29T12:58:00Z</time>
      </trkpt>
      <trkpt lat="43.45659" lon="3.49036">
        <ele>112</ele>
        <time>2012-01-29T12:58:03Z</time>
      </trkpt>
      <trkpt lat="43.45662" lon="3.49033">
        <ele>112</ele>
        <time>2012-01-29T12:58:06Z</time>
      </trkpt>
      <trkpt lat="43.45665" lon="3.49029">
        <ele>113</ele>
        <time>2012-01-29T12:58:10Z</time>
      </trkpt>
      <trkpt lat="43.45669" lon="3.49026">
        <ele>114</ele>
        <time>2012-01-29T12:58:14Z</time>
      </trkpt>
      <trkpt lat="43.45673" lon="3.49024">
        <ele>114</ele>
        <time>2012-01-29T12:58:18Z</time>
      </trkpt>
      <trkpt lat="43.45676" lon="3.49023">
        <ele>114</ele>
        <time>2012-01-29T12:58:21Z</time>
      </trkpt>
      <trkpt lat="43.4568" lon="3.49022">
        <ele>114</ele>
        <time>2012-01-29T12:58:24Z</time>
      </trkpt>
      <trkpt lat="43.45683" lon="3.49021">
        <ele>114</ele>
        <time>2012-01-29T12:58:27Z</time>
      </trkpt>
      <trkpt lat="43.45687" lon="3.49019">
        <ele>114</ele>
        <time>2012-01-29T12:58:31Z</time>
      </trkpt>
      <trkpt lat="43.45691" lon="3.49016">
        <ele>115</ele>
        <time>2012-01-29T12:58:35Z</time>
      </trkpt>
      <trkpt lat="43.45694" lon="3.49014">
        <ele>114</ele>
        <time>2012-01-29T12:58:38Z</time>
      </trkpt>
      <trkpt lat="43.45697" lon="3.49012">
        <ele>114</ele>
        <time>2012-01-29T12:58:41Z</time>
      </trkpt>
      <trkpt lat="43.45698" lon="3.49011">
        <ele>114</ele>
        <time>2012-01-29T12:58:42Z</time>
      </trkpt>
      <trkpt lat="43.45705" lon="3.49006">
        <ele>114</ele>
        <time>2012-01-29T12:58:49Z</time>
      </trkpt>
      <trkpt lat="43.45708" lon="3.49003">
        <ele>114</ele>
        <time>2012-01-29T12:58:52Z</time>
      </trkpt>
      <trkpt lat="43.45711" lon="3.48999">
        <ele>114</ele>
        <time>2012-01-29T12:58:56Z</time>
      </trkpt>
      <trkpt lat="43.45714" lon="3.48997">
        <ele>116</ele>
        <time>2012-01-29T12:58:59Z</time>
      </trkpt>
      <trkpt lat="43.45718" lon="3.48994">
        <ele>116</ele>
        <time>2012-01-29T12:59:03Z</time>
      </trkpt>
      <trkpt lat="43.45722" lon="3.4899">
        <ele>115</ele>
        <time>2012-01-29T12:59:07Z</time>
      </trkpt>
      <trkpt lat="43.45725" lon="3.48988">
        <ele>114</ele>
        <time>2012-01-29T12:59:10Z</time>
      </trkpt>
      <trkpt lat="43.45728" lon="3.48985">
        <ele>113</ele>
        <time>2012-01-29T12:59:13Z</time>
      </trkpt>
      <trkpt lat="43.45731" lon="3.48982">
        <ele>113</ele>
        <time>2012-01-29T12:59:16Z</time>
      </trkpt>
      <trkpt lat="43.45734" lon="3.48979">
        <ele>114</ele>
        <time>2012-01-29T12:59:19Z</time>
      </trkpt>
      <trkpt lat="43.45737" lon="3.48976">
        <ele>114</ele>
        <time>2012-01-29T12:59:23Z</time>
      </trkpt>
      <trkpt lat="43.45741" lon="3.48974">
        <ele>113</ele>
        <time>2012-01-29T12:59:26Z</time>
      </trkpt>
      <trkpt lat="43.45744" lon="3.48972">
        <ele>114</ele>
        <time>2012-01-29T12:59:29Z</time>
      </trkpt>
      <trkpt lat="43.45747" lon="3.4897">
        <ele>114</ele>
        <time>2012-01-29T12:59:32Z</time>
      </trkpt>
      <trkpt lat="43.45751" lon="3.48967">
        <ele>114</ele>
        <time>2012-01-29T12:59:36Z</time>
      </trkpt>
      <trkpt lat="43.45754" lon="3.48965">
        <ele>113</ele>
        <time>2012-01-29T12:59:39Z</time>
      </trkpt>
      <trkpt lat="43.45757" lon="3.48963">
        <ele>113</ele>
        <time>2012-01-29T12:59:42Z</time>
      </trkpt>
      <trkpt lat="43.45758" lon="3.48963">
        <ele>113</ele>
        <time>2012-01-29T12:59:43Z</time>
      </trkpt>
      <trkpt lat="43.45764" lon="3.48958">
        <ele>113</ele>
        <time>2012-01-29T12:59:49Z</time>
      </trkpt>
      <trkpt lat="43.45768" lon="3.48955">
        <ele>113</ele>
        <time>2012-01-29T12:59:53Z</time>
      </trkpt>
      <trkpt lat="43.45771" lon="3.48951">
        <ele>113</ele>
        <time>2012-01-29T12:59:57Z</time>
      </trkpt>
      <trkpt lat="43.45774" lon="3.48949">
        <ele>113</ele>
        <time>2012-01-29T13:00:00Z</time>
      </trkpt>
      <trkpt lat="43.45777" lon="3.48946">
        <ele>113</ele>
        <time>2012-01-29T13:00:03Z</time>
      </trkpt>
      <trkpt lat="43.4578" lon="3.48943">
        <ele>113</ele>
        <time>2012-01-29T13:00:06Z</time>
      </trkpt>
      <trkpt lat="43.45783" lon="3.4894">
        <ele>112</ele>
        <time>2012-01-29T13:00:09Z</time>
      </trkpt>
      <trkpt lat="43.45786" lon="3.48938">
        <ele>112</ele>
        <time>2012-01-29T13:00:12Z</time>
      </trkpt>
      <trkpt lat="43.45789" lon="3.48936">
        <ele>112</ele>
        <time>2012-01-29T13:00:15Z</time>
      </trkpt>
      <trkpt lat="43.45792" lon="3.48933">
        <ele>112</ele>
        <time>2012-01-29T13:00:18Z</time>
      </trkpt>
      <trkpt lat="43.45795" lon="3.4893">
        <ele>111</ele>
        <time>2012-01-29T13:00:21Z</time>
      </trkpt>
      <trkpt lat="43.45798" lon="3.48928">
        <ele>111</ele>
        <time>2012-01-29T13:00:24Z</time>
      </trkpt>
      <trkpt lat="43.45801" lon="3.48925">
        <ele>111</ele>
        <time>2012-01-29T13:00:27Z</time>
      </trkpt>
      <trkpt lat="43.45804" lon="3.48922">
        <ele>110</ele>
        <time>2012-01-29T13:00:30Z</time>
      </trkpt>
      <trkpt lat="43.45807" lon="3.4892">
        <ele>110</ele>
        <time>2012-01-29T13:00:33Z</time>
      </trkpt>
      <trkpt lat="43.4581" lon="3.48918">
        <ele>111</ele>
        <time>2012-01-29T13:00:36Z</time>
      </trkpt>
      <trkpt lat="43.45813" lon="3.48915">
        <ele>111</ele>
        <time>2012-01-29T13:00:39Z</time>
      </trkpt>
      <trkpt lat="43.45816" lon="3.48912">
        <ele>111</ele>
        <time>2012-01-29T13:00:42Z</time>
      </trkpt>
      <trkpt lat="43.45819" lon="3.4891">
        <ele>111</ele>
        <time>2012-01-29T13:00:45Z</time>
      </trkpt>
      <trkpt lat="43.4582" lon="3.48909">
        <ele>111</ele>
        <time>2012-01-29T13:00:46Z</time>
      </trkpt>
      <trkpt lat="43.45825" lon="3.48905">
        <ele>111</ele>
        <time>2012-01-29T13:00:51Z</time>
      </trkpt>
      <trkpt lat="43.45828" lon="3.48902">
        <ele>112</ele>
        <time>2012-01-29T13:00:54Z</time>
      </trkpt>
      <trkpt lat="43.45831" lon="3.48899">
        <ele>111</ele>
        <time>2012-01-29T13:00:57Z</time>
      </trkpt>
      <trkpt lat="43.45834" lon="3.48897">
        <ele>111</ele>
        <time>2012-01-29T13:01:00Z</time>
      </trkpt>
      <trkpt lat="43.45837" lon="3.48894">
        <ele>111</ele>
        <time>2012-01-29T13:01:03Z</time>
      </trkpt>
      <trkpt lat="43.4584" lon="3.48891">
        <ele>111</ele>
        <time>2012-01-29T13:01:06Z</time>
      </trkpt>
      <trkpt lat="43.45843" lon="3.48888">
        <ele>111</ele>
        <time>2012-01-29T13:01:09Z</time>
      </trkpt>
      <trkpt lat="43.45846" lon="3.48885">
        <ele>111</ele>
        <time>2012-01-29T13:01:12Z</time>
      </trkpt>
      <trkpt lat="43.45849" lon="3.48882">
        <ele>111</ele>
        <time>2012-01-29T13:01:15Z</time>
      </trkpt>
      <trkpt lat="43.45852" lon="3.48879">
        <ele>111</ele>
        <time>2012-01-29T13:01:18Z</time>
      </trkpt>
      <trkpt lat="43.45855" lon="3.48876">
        <ele>110</ele>
        <time>2012-01-29T13:01:21Z</time>
      </trkpt>
      <trkpt lat="43.45858" lon="3.48874">
        <ele>111</ele>
        <time>2012-01-29T13:01:24Z</time>
      </trkpt>
      <trkpt lat="43.45861" lon="3.48871">
        <ele>111</ele>
        <time>2012-01-29T13:01:27Z</time>
      </trkpt>
      <trkpt lat="43.45864" lon="3.48868">
        <ele>110</ele>
        <time>2012-01-29T13:01:30Z</time>
      </trkpt>
      <trkpt lat="43.45866" lon="3.48865">
        <ele>110</ele>
        <time>2012-01-29T13:01:33Z</time>
      </trkpt>
      <trkpt lat="43.45869" lon="3.48862">
        <ele>110</ele>
        <time>2012-01-29T13:01:36Z</time>
      </trkpt>
      <trkpt lat="43.45872" lon="3.48858">
        <ele>111</ele>
        <time>2012-01-29T13:01:39Z</time>
      </trkpt>
      <trkpt lat="43.45875" lon="3.48855">
        <ele>112</ele>
        <time>2012-01-29T13:01:42Z</time>
      </trkpt>
      <trkpt lat="43.45878" lon="3.48852">
        <ele>110</ele>
        <time>2012-01-29T13:01:45Z</time>
      </trkpt>
      <trkpt lat="43.45881" lon="3.48849">
        <ele>110</ele>
        <time>2012-01-29T13:01:48Z</time>
      </trkpt>
      <trkpt lat="43.45882" lon="3.48848">
        <ele>110</ele>
        <time>2012-01-29T13:01:49Z</time>
      </trkpt>
      <trkpt lat="43.45886" lon="3.48844">
        <ele>111</ele>
        <time>2012-01-29T13:01:54Z</time>
      </trkpt>
      <trkpt lat="43.45889" lon="3.48841">
        <ele>111</ele>
        <time>2012-01-29T13:01:57Z</time>
      </trkpt>
      <trkpt lat="43.45892" lon="3.48838">
        <ele>111</ele>
        <time>2012-01-29T13:02:00Z</time>
      </trkpt>
      <trkpt lat="43.45895" lon="3.48835">
        <ele>111</ele>
        <time>2012-01-29T13:02:03Z</time>
      </trkpt>
      <trkpt lat="43.45898" lon="3.48832">
        <ele>111</ele>
        <time>2012-01-29T13:02:06Z</time>
      </trkpt>
      <trkpt lat="43.45901" lon="3.48828">
        <ele>111</ele>
        <time>2012-01-29T13:02:10Z</time>
      </trkpt>
      <trkpt lat="43.45904" lon="3.48825">
        <ele>111</ele>
        <time>2012-01-29T13:02:13Z</time>
      </trkpt>
      <trkpt lat="43.45906" lon="3.48822">
        <ele>111</ele>
        <time>2012-01-29T13:02:16Z</time>
      </trkpt>
      <trkpt lat="43.4591" lon="3.48818">
        <ele>111</ele>
        <time>2012-01-29T13:02:20Z</time>
      </trkpt>
      <trkpt lat="43.45913" lon="3.48814">
        <ele>111</ele>
        <time>2012-01-29T13:02:24Z</time>
      </trkpt>
      <trkpt lat="43.45916" lon="3.4881">
        <ele>111</ele>
        <time>2012-01-29T13:02:28Z</time>
      </trkpt>
      <trkpt lat="43.45919" lon="3.48807">
        <ele>111</ele>
        <time>2012-01-29T13:02:31Z</time>
      </trkpt>
      <trkpt lat="43.45922" lon="3.48804">
        <ele>111</ele>
        <time>2012-01-29T13:02:34Z</time>
      </trkpt>
      <trkpt lat="43.45925" lon="3.488">
        <ele>111</ele>
        <time>2012-01-29T13:02:37Z</time>
      </trkpt>
      <trkpt lat="43.45927" lon="3.48797">
        <ele>110</ele>
        <time>2012-01-29T13:02:40Z</time>
      </trkpt>
      <trkpt lat="43.4593" lon="3.48793">
        <ele>111</ele>
        <time>2012-01-29T13:02:43Z</time>
      </trkpt>
      <trkpt lat="43.45932" lon="3.4879">
        <ele>110</ele>
        <time>2012-01-29T13:02:46Z</time>
      </trkpt>
      <trkpt lat="43.45935" lon="3.48786">
        <ele>109</ele>
        <time>2012-01-29T13:02:49Z</time>
      </trkpt>
      <trkpt lat="43.45936" lon="3.48785">
        <ele>110</ele>
        <time>2012-01-29T13:02:50Z</time>
      </trkpt>
      <trkpt lat="43.4594" lon="3.48778">
        <ele>110</ele>
        <time>2012-01-29T13:02:55Z</time>
      </trkpt>
      <trkpt lat="43.45942" lon="3.48775">
        <ele>110</ele>
        <time>2012-01-29T13:02:58Z</time>
      </trkpt>
      <trkpt lat="43.45944" lon="3.48771">
        <ele>110</ele>
        <time>2012-01-29T13:03:01Z</time>
      </trkpt>
      <trkpt lat="43.45947" lon="3.48768">
        <ele>110</ele>
        <time>2012-01-29T13:03:04Z</time>
      </trkpt>
      <trkpt lat="43.4595" lon="3.48765">
        <ele>110</ele>
        <time>2012-01-29T13:03:08Z</time>
      </trkpt>
      <trkpt lat="43.45954" lon="3.48763">
        <ele>110</ele>
        <time>2012-01-29T13:03:23Z</time>
      </trkpt>
      <trkpt lat="43.45958" lon="3.48762">
        <ele>110</ele>
        <time>2012-01-29T13:03:39Z</time>
      </trkpt>
      <trkpt lat="43.45963" lon="3.48761">
        <ele>109</ele>
        <time>2012-01-29T13:03:43Z</time>
      </trkpt>
      <trkpt lat="43.45966" lon="3.4876">
        <ele>109</ele>
        <time>2012-01-29T13:03:46Z</time>
      </trkpt>
      <trkpt lat="43.4597" lon="3.4876">
        <ele>109</ele>
        <time>2012-01-29T13:03:49Z</time>
      </trkpt>
      <trkpt lat="43.45973" lon="3.48759">
        <ele>109</ele>
        <time>2012-01-29T13:03:52Z</time>
      </trkpt>
      <trkpt lat="43.45974" lon="3.48759">
        <ele>109</ele>
        <time>2012-01-29T13:03:53Z</time>
      </trkpt>
      <trkpt lat="43.4598" lon="3.48759">
        <ele>109</ele>
        <time>2012-01-29T13:03:58Z</time>
      </trkpt>
      <trkpt lat="43.45984" lon="3.48758">
        <ele>109</ele>
        <time>2012-01-29T13:04:01Z</time>
      </trkpt>
      <trkpt lat="43.45988" lon="3.48757">
        <ele>109</ele>
        <time>2012-01-29T13:04:05Z</time>
      </trkpt>
      <trkpt lat="43.45992" lon="3.48757">
        <ele>108</ele>
        <time>2012-01-29T13:04:09Z</time>
      </trkpt>
      <trkpt lat="43.45997" lon="3.48756">
        <ele>109</ele>
        <time>2012-01-29T13:04:19Z</time>
      </trkpt>
      <trkpt lat="43.46001" lon="3.48755">
        <ele>108</ele>
        <time>2012-01-29T13:04:23Z</time>
      </trkpt>
      <trkpt lat="43.46005" lon="3.48755">
        <ele>108</ele>
        <time>2012-01-29T13:04:26Z</time>
      </trkpt>
      <trkpt lat="43.46008" lon="3.48754">
        <ele>107</ele>
        <time>2012-01-29T13:04:29Z</time>
      </trkpt>
      <trkpt lat="43.46012" lon="3.48754">
        <ele>107</ele>
        <time>2012-01-29T13:04:32Z</time>
      </trkpt>
      <trkpt lat="43.46016" lon="3.48754">
        <ele>108</ele>
        <time>2012-01-29T13:04:36Z</time>
      </trkpt>
      <trkpt lat="43.4602" lon="3.48755">
        <ele>108</ele>
        <time>2012-01-29T13:04:39Z</time>
      </trkpt>
      <trkpt lat="43.46024" lon="3.48755">
        <ele>108</ele>
        <time>2012-01-29T13:04:42Z</time>
      </trkpt>
      <trkpt lat="43.46027" lon="3.48755">
        <ele>107</ele>
        <time>2012-01-29T13:04:45Z</time>
      </trkpt>
      <trkpt lat="43.46031" lon="3.48756">
        <ele>107</ele>
        <time>2012-01-29T13:04:48Z</time>
      </trkpt>
      <trkpt lat="43.46035" lon="3.48756">
        <ele>107</ele>
        <time>2012-01-29T13:04:51Z</time>
      </trkpt>
      <trkpt lat="43.46039" lon="3.48757">
        <ele>108</ele>
        <time>2012-01-29T13:04:54Z</time>
      </trkpt>
      <trkpt lat="43.4604" lon="3.48757">
        <ele>107</ele>
        <time>2012-01-29T13:04:55Z</time>
      </trkpt>
      <trkpt lat="43.46046" lon="3.48759">
        <ele>108</ele>
        <time>2012-01-29T13:05:00Z</time>
      </trkpt>
      <trkpt lat="43.4605" lon="3.48759">
        <ele>107</ele>
        <time>2012-01-29T13:05:03Z</time>
      </trkpt>
      <trkpt lat="43.46054" lon="3.4876">
        <ele>107</ele>
        <time>2012-01-29T13:05:06Z</time>
      </trkpt>
      <trkpt lat="43.46058" lon="3.48761">
        <ele>108</ele>
        <time>2012-01-29T13:05:09Z</time>
      </trkpt>
      <trkpt lat="43.46061" lon="3.48762">
        <ele>108</ele>
        <time>2012-01-29T13:05:12Z</time>
      </trkpt>
      <trkpt lat="43.46065" lon="3.48763">
        <ele>107</ele>
        <time>2012-01-29T13:05:15Z</time>
      </trkpt>
      <trkpt lat="43.46069" lon="3.48764">
        <ele>107</ele>
        <time>2012-01-29T13:05:18Z</time>
      </trkpt>
      <trkpt lat="43.46073" lon="3.48765">
        <ele>107</ele>
        <time>2012-01-29T13:05:21Z</time>
      </trkpt>
      <trkpt lat="43.46077" lon="3.48765">
        <ele>107</ele>
        <time>2012-01-29T13:05:25Z</time>
      </trkpt>
      <trkpt lat="43.46081" lon="3.48765">
        <ele>107</ele>
        <time>2012-01-29T13:05:29Z</time>
      </trkpt>
      <trkpt lat="43.46085" lon="3.48765">
        <ele>107</ele>
        <time>2012-01-29T13:05:32Z</time>
      </trkpt>
      <trkpt lat="43.46088" lon="3.48765">
        <ele>107</ele>
        <time>2012-01-29T13:05:35Z</time>
      </trkpt>
      <trkpt lat="43.46092" lon="3.48766">
        <ele>107</ele>
        <time>2012-01-29T13:05:38Z</time>
      </trkpt>
      <trkpt lat="43.46096" lon="3.48765">
        <ele>107</ele>
        <time>2012-01-29T13:05:41Z</time>
      </trkpt>
      <trkpt lat="43.46099" lon="3.48765">
        <ele>107</ele>
        <time>2012-01-29T13:05:44Z</time>
      </trkpt>
      <trkpt lat="43.46103" lon="3.48764">
        <ele>107</ele>
        <time>2012-01-29T13:05:47Z</time>
      </trkpt>
      <trkpt lat="43.46106" lon="3.48764">
        <ele>107</ele>
        <time>2012-01-29T13:05:50Z</time>
      </trkpt>
      <trkpt lat="43.4611" lon="3.48763">
        <ele>107</ele>
        <time>2012-01-29T13:05:53Z</time>
      </trkpt>
      <trkpt lat="43.46113" lon="3.48763">
        <ele>107</ele>
        <time>2012-01-29T13:05:56Z</time>
      </trkpt>
      <trkpt lat="43.46115" lon="3.48762">
        <ele>107</ele>
        <time>2012-01-29T13:05:57Z</time>
      </trkpt>
      <trkpt lat="43.46121" lon="3.48761">
        <ele>107</ele>
        <time>2012-01-29T13:06:02Z</time>
      </trkpt>
      <trkpt lat="43.46124" lon="3.4876">
        <ele>106</ele>
        <time>2012-01-29T13:06:05Z</time>
      </trkpt>
      <trkpt lat="43.46128" lon="3.48759">
        <ele>106</ele>
        <time>2012-01-29T13:06:08Z</time>
      </trkpt>
      <trkpt lat="43.46131" lon="3.48759">
        <ele>107</ele>
        <time>2012-01-29T13:06:11Z</time>
      </trkpt>
      <trkpt lat="43.46135" lon="3.48758">
        <ele>106</ele>
        <time>2012-01-29T13:06:14Z</time>
      </trkpt>
      <trkpt lat="43.46139" lon="3.48757">
        <ele>107</ele>
        <time>2012-01-29T13:06:17Z</time>
      </trkpt>
      <trkpt lat="43.46142" lon="3.48756">
        <ele>107</ele>
        <time>2012-01-29T13:06:20Z</time>
      </trkpt>
      <trkpt lat="43.46146" lon="3.48755">
        <ele>107</ele>
        <time>2012-01-29T13:06:23Z</time>
      </trkpt>
      <trkpt lat="43.46149" lon="3.48755">
        <ele>106</ele>
        <time>2012-01-29T13:06:26Z</time>
      </trkpt>
      <trkpt lat="43.46153" lon="3.48754">
        <ele>106</ele>
        <time>2012-01-29T13:06:29Z</time>
      </trkpt>
      <trkpt lat="43.46156" lon="3.48753">
        <ele>106</ele>
        <time>2012-01-29T13:06:32Z</time>
      </trkpt>
      <trkpt lat="43.4616" lon="3.48752">
        <ele>106</ele>
        <time>2012-01-29T13:06:35Z</time>
      </trkpt>
      <trkpt lat="43.46163" lon="3.48751">
        <ele>107</ele>
        <time>2012-01-29T13:06:38Z</time>
      </trkpt>
      <trkpt lat="43.46167" lon="3.4875">
        <ele>107</ele>
        <time>2012-01-29T13:06:41Z</time>
      </trkpt>
      <trkpt lat="43.4617" lon="3.48749">
        <ele>107</ele>
        <time>2012-01-29T13:06:44Z</time>
      </trkpt>
      <trkpt lat="43.46174" lon="3.48748">
        <ele>107</ele>
        <time>2012-01-29T13:06:47Z</time>
      </trkpt>
      <trkpt lat="43.46177" lon="3.48747">
        <ele>107</ele>
        <time>2012-01-29T13:06:50Z</time>
      </trkpt>
      <trkpt lat="43.46181" lon="3.48746">
        <ele>107</ele>
        <time>2012-01-29T13:06:53Z</time>
      </trkpt>
      <trkpt lat="43.46185" lon="3.48745">
        <ele>107</ele>
        <time>2012-01-29T13:06:56Z</time>
      </trkpt>
      <trkpt lat="43.46188" lon="3.48743">
        <ele>106</ele>
        <time>2012-01-29T13:06:59Z</time>
      </trkpt>
      <trkpt lat="43.46189" lon="3.48742">
        <ele>106</ele>
        <time>2012-01-29T13:07:00Z</time>
      </trkpt>
      <trkpt lat="43.46195" lon="3.48739">
        <ele>106</ele>
        <time>2012-01-29T13:07:05Z</time>
      </trkpt>
      <trkpt lat="43.46199" lon="3.48737">
        <ele>106</ele>
        <time>2012-01-29T13:07:09Z</time>
      </trkpt>
      <trkpt lat="43.46202" lon="3.48735">
        <ele>106</ele>
        <time>2012-01-29T13:07:12Z</time>
      </trkpt>
      <trkpt lat="43.46206" lon="3.48733">
        <ele>106</ele>
        <time>2012-01-29T13:07:16Z</time>
      </trkpt>
      <trkpt lat="43.4621" lon="3.48731">
        <ele>106</ele>
        <time>2012-01-29T13:07:20Z</time>
      </trkpt>
      <trkpt lat="43.46214" lon="3.48728">
        <ele>105</ele>
        <time>2012-01-29T13:07:24Z</time>
      </trkpt>
      <trkpt lat="43.46218" lon="3.48727">
        <ele>105</ele>
        <time>2012-01-29T13:07:27Z</time>
      </trkpt>
      <trkpt lat="43.46221" lon="3.48725">
        <ele>106</ele>
        <time>2012-01-29T13:07:30Z</time>
      </trkpt>
      <trkpt lat="43.46225" lon="3.48724">
        <ele>106</ele>
        <time>2012-01-29T13:07:33Z</time>
      </trkpt>
      <trkpt lat="43.46228" lon="3.48722">
        <ele>106</ele>
        <time>2012-01-29T13:07:36Z</time>
      </trkpt>
      <trkpt lat="43.46232" lon="3.4872">
        <ele>105</ele>
        <time>2012-01-29T13:07:39Z</time>
      </trkpt>
      <trkpt lat="43.46236" lon="3.48718">
        <ele>106</ele>
        <time>2012-01-29T13:07:42Z</time>
      </trkpt>
      <trkpt lat="43.46239" lon="3.48716">
        <ele>106</ele>
        <time>2012-01-29T13:07:45Z</time>
      </trkpt>
      <trkpt lat="43.46243" lon="3.48714">
        <ele>105</ele>
        <time>2012-01-29T13:07:48Z</time>
      </trkpt>
      <trkpt lat="43.46247" lon="3.48712">
        <ele>105</ele>
        <time>2012-01-29T13:07:51Z</time>
      </trkpt>
      <trkpt lat="43.4625" lon="3.4871">
        <ele>106</ele>
        <time>2012-01-29T13:07:54Z</time>
      </trkpt>
      <trkpt lat="43.46254" lon="3.48708">
        <ele>106</ele>
        <time>2012-01-29T13:07:57Z</time>
      </trkpt>
      <trkpt lat="43.46258" lon="3.48706">
        <ele>106</ele>
        <time>2012-01-29T13:08:00Z</time>
      </trkpt>
      <trkpt lat="43.46259" lon="3.48705">
        <ele>106</ele>
        <time>2012-01-29T13:08:01Z</time>
      </trkpt>
      <trkpt lat="43.46265" lon="3.48703">
        <ele>106</ele>
        <time>2012-01-29T13:08:06Z</time>
      </trkpt>
      <trkpt lat="43.46269" lon="3.48701">
        <ele>105</ele>
        <time>2012-01-29T13:08:09Z</time>
      </trkpt>
      <trkpt lat="43.46273" lon="3.48699">
        <ele>105</ele>
        <time>2012-01-29T13:08:12Z</time>
      </trkpt>
      <trkpt lat="43.46276" lon="3.48698">
        <ele>105</ele>
        <time>2012-01-29T13:08:15Z</time>
      </trkpt>
      <trkpt lat="43.4628" lon="3.48696">
        <ele>106</ele>
        <time>2012-01-29T13:08:19Z</time>
      </trkpt>
      <trkpt lat="43.46284" lon="3.48695">
        <ele>106</ele>
        <time>2012-01-29T13:08:22Z</time>
      </trkpt>
      <trkpt lat="43.46287" lon="3.48694">
        <ele>105</ele>
        <time>2012-01-29T13:08:25Z</time>
      </trkpt>
      <trkpt lat="43.46291" lon="3.48692">
        <ele>106</ele>
        <time>2012-01-29T13:08:28Z</time>
      </trkpt>
      <trkpt lat="43.46294" lon="3.48691">
        <ele>106</ele>
        <time>2012-01-29T13:08:31Z</time>
      </trkpt>
      <trkpt lat="43.46298" lon="3.48689">
        <ele>106</ele>
        <time>2012-01-29T13:08:34Z</time>
      </trkpt>
      <trkpt lat="43.46301" lon="3.48688">
        <ele>105</ele>
        <time>2012-01-29T13:08:37Z</time>
      </trkpt>
      <trkpt lat="43.46305" lon="3.48686">
        <ele>105</ele>
        <time>2012-01-29T13:08:40Z</time>
      </trkpt>
      <trkpt lat="43.46309" lon="3.48684">
        <ele>105</ele>
        <time>2012-01-29T13:08:43Z</time>
      </trkpt>
      <trkpt lat="43.46312" lon="3.48683">
        <ele>106</ele>
        <time>2012-01-29T13:08:46Z</time>
      </trkpt>
      <trkpt lat="43.46316" lon="3.48681">
        <ele>107</ele>
        <time>2012-01-29T13:08:49Z</time>
      </trkpt>
      <trkpt lat="43.46319" lon="3.4868">
        <ele>107</ele>
        <time>2012-01-29T13:08:52Z</time>
      </trkpt>
      <trkpt lat="43.46323" lon="3.48678">
        <ele>106</ele>
        <time>2012-01-29T13:08:55Z</time>
      </trkpt>
      <trkpt lat="43.46326" lon="3.48676">
        <ele>106</ele>
        <time>2012-01-29T13:08:58Z</time>
      </trkpt>
      <trkpt lat="43.4633" lon="3.48675">
        <ele>106</ele>
        <time>2012-01-29T13:09:01Z</time>
      </trkpt>
      <trkpt lat="43.46331" lon="3.48674">
        <ele>106</ele>
        <time>2012-01-29T13:09:02Z</time>
      </trkpt>
      <trkpt lat="43.46337" lon="3.48671">
        <ele>106</ele>
        <time>2012-01-29T13:09:07Z</time>
      </trkpt>
      <trkpt lat="43.4634" lon="3.48669">
        <ele>106</ele>
        <time>2012-01-29T13:09:10Z</time>
      </trkpt>
      <trkpt lat="43.46343" lon="3.48667">
        <ele>106</ele>
        <time>2012-01-29T13:09:13Z</time>
      </trkpt>
      <trkpt lat="43.46347" lon="3.48666">
        <ele>105</ele>
        <time>2012-01-29T13:09:16Z</time>
      </trkpt>
      <trkpt lat="43.4635" lon="3.48664">
        <ele>105</ele>
        <time>2012-01-29T13:09:19Z</time>
      </trkpt>
      <trkpt lat="43.46354" lon="3.48663">
        <ele>105</ele>
        <time>2012-01-29T13:09:22Z</time>
      </trkpt>
      <trkpt lat="43.46357" lon="3.48662">
        <ele>106</ele>
        <time>2012-01-29T13:09:25Z</time>
      </trkpt>
      <trkpt lat="43.46361" lon="3.48661">
        <ele>107</ele>
        <time>2012-01-29T13:09:28Z</time>
      </trkpt>
      <trkpt lat="43.46364" lon="3.48661">
        <ele>106</ele>
        <time>2012-01-29T13:09:31Z</time>
      </trkpt>
      <trkpt lat="43.46368" lon="3.4866">
        <ele>106</ele>
        <time>2012-01-29T13:09:34Z</time>
      </trkpt>
      <trkpt lat="43.46372" lon="3.4866">
        <ele>106</ele>
        <time>2012-01-29T13:09:38Z</time>
      </trkpt>
      <trkpt lat="43.46376" lon="3.4866">
        <ele>105</ele>
        <time>2012-01-29T13:09:41Z</time>
      </trkpt>
      <trkpt lat="43.46379" lon="3.48659">
        <ele>107</ele>
        <time>2012-01-29T13:09:44Z</time>
      </trkpt>
      <trkpt lat="43.46383" lon="3.48658">
        <ele>107</ele>
        <time>2012-01-29T13:09:47Z</time>
      </trkpt>
      <trkpt lat="43.46386" lon="3.48658">
        <ele>108</ele>
        <time>2012-01-29T13:09:50Z</time>
      </trkpt>
      <trkpt lat="43.4639" lon="3.48657">
        <ele>108</ele>
        <time>2012-01-29T13:09:53Z</time>
      </trkpt>
      <trkpt lat="43.46393" lon="3.48657">
        <ele>107</ele>
        <time>2012-01-29T13:09:56Z</time>
      </trkpt>
      <trkpt lat="43.46397" lon="3.48658">
        <ele>108</ele>
        <time>2012-01-29T13:09:59Z</time>
      </trkpt>
      <trkpt lat="43.46401" lon="3.48659">
        <ele>109</ele>
        <time>2012-01-29T13:10:03Z</time>
      </trkpt>
      <trkpt lat="43.46402" lon="3.4866">
        <ele>109</ele>
        <time>2012-01-29T13:10:04Z</time>
      </trkpt>
      <trkpt lat="43.46409" lon="3.48662">
        <ele>109</ele>
        <time>2012-01-29T13:10:11Z</time>
      </trkpt>
      <trkpt lat="43.46413" lon="3.48663">
        <ele>108</ele>
        <time>2012-01-29T13:10:15Z</time>
      </trkpt>
      <trkpt lat="43.46417" lon="3.48663">
        <ele>108</ele>
        <time>2012-01-29T13:10:19Z</time>
      </trkpt>
      <trkpt lat="43.46421" lon="3.48664">
        <ele>107</ele>
        <time>2012-01-29T13:10:23Z</time>
      </trkpt>
      <trkpt lat="43.46425" lon="3.48664">
        <ele>108</ele>
        <time>2012-01-29T13:10:27Z</time>
      </trkpt>
      <trkpt lat="43.4643" lon="3.48665">
        <ele>108</ele>
        <time>2012-01-29T13:10:31Z</time>
      </trkpt>
      <trkpt lat="43.46433" lon="3.48665">
        <ele>107</ele>
        <time>2012-01-29T13:10:34Z</time>
      </trkpt>
      <trkpt lat="43.46436" lon="3.48666">
        <ele>107</ele>
        <time>2012-01-29T13:10:37Z</time>
      </trkpt>
      <trkpt lat="43.4644" lon="3.48666">
        <ele>107</ele>
        <time>2012-01-29T13:10:40Z</time>
      </trkpt>
      <trkpt lat="43.46443" lon="3.48666">
        <ele>106</ele>
        <time>2012-01-29T13:10:43Z</time>
      </trkpt>
      <trkpt lat="43.46447" lon="3.48667">
        <ele>106</ele>
        <time>2012-01-29T13:10:46Z</time>
      </trkpt>
      <trkpt lat="43.4645" lon="3.48667">
        <ele>105</ele>
        <time>2012-01-29T13:10:49Z</time>
      </trkpt>
      <trkpt lat="43.46454" lon="3.48668">
        <ele>104</ele>
        <time>2012-01-29T13:10:53Z</time>
      </trkpt>
      <trkpt lat="43.46458" lon="3.48669">
        <ele>103</ele>
        <time>2012-01-29T13:10:57Z</time>
      </trkpt>
      <trkpt lat="43.46462" lon="3.48671">
        <ele>103</ele>
        <time>2012-01-29T13:11:01Z</time>
      </trkpt>
      <trkpt lat="43.46466" lon="3.48673">
        <ele>103</ele>
        <time>2012-01-29T13:11:05Z</time>
      </trkpt>
      <trkpt lat="43.46467" lon="3.48673">
        <ele>103</ele>
        <time>2012-01-29T13:11:06Z</time>
      </trkpt>
      <trkpt lat="43.46473" lon="3.48679">
        <ele>102</ele>
        <time>2012-01-29T13:11:15Z</time>
      </trkpt>
      <trkpt lat="43.46471" lon="3.48684">
        <ele>101</ele>
        <time>2012-01-29T13:11:19Z</time>
      </trkpt>
      <trkpt lat="43.46469" lon="3.48689">
        <ele>102</ele>
        <time>2012-01-29T13:11:29Z</time>
      </trkpt>
      <trkpt lat="43.46472" lon="3.48687">
        <ele>101</ele>
        <time>2012-01-29T13:12:36Z</time>
      </trkpt>
      <trkpt lat="43.46473" lon="3.48686">
        <ele>101</ele>
        <time>2012-01-29T13:12:37Z</time>
      </trkpt>
      <trkpt lat="43.46479" lon="3.48683">
        <ele>101</ele>
        <time>2012-01-29T13:12:42Z</time>
      </trkpt>
      <trkpt lat="43.46483" lon="3.48682">
        <ele>100</ele>
        <time>2012-01-29T13:12:45Z</time>
      </trkpt>
      <trkpt lat="43.46487" lon="3.48681">
        <ele>100</ele>
        <time>2012-01-29T13:12:48Z</time>
      </trkpt>
      <trkpt lat="43.46491" lon="3.4868">
        <ele>100</ele>
        <time>2012-01-29T13:12:51Z</time>
      </trkpt>
      <trkpt lat="43.46494" lon="3.48679">
        <ele>100</ele>
        <time>2012-01-29T13:12:54Z</time>
      </trkpt>
      <trkpt lat="43.46498" lon="3.48678">
        <ele>99</ele>
        <time>2012-01-29T13:12:57Z</time>
      </trkpt>
      <trkpt lat="43.46502" lon="3.48677">
        <ele>99</ele>
        <time>2012-01-29T13:13:00Z</time>
      </trkpt>
      <trkpt lat="43.46506" lon="3.48676">
        <ele>99</ele>
        <time>2012-01-29T13:13:03Z</time>
      </trkpt>
      <trkpt lat="43.4651" lon="3.48674">
        <ele>99</ele>
        <time>2012-01-29T13:13:06Z</time>
      </trkpt>
      <trkpt lat="43.46514" lon="3.48673">
        <ele>99</ele>
        <time>2012-01-29T13:13:09Z</time>
      </trkpt>
      <trkpt lat="43.46518" lon="3.48672">
        <ele>98</ele>
        <time>2012-01-29T13:13:12Z</time>
      </trkpt>
      <trkpt lat="43.46521" lon="3.4867">
        <ele>96</ele>
        <time>2012-01-29T13:13:15Z</time>
      </trkpt>
      <trkpt lat="43.46525" lon="3.48668">
        <ele>96</ele>
        <time>2012-01-29T13:13:18Z</time>
      </trkpt>
      <trkpt lat="43.46528" lon="3.48666">
        <ele>96</ele>
        <time>2012-01-29T13:13:21Z</time>
      </trkpt>
      <trkpt lat="43.46532" lon="3.48665">
        <ele>96</ele>
        <time>2012-01-29T13:13:24Z</time>
      </trkpt>
      <trkpt lat="43.46536" lon="3.48664">
        <ele>94</ele>
        <time>2012-01-29T13:13:27Z</time>
      </trkpt>
      <trkpt lat="43.4654" lon="3.48663">
        <ele>94</ele>
        <time>2012-01-29T13:13:30Z</time>
      </trkpt>
      <trkpt lat="43.46544" lon="3.48662">
        <ele>94</ele>
        <time>2012-01-29T13:13:33Z</time>
      </trkpt>
      <trkpt lat="43.46547" lon="3.48661">
        <ele>93</ele>
        <time>2012-01-29T13:13:36Z</time>
      </trkpt>
      <trkpt lat="43.46551" lon="3.4866">
        <ele>93</ele>
        <time>2012-01-29T13:13:39Z</time>
      </trkpt>
      <trkpt lat="43.46552" lon="3.4866">
        <ele>93</ele>
        <time>2012-01-29T13:13:40Z</time>
      </trkpt>
      <trkpt lat="43.46559" lon="3.48658">
        <ele>92</ele>
        <time>2012-01-29T13:13:45Z</time>
      </trkpt>
      <trkpt lat="43.46562" lon="3.48657">
        <ele>92</ele>
        <time>2012-01-29T13:13:48Z</time>
      </trkpt>
      <trkpt lat="43.46566" lon="3.48656">
        <ele>92</ele>
        <time>2012-01-29T13:13:51Z</time>
      </trkpt>
      <trkpt lat="43.4657" lon="3.48655">
        <ele>92</ele>
        <time>2012-01-29T13:13:55Z</time>
      </trkpt>
      <trkpt lat="43.46574" lon="3.48653">
        <ele>91</ele>
        <time>2012-01-29T13:14:00Z</time>
      </trkpt>
      <trkpt lat="43.46578" lon="3.48652">
        <ele>90</ele>
        <time>2012-01-29T13:14:04Z</time>
      </trkpt>
      <trkpt lat="43.46582" lon="3.4865">
        <ele>89</ele>
        <time>2012-01-29T13:14:08Z</time>
      </trkpt>
      <trkpt lat="43.46586" lon="3.48649">
        <ele>90</ele>
        <time>2012-01-29T13:14:11Z</time>
      </trkpt>
      <trkpt lat="43.4659" lon="3.48648">
        <ele>90</ele>
        <time>2012-01-29T13:14:15Z</time>
      </trkpt>
      <trkpt lat="43.46593" lon="3.48647">
        <ele>90</ele>
        <time>2012-01-29T13:14:18Z</time>
      </trkpt>
      <trkpt lat="43.46597" lon="3.48646">
        <ele>89</ele>
        <time>2012-01-29T13:14:21Z</time>
      </trkpt>
      <trkpt lat="43.466" lon="3.48645">
        <ele>89</ele>
        <time>2012-01-29T13:14:24Z</time>
      </trkpt>
      <trkpt lat="43.46604" lon="3.48644">
        <ele>89</ele>
        <time>2012-01-29T13:14:27Z</time>
      </trkpt>
      <trkpt lat="43.46608" lon="3.48643">
        <ele>89</ele>
        <time>2012-01-29T13:14:31Z</time>
      </trkpt>
      <trkpt lat="43.46612" lon="3.48641">
        <ele>89</ele>
        <time>2012-01-29T13:14:35Z</time>
      </trkpt>
      <trkpt lat="43.46615" lon="3.4864">
        <ele>89</ele>
        <time>2012-01-29T13:14:38Z</time>
      </trkpt>
      <trkpt lat="43.46619" lon="3.48639">
        <ele>88</ele>
        <time>2012-01-29T13:14:41Z</time>
      </trkpt>
      <trkpt lat="43.4662" lon="3.48638">
        <ele>88</ele>
        <time>2012-01-29T13:14:42Z</time>
      </trkpt>
      <trkpt lat="43.46626" lon="3.48637">
        <ele>88</ele>
        <time>2012-01-29T13:14:47Z</time>
      </trkpt>
      <trkpt lat="43.46629" lon="3.48637">
        <ele>88</ele>
        <time>2012-01-29T13:14:50Z</time>
      </trkpt>
      <trkpt lat="43.46633" lon="3.48636">
        <ele>88</ele>
        <time>2012-01-29T13:14:54Z</time>
      </trkpt>
      <trkpt lat="43.46638" lon="3.48635">
        <ele>88</ele>
        <time>2012-01-29T13:15:00Z</time>
      </trkpt>
      <trkpt lat="43.46641" lon="3.48635">
        <ele>89</ele>
        <time>2012-01-29T13:15:04Z</time>
      </trkpt>
      <trkpt lat="43.46645" lon="3.48633">
        <ele>87</ele>
        <time>2012-01-29T13:15:08Z</time>
      </trkpt>
      <trkpt lat="43.46649" lon="3.4863">
        <ele>87</ele>
        <time>2012-01-29T13:15:13Z</time>
      </trkpt>
      <trkpt lat="43.46653" lon="3.48629">
        <ele>87</ele>
        <time>2012-01-29T13:15:19Z</time>
      </trkpt>
      <trkpt lat="43.46657" lon="3.48632">
        <ele>88</ele>
        <time>2012-01-29T13:17:41Z</time>
      </trkpt>
      <trkpt lat="43.46657" lon="3.48632">
        <ele>88</ele>
        <time>2012-01-29T13:17:42Z</time>
      </trkpt>
      <trkpt lat="43.46666" lon="3.48633">
        <ele>87</ele>
        <time>2012-01-29T13:18:28Z</time>
      </trkpt>
      <trkpt lat="43.4667" lon="3.48634">
        <ele>88</ele>
        <time>2012-01-29T13:18:37Z</time>
      </trkpt>
      <trkpt lat="43.46674" lon="3.48633">
        <ele>88</ele>
        <time>2012-01-29T13:18:42Z</time>
      </trkpt>
      <trkpt lat="43.46674" lon="3.48633">
        <ele>88</ele>
        <time>2012-01-29T13:18:43Z</time>
      </trkpt>
      <trkpt lat="43.46682" lon="3.48632">
        <ele>88</ele>
        <time>2012-01-29T13:18:52Z</time>
      </trkpt>
      <trkpt lat="43.46686" lon="3.4863">
        <ele>89</ele>
        <time>2012-01-29T13:18:56Z</time>
      </trkpt>
      <trkpt lat="43.46689" lon="3.48629">
        <ele>89</ele>
        <time>2012-01-29T13:18:59Z</time>
      </trkpt>
      <trkpt lat="43.46693" lon="3.48628">
        <ele>89</ele>
        <time>2012-01-29T13:19:02Z</time>
      </trkpt>
      <trkpt lat="43.46696" lon="3.48627">
        <ele>89</ele>
        <time>2012-01-29T13:19:05Z</time>
      </trkpt>
      <trkpt lat="43.467" lon="3.48625">
        <ele>89</ele>
        <time>2012-01-29T13:19:08Z</time>
      </trkpt>
      <trkpt lat="43.46703" lon="3.48624">
        <ele>90</ele>
        <time>2012-01-29T13:19:11Z</time>
      </trkpt>
      <trkpt lat="43.46707" lon="3.48622">
        <ele>89</ele>
        <time>2012-01-29T13:19:14Z</time>
      </trkpt>
      <trkpt lat="43.4671" lon="3.4862">
        <ele>88</ele>
        <time>2012-01-29T13:19:17Z</time>
      </trkpt>
      <trkpt lat="43.46715" lon="3.48618">
        <ele>88</ele>
        <time>2012-01-29T13:19:21Z</time>
      </trkpt>
      <trkpt lat="43.46718" lon="3.48617">
        <ele>88</ele>
        <time>2012-01-29T13:19:24Z</time>
      </trkpt>
      <trkpt lat="43.46722" lon="3.48616">
        <ele>87</ele>
        <time>2012-01-29T13:19:27Z</time>
      </trkpt>
      <trkpt lat="43.46726" lon="3.48615">
        <ele>87</ele>
        <time>2012-01-29T13:19:31Z</time>
      </trkpt>
      <trkpt lat="43.4673" lon="3.48614">
        <ele>88</ele>
        <time>2012-01-29T13:19:35Z</time>
      </trkpt>
      <trkpt lat="43.46733" lon="3.48614">
        <ele>88</ele>
        <time>2012-01-29T13:19:38Z</time>
      </trkpt>
      <trkpt lat="43.46738" lon="3.48613">
        <ele>87</ele>
        <time>2012-01-29T13:19:42Z</time>
      </trkpt>
      <trkpt lat="43.46741" lon="3.48614">
        <ele>87</ele>
        <time>2012-01-29T13:19:45Z</time>
      </trkpt>
      <trkpt lat="43.46742" lon="3.48614">
        <ele>87</ele>
        <time>2012-01-29T13:19:46Z</time>
      </trkpt>
      <trkpt lat="43.46748" lon="3.48615">
        <ele>87</ele>
        <time>2012-01-29T13:19:51Z</time>
      </trkpt>
      <trkpt lat="43.46751" lon="3.48616">
        <ele>87</ele>
        <time>2012-01-29T13:19:54Z</time>
      </trkpt>
      <trkpt lat="43.46755" lon="3.48618">
        <ele>87</ele>
        <time>2012-01-29T13:19:57Z</time>
      </trkpt>
      <trkpt lat="43.46758" lon="3.48619">
        <ele>86</ele>
        <time>2012-01-29T13:20:00Z</time>
      </trkpt>
      <trkpt lat="43.46761" lon="3.48621">
        <ele>86</ele>
        <time>2012-01-29T13:20:03Z</time>
      </trkpt>
      <trkpt lat="43.46765" lon="3.48622">
        <ele>86</ele>
        <time>2012-01-29T13:20:06Z</time>
      </trkpt>
      <trkpt lat="43.46769" lon="3.48624">
        <ele>86</ele>
        <time>2012-01-29T13:20:09Z</time>
      </trkpt>
      <trkpt lat="43.46772" lon="3.48625">
        <ele>86</ele>
        <time>2012-01-29T13:20:12Z</time>
      </trkpt>
      <trkpt lat="43.46776" lon="3.48627">
        <ele>85</ele>
        <time>2012-01-29T13:20:15Z</time>
      </trkpt>
      <trkpt lat="43.4678" lon="3.48629">
        <ele>85</ele>
        <time>2012-01-29T13:20:18Z</time>
      </trkpt>
      <trkpt lat="43.46784" lon="3.48631">
        <ele>85</ele>
        <time>2012-01-29T13:20:21Z</time>
      </trkpt>
      <trkpt lat="43.46787" lon="3.48632">
        <ele>86</ele>
        <time>2012-01-29T13:20:24Z</time>
      </trkpt>
      <trkpt lat="43.46791" lon="3.48634">
        <ele>85</ele>
        <time>2012-01-29T13:20:27Z</time>
      </trkpt>
      <trkpt lat="43.46795" lon="3.48636">
        <ele>85</ele>
        <time>2012-01-29T13:20:30Z</time>
      </trkpt>
      <trkpt lat="43.46799" lon="3.48637">
        <ele>86</ele>
        <time>2012-01-29T13:20:33Z</time>
      </trkpt>
      <trkpt lat="43.46803" lon="3.48639">
        <ele>85</ele>
        <time>2012-01-29T13:20:37Z</time>
      </trkpt>
      <trkpt lat="43.46807" lon="3.4864">
        <ele>84</ele>
        <time>2012-01-29T13:20:40Z</time>
      </trkpt>
      <trkpt lat="43.46811" lon="3.48642">
        <ele>84</ele>
        <time>2012-01-29T13:20:44Z</time>
      </trkpt>
      <trkpt lat="43.46815" lon="3.48644">
        <ele>84</ele>
        <time>2012-01-29T13:20:48Z</time>
      </trkpt>
      <trkpt lat="43.46816" lon="3.48644">
        <ele>84</ele>
        <time>2012-01-29T13:20:49Z</time>
      </trkpt>
      <trkpt lat="43.46822" lon="3.48646">
        <ele>84</ele>
        <time>2012-01-29T13:20:54Z</time>
      </trkpt>
      <trkpt lat="43.46826" lon="3.48648">
        <ele>83</ele>
        <time>2012-01-29T13:20:57Z</time>
      </trkpt>
      <trkpt lat="43.46829" lon="3.48649">
        <ele>83</ele>
        <time>2012-01-29T13:21:00Z</time>
      </trkpt>
      <trkpt lat="43.46833" lon="3.48651">
        <ele>82</ele>
        <time>2012-01-29T13:21:03Z</time>
      </trkpt>
      <trkpt lat="43.46837" lon="3.48652">
        <ele>82</ele>
        <time>2012-01-29T13:21:06Z</time>
      </trkpt>
      <trkpt lat="43.4684" lon="3.48653">
        <ele>82</ele>
        <time>2012-01-29T13:21:09Z</time>
      </trkpt>
      <trkpt lat="43.46845" lon="3.48654">
        <ele>80</ele>
        <time>2012-01-29T13:21:13Z</time>
      </trkpt>
      <trkpt lat="43.46849" lon="3.48656">
        <ele>80</ele>
        <time>2012-01-29T13:21:16Z</time>
      </trkpt>
      <trkpt lat="43.46852" lon="3.48656">
        <ele>81</ele>
        <time>2012-01-29T13:21:19Z</time>
      </trkpt>
      <trkpt lat="43.46856" lon="3.48657">
        <ele>80</ele>
        <time>2012-01-29T13:21:22Z</time>
      </trkpt>
      <trkpt lat="43.4686" lon="3.48658">
        <ele>80</ele>
        <time>2012-01-29T13:21:25Z</time>
      </trkpt>
      <trkpt lat="43.46864" lon="3.4866">
        <ele>80</ele>
        <time>2012-01-29T13:21:28Z</time>
      </trkpt>
      <trkpt lat="43.46867" lon="3.48661">
        <ele>80</ele>
        <time>2012-01-29T13:21:31Z</time>
      </trkpt>
      <trkpt lat="43.46871" lon="3.48662">
        <ele>80</ele>
        <time>2012-01-29T13:21:34Z</time>
      </trkpt>
      <trkpt lat="43.46874" lon="3.48663">
        <ele>80</ele>
        <time>2012-01-29T13:21:37Z</time>
      </trkpt>
      <trkpt lat="43.46878" lon="3.48664">
        <ele>80</ele>
        <time>2012-01-29T13:21:40Z</time>
      </trkpt>
      <trkpt lat="43.46881" lon="3.48665">
        <ele>80</ele>
        <time>2012-01-29T13:21:43Z</time>
      </trkpt>
      <trkpt lat="43.46885" lon="3.48666">
        <ele>79</ele>
        <time>2012-01-29T13:21:46Z</time>
      </trkpt>
      <trkpt lat="43.46889" lon="3.48665">
        <ele>79</ele>
        <time>2012-01-29T13:21:50Z</time>
      </trkpt>
      <trkpt lat="43.4689" lon="3.48666">
        <ele>79</ele>
        <time>2012-01-29T13:21:51Z</time>
      </trkpt>
      <trkpt lat="43.46896" lon="3.48666">
        <ele>79</ele>
        <time>2012-01-29T13:21:56Z</time>
      </trkpt>
      <trkpt lat="43.469" lon="3.48666">
        <ele>78</ele>
        <time>2012-01-29T13:21:59Z</time>
      </trkpt>
      <trkpt lat="43.46903" lon="3.48666">
        <ele>78</ele>
        <time>2012-01-29T13:22:02Z</time>
      </trkpt>
      <trkpt lat="43.46907" lon="3.48666">
        <ele>78</ele>
        <time>2012-01-29T13:22:05Z</time>
      </trkpt>
      <trkpt lat="43.46911" lon="3.48667">
        <ele>78</ele>
        <time>2012-01-29T13:22:08Z</time>
      </trkpt>
      <trkpt lat="43.46914" lon="3.48667">
        <ele>78</ele>
        <time>2012-01-29T13:22:11Z</time>
      </trkpt>
      <trkpt lat="43.46918" lon="3.48667">
        <ele>78</ele>
        <time>2012-01-29T13:22:14Z</time>
      </trkpt>
      <trkpt lat="43.46921" lon="3.48668">
        <ele>78</ele>
        <time>2012-01-29T13:22:17Z</time>
      </trkpt>
      <trkpt lat="43.46925" lon="3.48668">
        <ele>78</ele>
        <time>2012-01-29T13:22:20Z</time>
      </trkpt>
      <trkpt lat="43.46929" lon="3.48668">
        <ele>78</ele>
        <time>2012-01-29T13:22:23Z</time>
      </trkpt>
      <trkpt lat="43.46932" lon="3.48669">
        <ele>78</ele>
        <time>2012-01-29T13:22:26Z</time>
      </trkpt>
      <trkpt lat="43.46936" lon="3.48669">
        <ele>78</ele>
        <time>2012-01-29T13:22:29Z</time>
      </trkpt>
      <trkpt lat="43.4694" lon="3.48669">
        <ele>78</ele>
        <time>2012-01-29T13:22:32Z</time>
      </trkpt>
      <trkpt lat="43.46943" lon="3.48669">
        <ele>78</ele>
        <time>2012-01-29T13:22:35Z</time>
      </trkpt>
      <trkpt lat="43.46948" lon="3.48669">
        <ele>78</ele>
        <time>2012-01-29T13:22:39Z</time>
      </trkpt>
      <trkpt lat="43.46952" lon="3.48669">
        <ele>78</ele>
        <time>2012-01-29T13:22:43Z</time>
      </trkpt>
      <trkpt lat="43.46957" lon="3.48669">
        <ele>79</ele>
        <time>2012-01-29T13:22:47Z</time>
      </trkpt>
      <trkpt lat="43.4696" lon="3.48669">
        <ele>78</ele>
        <time>2012-01-29T13:22:50Z</time>
      </trkpt>
      <trkpt lat="43.46965" lon="3.48669">
        <ele>77</ele>
        <time>2012-01-29T13:22:54Z</time>
      </trkpt>
      <trkpt lat="43.46966" lon="3.48669">
        <ele>77</ele>
        <time>2012-01-29T13:22:55Z</time>
      </trkpt>
      <trkpt lat="43.46972" lon="3.48669">
        <ele>78</ele>
        <time>2012-01-29T13:23:01Z</time>
      </trkpt>
      <trkpt lat="43.46976" lon="3.48669">
        <ele>78</ele>
        <time>2012-01-29T13:23:05Z</time>
      </trkpt>
      <trkpt lat="43.4698" lon="3.48668">
        <ele>78</ele>
        <time>2012-01-29T13:23:08Z</time>
      </trkpt>
      <trkpt lat="43.46983" lon="3.48668">
        <ele>77</ele>
        <time>2012-01-29T13:23:11Z</time>
      </trkpt>
      <trkpt lat="43.46988" lon="3.48668">
        <ele>77</ele>
        <time>2012-01-29T13:23:15Z</time>
      </trkpt>
      <trkpt lat="43.46992" lon="3.48668">
        <ele>77</ele>
        <time>2012-01-29T13:23:19Z</time>
      </trkpt>
      <trkpt lat="43.46996" lon="3.48668">
        <ele>77</ele>
        <time>2012-01-29T13:23:22Z</time>
      </trkpt>
      <trkpt lat="43.47" lon="3.48668">
        <ele>77</ele>
        <time>2012-01-29T13:23:25Z</time>
      </trkpt>
      <trkpt lat="43.47004" lon="3.48667">
        <ele>76</ele>
        <time>2012-01-29T13:23:28Z</time>
      </trkpt>
      <trkpt lat="43.47008" lon="3.48667">
        <ele>77</ele>
        <time>2012-01-29T13:23:31Z</time>
      </trkpt>
      <trkpt lat="43.47011" lon="3.48666">
        <ele>76</ele>
        <time>2012-01-29T13:23:34Z</time>
      </trkpt>
      <trkpt lat="43.47015" lon="3.48665">
        <ele>77</ele>
        <time>2012-01-29T13:23:37Z</time>
      </trkpt>
      <trkpt lat="43.47019" lon="3.48664">
        <ele>76</ele>
        <time>2012-01-29T13:23:41Z</time>
      </trkpt>
      <trkpt lat="43.47023" lon="3.48663">
        <ele>75</ele>
        <time>2012-01-29T13:23:44Z</time>
      </trkpt>
      <trkpt lat="43.47027" lon="3.48662">
        <ele>75</ele>
        <time>2012-01-29T13:23:47Z</time>
      </trkpt>
      <trkpt lat="43.47031" lon="3.48662">
        <ele>75</ele>
        <time>2012-01-29T13:23:50Z</time>
      </trkpt>
      <trkpt lat="43.47035" lon="3.48661">
        <ele>75</ele>
        <time>2012-01-29T13:23:53Z</time>
      </trkpt>
      <trkpt lat="43.47039" lon="3.4866">
        <ele>74</ele>
        <time>2012-01-29T13:23:56Z</time>
      </trkpt>
      <trkpt lat="43.47041" lon="3.48659">
        <ele>73</ele>
        <time>2012-01-29T13:23:57Z</time>
      </trkpt>
      <trkpt lat="43.47047" lon="3.48658">
        <ele>74</ele>
        <time>2012-01-29T13:24:02Z</time>
      </trkpt>
      <trkpt lat="43.47051" lon="3.48657">
        <ele>74</ele>
        <time>2012-01-29T13:24:05Z</time>
      </trkpt>
      <trkpt lat="43.47056" lon="3.48656">
        <ele>73</ele>
        <time>2012-01-29T13:24:08Z</time>
      </trkpt>
      <trkpt lat="43.47059" lon="3.48656">
        <ele>73</ele>
        <time>2012-01-29T13:24:10Z</time>
      </trkpt>
      <trkpt lat="43.47063" lon="3.48655">
        <ele>73</ele>
        <time>2012-01-29T13:24:13Z</time>
      </trkpt>
      <trkpt lat="43.47067" lon="3.48654">
        <ele>73</ele>
        <time>2012-01-29T13:24:16Z</time>
      </trkpt>
      <trkpt lat="43.47071" lon="3.48654">
        <ele>72</ele>
        <time>2012-01-29T13:24:19Z</time>
      </trkpt>
      <trkpt lat="43.47075" lon="3.48653">
        <ele>72</ele>
        <time>2012-01-29T13:24:22Z</time>
      </trkpt>
      <trkpt lat="43.47079" lon="3.48653">
        <ele>73</ele>
        <time>2012-01-29T13:24:25Z</time>
      </trkpt>
      <trkpt lat="43.47083" lon="3.48652">
        <ele>72</ele>
        <time>2012-01-29T13:24:28Z</time>
      </trkpt>
      <trkpt lat="43.47087" lon="3.48651">
        <ele>72</ele>
        <time>2012-01-29T13:24:31Z</time>
      </trkpt>
      <trkpt lat="43.47091" lon="3.48651">
        <ele>72</ele>
        <time>2012-01-29T13:24:34Z</time>
      </trkpt>
      <trkpt lat="43.47094" lon="3.4865">
        <ele>72</ele>
        <time>2012-01-29T13:24:38Z</time>
      </trkpt>
      <trkpt lat="43.47098" lon="3.48651">
        <ele>71</ele>
        <time>2012-01-29T13:24:42Z</time>
      </trkpt>
      <trkpt lat="43.47102" lon="3.48651">
        <ele>71</ele>
        <time>2012-01-29T13:24:46Z</time>
      </trkpt>
      <trkpt lat="43.47106" lon="3.4865">
        <ele>71</ele>
        <time>2012-01-29T13:24:50Z</time>
      </trkpt>
      <trkpt lat="43.4711" lon="3.48649">
        <ele>70</ele>
        <time>2012-01-29T13:24:54Z</time>
      </trkpt>
      <trkpt lat="43.47114" lon="3.48648">
        <ele>69</ele>
        <time>2012-01-29T13:24:58Z</time>
      </trkpt>
      <trkpt lat="43.47115" lon="3.48648">
        <ele>69</ele>
        <time>2012-01-29T13:24:59Z</time>
      </trkpt>
      <trkpt lat="43.47123" lon="3.48648">
        <ele>69</ele>
        <time>2012-01-29T13:25:15Z</time>
      </trkpt>
      <trkpt lat="43.47127" lon="3.48645">
        <ele>70</ele>
        <time>2012-01-29T13:25:31Z</time>
      </trkpt>
      <trkpt lat="43.4713" lon="3.48644">
        <ele>69</ele>
        <time>2012-01-29T13:25:37Z</time>
      </trkpt>
      <trkpt lat="43.47134" lon="3.48643">
        <ele>69</ele>
        <time>2012-01-29T13:25:42Z</time>
      </trkpt>
      <trkpt lat="43.47138" lon="3.48643">
        <ele>68</ele>
        <time>2012-01-29T13:25:46Z</time>
      </trkpt>
      <trkpt lat="43.47142" lon="3.48642">
        <ele>68</ele>
        <time>2012-01-29T13:25:50Z</time>
      </trkpt>
      <trkpt lat="43.47145" lon="3.48642">
        <ele>68</ele>
        <time>2012-01-29T13:25:53Z</time>
      </trkpt>
      <trkpt lat="43.4715" lon="3.48642">
        <ele>69</ele>
        <time>2012-01-29T13:25:57Z</time>
      </trkpt>
      <trkpt lat="43.47154" lon="3.48641">
        <ele>68</ele>
        <time>2012-01-29T13:26:01Z</time>
      </trkpt>
      <trkpt lat="43.47155" lon="3.48641">
        <ele>68</ele>
        <time>2012-01-29T13:26:02Z</time>
      </trkpt>
      <trkpt lat="43.47161" lon="3.48641">
        <ele>68</ele>
        <time>2012-01-29T13:26:07Z</time>
      </trkpt>
      <trkpt lat="43.47164" lon="3.4864">
        <ele>69</ele>
        <time>2012-01-29T13:26:10Z</time>
      </trkpt>
      <trkpt lat="43.47168" lon="3.4864">
        <ele>68</ele>
        <time>2012-01-29T13:26:13Z</time>
      </trkpt>
      <trkpt lat="43.47171" lon="3.4864">
        <ele>68</ele>
        <time>2012-01-29T13:26:16Z</time>
      </trkpt>
      <trkpt lat="43.47175" lon="3.48638">
        <ele>68</ele>
        <time>2012-01-29T13:26:19Z</time>
      </trkpt>
      <trkpt lat="43.47178" lon="3.48637">
        <ele>67</ele>
        <time>2012-01-29T13:26:22Z</time>
      </trkpt>
      <trkpt lat="43.47182" lon="3.48636">
        <ele>67</ele>
        <time>2012-01-29T13:26:25Z</time>
      </trkpt>
      <trkpt lat="43.47185" lon="3.48635">
        <ele>67</ele>
        <time>2012-01-29T13:26:28Z</time>
      </trkpt>
      <trkpt lat="43.47189" lon="3.48634">
        <ele>66</ele>
        <time>2012-01-29T13:26:31Z</time>
      </trkpt>
      <trkpt lat="43.47192" lon="3.48634">
        <ele>67</ele>
        <time>2012-01-29T13:26:34Z</time>
      </trkpt>
      <trkpt lat="43.47196" lon="3.48633">
        <ele>67</ele>
        <time>2012-01-29T13:26:37Z</time>
      </trkpt>
      <trkpt lat="43.472" lon="3.48632">
        <ele>67</ele>
        <time>2012-01-29T13:26:40Z</time>
      </trkpt>
      <trkpt lat="43.47203" lon="3.48632">
        <ele>67</ele>
        <time>2012-01-29T13:26:43Z</time>
      </trkpt>
      <trkpt lat="43.47207" lon="3.48631">
        <ele>66</ele>
        <time>2012-01-29T13:26:47Z</time>
      </trkpt>
      <trkpt lat="43.47211" lon="3.48631">
        <ele>66</ele>
        <time>2012-01-29T13:26:51Z</time>
      </trkpt>
      <trkpt lat="43.47215" lon="3.48631">
        <ele>66</ele>
        <time>2012-01-29T13:26:55Z</time>
      </trkpt>
      <trkpt lat="43.47219" lon="3.4863">
        <ele>66</ele>
        <time>2012-01-29T13:26:59Z</time>
      </trkpt>
      <trkpt lat="43.47223" lon="3.48629">
        <ele>65</ele>
        <time>2012-01-29T13:27:02Z</time>
      </trkpt>
      <trkpt lat="43.47224" lon="3.48629">
        <ele>65</ele>
        <time>2012-01-29T13:27:03Z</time>
      </trkpt>
      <trkpt lat="43.47231" lon="3.48628">
        <ele>66</ele>
        <time>2012-01-29T13:27:08Z</time>
      </trkpt>
      <trkpt lat="43.47235" lon="3.48628">
        <ele>65</ele>
        <time>2012-01-29T13:27:11Z</time>
      </trkpt>
      <trkpt lat="43.4724" lon="3.48628">
        <ele>66</ele>
        <time>2012-01-29T13:27:14Z</time>
      </trkpt>
      <trkpt lat="43.47244" lon="3.48627">
        <ele>66</ele>
        <time>2012-01-29T13:27:17Z</time>
      </trkpt>
      <trkpt lat="43.47247" lon="3.48627">
        <ele>66</ele>
        <time>2012-01-29T13:27:20Z</time>
      </trkpt>
      <trkpt lat="43.47251" lon="3.48627">
        <ele>66</ele>
        <time>2012-01-29T13:27:23Z</time>
      </trkpt>
      <trkpt lat="43.47255" lon="3.48627">
        <ele>66</ele>
        <time>2012-01-29T13:27:26Z</time>
      </trkpt>
      <trkpt lat="43.47259" lon="3.48627">
        <ele>66</ele>
        <time>2012-01-29T13:27:29Z</time>
      </trkpt>
      <trkpt lat="43.47263" lon="3.48627">
        <ele>66</ele>
        <time>2012-01-29T13:27:32Z</time>
      </trkpt>
      <trkpt lat="43.47267" lon="3.48627">
        <ele>66</ele>
        <time>2012-01-29T13:27:35Z</time>
      </trkpt>
      <trkpt lat="43.47271" lon="3.48627">
        <ele>66</ele>
        <time>2012-01-29T13:27:38Z</time>
      </trkpt>
      <trkpt lat="43.47275" lon="3.48627">
        <ele>66</ele>
        <time>2012-01-29T13:27:41Z</time>
      </trkpt>
      <trkpt lat="43.47279" lon="3.48627">
        <ele>66</ele>
        <time>2012-01-29T13:27:44Z</time>
      </trkpt>
      <trkpt lat="43.47283" lon="3.48628">
        <ele>66</ele>
        <time>2012-01-29T13:27:47Z</time>
      </trkpt>
      <trkpt lat="43.47287" lon="3.48628">
        <ele>66</ele>
        <time>2012-01-29T13:27:50Z</time>
      </trkpt>
      <trkpt lat="43.47291" lon="3.48628">
        <ele>65</ele>
        <time>2012-01-29T13:27:53Z</time>
      </trkpt>
      <trkpt lat="43.47295" lon="3.48628">
        <ele>66</ele>
        <time>2012-01-29T13:27:56Z</time>
      </trkpt>
      <trkpt lat="43.47298" lon="3.48628">
        <ele>66</ele>
        <time>2012-01-29T13:27:59Z</time>
      </trkpt>
      <trkpt lat="43.47302" lon="3.48628">
        <ele>67</ele>
        <time>2012-01-29T13:28:02Z</time>
      </trkpt>
      <trkpt lat="43.47306" lon="3.48629">
        <ele>67</ele>
        <time>2012-01-29T13:28:05Z</time>
      </trkpt>
      <trkpt lat="43.47307" lon="3.48629">
        <ele>67</ele>
        <time>2012-01-29T13:28:06Z</time>
      </trkpt>
      <trkpt lat="43.47314" lon="3.4863">
        <ele>66</ele>
        <time>2012-01-29T13:28:11Z</time>
      </trkpt>
      <trkpt lat="43.47318" lon="3.4863">
        <ele>67</ele>
        <time>2012-01-29T13:28:14Z</time>
      </trkpt>
      <trkpt lat="43.47321" lon="3.48631">
        <ele>67</ele>
        <time>2012-01-29T13:28:17Z</time>
      </trkpt>
      <trkpt lat="43.47325" lon="3.48632">
        <ele>67</ele>
        <time>2012-01-29T13:28:20Z</time>
      </trkpt>
      <trkpt lat="43.47329" lon="3.48632">
        <ele>67</ele>
        <time>2012-01-29T13:28:23Z</time>
      </trkpt>
      <trkpt lat="43.47333" lon="3.48633">
        <ele>68</ele>
        <time>2012-01-29T13:28:26Z</time>
      </trkpt>
      <trkpt lat="43.47336" lon="3.48634">
        <ele>68</ele>
        <time>2012-01-29T13:28:29Z</time>
      </trkpt>
      <trkpt lat="43.4734" lon="3.48634">
        <ele>68</ele>
        <time>2012-01-29T13:28:32Z</time>
      </trkpt>
      <trkpt lat="43.47344" lon="3.48635">
        <ele>67</ele>
        <time>2012-01-29T13:28:35Z</time>
      </trkpt>
      <trkpt lat="43.47348" lon="3.48635">
        <ele>67</ele>
        <time>2012-01-29T13:28:38Z</time>
      </trkpt>
      <trkpt lat="43.47352" lon="3.48636">
        <ele>67</ele>
        <time>2012-01-29T13:28:41Z</time>
      </trkpt>
      <trkpt lat="43.47356" lon="3.48637">
        <ele>68</ele>
        <time>2012-01-29T13:28:44Z</time>
      </trkpt>
      <trkpt lat="43.47359" lon="3.48637">
        <ele>68</ele>
        <time>2012-01-29T13:28:47Z</time>
      </trkpt>
      <trkpt lat="43.47363" lon="3.48638">
        <ele>68</ele>
        <time>2012-01-29T13:28:50Z</time>
      </trkpt>
      <trkpt lat="43.47367" lon="3.48638">
        <ele>68</ele>
        <time>2012-01-29T13:28:53Z</time>
      </trkpt>
      <trkpt lat="43.47371" lon="3.48638">
        <ele>68</ele>
        <time>2012-01-29T13:28:56Z</time>
      </trkpt>
      <trkpt lat="43.47374" lon="3.48639">
        <ele>68</ele>
        <time>2012-01-29T13:28:59Z</time>
      </trkpt>
      <trkpt lat="43.47378" lon="3.48639">
        <ele>68</ele>
        <time>2012-01-29T13:29:02Z</time>
      </trkpt>
      <trkpt lat="43.47382" lon="3.4864">
        <ele>69</ele>
        <time>2012-01-29T13:29:05Z</time>
      </trkpt>
      <trkpt lat="43.47386" lon="3.4864">
        <ele>69</ele>
        <time>2012-01-29T13:29:08Z</time>
      </trkpt>
      <trkpt lat="43.47387" lon="3.48641">
        <ele>69</ele>
        <time>2012-01-29T13:29:09Z</time>
      </trkpt>
      <trkpt lat="43.47394" lon="3.48642">
        <ele>69</ele>
        <time>2012-01-29T13:29:14Z</time>
      </trkpt>
      <trkpt lat="43.47398" lon="3.48643">
        <ele>68</ele>
        <time>2012-01-29T13:29:17Z</time>
      </trkpt>
      <trkpt lat="43.47402" lon="3.48643">
        <ele>68</ele>
        <time>2012-01-29T13:29:20Z</time>
      </trkpt>
      <trkpt lat="43.47405" lon="3.48644">
        <ele>69</ele>
        <time>2012-01-29T13:29:23Z</time>
      </trkpt>
      <trkpt lat="43.47409" lon="3.48644">
        <ele>69</ele>
        <time>2012-01-29T13:29:26Z</time>
      </trkpt>
      <trkpt lat="43.47413" lon="3.48644">
        <ele>69</ele>
        <time>2012-01-29T13:29:29Z</time>
      </trkpt>
      <trkpt lat="43.47417" lon="3.48645">
        <ele>69</ele>
        <time>2012-01-29T13:29:32Z</time>
      </trkpt>
      <trkpt lat="43.4742" lon="3.48646">
        <ele>69</ele>
        <time>2012-01-29T13:29:35Z</time>
      </trkpt>
      <trkpt lat="43.47424" lon="3.48646">
        <ele>69</ele>
        <time>2012-01-29T13:29:38Z</time>
      </trkpt>
      <trkpt lat="43.47429" lon="3.48646">
        <ele>69</ele>
        <time>2012-01-29T13:29:42Z</time>
      </trkpt>
      <trkpt lat="43.47432" lon="3.48646">
        <ele>69</ele>
        <time>2012-01-29T13:29:45Z</time>
      </trkpt>
      <trkpt lat="43.47436" lon="3.48647">
        <ele>69</ele>
        <time>2012-01-29T13:29:48Z</time>
      </trkpt>
      <trkpt lat="43.47439" lon="3.48648">
        <ele>69</ele>
        <time>2012-01-29T13:29:51Z</time>
      </trkpt>
      <trkpt lat="43.47443" lon="3.48648">
        <ele>70</ele>
        <time>2012-01-29T13:29:54Z</time>
      </trkpt>
      <trkpt lat="43.47447" lon="3.48649">
        <ele>71</ele>
        <time>2012-01-29T13:29:58Z</time>
      </trkpt>
      <trkpt lat="43.47451" lon="3.4865">
        <ele>71</ele>
        <time>2012-01-29T13:30:01Z</time>
      </trkpt>
      <trkpt lat="43.47455" lon="3.4865">
        <ele>70</ele>
        <time>2012-01-29T13:30:05Z</time>
      </trkpt>
      <trkpt lat="43.47458" lon="3.48651">
        <ele>70</ele>
        <time>2012-01-29T13:30:09Z</time>
      </trkpt>
      <trkpt lat="43.47459" lon="3.48652">
        <ele>69</ele>
        <time>2012-01-29T13:30:10Z</time>
      </trkpt>
      <trkpt lat="43.47465" lon="3.48654">
        <ele>68</ele>
        <time>2012-01-29T13:30:16Z</time>
      </trkpt>
      <trkpt lat="43.4747" lon="3.48655">
        <ele>67</ele>
        <time>2012-01-29T13:30:20Z</time>
      </trkpt>
      <trkpt lat="43.47474" lon="3.48655">
        <ele>68</ele>
        <time>2012-01-29T13:30:24Z</time>
      </trkpt>
      <trkpt lat="43.47478" lon="3.48655">
        <ele>68</ele>
        <time>2012-01-29T13:30:27Z</time>
      </trkpt>
      <trkpt lat="43.47482" lon="3.48655">
        <ele>68</ele>
        <time>2012-01-29T13:30:31Z</time>
      </trkpt>
      <trkpt lat="43.47486" lon="3.48654">
        <ele>68</ele>
        <time>2012-01-29T13:30:35Z</time>
      </trkpt>
      <trkpt lat="43.4749" lon="3.48652">
        <ele>67</ele>
        <time>2012-01-29T13:30:39Z</time>
      </trkpt>
      <trkpt lat="43.47494" lon="3.4865">
        <ele>66</ele>
        <time>2012-01-29T13:30:42Z</time>
      </trkpt>
      <trkpt lat="43.47498" lon="3.48648">
        <ele>66</ele>
        <time>2012-01-29T13:30:45Z</time>
      </trkpt>
      <trkpt lat="43.47501" lon="3.48645">
        <ele>65</ele>
        <time>2012-01-29T13:30:49Z</time>
      </trkpt>
      <trkpt lat="43.47505" lon="3.48643">
        <ele>65</ele>
        <time>2012-01-29T13:30:53Z</time>
      </trkpt>
      <trkpt lat="43.47509" lon="3.4864">
        <ele>64</ele>
        <time>2012-01-29T13:30:57Z</time>
      </trkpt>
      <trkpt lat="43.47513" lon="3.48637">
        <ele>64</ele>
        <time>2012-01-29T13:31:00Z</time>
      </trkpt>
      <trkpt lat="43.47516" lon="3.48635">
        <ele>64</ele>
        <time>2012-01-29T13:31:03Z</time>
      </trkpt>
      <trkpt lat="43.4752" lon="3.48632">
        <ele>64</ele>
        <time>2012-01-29T13:31:06Z</time>
      </trkpt>
      <trkpt lat="43.47522" lon="3.48629">
        <ele>64</ele>
        <time>2012-01-29T13:31:08Z</time>
      </trkpt>
      <trkpt lat="43.47525" lon="3.48627">
        <ele>64</ele>
        <time>2012-01-29T13:31:10Z</time>
      </trkpt>
      <trkpt lat="43.47526" lon="3.48625">
        <ele>63</ele>
        <time>2012-01-29T13:31:11Z</time>
      </trkpt>
      <trkpt lat="43.4753" lon="3.48621">
        <ele>63</ele>
        <time>2012-01-29T13:31:14Z</time>
      </trkpt>
      <trkpt lat="43.47532" lon="3.48618">
        <ele>63</ele>
        <time>2012-01-29T13:31:16Z</time>
      </trkpt>
      <trkpt lat="43.47534" lon="3.48615">
        <ele>63</ele>
        <time>2012-01-29T13:31:18Z</time>
      </trkpt>
      <trkpt lat="43.47536" lon="3.48612">
        <ele>63</ele>
        <time>2012-01-29T13:31:20Z</time>
      </trkpt>
      <trkpt lat="43.47539" lon="3.48608">
        <ele>62</ele>
        <time>2012-01-29T13:31:23Z</time>
      </trkpt>
      <trkpt lat="43.47542" lon="3.48603">
        <ele>62</ele>
        <time>2012-01-29T13:31:26Z</time>
      </trkpt>
      <trkpt lat="43.47544" lon="3.48599">
        <ele>62</ele>
        <time>2012-01-29T13:31:29Z</time>
      </trkpt>
      <trkpt lat="43.47546" lon="3.48595">
        <ele>62</ele>
        <time>2012-01-29T13:31:32Z</time>
      </trkpt>
      <trkpt lat="43.47548" lon="3.48591">
        <ele>62</ele>
        <time>2012-01-29T13:31:35Z</time>
      </trkpt>
      <trkpt lat="43.47551" lon="3.48586">
        <ele>62</ele>
        <time>2012-01-29T13:31:39Z</time>
      </trkpt>
      <trkpt lat="43.47553" lon="3.48582">
        <ele>62</ele>
        <time>2012-01-29T13:31:42Z</time>
      </trkpt>
      <trkpt lat="43.47555" lon="3.48578">
        <ele>62</ele>
        <time>2012-01-29T13:31:45Z</time>
      </trkpt>
      <trkpt lat="43.47557" lon="3.48574">
        <ele>62</ele>
        <time>2012-01-29T13:31:48Z</time>
      </trkpt>
      <trkpt lat="43.4756" lon="3.4857">
        <ele>61</ele>
        <time>2012-01-29T13:31:51Z</time>
      </trkpt>
      <trkpt lat="43.47562" lon="3.48566">
        <ele>60</ele>
        <time>2012-01-29T13:31:54Z</time>
      </trkpt>
      <trkpt lat="43.47564" lon="3.48561">
        <ele>60</ele>
        <time>2012-01-29T13:31:57Z</time>
      </trkpt>
      <trkpt lat="43.47566" lon="3.48557">
        <ele>60</ele>
        <time>2012-01-29T13:32:00Z</time>
      </trkpt>
      <trkpt lat="43.47568" lon="3.48553">
        <ele>59</ele>
        <time>2012-01-29T13:32:03Z</time>
      </trkpt>
      <trkpt lat="43.4757" lon="3.48549">
        <ele>59</ele>
        <time>2012-01-29T13:32:06Z</time>
      </trkpt>
      <trkpt lat="43.47572" lon="3.48544">
        <ele>59</ele>
        <time>2012-01-29T13:32:09Z</time>
      </trkpt>
      <trkpt lat="43.47575" lon="3.4854">
        <ele>58</ele>
        <time>2012-01-29T13:32:12Z</time>
      </trkpt>
      <trkpt lat="43.47576" lon="3.48539">
        <ele>59</ele>
        <time>2012-01-29T13:32:13Z</time>
      </trkpt>
      <trkpt lat="43.47581" lon="3.48532">
        <ele>59</ele>
        <time>2012-01-29T13:32:18Z</time>
      </trkpt>
      <trkpt lat="43.47583" lon="3.48528">
        <ele>58</ele>
        <time>2012-01-29T13:32:21Z</time>
      </trkpt>
      <trkpt lat="43.47586" lon="3.48524">
        <ele>57</ele>
        <time>2012-01-29T13:32:24Z</time>
      </trkpt>
      <trkpt lat="43.47588" lon="3.4852">
        <ele>57</ele>
        <time>2012-01-29T13:32:27Z</time>
      </trkpt>
      <trkpt lat="43.47591" lon="3.48515">
        <ele>58</ele>
        <time>2012-01-29T13:32:31Z</time>
      </trkpt>
      <trkpt lat="43.47594" lon="3.48511">
        <ele>58</ele>
        <time>2012-01-29T13:32:35Z</time>
      </trkpt>
      <trkpt lat="43.47597" lon="3.48508">
        <ele>57</ele>
        <time>2012-01-29T13:32:39Z</time>
      </trkpt>
      <trkpt lat="43.47601" lon="3.48505">
        <ele>57</ele>
        <time>2012-01-29T13:32:44Z</time>
      </trkpt>
      <trkpt lat="43.47604" lon="3.48504">
        <ele>57</ele>
        <time>2012-01-29T13:32:48Z</time>
      </trkpt>
      <trkpt lat="43.47608" lon="3.48501">
        <ele>57</ele>
        <time>2012-01-29T13:32:53Z</time>
      </trkpt>
      <trkpt lat="43.47611" lon="3.48497">
        <ele>57</ele>
        <time>2012-01-29T13:32:57Z</time>
      </trkpt>
      <trkpt lat="43.47614" lon="3.48495">
        <ele>56</ele>
        <time>2012-01-29T13:33:00Z</time>
      </trkpt>
      <trkpt lat="43.47618" lon="3.48492">
        <ele>56</ele>
        <time>2012-01-29T13:33:04Z</time>
      </trkpt>
      <trkpt lat="43.47621" lon="3.48487">
        <ele>56</ele>
        <time>2012-01-29T13:33:08Z</time>
      </trkpt>
      <trkpt lat="43.47624" lon="3.48483">
        <ele>56</ele>
        <time>2012-01-29T13:33:12Z</time>
      </trkpt>
      <trkpt lat="43.47627" lon="3.48481">
        <ele>55</ele>
        <time>2012-01-29T13:33:15Z</time>
      </trkpt>
      <trkpt lat="43.47628" lon="3.4848">
        <ele>55</ele>
        <time>2012-01-29T13:33:16Z</time>
      </trkpt>
      <trkpt lat="43.47633" lon="3.48475">
        <ele>55</ele>
        <time>2012-01-29T13:33:21Z</time>
      </trkpt>
      <trkpt lat="43.47636" lon="3.48472">
        <ele>55</ele>
        <time>2012-01-29T13:33:24Z</time>
      </trkpt>
      <trkpt lat="43.47639" lon="3.48469">
        <ele>54</ele>
        <time>2012-01-29T13:33:27Z</time>
      </trkpt>
      <trkpt lat="43.47643" lon="3.48466">
        <ele>55</ele>
        <time>2012-01-29T13:33:31Z</time>
      </trkpt>
      <trkpt lat="43.47646" lon="3.48463">
        <ele>54</ele>
        <time>2012-01-29T13:33:34Z</time>
      </trkpt>
      <trkpt lat="43.47649" lon="3.4846">
        <ele>54</ele>
        <time>2012-01-29T13:33:37Z</time>
      </trkpt>
      <trkpt lat="43.47652" lon="3.48457">
        <ele>54</ele>
        <time>2012-01-29T13:33:40Z</time>
      </trkpt>
      <trkpt lat="43.47655" lon="3.48454">
        <ele>54</ele>
        <time>2012-01-29T13:33:43Z</time>
      </trkpt>
      <trkpt lat="43.47658" lon="3.48451">
        <ele>54</ele>
        <time>2012-01-29T13:33:46Z</time>
      </trkpt>
      <trkpt lat="43.47661" lon="3.48448">
        <ele>54</ele>
        <time>2012-01-29T13:33:49Z</time>
      </trkpt>
      <trkpt lat="43.47665" lon="3.48445">
        <ele>54</ele>
        <time>2012-01-29T13:33:52Z</time>
      </trkpt>
      <trkpt lat="43.47668" lon="3.48442">
        <ele>53</ele>
        <time>2012-01-29T13:33:55Z</time>
      </trkpt>
      <trkpt lat="43.47671" lon="3.48439">
        <ele>53</ele>
        <time>2012-01-29T13:33:58Z</time>
      </trkpt>
      <trkpt lat="43.47675" lon="3.48437">
        <ele>53</ele>
        <time>2012-01-29T13:34:01Z</time>
      </trkpt>
      <trkpt lat="43.47678" lon="3.48434">
        <ele>55</ele>
        <time>2012-01-29T13:34:21Z</time>
      </trkpt>
      <trkpt lat="43.47678" lon="3.48434">
        <ele>55</ele>
        <time>2012-01-29T13:34:21Z</time>
      </trkpt>
    </trkseg>
  </trk>
</gpx>